<?xml version="1.0" encoding="UTF-8" standalone="no" ?>
<gpx xmlns="http://www.topografix.com/GPX/1/1" xmlns:xsi="http://www.w3.org/2001/XMLSchema-instance" xsi:schemaLocation="http://www.topografix.com/GPX/1/1 http://www.topografix.com/GPX/1/1/gpx.xsd" version="1.1" creator="VisuGPX - https://www.visugpx.com">
  <metadata>
    <name>L'orsaler 53km 2026</name>
  </metadata>
  <trk>
    <name><![CDATA[Trace 1783228635000]]></name>
    <trkseg>
      <trkpt lat="42.98833" lon="1.13908">
        <ele>437</ele>
        <time>2026-07-05T05:17:15.000Z</time>
      </trkpt>
      <trkpt lat="42.98836" lon="1.13906">
        <ele>438</ele>
        <time>2026-07-05T05:17:38.000Z</time>
      </trkpt>
      <trkpt lat="42.98836" lon="1.13904">
        <ele>438</ele>
        <time>2026-07-05T05:17:43.000Z</time>
      </trkpt>
      <trkpt lat="42.98836" lon="1.13903">
        <ele>437</ele>
        <time>2026-07-05T05:18:08.000Z</time>
      </trkpt>
      <trkpt lat="42.98837" lon="1.139">
        <ele>432</ele>
        <time>2026-07-05T05:19:14.000Z</time>
      </trkpt>
      <trkpt lat="42.98837" lon="1.13901">
        <ele>431</ele>
        <time>2026-07-05T05:19:19.000Z</time>
      </trkpt>
      <trkpt lat="42.98838" lon="1.13904">
        <ele>432</ele>
        <time>2026-07-05T05:19:24.000Z</time>
      </trkpt>
      <trkpt lat="42.98838" lon="1.13904">
        <ele>434</ele>
        <time>2026-07-05T05:19:49.000Z</time>
      </trkpt>
      <trkpt lat="42.98837" lon="1.1391">
        <ele>437</ele>
        <time>2026-07-05T05:20:23.000Z</time>
      </trkpt>
      <trkpt lat="42.98837" lon="1.13912">
        <ele>440</ele>
        <time>2026-07-05T05:20:53.000Z</time>
      </trkpt>
      <trkpt lat="42.98835" lon="1.13914">
        <ele>441</ele>
        <time>2026-07-05T05:20:58.000Z</time>
      </trkpt>
      <trkpt lat="42.98838" lon="1.13911">
        <ele>440</ele>
        <time>2026-07-05T05:21:45.000Z</time>
      </trkpt>
      <trkpt lat="42.9884" lon="1.1391">
        <ele>440</ele>
        <time>2026-07-05T05:21:50.000Z</time>
      </trkpt>
      <trkpt lat="42.98838" lon="1.1391">
        <ele>438</ele>
        <time>2026-07-05T05:22:49.000Z</time>
      </trkpt>
      <trkpt lat="42.98837" lon="1.13911">
        <ele>437</ele>
        <time>2026-07-05T05:22:54.000Z</time>
      </trkpt>
      <trkpt lat="42.98836" lon="1.13907">
        <ele>438</ele>
        <time>2026-07-05T05:23:15.000Z</time>
      </trkpt>
      <trkpt lat="42.98835" lon="1.13908">
        <ele>437</ele>
        <time>2026-07-05T05:23:20.000Z</time>
      </trkpt>
      <trkpt lat="42.98835" lon="1.13903">
        <ele>436</ele>
        <time>2026-07-05T05:23:25.000Z</time>
      </trkpt>
      <trkpt lat="42.98834" lon="1.13906">
        <ele>435</ele>
        <time>2026-07-05T05:25:15.000Z</time>
      </trkpt>
      <trkpt lat="42.98835" lon="1.13908">
        <ele>436</ele>
        <time>2026-07-05T05:25:31.000Z</time>
      </trkpt>
      <trkpt lat="42.98836" lon="1.13908">
        <ele>441</ele>
        <time>2026-07-05T05:27:25.000Z</time>
      </trkpt>
      <trkpt lat="42.98836" lon="1.13917">
        <ele>441</ele>
        <time>2026-07-05T05:27:30.000Z</time>
      </trkpt>
      <trkpt lat="42.98843" lon="1.13924">
        <ele>442</ele>
        <time>2026-07-05T05:27:35.000Z</time>
      </trkpt>
      <trkpt lat="42.98847" lon="1.13917">
        <ele>443</ele>
        <time>2026-07-05T05:27:40.000Z</time>
      </trkpt>
      <trkpt lat="42.98841" lon="1.13926">
        <ele>442</ele>
        <time>2026-07-05T05:27:45.000Z</time>
      </trkpt>
      <trkpt lat="42.98846" lon="1.1393">
        <ele>442</ele>
        <time>2026-07-05T05:27:50.000Z</time>
      </trkpt>
      <trkpt lat="42.98847" lon="1.13912">
        <ele>444</ele>
        <time>2026-07-05T05:27:55.000Z</time>
      </trkpt>
      <trkpt lat="42.98844" lon="1.1389">
        <ele>443</ele>
        <time>2026-07-05T05:28:00.000Z</time>
      </trkpt>
      <trkpt lat="42.98839" lon="1.1387">
        <ele>445</ele>
        <time>2026-07-05T05:28:05.000Z</time>
      </trkpt>
      <trkpt lat="42.98837" lon="1.13878">
        <ele>445</ele>
        <time>2026-07-05T05:28:10.000Z</time>
      </trkpt>
      <trkpt lat="42.98842" lon="1.13861">
        <ele>444</ele>
        <time>2026-07-05T05:28:15.000Z</time>
      </trkpt>
      <trkpt lat="42.98827" lon="1.13867">
        <ele>443</ele>
        <time>2026-07-05T05:28:20.000Z</time>
      </trkpt>
      <trkpt lat="42.9882" lon="1.1388">
        <ele>442</ele>
        <time>2026-07-05T05:28:25.000Z</time>
      </trkpt>
      <trkpt lat="42.98827" lon="1.13873">
        <ele>443</ele>
        <time>2026-07-05T05:28:30.000Z</time>
      </trkpt>
      <trkpt lat="42.98841" lon="1.13882">
        <ele>443</ele>
        <time>2026-07-05T05:28:35.000Z</time>
      </trkpt>
      <trkpt lat="42.98843" lon="1.13869">
        <ele>444</ele>
        <time>2026-07-05T05:28:40.000Z</time>
      </trkpt>
      <trkpt lat="42.98831" lon="1.13869">
        <ele>444</ele>
        <time>2026-07-05T05:28:45.000Z</time>
      </trkpt>
      <trkpt lat="42.98841" lon="1.1388">
        <ele>444</ele>
        <time>2026-07-05T05:28:50.000Z</time>
      </trkpt>
      <trkpt lat="42.98842" lon="1.13863">
        <ele>444</ele>
        <time>2026-07-05T05:28:55.000Z</time>
      </trkpt>
      <trkpt lat="42.98836" lon="1.13877">
        <ele>444</ele>
        <time>2026-07-05T05:29:00.000Z</time>
      </trkpt>
      <trkpt lat="42.9884" lon="1.13884">
        <ele>443</ele>
        <time>2026-07-05T05:29:05.000Z</time>
      </trkpt>
      <trkpt lat="42.98841" lon="1.13884">
        <ele>443</ele>
        <time>2026-07-05T05:29:10.000Z</time>
      </trkpt>
      <trkpt lat="42.98844" lon="1.1388">
        <ele>444</ele>
        <time>2026-07-05T05:29:15.000Z</time>
      </trkpt>
      <trkpt lat="42.98842" lon="1.13877">
        <ele>443</ele>
        <time>2026-07-05T05:29:20.000Z</time>
      </trkpt>
      <trkpt lat="42.98847" lon="1.13895">
        <ele>442</ele>
        <time>2026-07-05T05:29:25.000Z</time>
      </trkpt>
      <trkpt lat="42.98846" lon="1.13915">
        <ele>442</ele>
        <time>2026-07-05T05:29:30.000Z</time>
      </trkpt>
      <trkpt lat="42.98838" lon="1.1393">
        <ele>443</ele>
        <time>2026-07-05T05:29:35.000Z</time>
      </trkpt>
      <trkpt lat="42.9885" lon="1.13933">
        <ele>442</ele>
        <time>2026-07-05T05:29:40.000Z</time>
      </trkpt>
      <trkpt lat="42.98844" lon="1.13927">
        <ele>442</ele>
        <time>2026-07-05T05:29:45.000Z</time>
      </trkpt>
      <trkpt lat="42.98839" lon="1.13923">
        <ele>443</ele>
        <time>2026-07-05T05:29:50.000Z</time>
      </trkpt>
      <trkpt lat="42.98845" lon="1.13922">
        <ele>443</ele>
        <time>2026-07-05T05:29:55.000Z</time>
      </trkpt>
      <trkpt lat="42.98848" lon="1.1391">
        <ele>443</ele>
        <time>2026-07-05T05:30:00.000Z</time>
      </trkpt>
      <trkpt lat="42.98846" lon="1.13898">
        <ele>443</ele>
        <time>2026-07-05T05:30:05.000Z</time>
      </trkpt>
      <trkpt lat="42.98843" lon="1.13886">
        <ele>444</ele>
        <time>2026-07-05T05:30:10.000Z</time>
      </trkpt>
      <trkpt lat="42.98842" lon="1.13868">
        <ele>444</ele>
        <time>2026-07-05T05:30:15.000Z</time>
      </trkpt>
      <trkpt lat="42.98846" lon="1.13855">
        <ele>444</ele>
        <time>2026-07-05T05:30:20.000Z</time>
      </trkpt>
      <trkpt lat="42.98853" lon="1.13844">
        <ele>444</ele>
        <time>2026-07-05T05:30:25.000Z</time>
      </trkpt>
      <trkpt lat="42.98871" lon="1.13837">
        <ele>443</ele>
        <time>2026-07-05T05:30:30.000Z</time>
      </trkpt>
      <trkpt lat="42.98891" lon="1.13828">
        <ele>442</ele>
        <time>2026-07-05T05:30:35.000Z</time>
      </trkpt>
      <trkpt lat="42.98912" lon="1.13823">
        <ele>443</ele>
        <time>2026-07-05T05:30:40.000Z</time>
      </trkpt>
      <trkpt lat="42.98932" lon="1.13818">
        <ele>443</ele>
        <time>2026-07-05T05:30:45.000Z</time>
      </trkpt>
      <trkpt lat="42.98952" lon="1.13813">
        <ele>441</ele>
        <time>2026-07-05T05:30:50.000Z</time>
      </trkpt>
      <trkpt lat="42.98972" lon="1.13808">
        <ele>439</ele>
        <time>2026-07-05T05:30:55.000Z</time>
      </trkpt>
      <trkpt lat="42.98993" lon="1.13803">
        <ele>439</ele>
        <time>2026-07-05T05:31:00.000Z</time>
      </trkpt>
      <trkpt lat="42.99014" lon="1.13797">
        <ele>438</ele>
        <time>2026-07-05T05:31:05.000Z</time>
      </trkpt>
      <trkpt lat="42.99039" lon="1.13794">
        <ele>439</ele>
        <time>2026-07-05T05:31:10.000Z</time>
      </trkpt>
      <trkpt lat="42.99063" lon="1.13791">
        <ele>440</ele>
        <time>2026-07-05T05:31:15.000Z</time>
      </trkpt>
      <trkpt lat="42.99087" lon="1.13789">
        <ele>439</ele>
        <time>2026-07-05T05:31:20.000Z</time>
      </trkpt>
      <trkpt lat="42.99111" lon="1.13784">
        <ele>439</ele>
        <time>2026-07-05T05:31:25.000Z</time>
      </trkpt>
      <trkpt lat="42.99137" lon="1.13781">
        <ele>438</ele>
        <time>2026-07-05T05:31:30.000Z</time>
      </trkpt>
      <trkpt lat="42.9916" lon="1.13769">
        <ele>439</ele>
        <time>2026-07-05T05:31:35.000Z</time>
      </trkpt>
      <trkpt lat="42.9918" lon="1.13751">
        <ele>439</ele>
        <time>2026-07-05T05:31:40.000Z</time>
      </trkpt>
      <trkpt lat="42.99203" lon="1.13741">
        <ele>439</ele>
        <time>2026-07-05T05:31:45.000Z</time>
      </trkpt>
      <trkpt lat="42.99226" lon="1.13733">
        <ele>438</ele>
        <time>2026-07-05T05:31:50.000Z</time>
      </trkpt>
      <trkpt lat="42.99252" lon="1.13723">
        <ele>438</ele>
        <time>2026-07-05T05:31:55.000Z</time>
      </trkpt>
      <trkpt lat="42.99278" lon="1.13712">
        <ele>438</ele>
        <time>2026-07-05T05:32:00.000Z</time>
      </trkpt>
      <trkpt lat="42.99304" lon="1.13701">
        <ele>437</ele>
        <time>2026-07-05T05:32:05.000Z</time>
      </trkpt>
      <trkpt lat="42.99331" lon="1.13692">
        <ele>438</ele>
        <time>2026-07-05T05:32:10.000Z</time>
      </trkpt>
      <trkpt lat="42.99359" lon="1.13682">
        <ele>440</ele>
        <time>2026-07-05T05:32:15.000Z</time>
      </trkpt>
      <trkpt lat="42.99385" lon="1.13671">
        <ele>440</ele>
        <time>2026-07-05T05:32:20.000Z</time>
      </trkpt>
      <trkpt lat="42.99412" lon="1.13661">
        <ele>439</ele>
        <time>2026-07-05T05:32:25.000Z</time>
      </trkpt>
      <trkpt lat="42.99439" lon="1.1365">
        <ele>438</ele>
        <time>2026-07-05T05:32:30.000Z</time>
      </trkpt>
      <trkpt lat="42.99467" lon="1.13639">
        <ele>437</ele>
        <time>2026-07-05T05:32:35.000Z</time>
      </trkpt>
      <trkpt lat="42.99495" lon="1.13632">
        <ele>436</ele>
        <time>2026-07-05T05:32:40.000Z</time>
      </trkpt>
      <trkpt lat="42.99524" lon="1.13623">
        <ele>437</ele>
        <time>2026-07-05T05:32:45.000Z</time>
      </trkpt>
      <trkpt lat="42.99554" lon="1.13617">
        <ele>436</ele>
        <time>2026-07-05T05:32:50.000Z</time>
      </trkpt>
      <trkpt lat="42.99582" lon="1.1361">
        <ele>435</ele>
        <time>2026-07-05T05:32:55.000Z</time>
      </trkpt>
      <trkpt lat="42.99609" lon="1.13604">
        <ele>435</ele>
        <time>2026-07-05T05:33:00.000Z</time>
      </trkpt>
      <trkpt lat="42.99638" lon="1.13596">
        <ele>435</ele>
        <time>2026-07-05T05:33:05.000Z</time>
      </trkpt>
      <trkpt lat="42.99668" lon="1.13584">
        <ele>434</ele>
        <time>2026-07-05T05:33:10.000Z</time>
      </trkpt>
      <trkpt lat="42.99698" lon="1.13571">
        <ele>435</ele>
        <time>2026-07-05T05:33:15.000Z</time>
      </trkpt>
      <trkpt lat="42.99727" lon="1.13557">
        <ele>436</ele>
        <time>2026-07-05T05:33:20.000Z</time>
      </trkpt>
      <trkpt lat="42.99756" lon="1.13542">
        <ele>437</ele>
        <time>2026-07-05T05:33:25.000Z</time>
      </trkpt>
      <trkpt lat="42.99786" lon="1.13527">
        <ele>437</ele>
        <time>2026-07-05T05:33:30.000Z</time>
      </trkpt>
      <trkpt lat="42.99815" lon="1.13514">
        <ele>436</ele>
        <time>2026-07-05T05:33:35.000Z</time>
      </trkpt>
      <trkpt lat="42.99841" lon="1.13501">
        <ele>437</ele>
        <time>2026-07-05T05:33:40.000Z</time>
      </trkpt>
      <trkpt lat="42.99867" lon="1.1349">
        <ele>436</ele>
        <time>2026-07-05T05:33:45.000Z</time>
      </trkpt>
      <trkpt lat="42.99893" lon="1.13481">
        <ele>435</ele>
        <time>2026-07-05T05:33:50.000Z</time>
      </trkpt>
      <trkpt lat="42.99912" lon="1.13473">
        <ele>435</ele>
        <time>2026-07-05T05:33:55.000Z</time>
      </trkpt>
      <trkpt lat="42.99902" lon="1.13468">
        <ele>435</ele>
        <time>2026-07-05T05:34:00.000Z</time>
      </trkpt>
      <trkpt lat="42.99878" lon="1.13473">
        <ele>434</ele>
        <time>2026-07-05T05:34:05.000Z</time>
      </trkpt>
      <trkpt lat="42.99857" lon="1.13473">
        <ele>436</ele>
        <time>2026-07-05T05:34:10.000Z</time>
      </trkpt>
      <trkpt lat="42.9984" lon="1.13468">
        <ele>437</ele>
        <time>2026-07-05T05:34:15.000Z</time>
      </trkpt>
      <trkpt lat="42.99824" lon="1.13462">
        <ele>439</ele>
        <time>2026-07-05T05:34:20.000Z</time>
      </trkpt>
      <trkpt lat="42.9981" lon="1.13455">
        <ele>440</ele>
        <time>2026-07-05T05:34:25.000Z</time>
      </trkpt>
      <trkpt lat="42.99797" lon="1.1345">
        <ele>443</ele>
        <time>2026-07-05T05:34:30.000Z</time>
      </trkpt>
      <trkpt lat="42.99788" lon="1.13444">
        <ele>444</ele>
        <time>2026-07-05T05:34:35.000Z</time>
      </trkpt>
      <trkpt lat="42.99781" lon="1.13446">
        <ele>446</ele>
        <time>2026-07-05T05:34:40.000Z</time>
      </trkpt>
      <trkpt lat="42.99774" lon="1.13452">
        <ele>446</ele>
        <time>2026-07-05T05:34:45.000Z</time>
      </trkpt>
      <trkpt lat="42.99762" lon="1.13456">
        <ele>448</ele>
        <time>2026-07-05T05:34:50.000Z</time>
      </trkpt>
      <trkpt lat="42.99755" lon="1.13455">
        <ele>452</ele>
        <time>2026-07-05T05:34:55.000Z</time>
      </trkpt>
      <trkpt lat="42.99744" lon="1.13449">
        <ele>454</ele>
        <time>2026-07-05T05:35:00.000Z</time>
      </trkpt>
      <trkpt lat="42.99733" lon="1.13443">
        <ele>458</ele>
        <time>2026-07-05T05:35:05.000Z</time>
      </trkpt>
      <trkpt lat="42.99723" lon="1.13436">
        <ele>460</ele>
        <time>2026-07-05T05:35:10.000Z</time>
      </trkpt>
      <trkpt lat="42.99713" lon="1.13431">
        <ele>463</ele>
        <time>2026-07-05T05:35:15.000Z</time>
      </trkpt>
      <trkpt lat="42.99699" lon="1.13424">
        <ele>463</ele>
        <time>2026-07-05T05:35:20.000Z</time>
      </trkpt>
      <trkpt lat="42.99683" lon="1.13417">
        <ele>462</ele>
        <time>2026-07-05T05:35:25.000Z</time>
      </trkpt>
      <trkpt lat="42.99669" lon="1.13411">
        <ele>462</ele>
        <time>2026-07-05T05:35:30.000Z</time>
      </trkpt>
      <trkpt lat="42.99656" lon="1.13416">
        <ele>462</ele>
        <time>2026-07-05T05:35:35.000Z</time>
      </trkpt>
      <trkpt lat="42.99643" lon="1.13423">
        <ele>461</ele>
        <time>2026-07-05T05:35:40.000Z</time>
      </trkpt>
      <trkpt lat="42.99627" lon="1.13433">
        <ele>460</ele>
        <time>2026-07-05T05:35:45.000Z</time>
      </trkpt>
      <trkpt lat="42.99611" lon="1.13438">
        <ele>461</ele>
        <time>2026-07-05T05:35:50.000Z</time>
      </trkpt>
      <trkpt lat="42.99596" lon="1.13441">
        <ele>462</ele>
        <time>2026-07-05T05:35:55.000Z</time>
      </trkpt>
      <trkpt lat="42.99581" lon="1.13446">
        <ele>462</ele>
        <time>2026-07-05T05:36:00.000Z</time>
      </trkpt>
      <trkpt lat="42.99563" lon="1.1345">
        <ele>463</ele>
        <time>2026-07-05T05:36:05.000Z</time>
      </trkpt>
      <trkpt lat="42.99545" lon="1.13452">
        <ele>465</ele>
        <time>2026-07-05T05:36:10.000Z</time>
      </trkpt>
      <trkpt lat="42.99527" lon="1.13454">
        <ele>466</ele>
        <time>2026-07-05T05:36:15.000Z</time>
      </trkpt>
      <trkpt lat="42.99511" lon="1.13463">
        <ele>465</ele>
        <time>2026-07-05T05:36:20.000Z</time>
      </trkpt>
      <trkpt lat="42.99495" lon="1.13474">
        <ele>465</ele>
        <time>2026-07-05T05:36:25.000Z</time>
      </trkpt>
      <trkpt lat="42.99476" lon="1.13482">
        <ele>465</ele>
        <time>2026-07-05T05:36:30.000Z</time>
      </trkpt>
      <trkpt lat="42.99456" lon="1.13482">
        <ele>466</ele>
        <time>2026-07-05T05:36:35.000Z</time>
      </trkpt>
      <trkpt lat="42.99438" lon="1.13482">
        <ele>463</ele>
        <time>2026-07-05T05:36:40.000Z</time>
      </trkpt>
      <trkpt lat="42.99419" lon="1.1348">
        <ele>463</ele>
        <time>2026-07-05T05:36:45.000Z</time>
      </trkpt>
      <trkpt lat="42.99398" lon="1.13477">
        <ele>463</ele>
        <time>2026-07-05T05:36:50.000Z</time>
      </trkpt>
      <trkpt lat="42.99376" lon="1.13469">
        <ele>462</ele>
        <time>2026-07-05T05:36:55.000Z</time>
      </trkpt>
      <trkpt lat="42.99355" lon="1.13448">
        <ele>461</ele>
        <time>2026-07-05T05:37:00.000Z</time>
      </trkpt>
      <trkpt lat="42.99334" lon="1.13426">
        <ele>459</ele>
        <time>2026-07-05T05:37:05.000Z</time>
      </trkpt>
      <trkpt lat="42.99311" lon="1.13412">
        <ele>459</ele>
        <time>2026-07-05T05:37:10.000Z</time>
      </trkpt>
      <trkpt lat="42.99289" lon="1.13406">
        <ele>459</ele>
        <time>2026-07-05T05:37:15.000Z</time>
      </trkpt>
      <trkpt lat="42.99264" lon="1.13402">
        <ele>460</ele>
        <time>2026-07-05T05:37:20.000Z</time>
      </trkpt>
      <trkpt lat="42.99242" lon="1.13398">
        <ele>460</ele>
        <time>2026-07-05T05:37:25.000Z</time>
      </trkpt>
      <trkpt lat="42.99219" lon="1.13387">
        <ele>460</ele>
        <time>2026-07-05T05:37:30.000Z</time>
      </trkpt>
      <trkpt lat="42.99195" lon="1.13375">
        <ele>459</ele>
        <time>2026-07-05T05:37:35.000Z</time>
      </trkpt>
      <trkpt lat="42.99171" lon="1.13362">
        <ele>459</ele>
        <time>2026-07-05T05:37:40.000Z</time>
      </trkpt>
      <trkpt lat="42.9915" lon="1.13354">
        <ele>459</ele>
        <time>2026-07-05T05:37:45.000Z</time>
      </trkpt>
      <trkpt lat="42.99127" lon="1.1335">
        <ele>460</ele>
        <time>2026-07-05T05:37:50.000Z</time>
      </trkpt>
      <trkpt lat="42.99106" lon="1.13353">
        <ele>461</ele>
        <time>2026-07-05T05:37:55.000Z</time>
      </trkpt>
      <trkpt lat="42.99086" lon="1.13357">
        <ele>461</ele>
        <time>2026-07-05T05:38:00.000Z</time>
      </trkpt>
      <trkpt lat="42.99067" lon="1.1336">
        <ele>462</ele>
        <time>2026-07-05T05:38:05.000Z</time>
      </trkpt>
      <trkpt lat="42.99048" lon="1.13363">
        <ele>462</ele>
        <time>2026-07-05T05:38:10.000Z</time>
      </trkpt>
      <trkpt lat="42.99029" lon="1.13365">
        <ele>464</ele>
        <time>2026-07-05T05:38:15.000Z</time>
      </trkpt>
      <trkpt lat="42.9901" lon="1.13366">
        <ele>465</ele>
        <time>2026-07-05T05:38:20.000Z</time>
      </trkpt>
      <trkpt lat="42.98992" lon="1.13366">
        <ele>466</ele>
        <time>2026-07-05T05:38:25.000Z</time>
      </trkpt>
      <trkpt lat="42.9897" lon="1.13365">
        <ele>466</ele>
        <time>2026-07-05T05:38:30.000Z</time>
      </trkpt>
      <trkpt lat="42.98947" lon="1.13361">
        <ele>466</ele>
        <time>2026-07-05T05:38:35.000Z</time>
      </trkpt>
      <trkpt lat="42.98947" lon="1.1334">
        <ele>467</ele>
        <time>2026-07-05T05:38:40.000Z</time>
      </trkpt>
      <trkpt lat="42.98955" lon="1.13319">
        <ele>468</ele>
        <time>2026-07-05T05:38:45.000Z</time>
      </trkpt>
      <trkpt lat="42.98964" lon="1.133">
        <ele>470</ele>
        <time>2026-07-05T05:38:50.000Z</time>
      </trkpt>
      <trkpt lat="42.98973" lon="1.13281">
        <ele>472</ele>
        <time>2026-07-05T05:38:55.000Z</time>
      </trkpt>
      <trkpt lat="42.98984" lon="1.13262">
        <ele>473</ele>
        <time>2026-07-05T05:39:00.000Z</time>
      </trkpt>
      <trkpt lat="42.98994" lon="1.13244">
        <ele>474</ele>
        <time>2026-07-05T05:39:05.000Z</time>
      </trkpt>
      <trkpt lat="42.99004" lon="1.13226">
        <ele>475</ele>
        <time>2026-07-05T05:39:10.000Z</time>
      </trkpt>
      <trkpt lat="42.99014" lon="1.13209">
        <ele>476</ele>
        <time>2026-07-05T05:39:15.000Z</time>
      </trkpt>
      <trkpt lat="42.99022" lon="1.1319">
        <ele>479</ele>
        <time>2026-07-05T05:39:20.000Z</time>
      </trkpt>
      <trkpt lat="42.99029" lon="1.1317">
        <ele>480</ele>
        <time>2026-07-05T05:39:25.000Z</time>
      </trkpt>
      <trkpt lat="42.99036" lon="1.13151">
        <ele>480</ele>
        <time>2026-07-05T05:39:30.000Z</time>
      </trkpt>
      <trkpt lat="42.99041" lon="1.13133">
        <ele>483</ele>
        <time>2026-07-05T05:39:35.000Z</time>
      </trkpt>
      <trkpt lat="42.99051" lon="1.13114">
        <ele>485</ele>
        <time>2026-07-05T05:39:40.000Z</time>
      </trkpt>
      <trkpt lat="42.99057" lon="1.13099">
        <ele>488</ele>
        <time>2026-07-05T05:39:45.000Z</time>
      </trkpt>
      <trkpt lat="42.99061" lon="1.13085">
        <ele>490</ele>
        <time>2026-07-05T05:39:50.000Z</time>
      </trkpt>
      <trkpt lat="42.99068" lon="1.13068">
        <ele>493</ele>
        <time>2026-07-05T05:39:55.000Z</time>
      </trkpt>
      <trkpt lat="42.99075" lon="1.13057">
        <ele>498</ele>
        <time>2026-07-05T05:40:00.000Z</time>
      </trkpt>
      <trkpt lat="42.99082" lon="1.13047">
        <ele>504</ele>
        <time>2026-07-05T05:40:05.000Z</time>
      </trkpt>
      <trkpt lat="42.99088" lon="1.13034">
        <ele>508</ele>
        <time>2026-07-05T05:40:10.000Z</time>
      </trkpt>
      <trkpt lat="42.99095" lon="1.13019">
        <ele>508</ele>
        <time>2026-07-05T05:40:15.000Z</time>
      </trkpt>
      <trkpt lat="42.99102" lon="1.13004">
        <ele>508</ele>
        <time>2026-07-05T05:40:20.000Z</time>
      </trkpt>
      <trkpt lat="42.99108" lon="1.12989">
        <ele>507</ele>
        <time>2026-07-05T05:40:25.000Z</time>
      </trkpt>
      <trkpt lat="42.99114" lon="1.12976">
        <ele>510</ele>
        <time>2026-07-05T05:40:30.000Z</time>
      </trkpt>
      <trkpt lat="42.9912" lon="1.12959">
        <ele>509</ele>
        <time>2026-07-05T05:40:35.000Z</time>
      </trkpt>
      <trkpt lat="42.99124" lon="1.12944">
        <ele>510</ele>
        <time>2026-07-05T05:40:40.000Z</time>
      </trkpt>
      <trkpt lat="42.99128" lon="1.12929">
        <ele>512</ele>
        <time>2026-07-05T05:40:45.000Z</time>
      </trkpt>
      <trkpt lat="42.99132" lon="1.12914">
        <ele>511</ele>
        <time>2026-07-05T05:40:50.000Z</time>
      </trkpt>
      <trkpt lat="42.99136" lon="1.12897">
        <ele>513</ele>
        <time>2026-07-05T05:40:55.000Z</time>
      </trkpt>
      <trkpt lat="42.99142" lon="1.12881">
        <ele>514</ele>
        <time>2026-07-05T05:41:00.000Z</time>
      </trkpt>
      <trkpt lat="42.99148" lon="1.12864">
        <ele>515</ele>
        <time>2026-07-05T05:41:05.000Z</time>
      </trkpt>
      <trkpt lat="42.99154" lon="1.12848">
        <ele>514</ele>
        <time>2026-07-05T05:41:10.000Z</time>
      </trkpt>
      <trkpt lat="42.99159" lon="1.12831">
        <ele>513</ele>
        <time>2026-07-05T05:41:15.000Z</time>
      </trkpt>
      <trkpt lat="42.99168" lon="1.12808">
        <ele>512</ele>
        <time>2026-07-05T05:41:20.000Z</time>
      </trkpt>
      <trkpt lat="42.99172" lon="1.12794">
        <ele>511</ele>
        <time>2026-07-05T05:41:25.000Z</time>
      </trkpt>
      <trkpt lat="42.99171" lon="1.12791">
        <ele>512</ele>
        <time>2026-07-05T05:41:30.000Z</time>
      </trkpt>
      <trkpt lat="42.99169" lon="1.12779">
        <ele>513</ele>
        <time>2026-07-05T05:41:35.000Z</time>
      </trkpt>
      <trkpt lat="42.99166" lon="1.1276">
        <ele>515</ele>
        <time>2026-07-05T05:41:40.000Z</time>
      </trkpt>
      <trkpt lat="42.99157" lon="1.12751">
        <ele>516</ele>
        <time>2026-07-05T05:41:45.000Z</time>
      </trkpt>
      <trkpt lat="42.99147" lon="1.12746">
        <ele>517</ele>
        <time>2026-07-05T05:41:50.000Z</time>
      </trkpt>
      <trkpt lat="42.99139" lon="1.12744">
        <ele>518</ele>
        <time>2026-07-05T05:41:55.000Z</time>
      </trkpt>
      <trkpt lat="42.9913" lon="1.12741">
        <ele>519</ele>
        <time>2026-07-05T05:42:00.000Z</time>
      </trkpt>
      <trkpt lat="42.99122" lon="1.12737">
        <ele>522</ele>
        <time>2026-07-05T05:42:05.000Z</time>
      </trkpt>
      <trkpt lat="42.99116" lon="1.1273">
        <ele>526</ele>
        <time>2026-07-05T05:42:10.000Z</time>
      </trkpt>
      <trkpt lat="42.99109" lon="1.12727">
        <ele>527</ele>
        <time>2026-07-05T05:42:15.000Z</time>
      </trkpt>
      <trkpt lat="42.99102" lon="1.12727">
        <ele>527</ele>
        <time>2026-07-05T05:42:20.000Z</time>
      </trkpt>
      <trkpt lat="42.99091" lon="1.12728">
        <ele>529</ele>
        <time>2026-07-05T05:42:25.000Z</time>
      </trkpt>
      <trkpt lat="42.99082" lon="1.12725">
        <ele>531</ele>
        <time>2026-07-05T05:42:30.000Z</time>
      </trkpt>
      <trkpt lat="42.99075" lon="1.12723">
        <ele>534</ele>
        <time>2026-07-05T05:42:35.000Z</time>
      </trkpt>
      <trkpt lat="42.99067" lon="1.12721">
        <ele>535</ele>
        <time>2026-07-05T05:42:40.000Z</time>
      </trkpt>
      <trkpt lat="42.99059" lon="1.12716">
        <ele>536</ele>
        <time>2026-07-05T05:42:45.000Z</time>
      </trkpt>
      <trkpt lat="42.99049" lon="1.12706">
        <ele>541</ele>
        <time>2026-07-05T05:42:50.000Z</time>
      </trkpt>
      <trkpt lat="42.99036" lon="1.12694">
        <ele>540</ele>
        <time>2026-07-05T05:42:55.000Z</time>
      </trkpt>
      <trkpt lat="42.9902" lon="1.12681">
        <ele>536</ele>
        <time>2026-07-05T05:43:00.000Z</time>
      </trkpt>
      <trkpt lat="42.99005" lon="1.12671">
        <ele>536</ele>
        <time>2026-07-05T05:43:05.000Z</time>
      </trkpt>
      <trkpt lat="42.98992" lon="1.12663">
        <ele>534</ele>
        <time>2026-07-05T05:43:10.000Z</time>
      </trkpt>
      <trkpt lat="42.9899" lon="1.1265">
        <ele>537</ele>
        <time>2026-07-05T05:43:15.000Z</time>
      </trkpt>
      <trkpt lat="42.98984" lon="1.1264">
        <ele>539</ele>
        <time>2026-07-05T05:43:20.000Z</time>
      </trkpt>
      <trkpt lat="42.98981" lon="1.12633">
        <ele>541</ele>
        <time>2026-07-05T05:43:25.000Z</time>
      </trkpt>
      <trkpt lat="42.98982" lon="1.12616">
        <ele>539</ele>
        <time>2026-07-05T05:43:30.000Z</time>
      </trkpt>
      <trkpt lat="42.9899" lon="1.12601">
        <ele>535</ele>
        <time>2026-07-05T05:43:35.000Z</time>
      </trkpt>
      <trkpt lat="42.98989" lon="1.12584">
        <ele>534</ele>
        <time>2026-07-05T05:43:40.000Z</time>
      </trkpt>
      <trkpt lat="42.98975" lon="1.12568">
        <ele>532</ele>
        <time>2026-07-05T05:43:45.000Z</time>
      </trkpt>
      <trkpt lat="42.98962" lon="1.12557">
        <ele>531</ele>
        <time>2026-07-05T05:43:50.000Z</time>
      </trkpt>
      <trkpt lat="42.98948" lon="1.12546">
        <ele>529</ele>
        <time>2026-07-05T05:43:55.000Z</time>
      </trkpt>
      <trkpt lat="42.98928" lon="1.12539">
        <ele>526</ele>
        <time>2026-07-05T05:44:00.000Z</time>
      </trkpt>
      <trkpt lat="42.98913" lon="1.1253">
        <ele>524</ele>
        <time>2026-07-05T05:44:05.000Z</time>
      </trkpt>
      <trkpt lat="42.98901" lon="1.12522">
        <ele>522</ele>
        <time>2026-07-05T05:44:10.000Z</time>
      </trkpt>
      <trkpt lat="42.98891" lon="1.12517">
        <ele>523</ele>
        <time>2026-07-05T05:44:15.000Z</time>
      </trkpt>
      <trkpt lat="42.98881" lon="1.12509">
        <ele>524</ele>
        <time>2026-07-05T05:44:20.000Z</time>
      </trkpt>
      <trkpt lat="42.9887" lon="1.12493">
        <ele>525</ele>
        <time>2026-07-05T05:44:25.000Z</time>
      </trkpt>
      <trkpt lat="42.98861" lon="1.12482">
        <ele>526</ele>
        <time>2026-07-05T05:44:30.000Z</time>
      </trkpt>
      <trkpt lat="42.98851" lon="1.12472">
        <ele>527</ele>
        <time>2026-07-05T05:44:35.000Z</time>
      </trkpt>
      <trkpt lat="42.98838" lon="1.12465">
        <ele>526</ele>
        <time>2026-07-05T05:44:40.000Z</time>
      </trkpt>
      <trkpt lat="42.98826" lon="1.1246">
        <ele>525</ele>
        <time>2026-07-05T05:44:45.000Z</time>
      </trkpt>
      <trkpt lat="42.98814" lon="1.12458">
        <ele>525</ele>
        <time>2026-07-05T05:44:50.000Z</time>
      </trkpt>
      <trkpt lat="42.98787" lon="1.1245">
        <ele>525</ele>
        <time>2026-07-05T05:44:55.000Z</time>
      </trkpt>
      <trkpt lat="42.98775" lon="1.12453">
        <ele>525</ele>
        <time>2026-07-05T05:45:00.000Z</time>
      </trkpt>
      <trkpt lat="42.98761" lon="1.12453">
        <ele>526</ele>
        <time>2026-07-05T05:45:05.000Z</time>
      </trkpt>
      <trkpt lat="42.98744" lon="1.12453">
        <ele>525</ele>
        <time>2026-07-05T05:45:10.000Z</time>
      </trkpt>
      <trkpt lat="42.98733" lon="1.12455">
        <ele>527</ele>
        <time>2026-07-05T05:45:15.000Z</time>
      </trkpt>
      <trkpt lat="42.98722" lon="1.12458">
        <ele>527</ele>
        <time>2026-07-05T05:45:20.000Z</time>
      </trkpt>
      <trkpt lat="42.98704" lon="1.12459">
        <ele>526</ele>
        <time>2026-07-05T05:45:25.000Z</time>
      </trkpt>
      <trkpt lat="42.98689" lon="1.12454">
        <ele>527</ele>
        <time>2026-07-05T05:45:30.000Z</time>
      </trkpt>
      <trkpt lat="42.98678" lon="1.1245">
        <ele>527</ele>
        <time>2026-07-05T05:45:35.000Z</time>
      </trkpt>
      <trkpt lat="42.98669" lon="1.12438">
        <ele>527</ele>
        <time>2026-07-05T05:45:40.000Z</time>
      </trkpt>
      <trkpt lat="42.9866" lon="1.12422">
        <ele>527</ele>
        <time>2026-07-05T05:45:45.000Z</time>
      </trkpt>
      <trkpt lat="42.98651" lon="1.12405">
        <ele>528</ele>
        <time>2026-07-05T05:45:50.000Z</time>
      </trkpt>
      <trkpt lat="42.98643" lon="1.1239">
        <ele>529</ele>
        <time>2026-07-05T05:45:55.000Z</time>
      </trkpt>
      <trkpt lat="42.98628" lon="1.12376">
        <ele>529</ele>
        <time>2026-07-05T05:46:00.000Z</time>
      </trkpt>
      <trkpt lat="42.98612" lon="1.12363">
        <ele>529</ele>
        <time>2026-07-05T05:46:05.000Z</time>
      </trkpt>
      <trkpt lat="42.98598" lon="1.12354">
        <ele>527</ele>
        <time>2026-07-05T05:46:10.000Z</time>
      </trkpt>
      <trkpt lat="42.98588" lon="1.12348">
        <ele>527</ele>
        <time>2026-07-05T05:46:15.000Z</time>
      </trkpt>
      <trkpt lat="42.98576" lon="1.12346">
        <ele>529</ele>
        <time>2026-07-05T05:46:20.000Z</time>
      </trkpt>
      <trkpt lat="42.98564" lon="1.1235">
        <ele>528</ele>
        <time>2026-07-05T05:46:25.000Z</time>
      </trkpt>
      <trkpt lat="42.98552" lon="1.1235">
        <ele>525</ele>
        <time>2026-07-05T05:46:30.000Z</time>
      </trkpt>
      <trkpt lat="42.98541" lon="1.12342">
        <ele>523</ele>
        <time>2026-07-05T05:46:35.000Z</time>
      </trkpt>
      <trkpt lat="42.98526" lon="1.12337">
        <ele>523</ele>
        <time>2026-07-05T05:46:40.000Z</time>
      </trkpt>
      <trkpt lat="42.98502" lon="1.12328">
        <ele>519</ele>
        <time>2026-07-05T05:46:45.000Z</time>
      </trkpt>
      <trkpt lat="42.98488" lon="1.12329">
        <ele>520</ele>
        <time>2026-07-05T05:46:50.000Z</time>
      </trkpt>
      <trkpt lat="42.98475" lon="1.12338">
        <ele>519</ele>
        <time>2026-07-05T05:46:55.000Z</time>
      </trkpt>
      <trkpt lat="42.98462" lon="1.12335">
        <ele>520</ele>
        <time>2026-07-05T05:47:00.000Z</time>
      </trkpt>
      <trkpt lat="42.98455" lon="1.12307">
        <ele>519</ele>
        <time>2026-07-05T05:47:05.000Z</time>
      </trkpt>
      <trkpt lat="42.98457" lon="1.12278">
        <ele>516</ele>
        <time>2026-07-05T05:47:10.000Z</time>
      </trkpt>
      <trkpt lat="42.98447" lon="1.12264">
        <ele>515</ele>
        <time>2026-07-05T05:47:15.000Z</time>
      </trkpt>
      <trkpt lat="42.98433" lon="1.1226">
        <ele>518</ele>
        <time>2026-07-05T05:47:20.000Z</time>
      </trkpt>
      <trkpt lat="42.98421" lon="1.12248">
        <ele>520</ele>
        <time>2026-07-05T05:47:25.000Z</time>
      </trkpt>
      <trkpt lat="42.98409" lon="1.12234">
        <ele>520</ele>
        <time>2026-07-05T05:47:30.000Z</time>
      </trkpt>
      <trkpt lat="42.98397" lon="1.12223">
        <ele>522</ele>
        <time>2026-07-05T05:47:35.000Z</time>
      </trkpt>
      <trkpt lat="42.98391" lon="1.12211">
        <ele>527</ele>
        <time>2026-07-05T05:47:40.000Z</time>
      </trkpt>
      <trkpt lat="42.98383" lon="1.12195">
        <ele>531</ele>
        <time>2026-07-05T05:47:45.000Z</time>
      </trkpt>
      <trkpt lat="42.98372" lon="1.12185">
        <ele>531</ele>
        <time>2026-07-05T05:47:50.000Z</time>
      </trkpt>
      <trkpt lat="42.98359" lon="1.1218">
        <ele>531</ele>
        <time>2026-07-05T05:47:55.000Z</time>
      </trkpt>
      <trkpt lat="42.98335" lon="1.12162">
        <ele>525</ele>
        <time>2026-07-05T05:48:00.000Z</time>
      </trkpt>
      <trkpt lat="42.98324" lon="1.12169">
        <ele>524</ele>
        <time>2026-07-05T05:48:05.000Z</time>
      </trkpt>
      <trkpt lat="42.98319" lon="1.12187">
        <ele>526</ele>
        <time>2026-07-05T05:48:10.000Z</time>
      </trkpt>
      <trkpt lat="42.98317" lon="1.12205">
        <ele>527</ele>
        <time>2026-07-05T05:48:15.000Z</time>
      </trkpt>
      <trkpt lat="42.98316" lon="1.12227">
        <ele>526</ele>
        <time>2026-07-05T05:48:20.000Z</time>
      </trkpt>
      <trkpt lat="42.98308" lon="1.12249">
        <ele>525</ele>
        <time>2026-07-05T05:48:25.000Z</time>
      </trkpt>
      <trkpt lat="42.98291" lon="1.12275">
        <ele>522</ele>
        <time>2026-07-05T05:48:30.000Z</time>
      </trkpt>
      <trkpt lat="42.98265" lon="1.12304">
        <ele>521</ele>
        <time>2026-07-05T05:48:35.000Z</time>
      </trkpt>
      <trkpt lat="42.98247" lon="1.12329">
        <ele>519</ele>
        <time>2026-07-05T05:48:40.000Z</time>
      </trkpt>
      <trkpt lat="42.98231" lon="1.1236">
        <ele>515</ele>
        <time>2026-07-05T05:48:45.000Z</time>
      </trkpt>
      <trkpt lat="42.98227" lon="1.12406">
        <ele>510</ele>
        <time>2026-07-05T05:48:50.000Z</time>
      </trkpt>
      <trkpt lat="42.98225" lon="1.12446">
        <ele>506</ele>
        <time>2026-07-05T05:48:55.000Z</time>
      </trkpt>
      <trkpt lat="42.98212" lon="1.12483">
        <ele>496</ele>
        <time>2026-07-05T05:49:00.000Z</time>
      </trkpt>
      <trkpt lat="42.98201" lon="1.1252">
        <ele>492</ele>
        <time>2026-07-05T05:49:05.000Z</time>
      </trkpt>
      <trkpt lat="42.98205" lon="1.12524">
        <ele>493</ele>
        <time>2026-07-05T05:49:10.000Z</time>
      </trkpt>
      <trkpt lat="42.98224" lon="1.12542">
        <ele>493</ele>
        <time>2026-07-05T05:49:15.000Z</time>
      </trkpt>
      <trkpt lat="42.98253" lon="1.12566">
        <ele>490</ele>
        <time>2026-07-05T05:49:20.000Z</time>
      </trkpt>
      <trkpt lat="42.98256" lon="1.12568">
        <ele>492</ele>
        <time>2026-07-05T05:49:25.000Z</time>
      </trkpt>
      <trkpt lat="42.98249" lon="1.12571">
        <ele>492</ele>
        <time>2026-07-05T05:49:30.000Z</time>
      </trkpt>
      <trkpt lat="42.98235" lon="1.12601">
        <ele>488</ele>
        <time>2026-07-05T05:49:35.000Z</time>
      </trkpt>
      <trkpt lat="42.98217" lon="1.12641">
        <ele>481</ele>
        <time>2026-07-05T05:49:40.000Z</time>
      </trkpt>
      <trkpt lat="42.98201" lon="1.12681">
        <ele>478</ele>
        <time>2026-07-05T05:49:45.000Z</time>
      </trkpt>
      <trkpt lat="42.98183" lon="1.12721">
        <ele>475</ele>
        <time>2026-07-05T05:49:50.000Z</time>
      </trkpt>
      <trkpt lat="42.98166" lon="1.12728">
        <ele>475</ele>
        <time>2026-07-05T05:49:55.000Z</time>
      </trkpt>
      <trkpt lat="42.98139" lon="1.12716">
        <ele>477</ele>
        <time>2026-07-05T05:50:00.000Z</time>
      </trkpt>
      <trkpt lat="42.98111" lon="1.12692">
        <ele>476</ele>
        <time>2026-07-05T05:50:05.000Z</time>
      </trkpt>
      <trkpt lat="42.98088" lon="1.12663">
        <ele>476</ele>
        <time>2026-07-05T05:50:10.000Z</time>
      </trkpt>
      <trkpt lat="42.98059" lon="1.12637">
        <ele>473</ele>
        <time>2026-07-05T05:50:15.000Z</time>
      </trkpt>
      <trkpt lat="42.98031" lon="1.12608">
        <ele>472</ele>
        <time>2026-07-05T05:50:20.000Z</time>
      </trkpt>
      <trkpt lat="42.98007" lon="1.12581">
        <ele>471</ele>
        <time>2026-07-05T05:50:25.000Z</time>
      </trkpt>
      <trkpt lat="42.97991" lon="1.12556">
        <ele>471</ele>
        <time>2026-07-05T05:50:30.000Z</time>
      </trkpt>
      <trkpt lat="42.97972" lon="1.12534">
        <ele>471</ele>
        <time>2026-07-05T05:50:35.000Z</time>
      </trkpt>
      <trkpt lat="42.97953" lon="1.12511">
        <ele>471</ele>
        <time>2026-07-05T05:50:40.000Z</time>
      </trkpt>
      <trkpt lat="42.97936" lon="1.1249">
        <ele>472</ele>
        <time>2026-07-05T05:50:45.000Z</time>
      </trkpt>
      <trkpt lat="42.97918" lon="1.12471">
        <ele>473</ele>
        <time>2026-07-05T05:50:50.000Z</time>
      </trkpt>
      <trkpt lat="42.97912" lon="1.12444">
        <ele>473</ele>
        <time>2026-07-05T05:50:55.000Z</time>
      </trkpt>
      <trkpt lat="42.97913" lon="1.12416">
        <ele>475</ele>
        <time>2026-07-05T05:51:00.000Z</time>
      </trkpt>
      <trkpt lat="42.97889" lon="1.12396">
        <ele>474</ele>
        <time>2026-07-05T05:51:05.000Z</time>
      </trkpt>
      <trkpt lat="42.97876" lon="1.12365">
        <ele>473</ele>
        <time>2026-07-05T05:51:10.000Z</time>
      </trkpt>
      <trkpt lat="42.97863" lon="1.1233">
        <ele>478</ele>
        <time>2026-07-05T05:51:15.000Z</time>
      </trkpt>
      <trkpt lat="42.97852" lon="1.12277">
        <ele>475</ele>
        <time>2026-07-05T05:51:20.000Z</time>
      </trkpt>
      <trkpt lat="42.97835" lon="1.12238">
        <ele>472</ele>
        <time>2026-07-05T05:51:25.000Z</time>
      </trkpt>
      <trkpt lat="42.97845" lon="1.12226">
        <ele>473</ele>
        <time>2026-07-05T05:51:30.000Z</time>
      </trkpt>
      <trkpt lat="42.97861" lon="1.12215">
        <ele>474</ele>
        <time>2026-07-05T05:51:35.000Z</time>
      </trkpt>
      <trkpt lat="42.97877" lon="1.12206">
        <ele>474</ele>
        <time>2026-07-05T05:51:40.000Z</time>
      </trkpt>
      <trkpt lat="42.97891" lon="1.12196">
        <ele>476</ele>
        <time>2026-07-05T05:51:45.000Z</time>
      </trkpt>
      <trkpt lat="42.97905" lon="1.12186">
        <ele>477</ele>
        <time>2026-07-05T05:51:50.000Z</time>
      </trkpt>
      <trkpt lat="42.97923" lon="1.12175">
        <ele>479</ele>
        <time>2026-07-05T05:51:55.000Z</time>
      </trkpt>
      <trkpt lat="42.97943" lon="1.12166">
        <ele>479</ele>
        <time>2026-07-05T05:52:00.000Z</time>
      </trkpt>
      <trkpt lat="42.97964" lon="1.12157">
        <ele>479</ele>
        <time>2026-07-05T05:52:05.000Z</time>
      </trkpt>
      <trkpt lat="42.97983" lon="1.12142">
        <ele>479</ele>
        <time>2026-07-05T05:52:10.000Z</time>
      </trkpt>
      <trkpt lat="42.98" lon="1.12123">
        <ele>480</ele>
        <time>2026-07-05T05:52:15.000Z</time>
      </trkpt>
      <trkpt lat="42.98017" lon="1.12104">
        <ele>481</ele>
        <time>2026-07-05T05:52:20.000Z</time>
      </trkpt>
      <trkpt lat="42.98032" lon="1.12084">
        <ele>483</ele>
        <time>2026-07-05T05:52:25.000Z</time>
      </trkpt>
      <trkpt lat="42.98034" lon="1.12055">
        <ele>487</ele>
        <time>2026-07-05T05:52:30.000Z</time>
      </trkpt>
      <trkpt lat="42.98033" lon="1.12006">
        <ele>486</ele>
        <time>2026-07-05T05:52:35.000Z</time>
      </trkpt>
      <trkpt lat="42.98053" lon="1.11961">
        <ele>485</ele>
        <time>2026-07-05T05:52:40.000Z</time>
      </trkpt>
      <trkpt lat="42.98051" lon="1.11928">
        <ele>485</ele>
        <time>2026-07-05T05:52:45.000Z</time>
      </trkpt>
      <trkpt lat="42.98051" lon="1.11899">
        <ele>484</ele>
        <time>2026-07-05T05:52:50.000Z</time>
      </trkpt>
      <trkpt lat="42.98056" lon="1.11875">
        <ele>486</ele>
        <time>2026-07-05T05:52:55.000Z</time>
      </trkpt>
      <trkpt lat="42.98069" lon="1.11854">
        <ele>486</ele>
        <time>2026-07-05T05:53:00.000Z</time>
      </trkpt>
      <trkpt lat="42.98084" lon="1.11841">
        <ele>487</ele>
        <time>2026-07-05T05:53:05.000Z</time>
      </trkpt>
      <trkpt lat="42.98099" lon="1.11828">
        <ele>489</ele>
        <time>2026-07-05T05:53:10.000Z</time>
      </trkpt>
      <trkpt lat="42.98114" lon="1.11813">
        <ele>491</ele>
        <time>2026-07-05T05:53:15.000Z</time>
      </trkpt>
      <trkpt lat="42.98129" lon="1.11799">
        <ele>492</ele>
        <time>2026-07-05T05:53:20.000Z</time>
      </trkpt>
      <trkpt lat="42.98144" lon="1.11785">
        <ele>493</ele>
        <time>2026-07-05T05:53:25.000Z</time>
      </trkpt>
      <trkpt lat="42.9816" lon="1.11766">
        <ele>494</ele>
        <time>2026-07-05T05:53:30.000Z</time>
      </trkpt>
      <trkpt lat="42.98172" lon="1.11741">
        <ele>495</ele>
        <time>2026-07-05T05:53:35.000Z</time>
      </trkpt>
      <trkpt lat="42.9818" lon="1.11715">
        <ele>495</ele>
        <time>2026-07-05T05:53:40.000Z</time>
      </trkpt>
      <trkpt lat="42.98192" lon="1.1169">
        <ele>495</ele>
        <time>2026-07-05T05:53:45.000Z</time>
      </trkpt>
      <trkpt lat="42.98208" lon="1.11662">
        <ele>495</ele>
        <time>2026-07-05T05:53:50.000Z</time>
      </trkpt>
      <trkpt lat="42.98224" lon="1.11629">
        <ele>495</ele>
        <time>2026-07-05T05:53:55.000Z</time>
      </trkpt>
      <trkpt lat="42.98241" lon="1.11596">
        <ele>496</ele>
        <time>2026-07-05T05:54:00.000Z</time>
      </trkpt>
      <trkpt lat="42.98255" lon="1.11565">
        <ele>496</ele>
        <time>2026-07-05T05:54:05.000Z</time>
      </trkpt>
      <trkpt lat="42.98267" lon="1.11539">
        <ele>498</ele>
        <time>2026-07-05T05:54:10.000Z</time>
      </trkpt>
      <trkpt lat="42.98278" lon="1.11512">
        <ele>498</ele>
        <time>2026-07-05T05:54:15.000Z</time>
      </trkpt>
      <trkpt lat="42.98289" lon="1.11486">
        <ele>502</ele>
        <time>2026-07-05T05:54:20.000Z</time>
      </trkpt>
      <trkpt lat="42.98287" lon="1.11455">
        <ele>504</ele>
        <time>2026-07-05T05:54:25.000Z</time>
      </trkpt>
      <trkpt lat="42.98282" lon="1.11416">
        <ele>502</ele>
        <time>2026-07-05T05:54:30.000Z</time>
      </trkpt>
      <trkpt lat="42.98279" lon="1.11378">
        <ele>501</ele>
        <time>2026-07-05T05:54:35.000Z</time>
      </trkpt>
      <trkpt lat="42.98279" lon="1.11345">
        <ele>501</ele>
        <time>2026-07-05T05:54:40.000Z</time>
      </trkpt>
      <trkpt lat="42.9828" lon="1.11314">
        <ele>501</ele>
        <time>2026-07-05T05:54:45.000Z</time>
      </trkpt>
      <trkpt lat="42.98282" lon="1.11282">
        <ele>502</ele>
        <time>2026-07-05T05:54:50.000Z</time>
      </trkpt>
      <trkpt lat="42.98287" lon="1.11249">
        <ele>503</ele>
        <time>2026-07-05T05:54:55.000Z</time>
      </trkpt>
      <trkpt lat="42.98298" lon="1.11214">
        <ele>503</ele>
        <time>2026-07-05T05:55:00.000Z</time>
      </trkpt>
      <trkpt lat="42.98313" lon="1.11176">
        <ele>502</ele>
        <time>2026-07-05T05:55:05.000Z</time>
      </trkpt>
      <trkpt lat="42.98328" lon="1.11125">
        <ele>501</ele>
        <time>2026-07-05T05:55:10.000Z</time>
      </trkpt>
      <trkpt lat="42.98344" lon="1.11075">
        <ele>495</ele>
        <time>2026-07-05T05:55:15.000Z</time>
      </trkpt>
      <trkpt lat="42.98398" lon="1.11083">
        <ele>485</ele>
        <time>2026-07-05T05:55:20.000Z</time>
      </trkpt>
      <trkpt lat="42.98453" lon="1.11106">
        <ele>483</ele>
        <time>2026-07-05T05:55:25.000Z</time>
      </trkpt>
      <trkpt lat="42.985" lon="1.11123">
        <ele>474</ele>
        <time>2026-07-05T05:55:30.000Z</time>
      </trkpt>
      <trkpt lat="42.98546" lon="1.11128">
        <ele>467</ele>
        <time>2026-07-05T05:55:35.000Z</time>
      </trkpt>
      <trkpt lat="42.98543" lon="1.1109">
        <ele>467</ele>
        <time>2026-07-05T05:55:40.000Z</time>
      </trkpt>
      <trkpt lat="42.98525" lon="1.11049">
        <ele>466</ele>
        <time>2026-07-05T05:55:45.000Z</time>
      </trkpt>
      <trkpt lat="42.98514" lon="1.11009">
        <ele>465</ele>
        <time>2026-07-05T05:55:50.000Z</time>
      </trkpt>
      <trkpt lat="42.98519" lon="1.10965">
        <ele>466</ele>
        <time>2026-07-05T05:55:55.000Z</time>
      </trkpt>
      <trkpt lat="42.98521" lon="1.10915">
        <ele>464</ele>
        <time>2026-07-05T05:56:00.000Z</time>
      </trkpt>
      <trkpt lat="42.98548" lon="1.10899">
        <ele>464</ele>
        <time>2026-07-05T05:56:05.000Z</time>
      </trkpt>
      <trkpt lat="42.98565" lon="1.10888">
        <ele>465</ele>
        <time>2026-07-05T05:56:10.000Z</time>
      </trkpt>
      <trkpt lat="42.98577" lon="1.10872">
        <ele>470</ele>
        <time>2026-07-05T05:56:15.000Z</time>
      </trkpt>
      <trkpt lat="42.98586" lon="1.10851">
        <ele>471</ele>
        <time>2026-07-05T05:56:20.000Z</time>
      </trkpt>
      <trkpt lat="42.98598" lon="1.1083">
        <ele>471</ele>
        <time>2026-07-05T05:56:25.000Z</time>
      </trkpt>
      <trkpt lat="42.98621" lon="1.10833">
        <ele>469</ele>
        <time>2026-07-05T05:56:30.000Z</time>
      </trkpt>
      <trkpt lat="42.98636" lon="1.10841">
        <ele>470</ele>
        <time>2026-07-05T05:56:35.000Z</time>
      </trkpt>
      <trkpt lat="42.98648" lon="1.10833">
        <ele>471</ele>
        <time>2026-07-05T05:56:40.000Z</time>
      </trkpt>
      <trkpt lat="42.98657" lon="1.10824">
        <ele>473</ele>
        <time>2026-07-05T05:56:45.000Z</time>
      </trkpt>
      <trkpt lat="42.98666" lon="1.10815">
        <ele>475</ele>
        <time>2026-07-05T05:56:50.000Z</time>
      </trkpt>
      <trkpt lat="42.98677" lon="1.10804">
        <ele>475</ele>
        <time>2026-07-05T05:56:55.000Z</time>
      </trkpt>
      <trkpt lat="42.98688" lon="1.10792">
        <ele>477</ele>
        <time>2026-07-05T05:57:00.000Z</time>
      </trkpt>
      <trkpt lat="42.98699" lon="1.10781">
        <ele>479</ele>
        <time>2026-07-05T05:57:05.000Z</time>
      </trkpt>
      <trkpt lat="42.98708" lon="1.10772">
        <ele>481</ele>
        <time>2026-07-05T05:57:10.000Z</time>
      </trkpt>
      <trkpt lat="42.98717" lon="1.10765">
        <ele>482</ele>
        <time>2026-07-05T05:57:15.000Z</time>
      </trkpt>
      <trkpt lat="42.98724" lon="1.10756">
        <ele>483</ele>
        <time>2026-07-05T05:57:20.000Z</time>
      </trkpt>
      <trkpt lat="42.98729" lon="1.10743">
        <ele>484</ele>
        <time>2026-07-05T05:57:25.000Z</time>
      </trkpt>
      <trkpt lat="42.98734" lon="1.1073">
        <ele>486</ele>
        <time>2026-07-05T05:57:30.000Z</time>
      </trkpt>
      <trkpt lat="42.98739" lon="1.10718">
        <ele>489</ele>
        <time>2026-07-05T05:57:35.000Z</time>
      </trkpt>
      <trkpt lat="42.98743" lon="1.10704">
        <ele>490</ele>
        <time>2026-07-05T05:57:40.000Z</time>
      </trkpt>
      <trkpt lat="42.98747" lon="1.10693">
        <ele>491</ele>
        <time>2026-07-05T05:57:45.000Z</time>
      </trkpt>
      <trkpt lat="42.9875" lon="1.10683">
        <ele>494</ele>
        <time>2026-07-05T05:57:50.000Z</time>
      </trkpt>
      <trkpt lat="42.98753" lon="1.10671">
        <ele>497</ele>
        <time>2026-07-05T05:57:55.000Z</time>
      </trkpt>
      <trkpt lat="42.98756" lon="1.10657">
        <ele>500</ele>
        <time>2026-07-05T05:58:00.000Z</time>
      </trkpt>
      <trkpt lat="42.9876" lon="1.10642">
        <ele>502</ele>
        <time>2026-07-05T05:58:05.000Z</time>
      </trkpt>
      <trkpt lat="42.98765" lon="1.10621">
        <ele>503</ele>
        <time>2026-07-05T05:58:10.000Z</time>
      </trkpt>
      <trkpt lat="42.98774" lon="1.10596">
        <ele>503</ele>
        <time>2026-07-05T05:58:15.000Z</time>
      </trkpt>
      <trkpt lat="42.98783" lon="1.10572">
        <ele>503</ele>
        <time>2026-07-05T05:58:20.000Z</time>
      </trkpt>
      <trkpt lat="42.98791" lon="1.10546">
        <ele>502</ele>
        <time>2026-07-05T05:58:25.000Z</time>
      </trkpt>
      <trkpt lat="42.98802" lon="1.10518">
        <ele>502</ele>
        <time>2026-07-05T05:58:30.000Z</time>
      </trkpt>
      <trkpt lat="42.98811" lon="1.10492">
        <ele>503</ele>
        <time>2026-07-05T05:58:35.000Z</time>
      </trkpt>
      <trkpt lat="42.98822" lon="1.10464">
        <ele>503</ele>
        <time>2026-07-05T05:58:40.000Z</time>
      </trkpt>
      <trkpt lat="42.98834" lon="1.10433">
        <ele>505</ele>
        <time>2026-07-05T05:58:45.000Z</time>
      </trkpt>
      <trkpt lat="42.98847" lon="1.104">
        <ele>506</ele>
        <time>2026-07-05T05:58:50.000Z</time>
      </trkpt>
      <trkpt lat="42.9886" lon="1.10368">
        <ele>507</ele>
        <time>2026-07-05T05:58:55.000Z</time>
      </trkpt>
      <trkpt lat="42.98863" lon="1.10336">
        <ele>505</ele>
        <time>2026-07-05T05:59:00.000Z</time>
      </trkpt>
      <trkpt lat="42.98857" lon="1.10315">
        <ele>506</ele>
        <time>2026-07-05T05:59:05.000Z</time>
      </trkpt>
      <trkpt lat="42.98855" lon="1.10295">
        <ele>509</ele>
        <time>2026-07-05T05:59:10.000Z</time>
      </trkpt>
      <trkpt lat="42.98851" lon="1.10279">
        <ele>510</ele>
        <time>2026-07-05T05:59:15.000Z</time>
      </trkpt>
      <trkpt lat="42.98848" lon="1.10266">
        <ele>513</ele>
        <time>2026-07-05T05:59:20.000Z</time>
      </trkpt>
      <trkpt lat="42.98845" lon="1.10254">
        <ele>516</ele>
        <time>2026-07-05T05:59:25.000Z</time>
      </trkpt>
      <trkpt lat="42.98843" lon="1.10242">
        <ele>516</ele>
        <time>2026-07-05T05:59:30.000Z</time>
      </trkpt>
      <trkpt lat="42.98842" lon="1.10229">
        <ele>519</ele>
        <time>2026-07-05T05:59:35.000Z</time>
      </trkpt>
      <trkpt lat="42.98841" lon="1.10218">
        <ele>521</ele>
        <time>2026-07-05T05:59:40.000Z</time>
      </trkpt>
      <trkpt lat="42.98842" lon="1.10209">
        <ele>525</ele>
        <time>2026-07-05T05:59:45.000Z</time>
      </trkpt>
      <trkpt lat="42.98843" lon="1.102">
        <ele>526</ele>
        <time>2026-07-05T05:59:50.000Z</time>
      </trkpt>
      <trkpt lat="42.98846" lon="1.10189">
        <ele>528</ele>
        <time>2026-07-05T05:59:55.000Z</time>
      </trkpt>
      <trkpt lat="42.98848" lon="1.10178">
        <ele>530</ele>
        <time>2026-07-05T06:00:00.000Z</time>
      </trkpt>
      <trkpt lat="42.9885" lon="1.10169">
        <ele>531</ele>
        <time>2026-07-05T06:00:05.000Z</time>
      </trkpt>
      <trkpt lat="42.98852" lon="1.10161">
        <ele>533</ele>
        <time>2026-07-05T06:00:10.000Z</time>
      </trkpt>
      <trkpt lat="42.98855" lon="1.1015">
        <ele>535</ele>
        <time>2026-07-05T06:00:15.000Z</time>
      </trkpt>
      <trkpt lat="42.98859" lon="1.10141">
        <ele>538</ele>
        <time>2026-07-05T06:00:20.000Z</time>
      </trkpt>
      <trkpt lat="42.98863" lon="1.10133">
        <ele>543</ele>
        <time>2026-07-05T06:00:25.000Z</time>
      </trkpt>
      <trkpt lat="42.98869" lon="1.10122">
        <ele>546</ele>
        <time>2026-07-05T06:00:30.000Z</time>
      </trkpt>
      <trkpt lat="42.98877" lon="1.10114">
        <ele>552</ele>
        <time>2026-07-05T06:00:35.000Z</time>
      </trkpt>
      <trkpt lat="42.98885" lon="1.10102">
        <ele>554</ele>
        <time>2026-07-05T06:00:40.000Z</time>
      </trkpt>
      <trkpt lat="42.98889" lon="1.10091">
        <ele>557</ele>
        <time>2026-07-05T06:00:45.000Z</time>
      </trkpt>
      <trkpt lat="42.98895" lon="1.10081">
        <ele>559</ele>
        <time>2026-07-05T06:00:50.000Z</time>
      </trkpt>
      <trkpt lat="42.98898" lon="1.10071">
        <ele>563</ele>
        <time>2026-07-05T06:00:55.000Z</time>
      </trkpt>
      <trkpt lat="42.98903" lon="1.10061">
        <ele>565</ele>
        <time>2026-07-05T06:01:00.000Z</time>
      </trkpt>
      <trkpt lat="42.9891" lon="1.10049">
        <ele>565</ele>
        <time>2026-07-05T06:01:05.000Z</time>
      </trkpt>
      <trkpt lat="42.98918" lon="1.10033">
        <ele>561</ele>
        <time>2026-07-05T06:01:10.000Z</time>
      </trkpt>
      <trkpt lat="42.98928" lon="1.1002">
        <ele>559</ele>
        <time>2026-07-05T06:01:15.000Z</time>
      </trkpt>
      <trkpt lat="42.98941" lon="1.10002">
        <ele>557</ele>
        <time>2026-07-05T06:01:20.000Z</time>
      </trkpt>
      <trkpt lat="42.98951" lon="1.09979">
        <ele>555</ele>
        <time>2026-07-05T06:01:25.000Z</time>
      </trkpt>
      <trkpt lat="42.9895" lon="1.09961">
        <ele>556</ele>
        <time>2026-07-05T06:01:30.000Z</time>
      </trkpt>
      <trkpt lat="42.98955" lon="1.0995">
        <ele>556</ele>
        <time>2026-07-05T06:01:35.000Z</time>
      </trkpt>
      <trkpt lat="42.98966" lon="1.09937">
        <ele>557</ele>
        <time>2026-07-05T06:01:40.000Z</time>
      </trkpt>
      <trkpt lat="42.98972" lon="1.09929">
        <ele>559</ele>
        <time>2026-07-05T06:01:45.000Z</time>
      </trkpt>
      <trkpt lat="42.98979" lon="1.0992">
        <ele>560</ele>
        <time>2026-07-05T06:01:50.000Z</time>
      </trkpt>
      <trkpt lat="42.98986" lon="1.09911">
        <ele>560</ele>
        <time>2026-07-05T06:01:55.000Z</time>
      </trkpt>
      <trkpt lat="42.98992" lon="1.09897">
        <ele>560</ele>
        <time>2026-07-05T06:02:00.000Z</time>
      </trkpt>
      <trkpt lat="42.98996" lon="1.09879">
        <ele>561</ele>
        <time>2026-07-05T06:02:05.000Z</time>
      </trkpt>
      <trkpt lat="42.99003" lon="1.09859">
        <ele>560</ele>
        <time>2026-07-05T06:02:10.000Z</time>
      </trkpt>
      <trkpt lat="42.99003" lon="1.09831">
        <ele>560</ele>
        <time>2026-07-05T06:02:15.000Z</time>
      </trkpt>
      <trkpt lat="42.98987" lon="1.09813">
        <ele>559</ele>
        <time>2026-07-05T06:02:20.000Z</time>
      </trkpt>
      <trkpt lat="42.9897" lon="1.09795">
        <ele>559</ele>
        <time>2026-07-05T06:02:25.000Z</time>
      </trkpt>
      <trkpt lat="42.98958" lon="1.09775">
        <ele>561</ele>
        <time>2026-07-05T06:02:30.000Z</time>
      </trkpt>
      <trkpt lat="42.98951" lon="1.09752">
        <ele>564</ele>
        <time>2026-07-05T06:02:35.000Z</time>
      </trkpt>
      <trkpt lat="42.98947" lon="1.09731">
        <ele>566</ele>
        <time>2026-07-05T06:02:40.000Z</time>
      </trkpt>
      <trkpt lat="42.98945" lon="1.09713">
        <ele>567</ele>
        <time>2026-07-05T06:02:45.000Z</time>
      </trkpt>
      <trkpt lat="42.98944" lon="1.09699">
        <ele>568</ele>
        <time>2026-07-05T06:02:50.000Z</time>
      </trkpt>
      <trkpt lat="42.98942" lon="1.09684">
        <ele>571</ele>
        <time>2026-07-05T06:02:55.000Z</time>
      </trkpt>
      <trkpt lat="42.98941" lon="1.09671">
        <ele>573</ele>
        <time>2026-07-05T06:03:00.000Z</time>
      </trkpt>
      <trkpt lat="42.98941" lon="1.09659">
        <ele>575</ele>
        <time>2026-07-05T06:03:05.000Z</time>
      </trkpt>
      <trkpt lat="42.9894" lon="1.09645">
        <ele>580</ele>
        <time>2026-07-05T06:03:10.000Z</time>
      </trkpt>
      <trkpt lat="42.98938" lon="1.09629">
        <ele>585</ele>
        <time>2026-07-05T06:03:15.000Z</time>
      </trkpt>
      <trkpt lat="42.98935" lon="1.09618">
        <ele>585</ele>
        <time>2026-07-05T06:03:20.000Z</time>
      </trkpt>
      <trkpt lat="42.98933" lon="1.09606">
        <ele>584</ele>
        <time>2026-07-05T06:03:25.000Z</time>
      </trkpt>
      <trkpt lat="42.98924" lon="1.09586">
        <ele>583</ele>
        <time>2026-07-05T06:03:30.000Z</time>
      </trkpt>
      <trkpt lat="42.98912" lon="1.09562">
        <ele>584</ele>
        <time>2026-07-05T06:03:35.000Z</time>
      </trkpt>
      <trkpt lat="42.98901" lon="1.09542">
        <ele>584</ele>
        <time>2026-07-05T06:03:40.000Z</time>
      </trkpt>
      <trkpt lat="42.98889" lon="1.09524">
        <ele>584</ele>
        <time>2026-07-05T06:03:45.000Z</time>
      </trkpt>
      <trkpt lat="42.98876" lon="1.09504">
        <ele>582</ele>
        <time>2026-07-05T06:03:50.000Z</time>
      </trkpt>
      <trkpt lat="42.98865" lon="1.09489">
        <ele>582</ele>
        <time>2026-07-05T06:03:55.000Z</time>
      </trkpt>
      <trkpt lat="42.98853" lon="1.09478">
        <ele>581</ele>
        <time>2026-07-05T06:04:00.000Z</time>
      </trkpt>
      <trkpt lat="42.98842" lon="1.09469">
        <ele>583</ele>
        <time>2026-07-05T06:04:05.000Z</time>
      </trkpt>
      <trkpt lat="42.98832" lon="1.0946">
        <ele>583</ele>
        <time>2026-07-05T06:04:10.000Z</time>
      </trkpt>
      <trkpt lat="42.9882" lon="1.09457">
        <ele>586</ele>
        <time>2026-07-05T06:04:15.000Z</time>
      </trkpt>
      <trkpt lat="42.98807" lon="1.09455">
        <ele>589</ele>
        <time>2026-07-05T06:04:20.000Z</time>
      </trkpt>
      <trkpt lat="42.9879" lon="1.09448">
        <ele>590</ele>
        <time>2026-07-05T06:04:25.000Z</time>
      </trkpt>
      <trkpt lat="42.98773" lon="1.09436">
        <ele>591</ele>
        <time>2026-07-05T06:04:30.000Z</time>
      </trkpt>
      <trkpt lat="42.98754" lon="1.09411">
        <ele>588</ele>
        <time>2026-07-05T06:04:35.000Z</time>
      </trkpt>
      <trkpt lat="42.98747" lon="1.09385">
        <ele>585</ele>
        <time>2026-07-05T06:04:40.000Z</time>
      </trkpt>
      <trkpt lat="42.98754" lon="1.09364">
        <ele>587</ele>
        <time>2026-07-05T06:04:45.000Z</time>
      </trkpt>
      <trkpt lat="42.98764" lon="1.09344">
        <ele>588</ele>
        <time>2026-07-05T06:04:50.000Z</time>
      </trkpt>
      <trkpt lat="42.98779" lon="1.09337">
        <ele>588</ele>
        <time>2026-07-05T06:04:55.000Z</time>
      </trkpt>
      <trkpt lat="42.98798" lon="1.09333">
        <ele>590</ele>
        <time>2026-07-05T06:05:00.000Z</time>
      </trkpt>
      <trkpt lat="42.98814" lon="1.09327">
        <ele>593</ele>
        <time>2026-07-05T06:05:05.000Z</time>
      </trkpt>
      <trkpt lat="42.98826" lon="1.09323">
        <ele>597</ele>
        <time>2026-07-05T06:05:10.000Z</time>
      </trkpt>
      <trkpt lat="42.98841" lon="1.09314">
        <ele>601</ele>
        <time>2026-07-05T06:05:15.000Z</time>
      </trkpt>
      <trkpt lat="42.98855" lon="1.09304">
        <ele>602</ele>
        <time>2026-07-05T06:05:20.000Z</time>
      </trkpt>
      <trkpt lat="42.98872" lon="1.09295">
        <ele>604</ele>
        <time>2026-07-05T06:05:25.000Z</time>
      </trkpt>
      <trkpt lat="42.98889" lon="1.09288">
        <ele>610</ele>
        <time>2026-07-05T06:05:30.000Z</time>
      </trkpt>
      <trkpt lat="42.9891" lon="1.09282">
        <ele>609</ele>
        <time>2026-07-05T06:05:35.000Z</time>
      </trkpt>
      <trkpt lat="42.98929" lon="1.09276">
        <ele>610</ele>
        <time>2026-07-05T06:05:40.000Z</time>
      </trkpt>
      <trkpt lat="42.98952" lon="1.09272">
        <ele>607</ele>
        <time>2026-07-05T06:05:45.000Z</time>
      </trkpt>
      <trkpt lat="42.98978" lon="1.09267">
        <ele>607</ele>
        <time>2026-07-05T06:05:50.000Z</time>
      </trkpt>
      <trkpt lat="42.99004" lon="1.09264">
        <ele>606</ele>
        <time>2026-07-05T06:05:55.000Z</time>
      </trkpt>
      <trkpt lat="42.99024" lon="1.09265">
        <ele>609</ele>
        <time>2026-07-05T06:06:00.000Z</time>
      </trkpt>
      <trkpt lat="42.99039" lon="1.09266">
        <ele>610</ele>
        <time>2026-07-05T06:06:05.000Z</time>
      </trkpt>
      <trkpt lat="42.99054" lon="1.09274">
        <ele>611</ele>
        <time>2026-07-05T06:06:10.000Z</time>
      </trkpt>
      <trkpt lat="42.99068" lon="1.09281">
        <ele>619</ele>
        <time>2026-07-05T06:06:15.000Z</time>
      </trkpt>
      <trkpt lat="42.99082" lon="1.09288">
        <ele>624</ele>
        <time>2026-07-05T06:06:20.000Z</time>
      </trkpt>
      <trkpt lat="42.99096" lon="1.09293">
        <ele>624</ele>
        <time>2026-07-05T06:06:25.000Z</time>
      </trkpt>
      <trkpt lat="42.99111" lon="1.09291">
        <ele>622</ele>
        <time>2026-07-05T06:06:30.000Z</time>
      </trkpt>
      <trkpt lat="42.9913" lon="1.0928">
        <ele>621</ele>
        <time>2026-07-05T06:06:35.000Z</time>
      </trkpt>
      <trkpt lat="42.99153" lon="1.09266">
        <ele>617</ele>
        <time>2026-07-05T06:06:40.000Z</time>
      </trkpt>
      <trkpt lat="42.99174" lon="1.09243">
        <ele>614</ele>
        <time>2026-07-05T06:06:45.000Z</time>
      </trkpt>
      <trkpt lat="42.99189" lon="1.09219">
        <ele>613</ele>
        <time>2026-07-05T06:06:50.000Z</time>
      </trkpt>
      <trkpt lat="42.99201" lon="1.09194">
        <ele>615</ele>
        <time>2026-07-05T06:06:55.000Z</time>
      </trkpt>
      <trkpt lat="42.99206" lon="1.09168">
        <ele>616</ele>
        <time>2026-07-05T06:07:00.000Z</time>
      </trkpt>
      <trkpt lat="42.99211" lon="1.09148">
        <ele>617</ele>
        <time>2026-07-05T06:07:05.000Z</time>
      </trkpt>
      <trkpt lat="42.99214" lon="1.09128">
        <ele>619</ele>
        <time>2026-07-05T06:07:10.000Z</time>
      </trkpt>
      <trkpt lat="42.99213" lon="1.09112">
        <ele>623</ele>
        <time>2026-07-05T06:07:15.000Z</time>
      </trkpt>
      <trkpt lat="42.99212" lon="1.091">
        <ele>629</ele>
        <time>2026-07-05T06:07:20.000Z</time>
      </trkpt>
      <trkpt lat="42.99211" lon="1.09084">
        <ele>636</ele>
        <time>2026-07-05T06:07:25.000Z</time>
      </trkpt>
      <trkpt lat="42.99208" lon="1.09079">
        <ele>633</ele>
        <time>2026-07-05T06:07:30.000Z</time>
      </trkpt>
      <trkpt lat="42.99202" lon="1.09086">
        <ele>632</ele>
        <time>2026-07-05T06:07:35.000Z</time>
      </trkpt>
      <trkpt lat="42.99197" lon="1.09096">
        <ele>634</ele>
        <time>2026-07-05T06:07:40.000Z</time>
      </trkpt>
      <trkpt lat="42.99192" lon="1.09104">
        <ele>637</ele>
        <time>2026-07-05T06:07:45.000Z</time>
      </trkpt>
      <trkpt lat="42.99185" lon="1.09112">
        <ele>638</ele>
        <time>2026-07-05T06:07:50.000Z</time>
      </trkpt>
      <trkpt lat="42.99177" lon="1.09119">
        <ele>640</ele>
        <time>2026-07-05T06:07:55.000Z</time>
      </trkpt>
      <trkpt lat="42.99169" lon="1.09125">
        <ele>640</ele>
        <time>2026-07-05T06:08:00.000Z</time>
      </trkpt>
      <trkpt lat="42.9916" lon="1.0913">
        <ele>640</ele>
        <time>2026-07-05T06:08:05.000Z</time>
      </trkpt>
      <trkpt lat="42.99151" lon="1.09132">
        <ele>642</ele>
        <time>2026-07-05T06:08:10.000Z</time>
      </trkpt>
      <trkpt lat="42.99149" lon="1.09126">
        <ele>648</ele>
        <time>2026-07-05T06:08:15.000Z</time>
      </trkpt>
      <trkpt lat="42.99149" lon="1.09116">
        <ele>653</ele>
        <time>2026-07-05T06:08:20.000Z</time>
      </trkpt>
      <trkpt lat="42.99149" lon="1.09104">
        <ele>656</ele>
        <time>2026-07-05T06:08:25.000Z</time>
      </trkpt>
      <trkpt lat="42.9915" lon="1.09092">
        <ele>658</ele>
        <time>2026-07-05T06:08:30.000Z</time>
      </trkpt>
      <trkpt lat="42.99153" lon="1.09079">
        <ele>659</ele>
        <time>2026-07-05T06:08:35.000Z</time>
      </trkpt>
      <trkpt lat="42.99155" lon="1.0906">
        <ele>660</ele>
        <time>2026-07-05T06:08:40.000Z</time>
      </trkpt>
      <trkpt lat="42.99155" lon="1.09031">
        <ele>658</ele>
        <time>2026-07-05T06:08:45.000Z</time>
      </trkpt>
      <trkpt lat="42.99152" lon="1.09005">
        <ele>657</ele>
        <time>2026-07-05T06:08:50.000Z</time>
      </trkpt>
      <trkpt lat="42.99149" lon="1.08979">
        <ele>654</ele>
        <time>2026-07-05T06:08:55.000Z</time>
      </trkpt>
      <trkpt lat="42.99143" lon="1.08954">
        <ele>653</ele>
        <time>2026-07-05T06:09:00.000Z</time>
      </trkpt>
      <trkpt lat="42.99136" lon="1.08931">
        <ele>654</ele>
        <time>2026-07-05T06:09:05.000Z</time>
      </trkpt>
      <trkpt lat="42.99128" lon="1.0891">
        <ele>656</ele>
        <time>2026-07-05T06:09:10.000Z</time>
      </trkpt>
      <trkpt lat="42.99118" lon="1.08887">
        <ele>657</ele>
        <time>2026-07-05T06:09:15.000Z</time>
      </trkpt>
      <trkpt lat="42.99105" lon="1.08862">
        <ele>655</ele>
        <time>2026-07-05T06:09:20.000Z</time>
      </trkpt>
      <trkpt lat="42.99092" lon="1.08837">
        <ele>654</ele>
        <time>2026-07-05T06:09:25.000Z</time>
      </trkpt>
      <trkpt lat="42.99081" lon="1.08817">
        <ele>654</ele>
        <time>2026-07-05T06:09:30.000Z</time>
      </trkpt>
      <trkpt lat="42.99068" lon="1.08799">
        <ele>657</ele>
        <time>2026-07-05T06:09:35.000Z</time>
      </trkpt>
      <trkpt lat="42.99055" lon="1.08781">
        <ele>658</ele>
        <time>2026-07-05T06:09:40.000Z</time>
      </trkpt>
      <trkpt lat="42.99042" lon="1.08766">
        <ele>660</ele>
        <time>2026-07-05T06:09:45.000Z</time>
      </trkpt>
      <trkpt lat="42.99022" lon="1.08758">
        <ele>658</ele>
        <time>2026-07-05T06:09:50.000Z</time>
      </trkpt>
      <trkpt lat="42.99004" lon="1.08759">
        <ele>658</ele>
        <time>2026-07-05T06:09:55.000Z</time>
      </trkpt>
      <trkpt lat="42.9899" lon="1.08764">
        <ele>658</ele>
        <time>2026-07-05T06:10:00.000Z</time>
      </trkpt>
      <trkpt lat="42.98974" lon="1.08766">
        <ele>658</ele>
        <time>2026-07-05T06:10:05.000Z</time>
      </trkpt>
      <trkpt lat="42.98963" lon="1.08767">
        <ele>658</ele>
        <time>2026-07-05T06:10:10.000Z</time>
      </trkpt>
      <trkpt lat="42.9895" lon="1.0877">
        <ele>660</ele>
        <time>2026-07-05T06:10:15.000Z</time>
      </trkpt>
      <trkpt lat="42.98938" lon="1.08772">
        <ele>661</ele>
        <time>2026-07-05T06:10:20.000Z</time>
      </trkpt>
      <trkpt lat="42.98926" lon="1.08774">
        <ele>664</ele>
        <time>2026-07-05T06:10:25.000Z</time>
      </trkpt>
      <trkpt lat="42.98913" lon="1.08777">
        <ele>668</ele>
        <time>2026-07-05T06:10:30.000Z</time>
      </trkpt>
      <trkpt lat="42.98899" lon="1.08781">
        <ele>670</ele>
        <time>2026-07-05T06:10:35.000Z</time>
      </trkpt>
      <trkpt lat="42.98885" lon="1.08785">
        <ele>673</ele>
        <time>2026-07-05T06:10:40.000Z</time>
      </trkpt>
      <trkpt lat="42.98869" lon="1.08789">
        <ele>676</ele>
        <time>2026-07-05T06:10:45.000Z</time>
      </trkpt>
      <trkpt lat="42.98858" lon="1.08792">
        <ele>680</ele>
        <time>2026-07-05T06:10:50.000Z</time>
      </trkpt>
      <trkpt lat="42.9885" lon="1.08796">
        <ele>681</ele>
        <time>2026-07-05T06:10:55.000Z</time>
      </trkpt>
      <trkpt lat="42.98843" lon="1.08797">
        <ele>682</ele>
        <time>2026-07-05T06:11:00.000Z</time>
      </trkpt>
      <trkpt lat="42.98836" lon="1.08795">
        <ele>688</ele>
        <time>2026-07-05T06:11:05.000Z</time>
      </trkpt>
      <trkpt lat="42.98828" lon="1.08789">
        <ele>694</ele>
        <time>2026-07-05T06:11:10.000Z</time>
      </trkpt>
      <trkpt lat="42.98817" lon="1.08789">
        <ele>695</ele>
        <time>2026-07-05T06:11:15.000Z</time>
      </trkpt>
      <trkpt lat="42.98805" lon="1.0879">
        <ele>694</ele>
        <time>2026-07-05T06:11:20.000Z</time>
      </trkpt>
      <trkpt lat="42.98795" lon="1.08792">
        <ele>693</ele>
        <time>2026-07-05T06:11:25.000Z</time>
      </trkpt>
      <trkpt lat="42.98785" lon="1.08796">
        <ele>692</ele>
        <time>2026-07-05T06:11:30.000Z</time>
      </trkpt>
      <trkpt lat="42.98773" lon="1.08799">
        <ele>692</ele>
        <time>2026-07-05T06:11:35.000Z</time>
      </trkpt>
      <trkpt lat="42.9876" lon="1.088">
        <ele>690</ele>
        <time>2026-07-05T06:11:40.000Z</time>
      </trkpt>
      <trkpt lat="42.98743" lon="1.088">
        <ele>689</ele>
        <time>2026-07-05T06:11:45.000Z</time>
      </trkpt>
      <trkpt lat="42.98729" lon="1.088">
        <ele>688</ele>
        <time>2026-07-05T06:11:50.000Z</time>
      </trkpt>
      <trkpt lat="42.98716" lon="1.08801">
        <ele>688</ele>
        <time>2026-07-05T06:11:55.000Z</time>
      </trkpt>
      <trkpt lat="42.98705" lon="1.08801">
        <ele>689</ele>
        <time>2026-07-05T06:12:00.000Z</time>
      </trkpt>
      <trkpt lat="42.98694" lon="1.088">
        <ele>689</ele>
        <time>2026-07-05T06:12:05.000Z</time>
      </trkpt>
      <trkpt lat="42.98683" lon="1.08798">
        <ele>691</ele>
        <time>2026-07-05T06:12:10.000Z</time>
      </trkpt>
      <trkpt lat="42.98674" lon="1.08797">
        <ele>692</ele>
        <time>2026-07-05T06:12:15.000Z</time>
      </trkpt>
      <trkpt lat="42.98665" lon="1.08796">
        <ele>693</ele>
        <time>2026-07-05T06:12:20.000Z</time>
      </trkpt>
      <trkpt lat="42.98655" lon="1.08795">
        <ele>694</ele>
        <time>2026-07-05T06:12:25.000Z</time>
      </trkpt>
      <trkpt lat="42.98645" lon="1.08792">
        <ele>695</ele>
        <time>2026-07-05T06:12:30.000Z</time>
      </trkpt>
      <trkpt lat="42.98635" lon="1.0879">
        <ele>696</ele>
        <time>2026-07-05T06:12:35.000Z</time>
      </trkpt>
      <trkpt lat="42.98628" lon="1.08785">
        <ele>697</ele>
        <time>2026-07-05T06:12:40.000Z</time>
      </trkpt>
      <trkpt lat="42.98619" lon="1.08779">
        <ele>699</ele>
        <time>2026-07-05T06:12:45.000Z</time>
      </trkpt>
      <trkpt lat="42.98605" lon="1.0877">
        <ele>698</ele>
        <time>2026-07-05T06:12:50.000Z</time>
      </trkpt>
      <trkpt lat="42.9859" lon="1.0876">
        <ele>699</ele>
        <time>2026-07-05T06:12:55.000Z</time>
      </trkpt>
      <trkpt lat="42.98575" lon="1.08752">
        <ele>700</ele>
        <time>2026-07-05T06:13:00.000Z</time>
      </trkpt>
      <trkpt lat="42.98559" lon="1.08744">
        <ele>700</ele>
        <time>2026-07-05T06:13:05.000Z</time>
      </trkpt>
      <trkpt lat="42.98538" lon="1.08732">
        <ele>702</ele>
        <time>2026-07-05T06:13:10.000Z</time>
      </trkpt>
      <trkpt lat="42.98515" lon="1.08733">
        <ele>698</ele>
        <time>2026-07-05T06:13:15.000Z</time>
      </trkpt>
      <trkpt lat="42.98497" lon="1.08751">
        <ele>698</ele>
        <time>2026-07-05T06:13:20.000Z</time>
      </trkpt>
      <trkpt lat="42.98487" lon="1.08771">
        <ele>699</ele>
        <time>2026-07-05T06:13:25.000Z</time>
      </trkpt>
      <trkpt lat="42.98477" lon="1.0879">
        <ele>699</ele>
        <time>2026-07-05T06:13:30.000Z</time>
      </trkpt>
      <trkpt lat="42.98468" lon="1.08809">
        <ele>700</ele>
        <time>2026-07-05T06:13:35.000Z</time>
      </trkpt>
      <trkpt lat="42.98459" lon="1.08827">
        <ele>700</ele>
        <time>2026-07-05T06:13:40.000Z</time>
      </trkpt>
      <trkpt lat="42.98448" lon="1.08844">
        <ele>701</ele>
        <time>2026-07-05T06:13:45.000Z</time>
      </trkpt>
      <trkpt lat="42.98435" lon="1.0886">
        <ele>701</ele>
        <time>2026-07-05T06:13:50.000Z</time>
      </trkpt>
      <trkpt lat="42.98419" lon="1.08884">
        <ele>699</ele>
        <time>2026-07-05T06:13:55.000Z</time>
      </trkpt>
      <trkpt lat="42.984" lon="1.08892">
        <ele>697</ele>
        <time>2026-07-05T06:14:00.000Z</time>
      </trkpt>
      <trkpt lat="42.98376" lon="1.0887">
        <ele>699</ele>
        <time>2026-07-05T06:14:05.000Z</time>
      </trkpt>
      <trkpt lat="42.98355" lon="1.08845">
        <ele>699</ele>
        <time>2026-07-05T06:14:10.000Z</time>
      </trkpt>
      <trkpt lat="42.98338" lon="1.0882">
        <ele>699</ele>
        <time>2026-07-05T06:14:15.000Z</time>
      </trkpt>
      <trkpt lat="42.9832" lon="1.08794">
        <ele>699</ele>
        <time>2026-07-05T06:14:20.000Z</time>
      </trkpt>
      <trkpt lat="42.98311" lon="1.08764">
        <ele>700</ele>
        <time>2026-07-05T06:14:25.000Z</time>
      </trkpt>
      <trkpt lat="42.98302" lon="1.08744">
        <ele>702</ele>
        <time>2026-07-05T06:14:30.000Z</time>
      </trkpt>
      <trkpt lat="42.98295" lon="1.08727">
        <ele>704</ele>
        <time>2026-07-05T06:14:35.000Z</time>
      </trkpt>
      <trkpt lat="42.98303" lon="1.08716">
        <ele>705</ele>
        <time>2026-07-05T06:14:40.000Z</time>
      </trkpt>
      <trkpt lat="42.98308" lon="1.08704">
        <ele>705</ele>
        <time>2026-07-05T06:14:45.000Z</time>
      </trkpt>
      <trkpt lat="42.98307" lon="1.08701">
        <ele>705</ele>
        <time>2026-07-05T06:14:50.000Z</time>
      </trkpt>
      <trkpt lat="42.98311" lon="1.08697">
        <ele>705</ele>
        <time>2026-07-05T06:14:55.000Z</time>
      </trkpt>
      <trkpt lat="42.98314" lon="1.08688">
        <ele>707</ele>
        <time>2026-07-05T06:15:00.000Z</time>
      </trkpt>
      <trkpt lat="42.98312" lon="1.0868">
        <ele>708</ele>
        <time>2026-07-05T06:15:05.000Z</time>
      </trkpt>
      <trkpt lat="42.98311" lon="1.08679">
        <ele>708</ele>
        <time>2026-07-05T06:15:10.000Z</time>
      </trkpt>
      <trkpt lat="42.98309" lon="1.08671">
        <ele>711</ele>
        <time>2026-07-05T06:15:15.000Z</time>
      </trkpt>
      <trkpt lat="42.98307" lon="1.08662">
        <ele>712</ele>
        <time>2026-07-05T06:15:20.000Z</time>
      </trkpt>
      <trkpt lat="42.98307" lon="1.08649">
        <ele>713</ele>
        <time>2026-07-05T06:15:25.000Z</time>
      </trkpt>
      <trkpt lat="42.98306" lon="1.08639">
        <ele>716</ele>
        <time>2026-07-05T06:15:30.000Z</time>
      </trkpt>
      <trkpt lat="42.98304" lon="1.08628">
        <ele>719</ele>
        <time>2026-07-05T06:15:35.000Z</time>
      </trkpt>
      <trkpt lat="42.98301" lon="1.08619">
        <ele>721</ele>
        <time>2026-07-05T06:15:40.000Z</time>
      </trkpt>
      <trkpt lat="42.983" lon="1.08607">
        <ele>723</ele>
        <time>2026-07-05T06:15:45.000Z</time>
      </trkpt>
      <trkpt lat="42.98297" lon="1.08596">
        <ele>726</ele>
        <time>2026-07-05T06:15:50.000Z</time>
      </trkpt>
      <trkpt lat="42.98295" lon="1.08582">
        <ele>728</ele>
        <time>2026-07-05T06:15:55.000Z</time>
      </trkpt>
      <trkpt lat="42.98292" lon="1.0857">
        <ele>729</ele>
        <time>2026-07-05T06:16:00.000Z</time>
      </trkpt>
      <trkpt lat="42.98289" lon="1.08557">
        <ele>730</ele>
        <time>2026-07-05T06:16:05.000Z</time>
      </trkpt>
      <trkpt lat="42.98284" lon="1.08546">
        <ele>730</ele>
        <time>2026-07-05T06:16:10.000Z</time>
      </trkpt>
      <trkpt lat="42.98281" lon="1.08537">
        <ele>732</ele>
        <time>2026-07-05T06:16:15.000Z</time>
      </trkpt>
      <trkpt lat="42.98277" lon="1.08525">
        <ele>735</ele>
        <time>2026-07-05T06:16:20.000Z</time>
      </trkpt>
      <trkpt lat="42.9827" lon="1.08514">
        <ele>735</ele>
        <time>2026-07-05T06:16:25.000Z</time>
      </trkpt>
      <trkpt lat="42.98263" lon="1.08502">
        <ele>736</ele>
        <time>2026-07-05T06:16:30.000Z</time>
      </trkpt>
      <trkpt lat="42.98252" lon="1.08494">
        <ele>736</ele>
        <time>2026-07-05T06:16:35.000Z</time>
      </trkpt>
      <trkpt lat="42.98243" lon="1.08482">
        <ele>736</ele>
        <time>2026-07-05T06:16:40.000Z</time>
      </trkpt>
      <trkpt lat="42.98231" lon="1.08466">
        <ele>735</ele>
        <time>2026-07-05T06:16:45.000Z</time>
      </trkpt>
      <trkpt lat="42.98219" lon="1.08449">
        <ele>735</ele>
        <time>2026-07-05T06:16:50.000Z</time>
      </trkpt>
      <trkpt lat="42.98209" lon="1.08437">
        <ele>733</ele>
        <time>2026-07-05T06:16:55.000Z</time>
      </trkpt>
      <trkpt lat="42.98196" lon="1.08431">
        <ele>734</ele>
        <time>2026-07-05T06:17:00.000Z</time>
      </trkpt>
      <trkpt lat="42.98187" lon="1.08419">
        <ele>735</ele>
        <time>2026-07-05T06:17:05.000Z</time>
      </trkpt>
      <trkpt lat="42.98181" lon="1.08406">
        <ele>735</ele>
        <time>2026-07-05T06:17:10.000Z</time>
      </trkpt>
      <trkpt lat="42.98177" lon="1.08393">
        <ele>736</ele>
        <time>2026-07-05T06:17:15.000Z</time>
      </trkpt>
      <trkpt lat="42.98172" lon="1.08382">
        <ele>736</ele>
        <time>2026-07-05T06:17:20.000Z</time>
      </trkpt>
      <trkpt lat="42.98166" lon="1.0837">
        <ele>738</ele>
        <time>2026-07-05T06:17:25.000Z</time>
      </trkpt>
      <trkpt lat="42.98161" lon="1.08359">
        <ele>741</ele>
        <time>2026-07-05T06:17:30.000Z</time>
      </trkpt>
      <trkpt lat="42.98156" lon="1.08346">
        <ele>742</ele>
        <time>2026-07-05T06:17:35.000Z</time>
      </trkpt>
      <trkpt lat="42.98152" lon="1.08333">
        <ele>744</ele>
        <time>2026-07-05T06:17:40.000Z</time>
      </trkpt>
      <trkpt lat="42.98148" lon="1.08323">
        <ele>746</ele>
        <time>2026-07-05T06:17:45.000Z</time>
      </trkpt>
      <trkpt lat="42.98143" lon="1.08311">
        <ele>748</ele>
        <time>2026-07-05T06:17:50.000Z</time>
      </trkpt>
      <trkpt lat="42.98137" lon="1.08299">
        <ele>750</ele>
        <time>2026-07-05T06:17:55.000Z</time>
      </trkpt>
      <trkpt lat="42.98131" lon="1.08295">
        <ele>751</ele>
        <time>2026-07-05T06:18:00.000Z</time>
      </trkpt>
      <trkpt lat="42.98125" lon="1.0829">
        <ele>753</ele>
        <time>2026-07-05T06:18:05.000Z</time>
      </trkpt>
      <trkpt lat="42.98119" lon="1.08282">
        <ele>755</ele>
        <time>2026-07-05T06:18:10.000Z</time>
      </trkpt>
      <trkpt lat="42.98114" lon="1.08277">
        <ele>758</ele>
        <time>2026-07-05T06:18:15.000Z</time>
      </trkpt>
      <trkpt lat="42.98109" lon="1.08271">
        <ele>761</ele>
        <time>2026-07-05T06:18:20.000Z</time>
      </trkpt>
      <trkpt lat="42.98101" lon="1.08261">
        <ele>764</ele>
        <time>2026-07-05T06:18:25.000Z</time>
      </trkpt>
      <trkpt lat="42.98095" lon="1.0825">
        <ele>762</ele>
        <time>2026-07-05T06:18:30.000Z</time>
      </trkpt>
      <trkpt lat="42.98085" lon="1.08239">
        <ele>762</ele>
        <time>2026-07-05T06:18:35.000Z</time>
      </trkpt>
      <trkpt lat="42.98075" lon="1.08234">
        <ele>761</ele>
        <time>2026-07-05T06:18:40.000Z</time>
      </trkpt>
      <trkpt lat="42.98066" lon="1.08226">
        <ele>763</ele>
        <time>2026-07-05T06:18:45.000Z</time>
      </trkpt>
      <trkpt lat="42.98061" lon="1.08218">
        <ele>764</ele>
        <time>2026-07-05T06:18:50.000Z</time>
      </trkpt>
      <trkpt lat="42.98051" lon="1.08208">
        <ele>764</ele>
        <time>2026-07-05T06:18:55.000Z</time>
      </trkpt>
      <trkpt lat="42.98042" lon="1.082">
        <ele>763</ele>
        <time>2026-07-05T06:19:00.000Z</time>
      </trkpt>
      <trkpt lat="42.98031" lon="1.08183">
        <ele>762</ele>
        <time>2026-07-05T06:19:05.000Z</time>
      </trkpt>
      <trkpt lat="42.98019" lon="1.08165">
        <ele>762</ele>
        <time>2026-07-05T06:19:10.000Z</time>
      </trkpt>
      <trkpt lat="42.98005" lon="1.08138">
        <ele>760</ele>
        <time>2026-07-05T06:19:15.000Z</time>
      </trkpt>
      <trkpt lat="42.97993" lon="1.0812">
        <ele>759</ele>
        <time>2026-07-05T06:19:20.000Z</time>
      </trkpt>
      <trkpt lat="42.97981" lon="1.081">
        <ele>758</ele>
        <time>2026-07-05T06:19:25.000Z</time>
      </trkpt>
      <trkpt lat="42.97963" lon="1.08072">
        <ele>749</ele>
        <time>2026-07-05T06:19:30.000Z</time>
      </trkpt>
      <trkpt lat="42.9795" lon="1.08054">
        <ele>747</ele>
        <time>2026-07-05T06:19:35.000Z</time>
      </trkpt>
      <trkpt lat="42.97933" lon="1.08032">
        <ele>739</ele>
        <time>2026-07-05T06:19:40.000Z</time>
      </trkpt>
      <trkpt lat="42.97919" lon="1.07985">
        <ele>732</ele>
        <time>2026-07-05T06:19:45.000Z</time>
      </trkpt>
      <trkpt lat="42.97923" lon="1.07943">
        <ele>729</ele>
        <time>2026-07-05T06:19:50.000Z</time>
      </trkpt>
      <trkpt lat="42.97923" lon="1.07918">
        <ele>728</ele>
        <time>2026-07-05T06:19:55.000Z</time>
      </trkpt>
      <trkpt lat="42.97916" lon="1.0788">
        <ele>726</ele>
        <time>2026-07-05T06:20:00.000Z</time>
      </trkpt>
      <trkpt lat="42.97908" lon="1.07839">
        <ele>723</ele>
        <time>2026-07-05T06:20:05.000Z</time>
      </trkpt>
      <trkpt lat="42.97886" lon="1.07792">
        <ele>719</ele>
        <time>2026-07-05T06:20:10.000Z</time>
      </trkpt>
      <trkpt lat="42.97845" lon="1.07784">
        <ele>714</ele>
        <time>2026-07-05T06:20:15.000Z</time>
      </trkpt>
      <trkpt lat="42.97818" lon="1.07781">
        <ele>714</ele>
        <time>2026-07-05T06:20:20.000Z</time>
      </trkpt>
      <trkpt lat="42.97796" lon="1.07779">
        <ele>715</ele>
        <time>2026-07-05T06:20:25.000Z</time>
      </trkpt>
      <trkpt lat="42.97774" lon="1.07774">
        <ele>715</ele>
        <time>2026-07-05T06:20:30.000Z</time>
      </trkpt>
      <trkpt lat="42.97756" lon="1.07769">
        <ele>717</ele>
        <time>2026-07-05T06:20:35.000Z</time>
      </trkpt>
      <trkpt lat="42.97745" lon="1.07761">
        <ele>719</ele>
        <time>2026-07-05T06:20:40.000Z</time>
      </trkpt>
      <trkpt lat="42.97737" lon="1.07754">
        <ele>719</ele>
        <time>2026-07-05T06:20:45.000Z</time>
      </trkpt>
      <trkpt lat="42.97731" lon="1.07745">
        <ele>721</ele>
        <time>2026-07-05T06:20:50.000Z</time>
      </trkpt>
      <trkpt lat="42.97724" lon="1.07736">
        <ele>722</ele>
        <time>2026-07-05T06:20:55.000Z</time>
      </trkpt>
      <trkpt lat="42.97718" lon="1.07727">
        <ele>722</ele>
        <time>2026-07-05T06:21:00.000Z</time>
      </trkpt>
      <trkpt lat="42.97711" lon="1.07719">
        <ele>723</ele>
        <time>2026-07-05T06:21:05.000Z</time>
      </trkpt>
      <trkpt lat="42.97704" lon="1.07712">
        <ele>724</ele>
        <time>2026-07-05T06:21:10.000Z</time>
      </trkpt>
      <trkpt lat="42.97697" lon="1.07706">
        <ele>726</ele>
        <time>2026-07-05T06:21:15.000Z</time>
      </trkpt>
      <trkpt lat="42.97693" lon="1.07699">
        <ele>728</ele>
        <time>2026-07-05T06:21:20.000Z</time>
      </trkpt>
      <trkpt lat="42.97691" lon="1.07698">
        <ele>728</ele>
        <time>2026-07-05T06:21:25.000Z</time>
      </trkpt>
      <trkpt lat="42.97689" lon="1.07692">
        <ele>729</ele>
        <time>2026-07-05T06:21:30.000Z</time>
      </trkpt>
      <trkpt lat="42.97683" lon="1.07684">
        <ele>731</ele>
        <time>2026-07-05T06:21:35.000Z</time>
      </trkpt>
      <trkpt lat="42.97678" lon="1.07677">
        <ele>735</ele>
        <time>2026-07-05T06:21:40.000Z</time>
      </trkpt>
      <trkpt lat="42.97672" lon="1.07671">
        <ele>738</ele>
        <time>2026-07-05T06:21:45.000Z</time>
      </trkpt>
      <trkpt lat="42.97668" lon="1.07664">
        <ele>740</ele>
        <time>2026-07-05T06:21:50.000Z</time>
      </trkpt>
      <trkpt lat="42.97662" lon="1.07655">
        <ele>744</ele>
        <time>2026-07-05T06:21:55.000Z</time>
      </trkpt>
      <trkpt lat="42.97658" lon="1.07648">
        <ele>747</ele>
        <time>2026-07-05T06:22:00.000Z</time>
      </trkpt>
      <trkpt lat="42.97654" lon="1.07644">
        <ele>750</ele>
        <time>2026-07-05T06:22:05.000Z</time>
      </trkpt>
      <trkpt lat="42.97651" lon="1.07639">
        <ele>752</ele>
        <time>2026-07-05T06:22:10.000Z</time>
      </trkpt>
      <trkpt lat="42.97646" lon="1.07631">
        <ele>754</ele>
        <time>2026-07-05T06:22:15.000Z</time>
      </trkpt>
      <trkpt lat="42.97639" lon="1.07624">
        <ele>757</ele>
        <time>2026-07-05T06:22:20.000Z</time>
      </trkpt>
      <trkpt lat="42.97633" lon="1.0762">
        <ele>758</ele>
        <time>2026-07-05T06:22:25.000Z</time>
      </trkpt>
      <trkpt lat="42.97628" lon="1.07615">
        <ele>760</ele>
        <time>2026-07-05T06:22:30.000Z</time>
      </trkpt>
      <trkpt lat="42.97621" lon="1.07609">
        <ele>760</ele>
        <time>2026-07-05T06:22:35.000Z</time>
      </trkpt>
      <trkpt lat="42.97617" lon="1.07602">
        <ele>761</ele>
        <time>2026-07-05T06:22:40.000Z</time>
      </trkpt>
      <trkpt lat="42.9761" lon="1.07595">
        <ele>762</ele>
        <time>2026-07-05T06:22:45.000Z</time>
      </trkpt>
      <trkpt lat="42.97605" lon="1.07586">
        <ele>765</ele>
        <time>2026-07-05T06:22:50.000Z</time>
      </trkpt>
      <trkpt lat="42.97597" lon="1.07576">
        <ele>766</ele>
        <time>2026-07-05T06:22:55.000Z</time>
      </trkpt>
      <trkpt lat="42.97589" lon="1.07568">
        <ele>769</ele>
        <time>2026-07-05T06:23:00.000Z</time>
      </trkpt>
      <trkpt lat="42.97582" lon="1.07559">
        <ele>771</ele>
        <time>2026-07-05T06:23:05.000Z</time>
      </trkpt>
      <trkpt lat="42.97573" lon="1.07551">
        <ele>772</ele>
        <time>2026-07-05T06:23:10.000Z</time>
      </trkpt>
      <trkpt lat="42.97564" lon="1.07543">
        <ele>772</ele>
        <time>2026-07-05T06:23:15.000Z</time>
      </trkpt>
      <trkpt lat="42.97556" lon="1.07535">
        <ele>772</ele>
        <time>2026-07-05T06:23:20.000Z</time>
      </trkpt>
      <trkpt lat="42.97552" lon="1.07526">
        <ele>775</ele>
        <time>2026-07-05T06:23:25.000Z</time>
      </trkpt>
      <trkpt lat="42.97545" lon="1.07519">
        <ele>778</ele>
        <time>2026-07-05T06:23:30.000Z</time>
      </trkpt>
      <trkpt lat="42.97542" lon="1.07512">
        <ele>780</ele>
        <time>2026-07-05T06:23:35.000Z</time>
      </trkpt>
      <trkpt lat="42.97538" lon="1.07506">
        <ele>779</ele>
        <time>2026-07-05T06:23:40.000Z</time>
      </trkpt>
      <trkpt lat="42.97533" lon="1.07499">
        <ele>779</ele>
        <time>2026-07-05T06:23:45.000Z</time>
      </trkpt>
      <trkpt lat="42.97526" lon="1.07491">
        <ele>779</ele>
        <time>2026-07-05T06:23:50.000Z</time>
      </trkpt>
      <trkpt lat="42.97519" lon="1.07486">
        <ele>780</ele>
        <time>2026-07-05T06:23:55.000Z</time>
      </trkpt>
      <trkpt lat="42.97511" lon="1.07479">
        <ele>780</ele>
        <time>2026-07-05T06:24:00.000Z</time>
      </trkpt>
      <trkpt lat="42.97504" lon="1.07471">
        <ele>781</ele>
        <time>2026-07-05T06:24:05.000Z</time>
      </trkpt>
      <trkpt lat="42.97498" lon="1.07464">
        <ele>781</ele>
        <time>2026-07-05T06:24:10.000Z</time>
      </trkpt>
      <trkpt lat="42.97495" lon="1.07458">
        <ele>781</ele>
        <time>2026-07-05T06:24:15.000Z</time>
      </trkpt>
      <trkpt lat="42.97488" lon="1.07448">
        <ele>783</ele>
        <time>2026-07-05T06:24:20.000Z</time>
      </trkpt>
      <trkpt lat="42.97481" lon="1.0744">
        <ele>784</ele>
        <time>2026-07-05T06:24:25.000Z</time>
      </trkpt>
      <trkpt lat="42.97478" lon="1.0743">
        <ele>786</ele>
        <time>2026-07-05T06:24:30.000Z</time>
      </trkpt>
      <trkpt lat="42.97474" lon="1.07421">
        <ele>788</ele>
        <time>2026-07-05T06:24:35.000Z</time>
      </trkpt>
      <trkpt lat="42.97469" lon="1.07414">
        <ele>790</ele>
        <time>2026-07-05T06:24:40.000Z</time>
      </trkpt>
      <trkpt lat="42.97463" lon="1.07407">
        <ele>791</ele>
        <time>2026-07-05T06:24:45.000Z</time>
      </trkpt>
      <trkpt lat="42.97456" lon="1.07399">
        <ele>791</ele>
        <time>2026-07-05T06:24:50.000Z</time>
      </trkpt>
      <trkpt lat="42.9745" lon="1.07393">
        <ele>792</ele>
        <time>2026-07-05T06:24:55.000Z</time>
      </trkpt>
      <trkpt lat="42.97443" lon="1.07385">
        <ele>793</ele>
        <time>2026-07-05T06:25:00.000Z</time>
      </trkpt>
      <trkpt lat="42.97437" lon="1.07377">
        <ele>793</ele>
        <time>2026-07-05T06:25:05.000Z</time>
      </trkpt>
      <trkpt lat="42.9743" lon="1.07368">
        <ele>794</ele>
        <time>2026-07-05T06:25:10.000Z</time>
      </trkpt>
      <trkpt lat="42.97422" lon="1.07358">
        <ele>797</ele>
        <time>2026-07-05T06:25:15.000Z</time>
      </trkpt>
      <trkpt lat="42.97408" lon="1.07347">
        <ele>798</ele>
        <time>2026-07-05T06:25:20.000Z</time>
      </trkpt>
      <trkpt lat="42.97396" lon="1.07333">
        <ele>802</ele>
        <time>2026-07-05T06:25:25.000Z</time>
      </trkpt>
      <trkpt lat="42.97385" lon="1.07319">
        <ele>806</ele>
        <time>2026-07-05T06:25:30.000Z</time>
      </trkpt>
      <trkpt lat="42.97373" lon="1.07307">
        <ele>810</ele>
        <time>2026-07-05T06:25:35.000Z</time>
      </trkpt>
      <trkpt lat="42.9736" lon="1.07296">
        <ele>815</ele>
        <time>2026-07-05T06:25:40.000Z</time>
      </trkpt>
      <trkpt lat="42.97346" lon="1.07287">
        <ele>817</ele>
        <time>2026-07-05T06:25:45.000Z</time>
      </trkpt>
      <trkpt lat="42.97334" lon="1.07282">
        <ele>818</ele>
        <time>2026-07-05T06:25:50.000Z</time>
      </trkpt>
      <trkpt lat="42.97319" lon="1.07279">
        <ele>820</ele>
        <time>2026-07-05T06:25:55.000Z</time>
      </trkpt>
      <trkpt lat="42.97306" lon="1.07279">
        <ele>820</ele>
        <time>2026-07-05T06:26:00.000Z</time>
      </trkpt>
      <trkpt lat="42.97289" lon="1.0727">
        <ele>822</ele>
        <time>2026-07-05T06:26:05.000Z</time>
      </trkpt>
      <trkpt lat="42.97283" lon="1.07259">
        <ele>823</ele>
        <time>2026-07-05T06:26:10.000Z</time>
      </trkpt>
      <trkpt lat="42.97283" lon="1.07255">
        <ele>825</ele>
        <time>2026-07-05T06:26:15.000Z</time>
      </trkpt>
      <trkpt lat="42.97282" lon="1.07255">
        <ele>824</ele>
        <time>2026-07-05T06:26:20.000Z</time>
      </trkpt>
      <trkpt lat="42.97282" lon="1.07248">
        <ele>825</ele>
        <time>2026-07-05T06:26:25.000Z</time>
      </trkpt>
      <trkpt lat="42.97277" lon="1.07239">
        <ele>828</ele>
        <time>2026-07-05T06:26:30.000Z</time>
      </trkpt>
      <trkpt lat="42.97272" lon="1.07232">
        <ele>832</ele>
        <time>2026-07-05T06:26:35.000Z</time>
      </trkpt>
      <trkpt lat="42.97265" lon="1.07221">
        <ele>833</ele>
        <time>2026-07-05T06:26:40.000Z</time>
      </trkpt>
      <trkpt lat="42.97254" lon="1.07209">
        <ele>835</ele>
        <time>2026-07-05T06:26:45.000Z</time>
      </trkpt>
      <trkpt lat="42.97243" lon="1.07198">
        <ele>837</ele>
        <time>2026-07-05T06:26:50.000Z</time>
      </trkpt>
      <trkpt lat="42.97232" lon="1.07195">
        <ele>839</ele>
        <time>2026-07-05T06:26:55.000Z</time>
      </trkpt>
      <trkpt lat="42.9722" lon="1.07189">
        <ele>841</ele>
        <time>2026-07-05T06:27:00.000Z</time>
      </trkpt>
      <trkpt lat="42.97213" lon="1.07182">
        <ele>841</ele>
        <time>2026-07-05T06:27:05.000Z</time>
      </trkpt>
      <trkpt lat="42.97203" lon="1.0718">
        <ele>842</ele>
        <time>2026-07-05T06:27:10.000Z</time>
      </trkpt>
      <trkpt lat="42.97191" lon="1.07176">
        <ele>847</ele>
        <time>2026-07-05T06:27:15.000Z</time>
      </trkpt>
      <trkpt lat="42.9718" lon="1.07166">
        <ele>849</ele>
        <time>2026-07-05T06:27:20.000Z</time>
      </trkpt>
      <trkpt lat="42.97172" lon="1.07151">
        <ele>850</ele>
        <time>2026-07-05T06:27:25.000Z</time>
      </trkpt>
      <trkpt lat="42.97168" lon="1.07139">
        <ele>850</ele>
        <time>2026-07-05T06:27:30.000Z</time>
      </trkpt>
      <trkpt lat="42.97167" lon="1.07123">
        <ele>851</ele>
        <time>2026-07-05T06:27:35.000Z</time>
      </trkpt>
      <trkpt lat="42.97164" lon="1.07112">
        <ele>853</ele>
        <time>2026-07-05T06:27:40.000Z</time>
      </trkpt>
      <trkpt lat="42.97157" lon="1.07106">
        <ele>854</ele>
        <time>2026-07-05T06:27:45.000Z</time>
      </trkpt>
      <trkpt lat="42.97152" lon="1.07101">
        <ele>856</ele>
        <time>2026-07-05T06:27:50.000Z</time>
      </trkpt>
      <trkpt lat="42.97145" lon="1.07096">
        <ele>859</ele>
        <time>2026-07-05T06:27:55.000Z</time>
      </trkpt>
      <trkpt lat="42.97139" lon="1.07092">
        <ele>862</ele>
        <time>2026-07-05T06:28:00.000Z</time>
      </trkpt>
      <trkpt lat="42.9713" lon="1.07088">
        <ele>864</ele>
        <time>2026-07-05T06:28:05.000Z</time>
      </trkpt>
      <trkpt lat="42.97123" lon="1.07085">
        <ele>864</ele>
        <time>2026-07-05T06:28:10.000Z</time>
      </trkpt>
      <trkpt lat="42.97118" lon="1.0708">
        <ele>865</ele>
        <time>2026-07-05T06:28:15.000Z</time>
      </trkpt>
      <trkpt lat="42.9711" lon="1.07078">
        <ele>865</ele>
        <time>2026-07-05T06:28:20.000Z</time>
      </trkpt>
      <trkpt lat="42.97105" lon="1.07075">
        <ele>866</ele>
        <time>2026-07-05T06:28:25.000Z</time>
      </trkpt>
      <trkpt lat="42.97102" lon="1.07076">
        <ele>866</ele>
        <time>2026-07-05T06:28:30.000Z</time>
      </trkpt>
      <trkpt lat="42.97095" lon="1.07079">
        <ele>867</ele>
        <time>2026-07-05T06:28:35.000Z</time>
      </trkpt>
      <trkpt lat="42.97088" lon="1.07081">
        <ele>867</ele>
        <time>2026-07-05T06:28:40.000Z</time>
      </trkpt>
      <trkpt lat="42.9708" lon="1.07084">
        <ele>869</ele>
        <time>2026-07-05T06:28:45.000Z</time>
      </trkpt>
      <trkpt lat="42.97072" lon="1.07086">
        <ele>869</ele>
        <time>2026-07-05T06:28:50.000Z</time>
      </trkpt>
      <trkpt lat="42.97062" lon="1.07087">
        <ele>871</ele>
        <time>2026-07-05T06:28:55.000Z</time>
      </trkpt>
      <trkpt lat="42.97051" lon="1.07082">
        <ele>871</ele>
        <time>2026-07-05T06:29:00.000Z</time>
      </trkpt>
      <trkpt lat="42.97043" lon="1.07079">
        <ele>870</ele>
        <time>2026-07-05T06:29:05.000Z</time>
      </trkpt>
      <trkpt lat="42.97037" lon="1.07076">
        <ele>871</ele>
        <time>2026-07-05T06:29:10.000Z</time>
      </trkpt>
      <trkpt lat="42.97027" lon="1.07076">
        <ele>870</ele>
        <time>2026-07-05T06:29:15.000Z</time>
      </trkpt>
      <trkpt lat="42.97018" lon="1.07072">
        <ele>870</ele>
        <time>2026-07-05T06:29:20.000Z</time>
      </trkpt>
      <trkpt lat="42.97017" lon="1.07062">
        <ele>870</ele>
        <time>2026-07-05T06:29:25.000Z</time>
      </trkpt>
      <trkpt lat="42.9702" lon="1.07055">
        <ele>870</ele>
        <time>2026-07-05T06:29:30.000Z</time>
      </trkpt>
      <trkpt lat="42.97022" lon="1.07046">
        <ele>870</ele>
        <time>2026-07-05T06:29:35.000Z</time>
      </trkpt>
      <trkpt lat="42.97026" lon="1.07038">
        <ele>871</ele>
        <time>2026-07-05T06:29:40.000Z</time>
      </trkpt>
      <trkpt lat="42.9703" lon="1.07029">
        <ele>873</ele>
        <time>2026-07-05T06:29:45.000Z</time>
      </trkpt>
      <trkpt lat="42.97032" lon="1.07019">
        <ele>877</ele>
        <time>2026-07-05T06:29:50.000Z</time>
      </trkpt>
      <trkpt lat="42.97033" lon="1.07008">
        <ele>880</ele>
        <time>2026-07-05T06:29:55.000Z</time>
      </trkpt>
      <trkpt lat="42.9703" lon="1.07001">
        <ele>884</ele>
        <time>2026-07-05T06:30:00.000Z</time>
      </trkpt>
      <trkpt lat="42.97026" lon="1.06993">
        <ele>887</ele>
        <time>2026-07-05T06:30:05.000Z</time>
      </trkpt>
      <trkpt lat="42.97022" lon="1.06985">
        <ele>888</ele>
        <time>2026-07-05T06:30:10.000Z</time>
      </trkpt>
      <trkpt lat="42.97017" lon="1.06976">
        <ele>891</ele>
        <time>2026-07-05T06:30:15.000Z</time>
      </trkpt>
      <trkpt lat="42.97013" lon="1.06967">
        <ele>892</ele>
        <time>2026-07-05T06:30:20.000Z</time>
      </trkpt>
      <trkpt lat="42.97006" lon="1.0696">
        <ele>895</ele>
        <time>2026-07-05T06:30:25.000Z</time>
      </trkpt>
      <trkpt lat="42.96999" lon="1.0695">
        <ele>896</ele>
        <time>2026-07-05T06:30:30.000Z</time>
      </trkpt>
      <trkpt lat="42.96995" lon="1.06937">
        <ele>897</ele>
        <time>2026-07-05T06:30:35.000Z</time>
      </trkpt>
      <trkpt lat="42.96989" lon="1.06921">
        <ele>899</ele>
        <time>2026-07-05T06:30:40.000Z</time>
      </trkpt>
      <trkpt lat="42.96981" lon="1.06904">
        <ele>898</ele>
        <time>2026-07-05T06:30:45.000Z</time>
      </trkpt>
      <trkpt lat="42.96971" lon="1.06873">
        <ele>897</ele>
        <time>2026-07-05T06:30:50.000Z</time>
      </trkpt>
      <trkpt lat="42.96961" lon="1.06853">
        <ele>899</ele>
        <time>2026-07-05T06:30:55.000Z</time>
      </trkpt>
      <trkpt lat="42.96961" lon="1.06842">
        <ele>900</ele>
        <time>2026-07-05T06:31:00.000Z</time>
      </trkpt>
      <trkpt lat="42.96954" lon="1.06834">
        <ele>900</ele>
        <time>2026-07-05T06:31:05.000Z</time>
      </trkpt>
      <trkpt lat="42.96939" lon="1.06828">
        <ele>899</ele>
        <time>2026-07-05T06:31:10.000Z</time>
      </trkpt>
      <trkpt lat="42.96922" lon="1.06827">
        <ele>899</ele>
        <time>2026-07-05T06:31:15.000Z</time>
      </trkpt>
      <trkpt lat="42.96904" lon="1.06813">
        <ele>899</ele>
        <time>2026-07-05T06:31:20.000Z</time>
      </trkpt>
      <trkpt lat="42.96885" lon="1.068">
        <ele>899</ele>
        <time>2026-07-05T06:31:25.000Z</time>
      </trkpt>
      <trkpt lat="42.96861" lon="1.06787">
        <ele>898</ele>
        <time>2026-07-05T06:31:30.000Z</time>
      </trkpt>
      <trkpt lat="42.96833" lon="1.06774">
        <ele>895</ele>
        <time>2026-07-05T06:31:35.000Z</time>
      </trkpt>
      <trkpt lat="42.96805" lon="1.06764">
        <ele>893</ele>
        <time>2026-07-05T06:31:40.000Z</time>
      </trkpt>
      <trkpt lat="42.9678" lon="1.06768">
        <ele>890</ele>
        <time>2026-07-05T06:31:45.000Z</time>
      </trkpt>
      <trkpt lat="42.96754" lon="1.0676">
        <ele>889</ele>
        <time>2026-07-05T06:31:50.000Z</time>
      </trkpt>
      <trkpt lat="42.96725" lon="1.06738">
        <ele>887</ele>
        <time>2026-07-05T06:31:55.000Z</time>
      </trkpt>
      <trkpt lat="42.96697" lon="1.0673">
        <ele>882</ele>
        <time>2026-07-05T06:32:00.000Z</time>
      </trkpt>
      <trkpt lat="42.96676" lon="1.06729">
        <ele>879</ele>
        <time>2026-07-05T06:32:05.000Z</time>
      </trkpt>
      <trkpt lat="42.96642" lon="1.06722">
        <ele>875</ele>
        <time>2026-07-05T06:32:10.000Z</time>
      </trkpt>
      <trkpt lat="42.96608" lon="1.06715">
        <ele>871</ele>
        <time>2026-07-05T06:32:15.000Z</time>
      </trkpt>
      <trkpt lat="42.96581" lon="1.06714">
        <ele>863</ele>
        <time>2026-07-05T06:32:20.000Z</time>
      </trkpt>
      <trkpt lat="42.96556" lon="1.06709">
        <ele>851</ele>
        <time>2026-07-05T06:32:25.000Z</time>
      </trkpt>
      <trkpt lat="42.96526" lon="1.06705">
        <ele>846</ele>
        <time>2026-07-05T06:32:30.000Z</time>
      </trkpt>
      <trkpt lat="42.96493" lon="1.06693">
        <ele>842</ele>
        <time>2026-07-05T06:32:35.000Z</time>
      </trkpt>
      <trkpt lat="42.96463" lon="1.06684">
        <ele>838</ele>
        <time>2026-07-05T06:32:40.000Z</time>
      </trkpt>
      <trkpt lat="42.96441" lon="1.06682">
        <ele>833</ele>
        <time>2026-07-05T06:32:45.000Z</time>
      </trkpt>
      <trkpt lat="42.96416" lon="1.06683">
        <ele>828</ele>
        <time>2026-07-05T06:32:50.000Z</time>
      </trkpt>
      <trkpt lat="42.96391" lon="1.06674">
        <ele>822</ele>
        <time>2026-07-05T06:32:55.000Z</time>
      </trkpt>
      <trkpt lat="42.96371" lon="1.06668">
        <ele>815</ele>
        <time>2026-07-05T06:33:00.000Z</time>
      </trkpt>
      <trkpt lat="42.96355" lon="1.06662">
        <ele>811</ele>
        <time>2026-07-05T06:33:05.000Z</time>
      </trkpt>
      <trkpt lat="42.96341" lon="1.06655">
        <ele>810</ele>
        <time>2026-07-05T06:33:10.000Z</time>
      </trkpt>
      <trkpt lat="42.96325" lon="1.06646">
        <ele>807</ele>
        <time>2026-07-05T06:33:15.000Z</time>
      </trkpt>
      <trkpt lat="42.96307" lon="1.06634">
        <ele>801</ele>
        <time>2026-07-05T06:33:20.000Z</time>
      </trkpt>
      <trkpt lat="42.96292" lon="1.06631">
        <ele>799</ele>
        <time>2026-07-05T06:33:25.000Z</time>
      </trkpt>
      <trkpt lat="42.96277" lon="1.06622">
        <ele>796</ele>
        <time>2026-07-05T06:33:30.000Z</time>
      </trkpt>
      <trkpt lat="42.96264" lon="1.06614">
        <ele>793</ele>
        <time>2026-07-05T06:33:35.000Z</time>
      </trkpt>
      <trkpt lat="42.96249" lon="1.06599">
        <ele>792</ele>
        <time>2026-07-05T06:33:40.000Z</time>
      </trkpt>
      <trkpt lat="42.96235" lon="1.06593">
        <ele>790</ele>
        <time>2026-07-05T06:33:45.000Z</time>
      </trkpt>
      <trkpt lat="42.96219" lon="1.06587">
        <ele>789</ele>
        <time>2026-07-05T06:33:50.000Z</time>
      </trkpt>
      <trkpt lat="42.96198" lon="1.06575">
        <ele>785</ele>
        <time>2026-07-05T06:33:55.000Z</time>
      </trkpt>
      <trkpt lat="42.96176" lon="1.06561">
        <ele>781</ele>
        <time>2026-07-05T06:34:00.000Z</time>
      </trkpt>
      <trkpt lat="42.96156" lon="1.06544">
        <ele>778</ele>
        <time>2026-07-05T06:34:05.000Z</time>
      </trkpt>
      <trkpt lat="42.96142" lon="1.06529">
        <ele>774</ele>
        <time>2026-07-05T06:34:10.000Z</time>
      </trkpt>
      <trkpt lat="42.96131" lon="1.06517">
        <ele>773</ele>
        <time>2026-07-05T06:34:15.000Z</time>
      </trkpt>
      <trkpt lat="42.96109" lon="1.06504">
        <ele>772</ele>
        <time>2026-07-05T06:34:20.000Z</time>
      </trkpt>
      <trkpt lat="42.96087" lon="1.0649">
        <ele>770</ele>
        <time>2026-07-05T06:34:25.000Z</time>
      </trkpt>
      <trkpt lat="42.96073" lon="1.06478">
        <ele>768</ele>
        <time>2026-07-05T06:34:30.000Z</time>
      </trkpt>
      <trkpt lat="42.9606" lon="1.06473">
        <ele>764</ele>
        <time>2026-07-05T06:34:35.000Z</time>
      </trkpt>
      <trkpt lat="42.96043" lon="1.06475">
        <ele>760</ele>
        <time>2026-07-05T06:34:40.000Z</time>
      </trkpt>
      <trkpt lat="42.96022" lon="1.06478">
        <ele>753</ele>
        <time>2026-07-05T06:34:45.000Z</time>
      </trkpt>
      <trkpt lat="42.95992" lon="1.06487">
        <ele>744</ele>
        <time>2026-07-05T06:34:50.000Z</time>
      </trkpt>
      <trkpt lat="42.95961" lon="1.06485">
        <ele>738</ele>
        <time>2026-07-05T06:34:55.000Z</time>
      </trkpt>
      <trkpt lat="42.95934" lon="1.06484">
        <ele>730</ele>
        <time>2026-07-05T06:35:00.000Z</time>
      </trkpt>
      <trkpt lat="42.95922" lon="1.06466">
        <ele>721</ele>
        <time>2026-07-05T06:35:05.000Z</time>
      </trkpt>
      <trkpt lat="42.95921" lon="1.06441">
        <ele>716</ele>
        <time>2026-07-05T06:35:10.000Z</time>
      </trkpt>
      <trkpt lat="42.95899" lon="1.0642">
        <ele>709</ele>
        <time>2026-07-05T06:35:15.000Z</time>
      </trkpt>
      <trkpt lat="42.95875" lon="1.064">
        <ele>704</ele>
        <time>2026-07-05T06:35:20.000Z</time>
      </trkpt>
      <trkpt lat="42.95846" lon="1.06392">
        <ele>703</ele>
        <time>2026-07-05T06:35:25.000Z</time>
      </trkpt>
      <trkpt lat="42.95828" lon="1.06378">
        <ele>699</ele>
        <time>2026-07-05T06:35:30.000Z</time>
      </trkpt>
      <trkpt lat="42.95816" lon="1.06371">
        <ele>695</ele>
        <time>2026-07-05T06:35:35.000Z</time>
      </trkpt>
      <trkpt lat="42.95804" lon="1.06369">
        <ele>692</ele>
        <time>2026-07-05T06:35:40.000Z</time>
      </trkpt>
      <trkpt lat="42.9579" lon="1.06368">
        <ele>688</ele>
        <time>2026-07-05T06:35:45.000Z</time>
      </trkpt>
      <trkpt lat="42.95785" lon="1.06367">
        <ele>683</ele>
        <time>2026-07-05T06:35:50.000Z</time>
      </trkpt>
      <trkpt lat="42.95784" lon="1.06348">
        <ele>681</ele>
        <time>2026-07-05T06:35:55.000Z</time>
      </trkpt>
      <trkpt lat="42.95787" lon="1.06325">
        <ele>679</ele>
        <time>2026-07-05T06:36:00.000Z</time>
      </trkpt>
      <trkpt lat="42.95791" lon="1.06313">
        <ele>677</ele>
        <time>2026-07-05T06:36:05.000Z</time>
      </trkpt>
      <trkpt lat="42.95776" lon="1.06316">
        <ele>674</ele>
        <time>2026-07-05T06:36:10.000Z</time>
      </trkpt>
      <trkpt lat="42.95761" lon="1.06322">
        <ele>671</ele>
        <time>2026-07-05T06:36:15.000Z</time>
      </trkpt>
      <trkpt lat="42.95744" lon="1.06332">
        <ele>665</ele>
        <time>2026-07-05T06:36:20.000Z</time>
      </trkpt>
      <trkpt lat="42.95734" lon="1.06338">
        <ele>662</ele>
        <time>2026-07-05T06:36:25.000Z</time>
      </trkpt>
      <trkpt lat="42.95732" lon="1.06341">
        <ele>658</ele>
        <time>2026-07-05T06:36:30.000Z</time>
      </trkpt>
      <trkpt lat="42.95728" lon="1.06343">
        <ele>655</ele>
        <time>2026-07-05T06:36:35.000Z</time>
      </trkpt>
      <trkpt lat="42.95711" lon="1.06358">
        <ele>654</ele>
        <time>2026-07-05T06:36:40.000Z</time>
      </trkpt>
      <trkpt lat="42.95693" lon="1.06359">
        <ele>652</ele>
        <time>2026-07-05T06:36:45.000Z</time>
      </trkpt>
      <trkpt lat="42.95674" lon="1.06352">
        <ele>649</ele>
        <time>2026-07-05T06:36:50.000Z</time>
      </trkpt>
      <trkpt lat="42.95651" lon="1.06342">
        <ele>646</ele>
        <time>2026-07-05T06:36:55.000Z</time>
      </trkpt>
      <trkpt lat="42.95632" lon="1.06335">
        <ele>644</ele>
        <time>2026-07-05T06:37:00.000Z</time>
      </trkpt>
      <trkpt lat="42.95597" lon="1.06324">
        <ele>642</ele>
        <time>2026-07-05T06:37:05.000Z</time>
      </trkpt>
      <trkpt lat="42.95562" lon="1.06321">
        <ele>635</ele>
        <time>2026-07-05T06:37:10.000Z</time>
      </trkpt>
      <trkpt lat="42.9554" lon="1.06318">
        <ele>628</ele>
        <time>2026-07-05T06:37:15.000Z</time>
      </trkpt>
      <trkpt lat="42.95522" lon="1.06314">
        <ele>624</ele>
        <time>2026-07-05T06:37:20.000Z</time>
      </trkpt>
      <trkpt lat="42.95507" lon="1.06313">
        <ele>621</ele>
        <time>2026-07-05T06:37:25.000Z</time>
      </trkpt>
      <trkpt lat="42.95491" lon="1.06314">
        <ele>616</ele>
        <time>2026-07-05T06:37:30.000Z</time>
      </trkpt>
      <trkpt lat="42.95476" lon="1.06309">
        <ele>612</ele>
        <time>2026-07-05T06:37:35.000Z</time>
      </trkpt>
      <trkpt lat="42.95462" lon="1.06303">
        <ele>609</ele>
        <time>2026-07-05T06:37:40.000Z</time>
      </trkpt>
      <trkpt lat="42.95444" lon="1.063">
        <ele>606</ele>
        <time>2026-07-05T06:37:45.000Z</time>
      </trkpt>
      <trkpt lat="42.95429" lon="1.06303">
        <ele>603</ele>
        <time>2026-07-05T06:37:50.000Z</time>
      </trkpt>
      <trkpt lat="42.95418" lon="1.06294">
        <ele>599</ele>
        <time>2026-07-05T06:37:55.000Z</time>
      </trkpt>
      <trkpt lat="42.95412" lon="1.06286">
        <ele>594</ele>
        <time>2026-07-05T06:38:00.000Z</time>
      </trkpt>
      <trkpt lat="42.95413" lon="1.06273">
        <ele>592</ele>
        <time>2026-07-05T06:38:05.000Z</time>
      </trkpt>
      <trkpt lat="42.95396" lon="1.06263">
        <ele>591</ele>
        <time>2026-07-05T06:38:10.000Z</time>
      </trkpt>
      <trkpt lat="42.95382" lon="1.06258">
        <ele>591</ele>
        <time>2026-07-05T06:38:15.000Z</time>
      </trkpt>
      <trkpt lat="42.95365" lon="1.06256">
        <ele>591</ele>
        <time>2026-07-05T06:38:20.000Z</time>
      </trkpt>
      <trkpt lat="42.95346" lon="1.06255">
        <ele>591</ele>
        <time>2026-07-05T06:38:25.000Z</time>
      </trkpt>
      <trkpt lat="42.95328" lon="1.06254">
        <ele>589</ele>
        <time>2026-07-05T06:38:30.000Z</time>
      </trkpt>
      <trkpt lat="42.95297" lon="1.06256">
        <ele>587</ele>
        <time>2026-07-05T06:38:35.000Z</time>
      </trkpt>
      <trkpt lat="42.95277" lon="1.0626">
        <ele>583</ele>
        <time>2026-07-05T06:38:40.000Z</time>
      </trkpt>
      <trkpt lat="42.95259" lon="1.06265">
        <ele>581</ele>
        <time>2026-07-05T06:38:45.000Z</time>
      </trkpt>
      <trkpt lat="42.95235" lon="1.06273">
        <ele>578</ele>
        <time>2026-07-05T06:38:50.000Z</time>
      </trkpt>
      <trkpt lat="42.95209" lon="1.06282">
        <ele>576</ele>
        <time>2026-07-05T06:38:55.000Z</time>
      </trkpt>
      <trkpt lat="42.95181" lon="1.06295">
        <ele>573</ele>
        <time>2026-07-05T06:39:00.000Z</time>
      </trkpt>
      <trkpt lat="42.95151" lon="1.06299">
        <ele>570</ele>
        <time>2026-07-05T06:39:05.000Z</time>
      </trkpt>
      <trkpt lat="42.95129" lon="1.06299">
        <ele>569</ele>
        <time>2026-07-05T06:39:10.000Z</time>
      </trkpt>
      <trkpt lat="42.95113" lon="1.06288">
        <ele>568</ele>
        <time>2026-07-05T06:39:15.000Z</time>
      </trkpt>
      <trkpt lat="42.95098" lon="1.06262">
        <ele>565</ele>
        <time>2026-07-05T06:39:20.000Z</time>
      </trkpt>
      <trkpt lat="42.95078" lon="1.06221">
        <ele>563</ele>
        <time>2026-07-05T06:39:25.000Z</time>
      </trkpt>
      <trkpt lat="42.95059" lon="1.0617">
        <ele>562</ele>
        <time>2026-07-05T06:39:30.000Z</time>
      </trkpt>
      <trkpt lat="42.95041" lon="1.06127">
        <ele>558</ele>
        <time>2026-07-05T06:39:35.000Z</time>
      </trkpt>
      <trkpt lat="42.95021" lon="1.06085">
        <ele>557</ele>
        <time>2026-07-05T06:39:40.000Z</time>
      </trkpt>
      <trkpt lat="42.95005" lon="1.06047">
        <ele>554</ele>
        <time>2026-07-05T06:39:45.000Z</time>
      </trkpt>
      <trkpt lat="42.94989" lon="1.06017">
        <ele>549</ele>
        <time>2026-07-05T06:39:50.000Z</time>
      </trkpt>
      <trkpt lat="42.94975" lon="1.05982">
        <ele>546</ele>
        <time>2026-07-05T06:39:55.000Z</time>
      </trkpt>
      <trkpt lat="42.94959" lon="1.05932">
        <ele>540</ele>
        <time>2026-07-05T06:40:00.000Z</time>
      </trkpt>
      <trkpt lat="42.94946" lon="1.05904">
        <ele>534</ele>
        <time>2026-07-05T06:40:05.000Z</time>
      </trkpt>
      <trkpt lat="42.94939" lon="1.05891">
        <ele>527</ele>
        <time>2026-07-05T06:40:10.000Z</time>
      </trkpt>
      <trkpt lat="42.94954" lon="1.05863">
        <ele>525</ele>
        <time>2026-07-05T06:40:15.000Z</time>
      </trkpt>
      <trkpt lat="42.94972" lon="1.05828">
        <ele>524</ele>
        <time>2026-07-05T06:40:20.000Z</time>
      </trkpt>
      <trkpt lat="42.94987" lon="1.05801">
        <ele>522</ele>
        <time>2026-07-05T06:40:25.000Z</time>
      </trkpt>
      <trkpt lat="42.95006" lon="1.05774">
        <ele>520</ele>
        <time>2026-07-05T06:40:30.000Z</time>
      </trkpt>
      <trkpt lat="42.95015" lon="1.05761">
        <ele>519</ele>
        <time>2026-07-05T06:40:35.000Z</time>
      </trkpt>
      <trkpt lat="42.95015" lon="1.05761">
        <ele>518</ele>
        <time>2026-07-05T06:40:40.000Z</time>
      </trkpt>
      <trkpt lat="42.95013" lon="1.05764">
        <ele>518</ele>
        <time>2026-07-05T06:40:45.000Z</time>
      </trkpt>
      <trkpt lat="42.9501" lon="1.05756">
        <ele>519</ele>
        <time>2026-07-05T06:40:50.000Z</time>
      </trkpt>
      <trkpt lat="42.9499" lon="1.05736">
        <ele>518</ele>
        <time>2026-07-05T06:40:55.000Z</time>
      </trkpt>
      <trkpt lat="42.94964" lon="1.0572">
        <ele>521</ele>
        <time>2026-07-05T06:41:00.000Z</time>
      </trkpt>
      <trkpt lat="42.94943" lon="1.05707">
        <ele>522</ele>
        <time>2026-07-05T06:41:05.000Z</time>
      </trkpt>
      <trkpt lat="42.9492" lon="1.05695">
        <ele>522</ele>
        <time>2026-07-05T06:41:10.000Z</time>
      </trkpt>
      <trkpt lat="42.94902" lon="1.05687">
        <ele>520</ele>
        <time>2026-07-05T06:41:15.000Z</time>
      </trkpt>
      <trkpt lat="42.94897" lon="1.05669">
        <ele>520</ele>
        <time>2026-07-05T06:41:20.000Z</time>
      </trkpt>
      <trkpt lat="42.94908" lon="1.05632">
        <ele>520</ele>
        <time>2026-07-05T06:41:25.000Z</time>
      </trkpt>
      <trkpt lat="42.9492" lon="1.05595">
        <ele>518</ele>
        <time>2026-07-05T06:41:30.000Z</time>
      </trkpt>
      <trkpt lat="42.94932" lon="1.05558">
        <ele>517</ele>
        <time>2026-07-05T06:41:35.000Z</time>
      </trkpt>
      <trkpt lat="42.94946" lon="1.05523">
        <ele>517</ele>
        <time>2026-07-05T06:41:40.000Z</time>
      </trkpt>
      <trkpt lat="42.94959" lon="1.05489">
        <ele>517</ele>
        <time>2026-07-05T06:41:45.000Z</time>
      </trkpt>
      <trkpt lat="42.94973" lon="1.05454">
        <ele>516</ele>
        <time>2026-07-05T06:41:50.000Z</time>
      </trkpt>
      <trkpt lat="42.94986" lon="1.05421">
        <ele>516</ele>
        <time>2026-07-05T06:41:55.000Z</time>
      </trkpt>
      <trkpt lat="42.94999" lon="1.05387">
        <ele>515</ele>
        <time>2026-07-05T06:42:00.000Z</time>
      </trkpt>
      <trkpt lat="42.95001" lon="1.05349">
        <ele>515</ele>
        <time>2026-07-05T06:42:05.000Z</time>
      </trkpt>
      <trkpt lat="42.95003" lon="1.05308">
        <ele>516</ele>
        <time>2026-07-05T06:42:10.000Z</time>
      </trkpt>
      <trkpt lat="42.95013" lon="1.05273">
        <ele>516</ele>
        <time>2026-07-05T06:42:15.000Z</time>
      </trkpt>
      <trkpt lat="42.95023" lon="1.05235">
        <ele>517</ele>
        <time>2026-07-05T06:42:20.000Z</time>
      </trkpt>
      <trkpt lat="42.95032" lon="1.05201">
        <ele>516</ele>
        <time>2026-07-05T06:42:25.000Z</time>
      </trkpt>
      <trkpt lat="42.95037" lon="1.05165">
        <ele>515</ele>
        <time>2026-07-05T06:42:30.000Z</time>
      </trkpt>
      <trkpt lat="42.95043" lon="1.0513">
        <ele>514</ele>
        <time>2026-07-05T06:42:35.000Z</time>
      </trkpt>
      <trkpt lat="42.95052" lon="1.05094">
        <ele>513</ele>
        <time>2026-07-05T06:42:40.000Z</time>
      </trkpt>
      <trkpt lat="42.9506" lon="1.05062">
        <ele>514</ele>
        <time>2026-07-05T06:42:45.000Z</time>
      </trkpt>
      <trkpt lat="42.9507" lon="1.05035">
        <ele>515</ele>
        <time>2026-07-05T06:42:50.000Z</time>
      </trkpt>
      <trkpt lat="42.9508" lon="1.05011">
        <ele>516</ele>
        <time>2026-07-05T06:42:55.000Z</time>
      </trkpt>
      <trkpt lat="42.95089" lon="1.0499">
        <ele>516</ele>
        <time>2026-07-05T06:43:00.000Z</time>
      </trkpt>
      <trkpt lat="42.95091" lon="1.04954">
        <ele>518</ele>
        <time>2026-07-05T06:43:05.000Z</time>
      </trkpt>
      <trkpt lat="42.95088" lon="1.04917">
        <ele>517</ele>
        <time>2026-07-05T06:43:10.000Z</time>
      </trkpt>
      <trkpt lat="42.9509" lon="1.04879">
        <ele>521</ele>
        <time>2026-07-05T06:43:15.000Z</time>
      </trkpt>
      <trkpt lat="42.95093" lon="1.04847">
        <ele>521</ele>
        <time>2026-07-05T06:43:20.000Z</time>
      </trkpt>
      <trkpt lat="42.95097" lon="1.04813">
        <ele>520</ele>
        <time>2026-07-05T06:43:25.000Z</time>
      </trkpt>
      <trkpt lat="42.95098" lon="1.04791">
        <ele>520</ele>
        <time>2026-07-05T06:43:30.000Z</time>
      </trkpt>
      <trkpt lat="42.95098" lon="1.04768">
        <ele>521</ele>
        <time>2026-07-05T06:43:35.000Z</time>
      </trkpt>
      <trkpt lat="42.95095" lon="1.04748">
        <ele>521</ele>
        <time>2026-07-05T06:43:40.000Z</time>
      </trkpt>
      <trkpt lat="42.95088" lon="1.04733">
        <ele>522</ele>
        <time>2026-07-05T06:43:45.000Z</time>
      </trkpt>
      <trkpt lat="42.95081" lon="1.04716">
        <ele>520</ele>
        <time>2026-07-05T06:43:50.000Z</time>
      </trkpt>
      <trkpt lat="42.95072" lon="1.04698">
        <ele>520</ele>
        <time>2026-07-05T06:43:55.000Z</time>
      </trkpt>
      <trkpt lat="42.9506" lon="1.04678">
        <ele>522</ele>
        <time>2026-07-05T06:44:00.000Z</time>
      </trkpt>
      <trkpt lat="42.95043" lon="1.04642">
        <ele>523</ele>
        <time>2026-07-05T06:44:05.000Z</time>
      </trkpt>
      <trkpt lat="42.95031" lon="1.04611">
        <ele>523</ele>
        <time>2026-07-05T06:44:10.000Z</time>
      </trkpt>
      <trkpt lat="42.95023" lon="1.04581">
        <ele>522</ele>
        <time>2026-07-05T06:44:15.000Z</time>
      </trkpt>
      <trkpt lat="42.95015" lon="1.04549">
        <ele>524</ele>
        <time>2026-07-05T06:44:20.000Z</time>
      </trkpt>
      <trkpt lat="42.95008" lon="1.0452">
        <ele>524</ele>
        <time>2026-07-05T06:44:25.000Z</time>
      </trkpt>
      <trkpt lat="42.95001" lon="1.04484">
        <ele>524</ele>
        <time>2026-07-05T06:44:30.000Z</time>
      </trkpt>
      <trkpt lat="42.94992" lon="1.04447">
        <ele>525</ele>
        <time>2026-07-05T06:44:35.000Z</time>
      </trkpt>
      <trkpt lat="42.94984" lon="1.0441">
        <ele>525</ele>
        <time>2026-07-05T06:44:40.000Z</time>
      </trkpt>
      <trkpt lat="42.94974" lon="1.04376">
        <ele>526</ele>
        <time>2026-07-05T06:44:45.000Z</time>
      </trkpt>
      <trkpt lat="42.9498" lon="1.04343">
        <ele>524</ele>
        <time>2026-07-05T06:44:50.000Z</time>
      </trkpt>
      <trkpt lat="42.94996" lon="1.04312">
        <ele>522</ele>
        <time>2026-07-05T06:44:55.000Z</time>
      </trkpt>
      <trkpt lat="42.9501" lon="1.04286">
        <ele>521</ele>
        <time>2026-07-05T06:45:00.000Z</time>
      </trkpt>
      <trkpt lat="42.95022" lon="1.04261">
        <ele>522</ele>
        <time>2026-07-05T06:45:05.000Z</time>
      </trkpt>
      <trkpt lat="42.95025" lon="1.04247">
        <ele>522</ele>
        <time>2026-07-05T06:45:10.000Z</time>
      </trkpt>
      <trkpt lat="42.95027" lon="1.04241">
        <ele>523</ele>
        <time>2026-07-05T06:45:15.000Z</time>
      </trkpt>
      <trkpt lat="42.95027" lon="1.0424">
        <ele>523</ele>
        <time>2026-07-05T06:45:20.000Z</time>
      </trkpt>
      <trkpt lat="42.95024" lon="1.04236">
        <ele>525</ele>
        <time>2026-07-05T06:45:25.000Z</time>
      </trkpt>
      <trkpt lat="42.95026" lon="1.04239">
        <ele>524</ele>
        <time>2026-07-05T06:45:30.000Z</time>
      </trkpt>
      <trkpt lat="42.95026" lon="1.04244">
        <ele>519</ele>
        <time>2026-07-05T06:46:41.000Z</time>
      </trkpt>
      <trkpt lat="42.95026" lon="1.04245">
        <ele>520</ele>
        <time>2026-07-05T06:46:59.000Z</time>
      </trkpt>
      <trkpt lat="42.95024" lon="1.04246">
        <ele>514</ele>
        <time>2026-07-05T06:47:29.000Z</time>
      </trkpt>
      <trkpt lat="42.95026" lon="1.04243">
        <ele>517</ele>
        <time>2026-07-05T06:48:17.000Z</time>
      </trkpt>
      <trkpt lat="42.95028" lon="1.0424">
        <ele>524</ele>
        <time>2026-07-05T06:50:29.000Z</time>
      </trkpt>
      <trkpt lat="42.95027" lon="1.04237">
        <ele>522</ele>
        <time>2026-07-05T06:50:34.000Z</time>
      </trkpt>
      <trkpt lat="42.95026" lon="1.0424">
        <ele>525</ele>
        <time>2026-07-05T06:50:54.000Z</time>
      </trkpt>
      <trkpt lat="42.95028" lon="1.04241">
        <ele>524</ele>
        <time>2026-07-05T06:50:59.000Z</time>
      </trkpt>
      <trkpt lat="42.95027" lon="1.0424">
        <ele>524</ele>
        <time>2026-07-05T06:51:04.000Z</time>
      </trkpt>
      <trkpt lat="42.95024" lon="1.04243">
        <ele>523</ele>
        <time>2026-07-05T06:51:30.000Z</time>
      </trkpt>
      <trkpt lat="42.95025" lon="1.04245">
        <ele>522</ele>
        <time>2026-07-05T06:51:35.000Z</time>
      </trkpt>
      <trkpt lat="42.95025" lon="1.04246">
        <ele>520</ele>
        <time>2026-07-05T06:51:40.000Z</time>
      </trkpt>
      <trkpt lat="42.95026" lon="1.04245">
        <ele>519</ele>
        <time>2026-07-05T06:52:01.000Z</time>
      </trkpt>
      <trkpt lat="42.95025" lon="1.04241">
        <ele>521</ele>
        <time>2026-07-05T06:52:06.000Z</time>
      </trkpt>
      <trkpt lat="42.95028" lon="1.04238">
        <ele>521</ele>
        <time>2026-07-05T06:52:11.000Z</time>
      </trkpt>
      <trkpt lat="42.95027" lon="1.04233">
        <ele>520</ele>
        <time>2026-07-05T06:53:42.000Z</time>
      </trkpt>
      <trkpt lat="42.95027" lon="1.04233">
        <ele>519</ele>
        <time>2026-07-05T06:53:47.000Z</time>
      </trkpt>
      <trkpt lat="42.95024" lon="1.04229">
        <ele>518</ele>
        <time>2026-07-05T06:53:52.000Z</time>
      </trkpt>
      <trkpt lat="42.95017" lon="1.04221">
        <ele>519</ele>
        <time>2026-07-05T06:53:57.000Z</time>
      </trkpt>
      <trkpt lat="42.95018" lon="1.04203">
        <ele>519</ele>
        <time>2026-07-05T06:54:02.000Z</time>
      </trkpt>
      <trkpt lat="42.9502" lon="1.04179">
        <ele>521</ele>
        <time>2026-07-05T06:54:07.000Z</time>
      </trkpt>
      <trkpt lat="42.95016" lon="1.04159">
        <ele>520</ele>
        <time>2026-07-05T06:54:12.000Z</time>
      </trkpt>
      <trkpt lat="42.95018" lon="1.04136">
        <ele>519</ele>
        <time>2026-07-05T06:54:17.000Z</time>
      </trkpt>
      <trkpt lat="42.95022" lon="1.0412">
        <ele>519</ele>
        <time>2026-07-05T06:54:22.000Z</time>
      </trkpt>
      <trkpt lat="42.9503" lon="1.04105">
        <ele>520</ele>
        <time>2026-07-05T06:54:27.000Z</time>
      </trkpt>
      <trkpt lat="42.9504" lon="1.04095">
        <ele>522</ele>
        <time>2026-07-05T06:54:32.000Z</time>
      </trkpt>
      <trkpt lat="42.95047" lon="1.04081">
        <ele>523</ele>
        <time>2026-07-05T06:54:37.000Z</time>
      </trkpt>
      <trkpt lat="42.95053" lon="1.04066">
        <ele>524</ele>
        <time>2026-07-05T06:54:42.000Z</time>
      </trkpt>
      <trkpt lat="42.95061" lon="1.04055">
        <ele>525</ele>
        <time>2026-07-05T06:54:47.000Z</time>
      </trkpt>
      <trkpt lat="42.95069" lon="1.04043">
        <ele>527</ele>
        <time>2026-07-05T06:54:52.000Z</time>
      </trkpt>
      <trkpt lat="42.95075" lon="1.04028">
        <ele>528</ele>
        <time>2026-07-05T06:54:57.000Z</time>
      </trkpt>
      <trkpt lat="42.9508" lon="1.04014">
        <ele>530</ele>
        <time>2026-07-05T06:55:02.000Z</time>
      </trkpt>
      <trkpt lat="42.95083" lon="1.03998">
        <ele>532</ele>
        <time>2026-07-05T06:55:07.000Z</time>
      </trkpt>
      <trkpt lat="42.95087" lon="1.03979">
        <ele>533</ele>
        <time>2026-07-05T06:55:12.000Z</time>
      </trkpt>
      <trkpt lat="42.95087" lon="1.03962">
        <ele>535</ele>
        <time>2026-07-05T06:55:17.000Z</time>
      </trkpt>
      <trkpt lat="42.95081" lon="1.03965">
        <ele>537</ele>
        <time>2026-07-05T06:55:22.000Z</time>
      </trkpt>
      <trkpt lat="42.95079" lon="1.03982">
        <ele>539</ele>
        <time>2026-07-05T06:55:27.000Z</time>
      </trkpt>
      <trkpt lat="42.95072" lon="1.03994">
        <ele>541</ele>
        <time>2026-07-05T06:55:32.000Z</time>
      </trkpt>
      <trkpt lat="42.95066" lon="1.04003">
        <ele>542</ele>
        <time>2026-07-05T06:55:37.000Z</time>
      </trkpt>
      <trkpt lat="42.95062" lon="1.0401">
        <ele>542</ele>
        <time>2026-07-05T06:55:42.000Z</time>
      </trkpt>
      <trkpt lat="42.95058" lon="1.04018">
        <ele>545</ele>
        <time>2026-07-05T06:55:47.000Z</time>
      </trkpt>
      <trkpt lat="42.95053" lon="1.04023">
        <ele>544</ele>
        <time>2026-07-05T06:55:52.000Z</time>
      </trkpt>
      <trkpt lat="42.95048" lon="1.04029">
        <ele>546</ele>
        <time>2026-07-05T06:55:57.000Z</time>
      </trkpt>
      <trkpt lat="42.95041" lon="1.04035">
        <ele>548</ele>
        <time>2026-07-05T06:56:02.000Z</time>
      </trkpt>
      <trkpt lat="42.95033" lon="1.0404">
        <ele>546</ele>
        <time>2026-07-05T06:56:07.000Z</time>
      </trkpt>
      <trkpt lat="42.95024" lon="1.04046">
        <ele>549</ele>
        <time>2026-07-05T06:56:12.000Z</time>
      </trkpt>
      <trkpt lat="42.95018" lon="1.04053">
        <ele>551</ele>
        <time>2026-07-05T06:56:17.000Z</time>
      </trkpt>
      <trkpt lat="42.95005" lon="1.04059">
        <ele>552</ele>
        <time>2026-07-05T06:56:22.000Z</time>
      </trkpt>
      <trkpt lat="42.94994" lon="1.04065">
        <ele>552</ele>
        <time>2026-07-05T06:56:27.000Z</time>
      </trkpt>
      <trkpt lat="42.94994" lon="1.04058">
        <ele>551</ele>
        <time>2026-07-05T06:56:32.000Z</time>
      </trkpt>
      <trkpt lat="42.94997" lon="1.04052">
        <ele>550</ele>
        <time>2026-07-05T06:56:37.000Z</time>
      </trkpt>
      <trkpt lat="42.95" lon="1.04044">
        <ele>553</ele>
        <time>2026-07-05T06:56:42.000Z</time>
      </trkpt>
      <trkpt lat="42.95003" lon="1.04036">
        <ele>554</ele>
        <time>2026-07-05T06:56:47.000Z</time>
      </trkpt>
      <trkpt lat="42.95007" lon="1.04025">
        <ele>556</ele>
        <time>2026-07-05T06:56:52.000Z</time>
      </trkpt>
      <trkpt lat="42.95011" lon="1.04012">
        <ele>559</ele>
        <time>2026-07-05T06:56:57.000Z</time>
      </trkpt>
      <trkpt lat="42.95015" lon="1.03998">
        <ele>561</ele>
        <time>2026-07-05T06:57:02.000Z</time>
      </trkpt>
      <trkpt lat="42.95016" lon="1.03982">
        <ele>564</ele>
        <time>2026-07-05T06:57:07.000Z</time>
      </trkpt>
      <trkpt lat="42.95018" lon="1.03969">
        <ele>565</ele>
        <time>2026-07-05T06:57:12.000Z</time>
      </trkpt>
      <trkpt lat="42.9502" lon="1.03958">
        <ele>566</ele>
        <time>2026-07-05T06:57:17.000Z</time>
      </trkpt>
      <trkpt lat="42.95018" lon="1.03945">
        <ele>567</ele>
        <time>2026-07-05T06:57:22.000Z</time>
      </trkpt>
      <trkpt lat="42.95013" lon="1.0393">
        <ele>567</ele>
        <time>2026-07-05T06:57:27.000Z</time>
      </trkpt>
      <trkpt lat="42.95006" lon="1.03916">
        <ele>567</ele>
        <time>2026-07-05T06:57:32.000Z</time>
      </trkpt>
      <trkpt lat="42.94999" lon="1.03905">
        <ele>570</ele>
        <time>2026-07-05T06:57:37.000Z</time>
      </trkpt>
      <trkpt lat="42.94991" lon="1.03892">
        <ele>568</ele>
        <time>2026-07-05T06:57:42.000Z</time>
      </trkpt>
      <trkpt lat="42.94985" lon="1.03878">
        <ele>570</ele>
        <time>2026-07-05T06:57:47.000Z</time>
      </trkpt>
      <trkpt lat="42.94979" lon="1.03868">
        <ele>571</ele>
        <time>2026-07-05T06:57:52.000Z</time>
      </trkpt>
      <trkpt lat="42.94972" lon="1.03857">
        <ele>572</ele>
        <time>2026-07-05T06:57:57.000Z</time>
      </trkpt>
      <trkpt lat="42.94963" lon="1.03845">
        <ele>573</ele>
        <time>2026-07-05T06:58:02.000Z</time>
      </trkpt>
      <trkpt lat="42.94957" lon="1.03834">
        <ele>574</ele>
        <time>2026-07-05T06:58:07.000Z</time>
      </trkpt>
      <trkpt lat="42.94949" lon="1.03818">
        <ele>576</ele>
        <time>2026-07-05T06:58:12.000Z</time>
      </trkpt>
      <trkpt lat="42.94951" lon="1.03808">
        <ele>578</ele>
        <time>2026-07-05T06:58:17.000Z</time>
      </trkpt>
      <trkpt lat="42.9496" lon="1.03807">
        <ele>579</ele>
        <time>2026-07-05T06:58:22.000Z</time>
      </trkpt>
      <trkpt lat="42.9497" lon="1.03803">
        <ele>579</ele>
        <time>2026-07-05T06:58:27.000Z</time>
      </trkpt>
      <trkpt lat="42.94978" lon="1.03802">
        <ele>581</ele>
        <time>2026-07-05T06:58:32.000Z</time>
      </trkpt>
      <trkpt lat="42.94987" lon="1.03795">
        <ele>582</ele>
        <time>2026-07-05T06:58:37.000Z</time>
      </trkpt>
      <trkpt lat="42.94996" lon="1.03789">
        <ele>583</ele>
        <time>2026-07-05T06:58:42.000Z</time>
      </trkpt>
      <trkpt lat="42.95005" lon="1.03787">
        <ele>584</ele>
        <time>2026-07-05T06:58:47.000Z</time>
      </trkpt>
      <trkpt lat="42.95013" lon="1.03784">
        <ele>584</ele>
        <time>2026-07-05T06:58:52.000Z</time>
      </trkpt>
      <trkpt lat="42.95025" lon="1.03782">
        <ele>585</ele>
        <time>2026-07-05T06:58:57.000Z</time>
      </trkpt>
      <trkpt lat="42.95036" lon="1.03778">
        <ele>586</ele>
        <time>2026-07-05T06:59:02.000Z</time>
      </trkpt>
      <trkpt lat="42.95047" lon="1.03772">
        <ele>588</ele>
        <time>2026-07-05T06:59:07.000Z</time>
      </trkpt>
      <trkpt lat="42.95056" lon="1.03765">
        <ele>589</ele>
        <time>2026-07-05T06:59:12.000Z</time>
      </trkpt>
      <trkpt lat="42.95066" lon="1.03759">
        <ele>589</ele>
        <time>2026-07-05T06:59:17.000Z</time>
      </trkpt>
      <trkpt lat="42.95074" lon="1.03754">
        <ele>590</ele>
        <time>2026-07-05T06:59:22.000Z</time>
      </trkpt>
      <trkpt lat="42.95083" lon="1.03749">
        <ele>591</ele>
        <time>2026-07-05T06:59:27.000Z</time>
      </trkpt>
      <trkpt lat="42.95091" lon="1.03746">
        <ele>593</ele>
        <time>2026-07-05T06:59:32.000Z</time>
      </trkpt>
      <trkpt lat="42.95099" lon="1.03739">
        <ele>593</ele>
        <time>2026-07-05T06:59:37.000Z</time>
      </trkpt>
      <trkpt lat="42.95106" lon="1.03727">
        <ele>595</ele>
        <time>2026-07-05T06:59:42.000Z</time>
      </trkpt>
      <trkpt lat="42.95115" lon="1.03715">
        <ele>596</ele>
        <time>2026-07-05T06:59:47.000Z</time>
      </trkpt>
      <trkpt lat="42.95123" lon="1.037">
        <ele>598</ele>
        <time>2026-07-05T06:59:52.000Z</time>
      </trkpt>
      <trkpt lat="42.9513" lon="1.03687">
        <ele>600</ele>
        <time>2026-07-05T06:59:57.000Z</time>
      </trkpt>
      <trkpt lat="42.95136" lon="1.03673">
        <ele>602</ele>
        <time>2026-07-05T07:00:02.000Z</time>
      </trkpt>
      <trkpt lat="42.95145" lon="1.03659">
        <ele>604</ele>
        <time>2026-07-05T07:00:07.000Z</time>
      </trkpt>
      <trkpt lat="42.95155" lon="1.03644">
        <ele>605</ele>
        <time>2026-07-05T07:00:12.000Z</time>
      </trkpt>
      <trkpt lat="42.95164" lon="1.03629">
        <ele>607</ele>
        <time>2026-07-05T07:00:17.000Z</time>
      </trkpt>
      <trkpt lat="42.9518" lon="1.03612">
        <ele>606</ele>
        <time>2026-07-05T07:00:22.000Z</time>
      </trkpt>
      <trkpt lat="42.95199" lon="1.03578">
        <ele>607</ele>
        <time>2026-07-05T07:00:27.000Z</time>
      </trkpt>
      <trkpt lat="42.9521" lon="1.03551">
        <ele>609</ele>
        <time>2026-07-05T07:00:32.000Z</time>
      </trkpt>
      <trkpt lat="42.9522" lon="1.0353">
        <ele>610</ele>
        <time>2026-07-05T07:00:37.000Z</time>
      </trkpt>
      <trkpt lat="42.95227" lon="1.03508">
        <ele>611</ele>
        <time>2026-07-05T07:00:42.000Z</time>
      </trkpt>
      <trkpt lat="42.95232" lon="1.03486">
        <ele>611</ele>
        <time>2026-07-05T07:00:47.000Z</time>
      </trkpt>
      <trkpt lat="42.95235" lon="1.03465">
        <ele>611</ele>
        <time>2026-07-05T07:00:52.000Z</time>
      </trkpt>
      <trkpt lat="42.95237" lon="1.03445">
        <ele>611</ele>
        <time>2026-07-05T07:00:57.000Z</time>
      </trkpt>
      <trkpt lat="42.95239" lon="1.03428">
        <ele>611</ele>
        <time>2026-07-05T07:01:02.000Z</time>
      </trkpt>
      <trkpt lat="42.95237" lon="1.03406">
        <ele>611</ele>
        <time>2026-07-05T07:01:07.000Z</time>
      </trkpt>
      <trkpt lat="42.95229" lon="1.03374">
        <ele>612</ele>
        <time>2026-07-05T07:01:12.000Z</time>
      </trkpt>
      <trkpt lat="42.95218" lon="1.03346">
        <ele>611</ele>
        <time>2026-07-05T07:01:17.000Z</time>
      </trkpt>
      <trkpt lat="42.95206" lon="1.03337">
        <ele>611</ele>
        <time>2026-07-05T07:01:22.000Z</time>
      </trkpt>
      <trkpt lat="42.95194" lon="1.03323">
        <ele>611</ele>
        <time>2026-07-05T07:01:27.000Z</time>
      </trkpt>
      <trkpt lat="42.95185" lon="1.03307">
        <ele>611</ele>
        <time>2026-07-05T07:01:32.000Z</time>
      </trkpt>
      <trkpt lat="42.95174" lon="1.03294">
        <ele>612</ele>
        <time>2026-07-05T07:01:37.000Z</time>
      </trkpt>
      <trkpt lat="42.95162" lon="1.0328">
        <ele>613</ele>
        <time>2026-07-05T07:01:42.000Z</time>
      </trkpt>
      <trkpt lat="42.95149" lon="1.03267">
        <ele>615</ele>
        <time>2026-07-05T07:01:47.000Z</time>
      </trkpt>
      <trkpt lat="42.95139" lon="1.03251">
        <ele>616</ele>
        <time>2026-07-05T07:01:52.000Z</time>
      </trkpt>
      <trkpt lat="42.95127" lon="1.03235">
        <ele>616</ele>
        <time>2026-07-05T07:01:57.000Z</time>
      </trkpt>
      <trkpt lat="42.95118" lon="1.0322">
        <ele>618</ele>
        <time>2026-07-05T07:02:02.000Z</time>
      </trkpt>
      <trkpt lat="42.95116" lon="1.03203">
        <ele>619</ele>
        <time>2026-07-05T07:02:07.000Z</time>
      </trkpt>
      <trkpt lat="42.95117" lon="1.03187">
        <ele>620</ele>
        <time>2026-07-05T07:02:12.000Z</time>
      </trkpt>
      <trkpt lat="42.95116" lon="1.03188">
        <ele>621</ele>
        <time>2026-07-05T07:02:17.000Z</time>
      </trkpt>
      <trkpt lat="42.95117" lon="1.03198">
        <ele>622</ele>
        <time>2026-07-05T07:02:22.000Z</time>
      </trkpt>
      <trkpt lat="42.95117" lon="1.03209">
        <ele>630</ele>
        <time>2026-07-05T07:02:27.000Z</time>
      </trkpt>
      <trkpt lat="42.95122" lon="1.03223">
        <ele>641</ele>
        <time>2026-07-05T07:02:32.000Z</time>
      </trkpt>
      <trkpt lat="42.95125" lon="1.03236">
        <ele>652</ele>
        <time>2026-07-05T07:02:37.000Z</time>
      </trkpt>
      <trkpt lat="42.95125" lon="1.0325">
        <ele>660</ele>
        <time>2026-07-05T07:02:42.000Z</time>
      </trkpt>
      <trkpt lat="42.95128" lon="1.03265">
        <ele>666</ele>
        <time>2026-07-05T07:02:47.000Z</time>
      </trkpt>
      <trkpt lat="42.95133" lon="1.03279">
        <ele>667</ele>
        <time>2026-07-05T07:02:52.000Z</time>
      </trkpt>
      <trkpt lat="42.95136" lon="1.03295">
        <ele>666</ele>
        <time>2026-07-05T07:02:57.000Z</time>
      </trkpt>
      <trkpt lat="42.9514" lon="1.03311">
        <ele>666</ele>
        <time>2026-07-05T07:03:02.000Z</time>
      </trkpt>
      <trkpt lat="42.95145" lon="1.03324">
        <ele>666</ele>
        <time>2026-07-05T07:03:07.000Z</time>
      </trkpt>
      <trkpt lat="42.9515" lon="1.03336">
        <ele>668</ele>
        <time>2026-07-05T07:03:12.000Z</time>
      </trkpt>
      <trkpt lat="42.95154" lon="1.0335">
        <ele>667</ele>
        <time>2026-07-05T07:03:17.000Z</time>
      </trkpt>
      <trkpt lat="42.95157" lon="1.03362">
        <ele>666</ele>
        <time>2026-07-05T07:03:22.000Z</time>
      </trkpt>
      <trkpt lat="42.95159" lon="1.03376">
        <ele>666</ele>
        <time>2026-07-05T07:03:27.000Z</time>
      </trkpt>
      <trkpt lat="42.9516" lon="1.03396">
        <ele>667</ele>
        <time>2026-07-05T07:03:32.000Z</time>
      </trkpt>
      <trkpt lat="42.95161" lon="1.03413">
        <ele>664</ele>
        <time>2026-07-05T07:03:37.000Z</time>
      </trkpt>
      <trkpt lat="42.95161" lon="1.0343">
        <ele>660</ele>
        <time>2026-07-05T07:03:42.000Z</time>
      </trkpt>
      <trkpt lat="42.9516" lon="1.03442">
        <ele>660</ele>
        <time>2026-07-05T07:03:47.000Z</time>
      </trkpt>
      <trkpt lat="42.95159" lon="1.03455">
        <ele>661</ele>
        <time>2026-07-05T07:03:52.000Z</time>
      </trkpt>
      <trkpt lat="42.95152" lon="1.0347">
        <ele>662</ele>
        <time>2026-07-05T07:03:57.000Z</time>
      </trkpt>
      <trkpt lat="42.95146" lon="1.03483">
        <ele>664</ele>
        <time>2026-07-05T07:04:02.000Z</time>
      </trkpt>
      <trkpt lat="42.9514" lon="1.03496">
        <ele>663</ele>
        <time>2026-07-05T07:04:07.000Z</time>
      </trkpt>
      <trkpt lat="42.95133" lon="1.03508">
        <ele>661</ele>
        <time>2026-07-05T07:04:12.000Z</time>
      </trkpt>
      <trkpt lat="42.95127" lon="1.03518">
        <ele>660</ele>
        <time>2026-07-05T07:04:17.000Z</time>
      </trkpt>
      <trkpt lat="42.9512" lon="1.0353">
        <ele>658</ele>
        <time>2026-07-05T07:04:22.000Z</time>
      </trkpt>
      <trkpt lat="42.95118" lon="1.03539">
        <ele>658</ele>
        <time>2026-07-05T07:04:27.000Z</time>
      </trkpt>
      <trkpt lat="42.95113" lon="1.03545">
        <ele>658</ele>
        <time>2026-07-05T07:04:32.000Z</time>
      </trkpt>
      <trkpt lat="42.95107" lon="1.03554">
        <ele>658</ele>
        <time>2026-07-05T07:04:37.000Z</time>
      </trkpt>
      <trkpt lat="42.95104" lon="1.03564">
        <ele>658</ele>
        <time>2026-07-05T07:04:42.000Z</time>
      </trkpt>
      <trkpt lat="42.95094" lon="1.03574">
        <ele>658</ele>
        <time>2026-07-05T07:04:47.000Z</time>
      </trkpt>
      <trkpt lat="42.95086" lon="1.0358">
        <ele>657</ele>
        <time>2026-07-05T07:04:52.000Z</time>
      </trkpt>
      <trkpt lat="42.95083" lon="1.03585">
        <ele>656</ele>
        <time>2026-07-05T07:04:57.000Z</time>
      </trkpt>
      <trkpt lat="42.95076" lon="1.03591">
        <ele>656</ele>
        <time>2026-07-05T07:05:02.000Z</time>
      </trkpt>
      <trkpt lat="42.95068" lon="1.03599">
        <ele>654</ele>
        <time>2026-07-05T07:05:07.000Z</time>
      </trkpt>
      <trkpt lat="42.95057" lon="1.03599">
        <ele>652</ele>
        <time>2026-07-05T07:05:12.000Z</time>
      </trkpt>
      <trkpt lat="42.95045" lon="1.03594">
        <ele>651</ele>
        <time>2026-07-05T07:05:17.000Z</time>
      </trkpt>
      <trkpt lat="42.95034" lon="1.03583">
        <ele>651</ele>
        <time>2026-07-05T07:05:22.000Z</time>
      </trkpt>
      <trkpt lat="42.95027" lon="1.0357">
        <ele>652</ele>
        <time>2026-07-05T07:05:27.000Z</time>
      </trkpt>
      <trkpt lat="42.95022" lon="1.03558">
        <ele>654</ele>
        <time>2026-07-05T07:05:32.000Z</time>
      </trkpt>
      <trkpt lat="42.95017" lon="1.03547">
        <ele>653</ele>
        <time>2026-07-05T07:05:37.000Z</time>
      </trkpt>
      <trkpt lat="42.95014" lon="1.03535">
        <ele>654</ele>
        <time>2026-07-05T07:05:42.000Z</time>
      </trkpt>
      <trkpt lat="42.95012" lon="1.03523">
        <ele>654</ele>
        <time>2026-07-05T07:05:47.000Z</time>
      </trkpt>
      <trkpt lat="42.95009" lon="1.03508">
        <ele>653</ele>
        <time>2026-07-05T07:05:52.000Z</time>
      </trkpt>
      <trkpt lat="42.95008" lon="1.03494">
        <ele>655</ele>
        <time>2026-07-05T07:05:57.000Z</time>
      </trkpt>
      <trkpt lat="42.95007" lon="1.03483">
        <ele>657</ele>
        <time>2026-07-05T07:06:02.000Z</time>
      </trkpt>
      <trkpt lat="42.95006" lon="1.03473">
        <ele>658</ele>
        <time>2026-07-05T07:06:07.000Z</time>
      </trkpt>
      <trkpt lat="42.95005" lon="1.03462">
        <ele>660</ele>
        <time>2026-07-05T07:06:12.000Z</time>
      </trkpt>
      <trkpt lat="42.95002" lon="1.0345">
        <ele>662</ele>
        <time>2026-07-05T07:06:17.000Z</time>
      </trkpt>
      <trkpt lat="42.94999" lon="1.0344">
        <ele>664</ele>
        <time>2026-07-05T07:06:22.000Z</time>
      </trkpt>
      <trkpt lat="42.94999" lon="1.03424">
        <ele>663</ele>
        <time>2026-07-05T07:06:27.000Z</time>
      </trkpt>
      <trkpt lat="42.95" lon="1.03407">
        <ele>662</ele>
        <time>2026-07-05T07:06:32.000Z</time>
      </trkpt>
      <trkpt lat="42.95" lon="1.03388">
        <ele>661</ele>
        <time>2026-07-05T07:06:37.000Z</time>
      </trkpt>
      <trkpt lat="42.95" lon="1.03367">
        <ele>661</ele>
        <time>2026-07-05T07:06:42.000Z</time>
      </trkpt>
      <trkpt lat="42.94997" lon="1.0335">
        <ele>663</ele>
        <time>2026-07-05T07:06:47.000Z</time>
      </trkpt>
      <trkpt lat="42.94992" lon="1.03336">
        <ele>663</ele>
        <time>2026-07-05T07:06:52.000Z</time>
      </trkpt>
      <trkpt lat="42.94986" lon="1.03323">
        <ele>665</ele>
        <time>2026-07-05T07:06:57.000Z</time>
      </trkpt>
      <trkpt lat="42.94981" lon="1.03309">
        <ele>665</ele>
        <time>2026-07-05T07:07:02.000Z</time>
      </trkpt>
      <trkpt lat="42.94978" lon="1.03295">
        <ele>666</ele>
        <time>2026-07-05T07:07:07.000Z</time>
      </trkpt>
      <trkpt lat="42.94974" lon="1.03285">
        <ele>668</ele>
        <time>2026-07-05T07:07:12.000Z</time>
      </trkpt>
      <trkpt lat="42.94969" lon="1.03268">
        <ele>668</ele>
        <time>2026-07-05T07:07:17.000Z</time>
      </trkpt>
      <trkpt lat="42.94966" lon="1.03253">
        <ele>669</ele>
        <time>2026-07-05T07:07:22.000Z</time>
      </trkpt>
      <trkpt lat="42.94961" lon="1.0324">
        <ele>671</ele>
        <time>2026-07-05T07:07:27.000Z</time>
      </trkpt>
      <trkpt lat="42.94958" lon="1.03226">
        <ele>673</ele>
        <time>2026-07-05T07:07:32.000Z</time>
      </trkpt>
      <trkpt lat="42.94957" lon="1.03212">
        <ele>676</ele>
        <time>2026-07-05T07:07:37.000Z</time>
      </trkpt>
      <trkpt lat="42.9496" lon="1.03195">
        <ele>679</ele>
        <time>2026-07-05T07:07:42.000Z</time>
      </trkpt>
      <trkpt lat="42.94964" lon="1.03178">
        <ele>679</ele>
        <time>2026-07-05T07:07:47.000Z</time>
      </trkpt>
      <trkpt lat="42.94969" lon="1.03159">
        <ele>681</ele>
        <time>2026-07-05T07:07:52.000Z</time>
      </trkpt>
      <trkpt lat="42.94984" lon="1.03139">
        <ele>683</ele>
        <time>2026-07-05T07:07:57.000Z</time>
      </trkpt>
      <trkpt lat="42.94998" lon="1.03113">
        <ele>683</ele>
        <time>2026-07-05T07:08:02.000Z</time>
      </trkpt>
      <trkpt lat="42.95013" lon="1.03091">
        <ele>684</ele>
        <time>2026-07-05T07:08:07.000Z</time>
      </trkpt>
      <trkpt lat="42.95026" lon="1.03077">
        <ele>684</ele>
        <time>2026-07-05T07:08:12.000Z</time>
      </trkpt>
      <trkpt lat="42.9504" lon="1.03061">
        <ele>685</ele>
        <time>2026-07-05T07:08:17.000Z</time>
      </trkpt>
      <trkpt lat="42.9505" lon="1.03049">
        <ele>685</ele>
        <time>2026-07-05T07:08:22.000Z</time>
      </trkpt>
      <trkpt lat="42.95059" lon="1.03037">
        <ele>686</ele>
        <time>2026-07-05T07:08:27.000Z</time>
      </trkpt>
      <trkpt lat="42.9507" lon="1.03022">
        <ele>688</ele>
        <time>2026-07-05T07:08:32.000Z</time>
      </trkpt>
      <trkpt lat="42.9508" lon="1.03008">
        <ele>689</ele>
        <time>2026-07-05T07:08:37.000Z</time>
      </trkpt>
      <trkpt lat="42.95087" lon="1.02984">
        <ele>690</ele>
        <time>2026-07-05T07:08:42.000Z</time>
      </trkpt>
      <trkpt lat="42.9509" lon="1.02958">
        <ele>692</ele>
        <time>2026-07-05T07:08:47.000Z</time>
      </trkpt>
      <trkpt lat="42.95088" lon="1.02927">
        <ele>695</ele>
        <time>2026-07-05T07:08:52.000Z</time>
      </trkpt>
      <trkpt lat="42.95086" lon="1.029">
        <ele>696</ele>
        <time>2026-07-05T07:08:57.000Z</time>
      </trkpt>
      <trkpt lat="42.95081" lon="1.02881">
        <ele>697</ele>
        <time>2026-07-05T07:09:02.000Z</time>
      </trkpt>
      <trkpt lat="42.95076" lon="1.02866">
        <ele>697</ele>
        <time>2026-07-05T07:09:07.000Z</time>
      </trkpt>
      <trkpt lat="42.9507" lon="1.02855">
        <ele>697</ele>
        <time>2026-07-05T07:09:12.000Z</time>
      </trkpt>
      <trkpt lat="42.95066" lon="1.02844">
        <ele>700</ele>
        <time>2026-07-05T07:09:17.000Z</time>
      </trkpt>
      <trkpt lat="42.95062" lon="1.02829">
        <ele>700</ele>
        <time>2026-07-05T07:09:22.000Z</time>
      </trkpt>
      <trkpt lat="42.95059" lon="1.02815">
        <ele>701</ele>
        <time>2026-07-05T07:09:27.000Z</time>
      </trkpt>
      <trkpt lat="42.95052" lon="1.02806">
        <ele>701</ele>
        <time>2026-07-05T07:09:32.000Z</time>
      </trkpt>
      <trkpt lat="42.95048" lon="1.02793">
        <ele>701</ele>
        <time>2026-07-05T07:09:37.000Z</time>
      </trkpt>
      <trkpt lat="42.95045" lon="1.02781">
        <ele>701</ele>
        <time>2026-07-05T07:09:42.000Z</time>
      </trkpt>
      <trkpt lat="42.95041" lon="1.02772">
        <ele>703</ele>
        <time>2026-07-05T07:09:47.000Z</time>
      </trkpt>
      <trkpt lat="42.95038" lon="1.02758">
        <ele>703</ele>
        <time>2026-07-05T07:09:52.000Z</time>
      </trkpt>
      <trkpt lat="42.95032" lon="1.02755">
        <ele>703</ele>
        <time>2026-07-05T07:09:57.000Z</time>
      </trkpt>
      <trkpt lat="42.95031" lon="1.02763">
        <ele>704</ele>
        <time>2026-07-05T07:10:02.000Z</time>
      </trkpt>
      <trkpt lat="42.95032" lon="1.02773">
        <ele>706</ele>
        <time>2026-07-05T07:10:07.000Z</time>
      </trkpt>
      <trkpt lat="42.95033" lon="1.02783">
        <ele>708</ele>
        <time>2026-07-05T07:10:12.000Z</time>
      </trkpt>
      <trkpt lat="42.95034" lon="1.02794">
        <ele>713</ele>
        <time>2026-07-05T07:10:17.000Z</time>
      </trkpt>
      <trkpt lat="42.95035" lon="1.02805">
        <ele>716</ele>
        <time>2026-07-05T07:10:22.000Z</time>
      </trkpt>
      <trkpt lat="42.95033" lon="1.02818">
        <ele>718</ele>
        <time>2026-07-05T07:10:27.000Z</time>
      </trkpt>
      <trkpt lat="42.95031" lon="1.02833">
        <ele>722</ele>
        <time>2026-07-05T07:10:32.000Z</time>
      </trkpt>
      <trkpt lat="42.95027" lon="1.02844">
        <ele>726</ele>
        <time>2026-07-05T07:10:37.000Z</time>
      </trkpt>
      <trkpt lat="42.95024" lon="1.02831">
        <ele>729</ele>
        <time>2026-07-05T07:10:42.000Z</time>
      </trkpt>
      <trkpt lat="42.95023" lon="1.02814">
        <ele>730</ele>
        <time>2026-07-05T07:10:47.000Z</time>
      </trkpt>
      <trkpt lat="42.95018" lon="1.02803">
        <ele>730</ele>
        <time>2026-07-05T07:10:52.000Z</time>
      </trkpt>
      <trkpt lat="42.95017" lon="1.02793">
        <ele>732</ele>
        <time>2026-07-05T07:10:57.000Z</time>
      </trkpt>
      <trkpt lat="42.95013" lon="1.02783">
        <ele>734</ele>
        <time>2026-07-05T07:11:02.000Z</time>
      </trkpt>
      <trkpt lat="42.95006" lon="1.02775">
        <ele>734</ele>
        <time>2026-07-05T07:11:07.000Z</time>
      </trkpt>
      <trkpt lat="42.95004" lon="1.02763">
        <ele>734</ele>
        <time>2026-07-05T07:11:12.000Z</time>
      </trkpt>
      <trkpt lat="42.94998" lon="1.02754">
        <ele>735</ele>
        <time>2026-07-05T07:11:17.000Z</time>
      </trkpt>
      <trkpt lat="42.94993" lon="1.02742">
        <ele>736</ele>
        <time>2026-07-05T07:11:22.000Z</time>
      </trkpt>
      <trkpt lat="42.9499" lon="1.0273">
        <ele>737</ele>
        <time>2026-07-05T07:11:27.000Z</time>
      </trkpt>
      <trkpt lat="42.94987" lon="1.02717">
        <ele>739</ele>
        <time>2026-07-05T07:11:32.000Z</time>
      </trkpt>
      <trkpt lat="42.94984" lon="1.02705">
        <ele>741</ele>
        <time>2026-07-05T07:11:37.000Z</time>
      </trkpt>
      <trkpt lat="42.94981" lon="1.02694">
        <ele>743</ele>
        <time>2026-07-05T07:11:42.000Z</time>
      </trkpt>
      <trkpt lat="42.94981" lon="1.02684">
        <ele>743</ele>
        <time>2026-07-05T07:11:47.000Z</time>
      </trkpt>
      <trkpt lat="42.9498" lon="1.02668">
        <ele>743</ele>
        <time>2026-07-05T07:11:52.000Z</time>
      </trkpt>
      <trkpt lat="42.94979" lon="1.02653">
        <ele>745</ele>
        <time>2026-07-05T07:11:57.000Z</time>
      </trkpt>
      <trkpt lat="42.9498" lon="1.02639">
        <ele>747</ele>
        <time>2026-07-05T07:12:02.000Z</time>
      </trkpt>
      <trkpt lat="42.94976" lon="1.02623">
        <ele>747</ele>
        <time>2026-07-05T07:12:07.000Z</time>
      </trkpt>
      <trkpt lat="42.94972" lon="1.02608">
        <ele>750</ele>
        <time>2026-07-05T07:12:12.000Z</time>
      </trkpt>
      <trkpt lat="42.94968" lon="1.02591">
        <ele>753</ele>
        <time>2026-07-05T07:12:17.000Z</time>
      </trkpt>
      <trkpt lat="42.94964" lon="1.02574">
        <ele>755</ele>
        <time>2026-07-05T07:12:22.000Z</time>
      </trkpt>
      <trkpt lat="42.9496" lon="1.02561">
        <ele>756</ele>
        <time>2026-07-05T07:12:27.000Z</time>
      </trkpt>
      <trkpt lat="42.94958" lon="1.02553">
        <ele>759</ele>
        <time>2026-07-05T07:12:32.000Z</time>
      </trkpt>
      <trkpt lat="42.9496" lon="1.0254">
        <ele>765</ele>
        <time>2026-07-05T07:12:37.000Z</time>
      </trkpt>
      <trkpt lat="42.94961" lon="1.02526">
        <ele>767</ele>
        <time>2026-07-05T07:12:42.000Z</time>
      </trkpt>
      <trkpt lat="42.94964" lon="1.02511">
        <ele>773</ele>
        <time>2026-07-05T07:12:47.000Z</time>
      </trkpt>
      <trkpt lat="42.94969" lon="1.02493">
        <ele>778</ele>
        <time>2026-07-05T07:12:52.000Z</time>
      </trkpt>
      <trkpt lat="42.9497" lon="1.02475">
        <ele>781</ele>
        <time>2026-07-05T07:12:57.000Z</time>
      </trkpt>
      <trkpt lat="42.94974" lon="1.02461">
        <ele>783</ele>
        <time>2026-07-05T07:13:02.000Z</time>
      </trkpt>
      <trkpt lat="42.94976" lon="1.02448">
        <ele>785</ele>
        <time>2026-07-05T07:13:07.000Z</time>
      </trkpt>
      <trkpt lat="42.94979" lon="1.02427">
        <ele>786</ele>
        <time>2026-07-05T07:13:12.000Z</time>
      </trkpt>
      <trkpt lat="42.94982" lon="1.02408">
        <ele>788</ele>
        <time>2026-07-05T07:13:17.000Z</time>
      </trkpt>
      <trkpt lat="42.94982" lon="1.02392">
        <ele>789</ele>
        <time>2026-07-05T07:13:22.000Z</time>
      </trkpt>
      <trkpt lat="42.94982" lon="1.02376">
        <ele>789</ele>
        <time>2026-07-05T07:13:27.000Z</time>
      </trkpt>
      <trkpt lat="42.94982" lon="1.02362">
        <ele>790</ele>
        <time>2026-07-05T07:13:32.000Z</time>
      </trkpt>
      <trkpt lat="42.94982" lon="1.02346">
        <ele>791</ele>
        <time>2026-07-05T07:13:37.000Z</time>
      </trkpt>
      <trkpt lat="42.94982" lon="1.0233">
        <ele>792</ele>
        <time>2026-07-05T07:13:42.000Z</time>
      </trkpt>
      <trkpt lat="42.94983" lon="1.02313">
        <ele>792</ele>
        <time>2026-07-05T07:13:47.000Z</time>
      </trkpt>
      <trkpt lat="42.94981" lon="1.02296">
        <ele>791</ele>
        <time>2026-07-05T07:13:52.000Z</time>
      </trkpt>
      <trkpt lat="42.94974" lon="1.02279">
        <ele>791</ele>
        <time>2026-07-05T07:13:57.000Z</time>
      </trkpt>
      <trkpt lat="42.94965" lon="1.02264">
        <ele>791</ele>
        <time>2026-07-05T07:14:02.000Z</time>
      </trkpt>
      <trkpt lat="42.9496" lon="1.02249">
        <ele>790</ele>
        <time>2026-07-05T07:14:07.000Z</time>
      </trkpt>
      <trkpt lat="42.94952" lon="1.02235">
        <ele>788</ele>
        <time>2026-07-05T07:14:12.000Z</time>
      </trkpt>
      <trkpt lat="42.94947" lon="1.02219">
        <ele>788</ele>
        <time>2026-07-05T07:14:17.000Z</time>
      </trkpt>
      <trkpt lat="42.94938" lon="1.0221">
        <ele>787</ele>
        <time>2026-07-05T07:14:22.000Z</time>
      </trkpt>
      <trkpt lat="42.94931" lon="1.02194">
        <ele>787</ele>
        <time>2026-07-05T07:14:27.000Z</time>
      </trkpt>
      <trkpt lat="42.94923" lon="1.02182">
        <ele>786</ele>
        <time>2026-07-05T07:14:32.000Z</time>
      </trkpt>
      <trkpt lat="42.94911" lon="1.02169">
        <ele>786</ele>
        <time>2026-07-05T07:14:37.000Z</time>
      </trkpt>
      <trkpt lat="42.94901" lon="1.02153">
        <ele>787</ele>
        <time>2026-07-05T07:14:42.000Z</time>
      </trkpt>
      <trkpt lat="42.94889" lon="1.02142">
        <ele>786</ele>
        <time>2026-07-05T07:14:47.000Z</time>
      </trkpt>
      <trkpt lat="42.94873" lon="1.02134">
        <ele>786</ele>
        <time>2026-07-05T07:14:52.000Z</time>
      </trkpt>
      <trkpt lat="42.94859" lon="1.02127">
        <ele>787</ele>
        <time>2026-07-05T07:14:57.000Z</time>
      </trkpt>
      <trkpt lat="42.94843" lon="1.02118">
        <ele>787</ele>
        <time>2026-07-05T07:15:02.000Z</time>
      </trkpt>
      <trkpt lat="42.94825" lon="1.0211">
        <ele>784</ele>
        <time>2026-07-05T07:15:07.000Z</time>
      </trkpt>
      <trkpt lat="42.94808" lon="1.02092">
        <ele>784</ele>
        <time>2026-07-05T07:15:12.000Z</time>
      </trkpt>
      <trkpt lat="42.94796" lon="1.02047">
        <ele>792</ele>
        <time>2026-07-05T07:15:17.000Z</time>
      </trkpt>
      <trkpt lat="42.94788" lon="1.02028">
        <ele>797</ele>
        <time>2026-07-05T07:15:22.000Z</time>
      </trkpt>
      <trkpt lat="42.9478" lon="1.02015">
        <ele>800</ele>
        <time>2026-07-05T07:15:27.000Z</time>
      </trkpt>
      <trkpt lat="42.94771" lon="1.02005">
        <ele>804</ele>
        <time>2026-07-05T07:15:32.000Z</time>
      </trkpt>
      <trkpt lat="42.94764" lon="1.01997">
        <ele>808</ele>
        <time>2026-07-05T07:15:37.000Z</time>
      </trkpt>
      <trkpt lat="42.94758" lon="1.01991">
        <ele>809</ele>
        <time>2026-07-05T07:15:42.000Z</time>
      </trkpt>
      <trkpt lat="42.9475" lon="1.0198">
        <ele>809</ele>
        <time>2026-07-05T07:15:47.000Z</time>
      </trkpt>
      <trkpt lat="42.94745" lon="1.01972">
        <ele>812</ele>
        <time>2026-07-05T07:15:52.000Z</time>
      </trkpt>
      <trkpt lat="42.94739" lon="1.01966">
        <ele>815</ele>
        <time>2026-07-05T07:15:57.000Z</time>
      </trkpt>
      <trkpt lat="42.94734" lon="1.01956">
        <ele>815</ele>
        <time>2026-07-05T07:16:02.000Z</time>
      </trkpt>
      <trkpt lat="42.9473" lon="1.01948">
        <ele>817</ele>
        <time>2026-07-05T07:16:07.000Z</time>
      </trkpt>
      <trkpt lat="42.94727" lon="1.01939">
        <ele>815</ele>
        <time>2026-07-05T07:16:12.000Z</time>
      </trkpt>
      <trkpt lat="42.94724" lon="1.01928">
        <ele>814</ele>
        <time>2026-07-05T07:16:17.000Z</time>
      </trkpt>
      <trkpt lat="42.9472" lon="1.01917">
        <ele>815</ele>
        <time>2026-07-05T07:16:22.000Z</time>
      </trkpt>
      <trkpt lat="42.94717" lon="1.01906">
        <ele>814</ele>
        <time>2026-07-05T07:16:27.000Z</time>
      </trkpt>
      <trkpt lat="42.94712" lon="1.01899">
        <ele>817</ele>
        <time>2026-07-05T07:16:32.000Z</time>
      </trkpt>
      <trkpt lat="42.94709" lon="1.01887">
        <ele>820</ele>
        <time>2026-07-05T07:16:37.000Z</time>
      </trkpt>
      <trkpt lat="42.94703" lon="1.01869">
        <ele>821</ele>
        <time>2026-07-05T07:16:42.000Z</time>
      </trkpt>
      <trkpt lat="42.94699" lon="1.0185">
        <ele>822</ele>
        <time>2026-07-05T07:16:47.000Z</time>
      </trkpt>
      <trkpt lat="42.94698" lon="1.01837">
        <ele>823</ele>
        <time>2026-07-05T07:16:52.000Z</time>
      </trkpt>
      <trkpt lat="42.94693" lon="1.01825">
        <ele>825</ele>
        <time>2026-07-05T07:16:57.000Z</time>
      </trkpt>
      <trkpt lat="42.94688" lon="1.0181">
        <ele>825</ele>
        <time>2026-07-05T07:17:02.000Z</time>
      </trkpt>
      <trkpt lat="42.94682" lon="1.01797">
        <ele>826</ele>
        <time>2026-07-05T07:17:07.000Z</time>
      </trkpt>
      <trkpt lat="42.9468" lon="1.01773">
        <ele>829</ele>
        <time>2026-07-05T07:17:12.000Z</time>
      </trkpt>
      <trkpt lat="42.9468" lon="1.01755">
        <ele>829</ele>
        <time>2026-07-05T07:17:17.000Z</time>
      </trkpt>
      <trkpt lat="42.94679" lon="1.01738">
        <ele>831</ele>
        <time>2026-07-05T07:17:22.000Z</time>
      </trkpt>
      <trkpt lat="42.94672" lon="1.01717">
        <ele>832</ele>
        <time>2026-07-05T07:17:27.000Z</time>
      </trkpt>
      <trkpt lat="42.94664" lon="1.017">
        <ele>833</ele>
        <time>2026-07-05T07:17:32.000Z</time>
      </trkpt>
      <trkpt lat="42.94658" lon="1.01687">
        <ele>832</ele>
        <time>2026-07-05T07:17:37.000Z</time>
      </trkpt>
      <trkpt lat="42.94651" lon="1.01671">
        <ele>832</ele>
        <time>2026-07-05T07:17:42.000Z</time>
      </trkpt>
      <trkpt lat="42.94647" lon="1.01652">
        <ele>834</ele>
        <time>2026-07-05T07:17:47.000Z</time>
      </trkpt>
      <trkpt lat="42.94644" lon="1.01628">
        <ele>837</ele>
        <time>2026-07-05T07:17:52.000Z</time>
      </trkpt>
      <trkpt lat="42.94633" lon="1.01611">
        <ele>842</ele>
        <time>2026-07-05T07:17:57.000Z</time>
      </trkpt>
      <trkpt lat="42.94611" lon="1.0161">
        <ele>845</ele>
        <time>2026-07-05T07:18:02.000Z</time>
      </trkpt>
      <trkpt lat="42.94592" lon="1.01604">
        <ele>847</ele>
        <time>2026-07-05T07:18:07.000Z</time>
      </trkpt>
      <trkpt lat="42.94569" lon="1.01596">
        <ele>849</ele>
        <time>2026-07-05T07:18:12.000Z</time>
      </trkpt>
      <trkpt lat="42.94548" lon="1.01589">
        <ele>849</ele>
        <time>2026-07-05T07:18:17.000Z</time>
      </trkpt>
      <trkpt lat="42.94529" lon="1.01588">
        <ele>848</ele>
        <time>2026-07-05T07:18:22.000Z</time>
      </trkpt>
      <trkpt lat="42.94505" lon="1.01607">
        <ele>847</ele>
        <time>2026-07-05T07:18:27.000Z</time>
      </trkpt>
      <trkpt lat="42.94471" lon="1.01636">
        <ele>846</ele>
        <time>2026-07-05T07:18:32.000Z</time>
      </trkpt>
      <trkpt lat="42.94448" lon="1.01661">
        <ele>842</ele>
        <time>2026-07-05T07:18:37.000Z</time>
      </trkpt>
      <trkpt lat="42.94427" lon="1.0169">
        <ele>838</ele>
        <time>2026-07-05T07:18:42.000Z</time>
      </trkpt>
      <trkpt lat="42.94408" lon="1.01722">
        <ele>835</ele>
        <time>2026-07-05T07:18:47.000Z</time>
      </trkpt>
      <trkpt lat="42.94383" lon="1.01755">
        <ele>831</ele>
        <time>2026-07-05T07:18:52.000Z</time>
      </trkpt>
      <trkpt lat="42.94347" lon="1.01775">
        <ele>827</ele>
        <time>2026-07-05T07:18:57.000Z</time>
      </trkpt>
      <trkpt lat="42.94314" lon="1.01808">
        <ele>824</ele>
        <time>2026-07-05T07:19:02.000Z</time>
      </trkpt>
      <trkpt lat="42.94288" lon="1.01843">
        <ele>820</ele>
        <time>2026-07-05T07:19:07.000Z</time>
      </trkpt>
      <trkpt lat="42.94258" lon="1.01888">
        <ele>815</ele>
        <time>2026-07-05T07:19:12.000Z</time>
      </trkpt>
      <trkpt lat="42.94228" lon="1.01945">
        <ele>810</ele>
        <time>2026-07-05T07:19:17.000Z</time>
      </trkpt>
      <trkpt lat="42.94197" lon="1.01977">
        <ele>805</ele>
        <time>2026-07-05T07:19:22.000Z</time>
      </trkpt>
      <trkpt lat="42.94155" lon="1.0199">
        <ele>799</ele>
        <time>2026-07-05T07:19:27.000Z</time>
      </trkpt>
      <trkpt lat="42.94123" lon="1.02024">
        <ele>789</ele>
        <time>2026-07-05T07:19:32.000Z</time>
      </trkpt>
      <trkpt lat="42.941" lon="1.02071">
        <ele>782</ele>
        <time>2026-07-05T07:19:37.000Z</time>
      </trkpt>
      <trkpt lat="42.94086" lon="1.0212">
        <ele>774</ele>
        <time>2026-07-05T07:19:42.000Z</time>
      </trkpt>
      <trkpt lat="42.94074" lon="1.02169">
        <ele>767</ele>
        <time>2026-07-05T07:19:47.000Z</time>
      </trkpt>
      <trkpt lat="42.94078" lon="1.02188">
        <ele>762</ele>
        <time>2026-07-05T07:19:52.000Z</time>
      </trkpt>
      <trkpt lat="42.94095" lon="1.02166">
        <ele>756</ele>
        <time>2026-07-05T07:19:57.000Z</time>
      </trkpt>
      <trkpt lat="42.94122" lon="1.02126">
        <ele>749</ele>
        <time>2026-07-05T07:20:02.000Z</time>
      </trkpt>
      <trkpt lat="42.94148" lon="1.02106">
        <ele>744</ele>
        <time>2026-07-05T07:20:07.000Z</time>
      </trkpt>
      <trkpt lat="42.94175" lon="1.02132">
        <ele>742</ele>
        <time>2026-07-05T07:20:12.000Z</time>
      </trkpt>
      <trkpt lat="42.942" lon="1.02142">
        <ele>739</ele>
        <time>2026-07-05T07:20:17.000Z</time>
      </trkpt>
      <trkpt lat="42.94222" lon="1.02123">
        <ele>735</ele>
        <time>2026-07-05T07:20:22.000Z</time>
      </trkpt>
      <trkpt lat="42.94236" lon="1.02094">
        <ele>729</ele>
        <time>2026-07-05T07:20:27.000Z</time>
      </trkpt>
      <trkpt lat="42.94247" lon="1.02083">
        <ele>728</ele>
        <time>2026-07-05T07:20:32.000Z</time>
      </trkpt>
      <trkpt lat="42.94254" lon="1.02075">
        <ele>726</ele>
        <time>2026-07-05T07:20:37.000Z</time>
      </trkpt>
      <trkpt lat="42.94265" lon="1.02064">
        <ele>725</ele>
        <time>2026-07-05T07:20:42.000Z</time>
      </trkpt>
      <trkpt lat="42.94276" lon="1.02054">
        <ele>724</ele>
        <time>2026-07-05T07:20:47.000Z</time>
      </trkpt>
      <trkpt lat="42.94287" lon="1.0204">
        <ele>724</ele>
        <time>2026-07-05T07:20:52.000Z</time>
      </trkpt>
      <trkpt lat="42.94297" lon="1.0203">
        <ele>723</ele>
        <time>2026-07-05T07:20:57.000Z</time>
      </trkpt>
      <trkpt lat="42.94311" lon="1.02026">
        <ele>722</ele>
        <time>2026-07-05T07:21:02.000Z</time>
      </trkpt>
      <trkpt lat="42.94323" lon="1.02029">
        <ele>721</ele>
        <time>2026-07-05T07:21:07.000Z</time>
      </trkpt>
      <trkpt lat="42.94332" lon="1.02034">
        <ele>721</ele>
        <time>2026-07-05T07:21:12.000Z</time>
      </trkpt>
      <trkpt lat="42.94345" lon="1.02034">
        <ele>722</ele>
        <time>2026-07-05T07:21:17.000Z</time>
      </trkpt>
      <trkpt lat="42.94359" lon="1.02029">
        <ele>724</ele>
        <time>2026-07-05T07:21:22.000Z</time>
      </trkpt>
      <trkpt lat="42.9437" lon="1.0202">
        <ele>723</ele>
        <time>2026-07-05T07:21:27.000Z</time>
      </trkpt>
      <trkpt lat="42.94377" lon="1.02013">
        <ele>721</ele>
        <time>2026-07-05T07:21:32.000Z</time>
      </trkpt>
      <trkpt lat="42.9439" lon="1.02006">
        <ele>719</ele>
        <time>2026-07-05T07:21:37.000Z</time>
      </trkpt>
      <trkpt lat="42.94404" lon="1.01993">
        <ele>721</ele>
        <time>2026-07-05T07:21:42.000Z</time>
      </trkpt>
      <trkpt lat="42.94429" lon="1.01968">
        <ele>716</ele>
        <time>2026-07-05T07:21:47.000Z</time>
      </trkpt>
      <trkpt lat="42.94454" lon="1.01953">
        <ele>713</ele>
        <time>2026-07-05T07:21:52.000Z</time>
      </trkpt>
      <trkpt lat="42.94468" lon="1.01967">
        <ele>714</ele>
        <time>2026-07-05T07:21:57.000Z</time>
      </trkpt>
      <trkpt lat="42.94479" lon="1.02008">
        <ele>712</ele>
        <time>2026-07-05T07:22:02.000Z</time>
      </trkpt>
      <trkpt lat="42.94502" lon="1.02059">
        <ele>711</ele>
        <time>2026-07-05T07:22:07.000Z</time>
      </trkpt>
      <trkpt lat="42.94526" lon="1.02098">
        <ele>709</ele>
        <time>2026-07-05T07:22:12.000Z</time>
      </trkpt>
      <trkpt lat="42.94556" lon="1.02131">
        <ele>708</ele>
        <time>2026-07-05T07:22:17.000Z</time>
      </trkpt>
      <trkpt lat="42.94582" lon="1.02169">
        <ele>706</ele>
        <time>2026-07-05T07:22:22.000Z</time>
      </trkpt>
      <trkpt lat="42.94559" lon="1.02195">
        <ele>703</ele>
        <time>2026-07-05T07:22:27.000Z</time>
      </trkpt>
      <trkpt lat="42.94527" lon="1.0223">
        <ele>700</ele>
        <time>2026-07-05T07:22:32.000Z</time>
      </trkpt>
      <trkpt lat="42.945" lon="1.02262">
        <ele>697</ele>
        <time>2026-07-05T07:22:37.000Z</time>
      </trkpt>
      <trkpt lat="42.94491" lon="1.02304">
        <ele>695</ele>
        <time>2026-07-05T07:22:42.000Z</time>
      </trkpt>
      <trkpt lat="42.94478" lon="1.02347">
        <ele>691</ele>
        <time>2026-07-05T07:22:47.000Z</time>
      </trkpt>
      <trkpt lat="42.94457" lon="1.02396">
        <ele>689</ele>
        <time>2026-07-05T07:22:52.000Z</time>
      </trkpt>
      <trkpt lat="42.94439" lon="1.02449">
        <ele>686</ele>
        <time>2026-07-05T07:22:57.000Z</time>
      </trkpt>
      <trkpt lat="42.94425" lon="1.02499">
        <ele>685</ele>
        <time>2026-07-05T07:23:02.000Z</time>
      </trkpt>
      <trkpt lat="42.94409" lon="1.02549">
        <ele>681</ele>
        <time>2026-07-05T07:23:07.000Z</time>
      </trkpt>
      <trkpt lat="42.94395" lon="1.02596">
        <ele>669</ele>
        <time>2026-07-05T07:23:12.000Z</time>
      </trkpt>
      <trkpt lat="42.94384" lon="1.0264">
        <ele>661</ele>
        <time>2026-07-05T07:23:17.000Z</time>
      </trkpt>
      <trkpt lat="42.9438" lon="1.02693">
        <ele>659</ele>
        <time>2026-07-05T07:23:22.000Z</time>
      </trkpt>
      <trkpt lat="42.94403" lon="1.02723">
        <ele>655</ele>
        <time>2026-07-05T07:23:27.000Z</time>
      </trkpt>
      <trkpt lat="42.94444" lon="1.02717">
        <ele>652</ele>
        <time>2026-07-05T07:23:32.000Z</time>
      </trkpt>
      <trkpt lat="42.94474" lon="1.02724">
        <ele>649</ele>
        <time>2026-07-05T07:23:37.000Z</time>
      </trkpt>
      <trkpt lat="42.94456" lon="1.02723">
        <ele>648</ele>
        <time>2026-07-05T07:23:42.000Z</time>
      </trkpt>
      <trkpt lat="42.94435" lon="1.02733">
        <ele>647</ele>
        <time>2026-07-05T07:23:47.000Z</time>
      </trkpt>
      <trkpt lat="42.94406" lon="1.02754">
        <ele>645</ele>
        <time>2026-07-05T07:23:52.000Z</time>
      </trkpt>
      <trkpt lat="42.94373" lon="1.0279">
        <ele>644</ele>
        <time>2026-07-05T07:23:57.000Z</time>
      </trkpt>
      <trkpt lat="42.94357" lon="1.02808">
        <ele>639</ele>
        <time>2026-07-05T07:24:02.000Z</time>
      </trkpt>
      <trkpt lat="42.9438" lon="1.02795">
        <ele>635</ele>
        <time>2026-07-05T07:24:07.000Z</time>
      </trkpt>
      <trkpt lat="42.94408" lon="1.02767">
        <ele>631</ele>
        <time>2026-07-05T07:24:12.000Z</time>
      </trkpt>
      <trkpt lat="42.94425" lon="1.02788">
        <ele>629</ele>
        <time>2026-07-05T07:24:17.000Z</time>
      </trkpt>
      <trkpt lat="42.94432" lon="1.0283">
        <ele>628</ele>
        <time>2026-07-05T07:24:22.000Z</time>
      </trkpt>
      <trkpt lat="42.9444" lon="1.02849">
        <ele>625</ele>
        <time>2026-07-05T07:24:27.000Z</time>
      </trkpt>
      <trkpt lat="42.94452" lon="1.02862">
        <ele>624</ele>
        <time>2026-07-05T07:24:32.000Z</time>
      </trkpt>
      <trkpt lat="42.94459" lon="1.02848">
        <ele>624</ele>
        <time>2026-07-05T07:24:37.000Z</time>
      </trkpt>
      <trkpt lat="42.94464" lon="1.02834">
        <ele>624</ele>
        <time>2026-07-05T07:24:42.000Z</time>
      </trkpt>
      <trkpt lat="42.9447" lon="1.02824">
        <ele>624</ele>
        <time>2026-07-05T07:24:47.000Z</time>
      </trkpt>
      <trkpt lat="42.94477" lon="1.02826">
        <ele>623</ele>
        <time>2026-07-05T07:24:52.000Z</time>
      </trkpt>
      <trkpt lat="42.94481" lon="1.02838">
        <ele>624</ele>
        <time>2026-07-05T07:24:57.000Z</time>
      </trkpt>
      <trkpt lat="42.9449" lon="1.02849">
        <ele>625</ele>
        <time>2026-07-05T07:25:02.000Z</time>
      </trkpt>
      <trkpt lat="42.94499" lon="1.02852">
        <ele>626</ele>
        <time>2026-07-05T07:25:07.000Z</time>
      </trkpt>
      <trkpt lat="42.94509" lon="1.02852">
        <ele>627</ele>
        <time>2026-07-05T07:25:12.000Z</time>
      </trkpt>
      <trkpt lat="42.94515" lon="1.02867">
        <ele>628</ele>
        <time>2026-07-05T07:25:17.000Z</time>
      </trkpt>
      <trkpt lat="42.94518" lon="1.02902">
        <ele>628</ele>
        <time>2026-07-05T07:25:22.000Z</time>
      </trkpt>
      <trkpt lat="42.94537" lon="1.02903">
        <ele>628</ele>
        <time>2026-07-05T07:25:27.000Z</time>
      </trkpt>
      <trkpt lat="42.94571" lon="1.02882">
        <ele>629</ele>
        <time>2026-07-05T07:25:32.000Z</time>
      </trkpt>
      <trkpt lat="42.94605" lon="1.02867">
        <ele>628</ele>
        <time>2026-07-05T07:25:37.000Z</time>
      </trkpt>
      <trkpt lat="42.9462" lon="1.02879">
        <ele>625</ele>
        <time>2026-07-05T07:25:42.000Z</time>
      </trkpt>
      <trkpt lat="42.94618" lon="1.029">
        <ele>628</ele>
        <time>2026-07-05T07:25:47.000Z</time>
      </trkpt>
      <trkpt lat="42.9461" lon="1.02933">
        <ele>630</ele>
        <time>2026-07-05T07:25:52.000Z</time>
      </trkpt>
      <trkpt lat="42.94602" lon="1.02967">
        <ele>629</ele>
        <time>2026-07-05T07:25:57.000Z</time>
      </trkpt>
      <trkpt lat="42.94592" lon="1.03">
        <ele>628</ele>
        <time>2026-07-05T07:26:02.000Z</time>
      </trkpt>
      <trkpt lat="42.94576" lon="1.03035">
        <ele>627</ele>
        <time>2026-07-05T07:26:07.000Z</time>
      </trkpt>
      <trkpt lat="42.94555" lon="1.03074">
        <ele>626</ele>
        <time>2026-07-05T07:26:12.000Z</time>
      </trkpt>
      <trkpt lat="42.9454" lon="1.0311">
        <ele>627</ele>
        <time>2026-07-05T07:26:17.000Z</time>
      </trkpt>
      <trkpt lat="42.9453" lon="1.03148">
        <ele>628</ele>
        <time>2026-07-05T07:26:22.000Z</time>
      </trkpt>
      <trkpt lat="42.94523" lon="1.03189">
        <ele>629</ele>
        <time>2026-07-05T07:26:27.000Z</time>
      </trkpt>
      <trkpt lat="42.94525" lon="1.03226">
        <ele>628</ele>
        <time>2026-07-05T07:26:32.000Z</time>
      </trkpt>
      <trkpt lat="42.94545" lon="1.03248">
        <ele>628</ele>
        <time>2026-07-05T07:26:37.000Z</time>
      </trkpt>
      <trkpt lat="42.94576" lon="1.0323">
        <ele>627</ele>
        <time>2026-07-05T07:26:42.000Z</time>
      </trkpt>
      <trkpt lat="42.94611" lon="1.03209">
        <ele>626</ele>
        <time>2026-07-05T07:26:47.000Z</time>
      </trkpt>
      <trkpt lat="42.94655" lon="1.03189">
        <ele>624</ele>
        <time>2026-07-05T07:26:52.000Z</time>
      </trkpt>
      <trkpt lat="42.94704" lon="1.03186">
        <ele>623</ele>
        <time>2026-07-05T07:26:57.000Z</time>
      </trkpt>
      <trkpt lat="42.94711" lon="1.0322">
        <ele>621</ele>
        <time>2026-07-05T07:27:02.000Z</time>
      </trkpt>
      <trkpt lat="42.94694" lon="1.03252">
        <ele>619</ele>
        <time>2026-07-05T07:27:07.000Z</time>
      </trkpt>
      <trkpt lat="42.94677" lon="1.03306">
        <ele>618</ele>
        <time>2026-07-05T07:27:12.000Z</time>
      </trkpt>
      <trkpt lat="42.94661" lon="1.03357">
        <ele>615</ele>
        <time>2026-07-05T07:27:17.000Z</time>
      </trkpt>
      <trkpt lat="42.94642" lon="1.03407">
        <ele>612</ele>
        <time>2026-07-05T07:27:22.000Z</time>
      </trkpt>
      <trkpt lat="42.94618" lon="1.03457">
        <ele>611</ele>
        <time>2026-07-05T07:27:27.000Z</time>
      </trkpt>
      <trkpt lat="42.9461" lon="1.03505">
        <ele>610</ele>
        <time>2026-07-05T07:27:32.000Z</time>
      </trkpt>
      <trkpt lat="42.94617" lon="1.0354">
        <ele>608</ele>
        <time>2026-07-05T07:27:37.000Z</time>
      </trkpt>
      <trkpt lat="42.94632" lon="1.03574">
        <ele>606</ele>
        <time>2026-07-05T07:27:42.000Z</time>
      </trkpt>
      <trkpt lat="42.94647" lon="1.03607">
        <ele>604</ele>
        <time>2026-07-05T07:27:47.000Z</time>
      </trkpt>
      <trkpt lat="42.9465" lon="1.03654">
        <ele>604</ele>
        <time>2026-07-05T07:27:52.000Z</time>
      </trkpt>
      <trkpt lat="42.94648" lon="1.037">
        <ele>605</ele>
        <time>2026-07-05T07:27:57.000Z</time>
      </trkpt>
      <trkpt lat="42.94662" lon="1.03736">
        <ele>603</ele>
        <time>2026-07-05T07:28:02.000Z</time>
      </trkpt>
      <trkpt lat="42.94691" lon="1.03775">
        <ele>600</ele>
        <time>2026-07-05T07:28:07.000Z</time>
      </trkpt>
      <trkpt lat="42.9472" lon="1.03831">
        <ele>596</ele>
        <time>2026-07-05T07:28:12.000Z</time>
      </trkpt>
      <trkpt lat="42.94751" lon="1.03895">
        <ele>593</ele>
        <time>2026-07-05T07:28:17.000Z</time>
      </trkpt>
      <trkpt lat="42.9478" lon="1.03946">
        <ele>589</ele>
        <time>2026-07-05T07:28:22.000Z</time>
      </trkpt>
      <trkpt lat="42.94801" lon="1.03987">
        <ele>586</ele>
        <time>2026-07-05T07:28:27.000Z</time>
      </trkpt>
      <trkpt lat="42.94819" lon="1.04035">
        <ele>581</ele>
        <time>2026-07-05T07:28:32.000Z</time>
      </trkpt>
      <trkpt lat="42.94852" lon="1.04076">
        <ele>579</ele>
        <time>2026-07-05T07:28:37.000Z</time>
      </trkpt>
      <trkpt lat="42.94888" lon="1.04105">
        <ele>577</ele>
        <time>2026-07-05T07:28:42.000Z</time>
      </trkpt>
      <trkpt lat="42.9492" lon="1.04118">
        <ele>575</ele>
        <time>2026-07-05T07:28:47.000Z</time>
      </trkpt>
      <trkpt lat="42.94971" lon="1.0414">
        <ele>567</ele>
        <time>2026-07-05T07:28:52.000Z</time>
      </trkpt>
      <trkpt lat="42.95009" lon="1.04166">
        <ele>556</ele>
        <time>2026-07-05T07:28:57.000Z</time>
      </trkpt>
      <trkpt lat="42.9502" lon="1.04199">
        <ele>551</ele>
        <time>2026-07-05T07:29:02.000Z</time>
      </trkpt>
      <trkpt lat="42.95019" lon="1.04231">
        <ele>542</ele>
        <time>2026-07-05T07:29:07.000Z</time>
      </trkpt>
      <trkpt lat="42.95023" lon="1.04235">
        <ele>541</ele>
        <time>2026-07-05T07:29:12.000Z</time>
      </trkpt>
      <trkpt lat="42.95023" lon="1.04242">
        <ele>538</ele>
        <time>2026-07-05T07:29:17.000Z</time>
      </trkpt>
      <trkpt lat="42.95024" lon="1.04245">
        <ele>534</ele>
        <time>2026-07-05T07:29:22.000Z</time>
      </trkpt>
      <trkpt lat="42.95024" lon="1.04241">
        <ele>530</ele>
        <time>2026-07-05T07:29:27.000Z</time>
      </trkpt>
      <trkpt lat="42.95026" lon="1.04243">
        <ele>530</ele>
        <time>2026-07-05T07:29:32.000Z</time>
      </trkpt>
      <trkpt lat="42.95027" lon="1.04241">
        <ele>526</ele>
        <time>2026-07-05T07:29:54.000Z</time>
      </trkpt>
      <trkpt lat="42.95027" lon="1.04243">
        <ele>524</ele>
        <time>2026-07-05T07:30:15.000Z</time>
      </trkpt>
      <trkpt lat="42.95027" lon="1.04247">
        <ele>524</ele>
        <time>2026-07-05T07:30:20.000Z</time>
      </trkpt>
      <trkpt lat="42.95026" lon="1.04246">
        <ele>524</ele>
        <time>2026-07-05T07:30:25.000Z</time>
      </trkpt>
      <trkpt lat="42.95027" lon="1.04242">
        <ele>525</ele>
        <time>2026-07-05T07:30:30.000Z</time>
      </trkpt>
      <trkpt lat="42.95026" lon="1.04244">
        <ele>522</ele>
        <time>2026-07-05T07:30:48.000Z</time>
      </trkpt>
      <trkpt lat="42.95024" lon="1.04243">
        <ele>522</ele>
        <time>2026-07-05T07:30:53.000Z</time>
      </trkpt>
      <trkpt lat="42.95024" lon="1.04243">
        <ele>517</ele>
        <time>2026-07-05T07:31:27.000Z</time>
      </trkpt>
      <trkpt lat="42.95023" lon="1.04245">
        <ele>517</ele>
        <time>2026-07-05T07:32:05.000Z</time>
      </trkpt>
      <trkpt lat="42.95025" lon="1.04246">
        <ele>522</ele>
        <time>2026-07-05T07:33:31.000Z</time>
      </trkpt>
      <trkpt lat="42.95023" lon="1.04245">
        <ele>522</ele>
        <time>2026-07-05T07:33:36.000Z</time>
      </trkpt>
      <trkpt lat="42.95021" lon="1.04245">
        <ele>525</ele>
        <time>2026-07-05T07:34:24.000Z</time>
      </trkpt>
      <trkpt lat="42.95022" lon="1.04245">
        <ele>526</ele>
        <time>2026-07-05T07:34:29.000Z</time>
      </trkpt>
      <trkpt lat="42.95021" lon="1.04238">
        <ele>533</ele>
        <time>2026-07-05T07:34:34.000Z</time>
      </trkpt>
      <trkpt lat="42.95022" lon="1.04222">
        <ele>533</ele>
        <time>2026-07-05T07:34:39.000Z</time>
      </trkpt>
      <trkpt lat="42.95038" lon="1.04216">
        <ele>532</ele>
        <time>2026-07-05T07:34:44.000Z</time>
      </trkpt>
      <trkpt lat="42.95052" lon="1.04206">
        <ele>533</ele>
        <time>2026-07-05T07:34:49.000Z</time>
      </trkpt>
      <trkpt lat="42.95057" lon="1.04203">
        <ele>532</ele>
        <time>2026-07-05T07:34:54.000Z</time>
      </trkpt>
      <trkpt lat="42.95054" lon="1.04208">
        <ele>535</ele>
        <time>2026-07-05T07:34:59.000Z</time>
      </trkpt>
      <trkpt lat="42.95054" lon="1.04214">
        <ele>541</ele>
        <time>2026-07-05T07:35:04.000Z</time>
      </trkpt>
      <trkpt lat="42.95061" lon="1.04227">
        <ele>540</ele>
        <time>2026-07-05T07:35:09.000Z</time>
      </trkpt>
      <trkpt lat="42.95067" lon="1.04234">
        <ele>541</ele>
        <time>2026-07-05T07:35:14.000Z</time>
      </trkpt>
      <trkpt lat="42.95075" lon="1.04242">
        <ele>541</ele>
        <time>2026-07-05T07:35:19.000Z</time>
      </trkpt>
      <trkpt lat="42.95083" lon="1.04246">
        <ele>542</ele>
        <time>2026-07-05T07:35:24.000Z</time>
      </trkpt>
      <trkpt lat="42.95092" lon="1.04251">
        <ele>543</ele>
        <time>2026-07-05T07:35:29.000Z</time>
      </trkpt>
      <trkpt lat="42.95102" lon="1.04259">
        <ele>544</ele>
        <time>2026-07-05T07:35:34.000Z</time>
      </trkpt>
      <trkpt lat="42.9511" lon="1.04267">
        <ele>544</ele>
        <time>2026-07-05T07:35:39.000Z</time>
      </trkpt>
      <trkpt lat="42.9512" lon="1.04276">
        <ele>545</ele>
        <time>2026-07-05T07:35:44.000Z</time>
      </trkpt>
      <trkpt lat="42.95129" lon="1.04281">
        <ele>546</ele>
        <time>2026-07-05T07:35:49.000Z</time>
      </trkpt>
      <trkpt lat="42.95137" lon="1.04287">
        <ele>546</ele>
        <time>2026-07-05T07:35:54.000Z</time>
      </trkpt>
      <trkpt lat="42.95144" lon="1.0429">
        <ele>548</ele>
        <time>2026-07-05T07:35:59.000Z</time>
      </trkpt>
      <trkpt lat="42.9515" lon="1.04297">
        <ele>550</ele>
        <time>2026-07-05T07:36:04.000Z</time>
      </trkpt>
      <trkpt lat="42.95152" lon="1.04307">
        <ele>553</ele>
        <time>2026-07-05T07:36:09.000Z</time>
      </trkpt>
      <trkpt lat="42.95157" lon="1.0432">
        <ele>559</ele>
        <time>2026-07-05T07:36:14.000Z</time>
      </trkpt>
      <trkpt lat="42.95163" lon="1.04337">
        <ele>563</ele>
        <time>2026-07-05T07:36:19.000Z</time>
      </trkpt>
      <trkpt lat="42.95166" lon="1.0436">
        <ele>566</ele>
        <time>2026-07-05T07:36:24.000Z</time>
      </trkpt>
      <trkpt lat="42.95166" lon="1.04392">
        <ele>567</ele>
        <time>2026-07-05T07:36:29.000Z</time>
      </trkpt>
      <trkpt lat="42.95169" lon="1.04422">
        <ele>569</ele>
        <time>2026-07-05T07:36:34.000Z</time>
      </trkpt>
      <trkpt lat="42.9517" lon="1.0445">
        <ele>570</ele>
        <time>2026-07-05T07:36:39.000Z</time>
      </trkpt>
      <trkpt lat="42.95171" lon="1.04471">
        <ele>573</ele>
        <time>2026-07-05T07:36:44.000Z</time>
      </trkpt>
      <trkpt lat="42.95171" lon="1.04489">
        <ele>576</ele>
        <time>2026-07-05T07:36:49.000Z</time>
      </trkpt>
      <trkpt lat="42.95169" lon="1.04509">
        <ele>583</ele>
        <time>2026-07-05T07:36:54.000Z</time>
      </trkpt>
      <trkpt lat="42.9517" lon="1.04529">
        <ele>585</ele>
        <time>2026-07-05T07:36:59.000Z</time>
      </trkpt>
      <trkpt lat="42.95171" lon="1.04548">
        <ele>587</ele>
        <time>2026-07-05T07:37:04.000Z</time>
      </trkpt>
      <trkpt lat="42.95173" lon="1.04566">
        <ele>587</ele>
        <time>2026-07-05T07:37:09.000Z</time>
      </trkpt>
      <trkpt lat="42.95175" lon="1.04581">
        <ele>588</ele>
        <time>2026-07-05T07:37:14.000Z</time>
      </trkpt>
      <trkpt lat="42.95177" lon="1.04595">
        <ele>591</ele>
        <time>2026-07-05T07:37:19.000Z</time>
      </trkpt>
      <trkpt lat="42.95178" lon="1.04611">
        <ele>592</ele>
        <time>2026-07-05T07:37:24.000Z</time>
      </trkpt>
      <trkpt lat="42.95181" lon="1.04626">
        <ele>594</ele>
        <time>2026-07-05T07:37:29.000Z</time>
      </trkpt>
      <trkpt lat="42.95187" lon="1.04641">
        <ele>594</ele>
        <time>2026-07-05T07:37:34.000Z</time>
      </trkpt>
      <trkpt lat="42.95193" lon="1.04654">
        <ele>596</ele>
        <time>2026-07-05T07:37:39.000Z</time>
      </trkpt>
      <trkpt lat="42.95196" lon="1.04665">
        <ele>597</ele>
        <time>2026-07-05T07:37:44.000Z</time>
      </trkpt>
      <trkpt lat="42.95196" lon="1.04677">
        <ele>603</ele>
        <time>2026-07-05T07:37:49.000Z</time>
      </trkpt>
      <trkpt lat="42.95194" lon="1.0469">
        <ele>605</ele>
        <time>2026-07-05T07:37:54.000Z</time>
      </trkpt>
      <trkpt lat="42.95193" lon="1.04701">
        <ele>605</ele>
        <time>2026-07-05T07:37:59.000Z</time>
      </trkpt>
      <trkpt lat="42.95193" lon="1.04711">
        <ele>604</ele>
        <time>2026-07-05T07:38:04.000Z</time>
      </trkpt>
      <trkpt lat="42.95191" lon="1.04723">
        <ele>605</ele>
        <time>2026-07-05T07:38:09.000Z</time>
      </trkpt>
      <trkpt lat="42.9519" lon="1.04736">
        <ele>609</ele>
        <time>2026-07-05T07:38:14.000Z</time>
      </trkpt>
      <trkpt lat="42.95189" lon="1.04747">
        <ele>614</ele>
        <time>2026-07-05T07:38:19.000Z</time>
      </trkpt>
      <trkpt lat="42.9519" lon="1.0476">
        <ele>614</ele>
        <time>2026-07-05T07:38:24.000Z</time>
      </trkpt>
      <trkpt lat="42.95189" lon="1.04777">
        <ele>615</ele>
        <time>2026-07-05T07:38:29.000Z</time>
      </trkpt>
      <trkpt lat="42.95189" lon="1.04796">
        <ele>615</ele>
        <time>2026-07-05T07:38:34.000Z</time>
      </trkpt>
      <trkpt lat="42.95192" lon="1.04811">
        <ele>616</ele>
        <time>2026-07-05T07:38:39.000Z</time>
      </trkpt>
      <trkpt lat="42.95193" lon="1.04826">
        <ele>617</ele>
        <time>2026-07-05T07:38:44.000Z</time>
      </trkpt>
      <trkpt lat="42.95193" lon="1.04844">
        <ele>616</ele>
        <time>2026-07-05T07:38:49.000Z</time>
      </trkpt>
      <trkpt lat="42.95194" lon="1.04867">
        <ele>615</ele>
        <time>2026-07-05T07:38:54.000Z</time>
      </trkpt>
      <trkpt lat="42.95198" lon="1.04903">
        <ele>614</ele>
        <time>2026-07-05T07:38:59.000Z</time>
      </trkpt>
      <trkpt lat="42.95194" lon="1.04923">
        <ele>613</ele>
        <time>2026-07-05T07:39:04.000Z</time>
      </trkpt>
      <trkpt lat="42.95187" lon="1.04938">
        <ele>617</ele>
        <time>2026-07-05T07:39:09.000Z</time>
      </trkpt>
      <trkpt lat="42.95184" lon="1.04951">
        <ele>620</ele>
        <time>2026-07-05T07:39:14.000Z</time>
      </trkpt>
      <trkpt lat="42.95183" lon="1.04964">
        <ele>621</ele>
        <time>2026-07-05T07:39:19.000Z</time>
      </trkpt>
      <trkpt lat="42.95181" lon="1.04978">
        <ele>623</ele>
        <time>2026-07-05T07:39:24.000Z</time>
      </trkpt>
      <trkpt lat="42.95181" lon="1.04995">
        <ele>625</ele>
        <time>2026-07-05T07:39:29.000Z</time>
      </trkpt>
      <trkpt lat="42.95182" lon="1.05008">
        <ele>625</ele>
        <time>2026-07-05T07:39:34.000Z</time>
      </trkpt>
      <trkpt lat="42.95182" lon="1.05023">
        <ele>627</ele>
        <time>2026-07-05T07:39:39.000Z</time>
      </trkpt>
      <trkpt lat="42.95182" lon="1.05042">
        <ele>628</ele>
        <time>2026-07-05T07:39:44.000Z</time>
      </trkpt>
      <trkpt lat="42.95181" lon="1.05061">
        <ele>629</ele>
        <time>2026-07-05T07:39:49.000Z</time>
      </trkpt>
      <trkpt lat="42.95184" lon="1.05081">
        <ele>627</ele>
        <time>2026-07-05T07:39:54.000Z</time>
      </trkpt>
      <trkpt lat="42.95185" lon="1.05105">
        <ele>623</ele>
        <time>2026-07-05T07:39:59.000Z</time>
      </trkpt>
      <trkpt lat="42.95184" lon="1.05131">
        <ele>620</ele>
        <time>2026-07-05T07:40:04.000Z</time>
      </trkpt>
      <trkpt lat="42.95179" lon="1.05151">
        <ele>616</ele>
        <time>2026-07-05T07:40:09.000Z</time>
      </trkpt>
      <trkpt lat="42.95171" lon="1.05166">
        <ele>611</ele>
        <time>2026-07-05T07:40:14.000Z</time>
      </trkpt>
      <trkpt lat="42.95178" lon="1.05178">
        <ele>606</ele>
        <time>2026-07-05T07:40:19.000Z</time>
      </trkpt>
      <trkpt lat="42.95171" lon="1.05195">
        <ele>603</ele>
        <time>2026-07-05T07:40:24.000Z</time>
      </trkpt>
      <trkpt lat="42.95157" lon="1.05208">
        <ele>600</ele>
        <time>2026-07-05T07:40:29.000Z</time>
      </trkpt>
      <trkpt lat="42.95154" lon="1.05211">
        <ele>594</ele>
        <time>2026-07-05T07:40:34.000Z</time>
      </trkpt>
      <trkpt lat="42.95157" lon="1.05218">
        <ele>591</ele>
        <time>2026-07-05T07:40:39.000Z</time>
      </trkpt>
      <trkpt lat="42.95151" lon="1.05229">
        <ele>587</ele>
        <time>2026-07-05T07:40:44.000Z</time>
      </trkpt>
      <trkpt lat="42.95145" lon="1.05239">
        <ele>584</ele>
        <time>2026-07-05T07:40:49.000Z</time>
      </trkpt>
      <trkpt lat="42.95137" lon="1.05256">
        <ele>579</ele>
        <time>2026-07-05T07:40:54.000Z</time>
      </trkpt>
      <trkpt lat="42.95124" lon="1.05287">
        <ele>576</ele>
        <time>2026-07-05T07:40:59.000Z</time>
      </trkpt>
      <trkpt lat="42.95118" lon="1.05312">
        <ele>574</ele>
        <time>2026-07-05T07:41:04.000Z</time>
      </trkpt>
      <trkpt lat="42.9512" lon="1.05335">
        <ele>572</ele>
        <time>2026-07-05T07:41:09.000Z</time>
      </trkpt>
      <trkpt lat="42.95124" lon="1.05354">
        <ele>569</ele>
        <time>2026-07-05T07:41:14.000Z</time>
      </trkpt>
      <trkpt lat="42.95128" lon="1.05382">
        <ele>568</ele>
        <time>2026-07-05T07:41:19.000Z</time>
      </trkpt>
      <trkpt lat="42.95127" lon="1.05412">
        <ele>566</ele>
        <time>2026-07-05T07:41:24.000Z</time>
      </trkpt>
      <trkpt lat="42.95129" lon="1.05453">
        <ele>564</ele>
        <time>2026-07-05T07:41:29.000Z</time>
      </trkpt>
      <trkpt lat="42.9513" lon="1.05498">
        <ele>560</ele>
        <time>2026-07-05T07:41:34.000Z</time>
      </trkpt>
      <trkpt lat="42.95123" lon="1.05553">
        <ele>557</ele>
        <time>2026-07-05T07:41:39.000Z</time>
      </trkpt>
      <trkpt lat="42.95108" lon="1.05599">
        <ele>552</ele>
        <time>2026-07-05T07:41:44.000Z</time>
      </trkpt>
      <trkpt lat="42.95093" lon="1.05644">
        <ele>550</ele>
        <time>2026-07-05T07:41:49.000Z</time>
      </trkpt>
      <trkpt lat="42.95086" lon="1.0568">
        <ele>549</ele>
        <time>2026-07-05T07:41:54.000Z</time>
      </trkpt>
      <trkpt lat="42.95074" lon="1.05708">
        <ele>546</ele>
        <time>2026-07-05T07:41:59.000Z</time>
      </trkpt>
      <trkpt lat="42.95052" lon="1.0573">
        <ele>543</ele>
        <time>2026-07-05T07:42:04.000Z</time>
      </trkpt>
      <trkpt lat="42.95021" lon="1.05746">
        <ele>536</ele>
        <time>2026-07-05T07:42:09.000Z</time>
      </trkpt>
      <trkpt lat="42.94994" lon="1.05735">
        <ele>532</ele>
        <time>2026-07-05T07:42:14.000Z</time>
      </trkpt>
      <trkpt lat="42.94965" lon="1.05717">
        <ele>527</ele>
        <time>2026-07-05T07:42:19.000Z</time>
      </trkpt>
      <trkpt lat="42.94936" lon="1.05702">
        <ele>525</ele>
        <time>2026-07-05T07:42:24.000Z</time>
      </trkpt>
      <trkpt lat="42.94908" lon="1.05688">
        <ele>523</ele>
        <time>2026-07-05T07:42:29.000Z</time>
      </trkpt>
      <trkpt lat="42.94894" lon="1.05695">
        <ele>521</ele>
        <time>2026-07-05T07:42:34.000Z</time>
      </trkpt>
      <trkpt lat="42.94878" lon="1.05731">
        <ele>520</ele>
        <time>2026-07-05T07:42:39.000Z</time>
      </trkpt>
      <trkpt lat="42.94866" lon="1.05773">
        <ele>517</ele>
        <time>2026-07-05T07:42:44.000Z</time>
      </trkpt>
      <trkpt lat="42.94861" lon="1.05816">
        <ele>516</ele>
        <time>2026-07-05T07:42:49.000Z</time>
      </trkpt>
      <trkpt lat="42.94856" lon="1.05858">
        <ele>515</ele>
        <time>2026-07-05T07:42:54.000Z</time>
      </trkpt>
      <trkpt lat="42.94844" lon="1.05892">
        <ele>514</ele>
        <time>2026-07-05T07:42:59.000Z</time>
      </trkpt>
      <trkpt lat="42.94835" lon="1.05882">
        <ele>514</ele>
        <time>2026-07-05T07:43:04.000Z</time>
      </trkpt>
      <trkpt lat="42.94826" lon="1.0585">
        <ele>512</ele>
        <time>2026-07-05T07:43:09.000Z</time>
      </trkpt>
      <trkpt lat="42.9481" lon="1.05817">
        <ele>514</ele>
        <time>2026-07-05T07:43:14.000Z</time>
      </trkpt>
      <trkpt lat="42.94794" lon="1.05787">
        <ele>513</ele>
        <time>2026-07-05T07:43:19.000Z</time>
      </trkpt>
      <trkpt lat="42.94778" lon="1.05754">
        <ele>512</ele>
        <time>2026-07-05T07:43:24.000Z</time>
      </trkpt>
      <trkpt lat="42.94763" lon="1.05726">
        <ele>512</ele>
        <time>2026-07-05T07:43:29.000Z</time>
      </trkpt>
      <trkpt lat="42.94746" lon="1.05699">
        <ele>512</ele>
        <time>2026-07-05T07:43:34.000Z</time>
      </trkpt>
      <trkpt lat="42.94728" lon="1.05673">
        <ele>513</ele>
        <time>2026-07-05T07:43:39.000Z</time>
      </trkpt>
      <trkpt lat="42.94715" lon="1.05651">
        <ele>515</ele>
        <time>2026-07-05T07:43:44.000Z</time>
      </trkpt>
      <trkpt lat="42.94703" lon="1.05628">
        <ele>517</ele>
        <time>2026-07-05T07:43:49.000Z</time>
      </trkpt>
      <trkpt lat="42.94687" lon="1.05629">
        <ele>519</ele>
        <time>2026-07-05T07:43:54.000Z</time>
      </trkpt>
      <trkpt lat="42.94678" lon="1.05669">
        <ele>519</ele>
        <time>2026-07-05T07:43:59.000Z</time>
      </trkpt>
      <trkpt lat="42.94676" lon="1.05713">
        <ele>518</ele>
        <time>2026-07-05T07:44:04.000Z</time>
      </trkpt>
      <trkpt lat="42.94678" lon="1.05753">
        <ele>518</ele>
        <time>2026-07-05T07:44:09.000Z</time>
      </trkpt>
      <trkpt lat="42.9468" lon="1.05794">
        <ele>518</ele>
        <time>2026-07-05T07:44:14.000Z</time>
      </trkpt>
      <trkpt lat="42.94681" lon="1.05851">
        <ele>516</ele>
        <time>2026-07-05T07:44:19.000Z</time>
      </trkpt>
      <trkpt lat="42.94685" lon="1.05904">
        <ele>515</ele>
        <time>2026-07-05T07:44:24.000Z</time>
      </trkpt>
      <trkpt lat="42.94687" lon="1.05946">
        <ele>512</ele>
        <time>2026-07-05T07:44:29.000Z</time>
      </trkpt>
      <trkpt lat="42.94671" lon="1.05946">
        <ele>515</ele>
        <time>2026-07-05T07:44:34.000Z</time>
      </trkpt>
      <trkpt lat="42.94646" lon="1.05941">
        <ele>516</ele>
        <time>2026-07-05T07:44:39.000Z</time>
      </trkpt>
      <trkpt lat="42.94621" lon="1.05932">
        <ele>516</ele>
        <time>2026-07-05T07:44:44.000Z</time>
      </trkpt>
      <trkpt lat="42.94604" lon="1.05943">
        <ele>518</ele>
        <time>2026-07-05T07:44:49.000Z</time>
      </trkpt>
      <trkpt lat="42.94595" lon="1.05962">
        <ele>518</ele>
        <time>2026-07-05T07:44:54.000Z</time>
      </trkpt>
      <trkpt lat="42.94588" lon="1.05978">
        <ele>519</ele>
        <time>2026-07-05T07:44:59.000Z</time>
      </trkpt>
      <trkpt lat="42.94577" lon="1.05984">
        <ele>519</ele>
        <time>2026-07-05T07:45:04.000Z</time>
      </trkpt>
      <trkpt lat="42.94571" lon="1.05991">
        <ele>518</ele>
        <time>2026-07-05T07:45:09.000Z</time>
      </trkpt>
      <trkpt lat="42.94567" lon="1.05999">
        <ele>519</ele>
        <time>2026-07-05T07:45:14.000Z</time>
      </trkpt>
      <trkpt lat="42.94565" lon="1.06006">
        <ele>520</ele>
        <time>2026-07-05T07:45:19.000Z</time>
      </trkpt>
      <trkpt lat="42.94561" lon="1.06011">
        <ele>520</ele>
        <time>2026-07-05T07:45:24.000Z</time>
      </trkpt>
      <trkpt lat="42.94557" lon="1.06019">
        <ele>521</ele>
        <time>2026-07-05T07:45:29.000Z</time>
      </trkpt>
      <trkpt lat="42.94552" lon="1.06027">
        <ele>521</ele>
        <time>2026-07-05T07:45:34.000Z</time>
      </trkpt>
      <trkpt lat="42.94544" lon="1.0604">
        <ele>522</ele>
        <time>2026-07-05T07:45:39.000Z</time>
      </trkpt>
      <trkpt lat="42.94537" lon="1.06051">
        <ele>524</ele>
        <time>2026-07-05T07:45:44.000Z</time>
      </trkpt>
      <trkpt lat="42.94529" lon="1.06062">
        <ele>526</ele>
        <time>2026-07-05T07:45:49.000Z</time>
      </trkpt>
      <trkpt lat="42.94521" lon="1.0607">
        <ele>529</ele>
        <time>2026-07-05T07:45:54.000Z</time>
      </trkpt>
      <trkpt lat="42.94512" lon="1.06067">
        <ele>532</ele>
        <time>2026-07-05T07:45:59.000Z</time>
      </trkpt>
      <trkpt lat="42.94506" lon="1.06061">
        <ele>535</ele>
        <time>2026-07-05T07:46:04.000Z</time>
      </trkpt>
      <trkpt lat="42.94496" lon="1.06054">
        <ele>537</ele>
        <time>2026-07-05T07:46:09.000Z</time>
      </trkpt>
      <trkpt lat="42.94495" lon="1.06048">
        <ele>539</ele>
        <time>2026-07-05T07:46:14.000Z</time>
      </trkpt>
      <trkpt lat="42.94499" lon="1.06043">
        <ele>541</ele>
        <time>2026-07-05T07:46:19.000Z</time>
      </trkpt>
      <trkpt lat="42.945" lon="1.06039">
        <ele>544</ele>
        <time>2026-07-05T07:46:24.000Z</time>
      </trkpt>
      <trkpt lat="42.945" lon="1.06035">
        <ele>545</ele>
        <time>2026-07-05T07:46:29.000Z</time>
      </trkpt>
      <trkpt lat="42.94501" lon="1.06026">
        <ele>546</ele>
        <time>2026-07-05T07:46:34.000Z</time>
      </trkpt>
      <trkpt lat="42.945" lon="1.06017">
        <ele>548</ele>
        <time>2026-07-05T07:46:39.000Z</time>
      </trkpt>
      <trkpt lat="42.94498" lon="1.06007">
        <ele>549</ele>
        <time>2026-07-05T07:46:44.000Z</time>
      </trkpt>
      <trkpt lat="42.94493" lon="1.05998">
        <ele>552</ele>
        <time>2026-07-05T07:46:49.000Z</time>
      </trkpt>
      <trkpt lat="42.94488" lon="1.0599">
        <ele>553</ele>
        <time>2026-07-05T07:46:54.000Z</time>
      </trkpt>
      <trkpt lat="42.94478" lon="1.0599">
        <ele>556</ele>
        <time>2026-07-05T07:46:59.000Z</time>
      </trkpt>
      <trkpt lat="42.94449" lon="1.05993">
        <ele>557</ele>
        <time>2026-07-05T07:47:04.000Z</time>
      </trkpt>
      <trkpt lat="42.9441" lon="1.05987">
        <ele>558</ele>
        <time>2026-07-05T07:47:09.000Z</time>
      </trkpt>
      <trkpt lat="42.94369" lon="1.05992">
        <ele>556</ele>
        <time>2026-07-05T07:47:14.000Z</time>
      </trkpt>
      <trkpt lat="42.9437" lon="1.06004">
        <ele>556</ele>
        <time>2026-07-05T07:47:19.000Z</time>
      </trkpt>
      <trkpt lat="42.94377" lon="1.06008">
        <ele>553</ele>
        <time>2026-07-05T07:47:24.000Z</time>
      </trkpt>
      <trkpt lat="42.94359" lon="1.0601">
        <ele>554</ele>
        <time>2026-07-05T07:47:29.000Z</time>
      </trkpt>
      <trkpt lat="42.94337" lon="1.06014">
        <ele>553</ele>
        <time>2026-07-05T07:47:34.000Z</time>
      </trkpt>
      <trkpt lat="42.94315" lon="1.06011">
        <ele>552</ele>
        <time>2026-07-05T07:47:39.000Z</time>
      </trkpt>
      <trkpt lat="42.94289" lon="1.0601">
        <ele>550</ele>
        <time>2026-07-05T07:47:44.000Z</time>
      </trkpt>
      <trkpt lat="42.94266" lon="1.06017">
        <ele>550</ele>
        <time>2026-07-05T07:47:49.000Z</time>
      </trkpt>
      <trkpt lat="42.94242" lon="1.06033">
        <ele>551</ele>
        <time>2026-07-05T07:47:54.000Z</time>
      </trkpt>
      <trkpt lat="42.9421" lon="1.06042">
        <ele>551</ele>
        <time>2026-07-05T07:47:59.000Z</time>
      </trkpt>
      <trkpt lat="42.94182" lon="1.06049">
        <ele>552</ele>
        <time>2026-07-05T07:48:04.000Z</time>
      </trkpt>
      <trkpt lat="42.94156" lon="1.06052">
        <ele>552</ele>
        <time>2026-07-05T07:48:09.000Z</time>
      </trkpt>
      <trkpt lat="42.94138" lon="1.06046">
        <ele>554</ele>
        <time>2026-07-05T07:48:14.000Z</time>
      </trkpt>
      <trkpt lat="42.94125" lon="1.06041">
        <ele>556</ele>
        <time>2026-07-05T07:48:19.000Z</time>
      </trkpt>
      <trkpt lat="42.94112" lon="1.06043">
        <ele>558</ele>
        <time>2026-07-05T07:48:24.000Z</time>
      </trkpt>
      <trkpt lat="42.94095" lon="1.06051">
        <ele>557</ele>
        <time>2026-07-05T07:48:29.000Z</time>
      </trkpt>
      <trkpt lat="42.94076" lon="1.06059">
        <ele>556</ele>
        <time>2026-07-05T07:48:34.000Z</time>
      </trkpt>
      <trkpt lat="42.94058" lon="1.06063">
        <ele>555</ele>
        <time>2026-07-05T07:48:39.000Z</time>
      </trkpt>
      <trkpt lat="42.94038" lon="1.06065">
        <ele>556</ele>
        <time>2026-07-05T07:48:44.000Z</time>
      </trkpt>
      <trkpt lat="42.94013" lon="1.06064">
        <ele>559</ele>
        <time>2026-07-05T07:48:49.000Z</time>
      </trkpt>
      <trkpt lat="42.93992" lon="1.0606">
        <ele>558</ele>
        <time>2026-07-05T07:48:54.000Z</time>
      </trkpt>
      <trkpt lat="42.9397" lon="1.06049">
        <ele>559</ele>
        <time>2026-07-05T07:48:59.000Z</time>
      </trkpt>
      <trkpt lat="42.93947" lon="1.06052">
        <ele>558</ele>
        <time>2026-07-05T07:49:04.000Z</time>
      </trkpt>
      <trkpt lat="42.93939" lon="1.06065">
        <ele>557</ele>
        <time>2026-07-05T07:49:09.000Z</time>
      </trkpt>
      <trkpt lat="42.93939" lon="1.0608">
        <ele>558</ele>
        <time>2026-07-05T07:49:14.000Z</time>
      </trkpt>
      <trkpt lat="42.93941" lon="1.06094">
        <ele>558</ele>
        <time>2026-07-05T07:49:19.000Z</time>
      </trkpt>
      <trkpt lat="42.93941" lon="1.06108">
        <ele>560</ele>
        <time>2026-07-05T07:49:24.000Z</time>
      </trkpt>
      <trkpt lat="42.93938" lon="1.06122">
        <ele>560</ele>
        <time>2026-07-05T07:49:29.000Z</time>
      </trkpt>
      <trkpt lat="42.93926" lon="1.06155">
        <ele>562</ele>
        <time>2026-07-05T07:49:34.000Z</time>
      </trkpt>
      <trkpt lat="42.93916" lon="1.06168">
        <ele>561</ele>
        <time>2026-07-05T07:49:39.000Z</time>
      </trkpt>
      <trkpt lat="42.93909" lon="1.06173">
        <ele>560</ele>
        <time>2026-07-05T07:49:44.000Z</time>
      </trkpt>
      <trkpt lat="42.93905" lon="1.06176">
        <ele>560</ele>
        <time>2026-07-05T07:49:49.000Z</time>
      </trkpt>
      <trkpt lat="42.93903" lon="1.06179">
        <ele>559</ele>
        <time>2026-07-05T07:49:54.000Z</time>
      </trkpt>
      <trkpt lat="42.93903" lon="1.06182">
        <ele>558</ele>
        <time>2026-07-05T07:49:59.000Z</time>
      </trkpt>
      <trkpt lat="42.93902" lon="1.06183">
        <ele>558</ele>
        <time>2026-07-05T07:50:04.000Z</time>
      </trkpt>
      <trkpt lat="42.93901" lon="1.06187">
        <ele>558</ele>
        <time>2026-07-05T07:50:09.000Z</time>
      </trkpt>
      <trkpt lat="42.93902" lon="1.06192">
        <ele>559</ele>
        <time>2026-07-05T07:50:14.000Z</time>
      </trkpt>
      <trkpt lat="42.93901" lon="1.06195">
        <ele>559</ele>
        <time>2026-07-05T07:50:19.000Z</time>
      </trkpt>
      <trkpt lat="42.939" lon="1.06201">
        <ele>561</ele>
        <time>2026-07-05T07:50:24.000Z</time>
      </trkpt>
      <trkpt lat="42.93902" lon="1.06209">
        <ele>562</ele>
        <time>2026-07-05T07:50:29.000Z</time>
      </trkpt>
      <trkpt lat="42.93904" lon="1.06214">
        <ele>563</ele>
        <time>2026-07-05T07:50:34.000Z</time>
      </trkpt>
      <trkpt lat="42.93909" lon="1.06221">
        <ele>565</ele>
        <time>2026-07-05T07:50:39.000Z</time>
      </trkpt>
      <trkpt lat="42.93914" lon="1.06231">
        <ele>566</ele>
        <time>2026-07-05T07:50:44.000Z</time>
      </trkpt>
      <trkpt lat="42.93921" lon="1.06242">
        <ele>568</ele>
        <time>2026-07-05T07:50:49.000Z</time>
      </trkpt>
      <trkpt lat="42.93925" lon="1.06249">
        <ele>569</ele>
        <time>2026-07-05T07:50:54.000Z</time>
      </trkpt>
      <trkpt lat="42.93925" lon="1.06262">
        <ele>569</ele>
        <time>2026-07-05T07:50:59.000Z</time>
      </trkpt>
      <trkpt lat="42.93917" lon="1.06265">
        <ele>570</ele>
        <time>2026-07-05T07:51:04.000Z</time>
      </trkpt>
      <trkpt lat="42.93907" lon="1.06268">
        <ele>572</ele>
        <time>2026-07-05T07:51:09.000Z</time>
      </trkpt>
      <trkpt lat="42.93898" lon="1.06275">
        <ele>573</ele>
        <time>2026-07-05T07:51:14.000Z</time>
      </trkpt>
      <trkpt lat="42.93891" lon="1.06287">
        <ele>576</ele>
        <time>2026-07-05T07:51:19.000Z</time>
      </trkpt>
      <trkpt lat="42.93885" lon="1.06303">
        <ele>578</ele>
        <time>2026-07-05T07:51:24.000Z</time>
      </trkpt>
      <trkpt lat="42.93876" lon="1.06325">
        <ele>580</ele>
        <time>2026-07-05T07:51:29.000Z</time>
      </trkpt>
      <trkpt lat="42.93862" lon="1.06352">
        <ele>578</ele>
        <time>2026-07-05T07:51:34.000Z</time>
      </trkpt>
      <trkpt lat="42.93851" lon="1.06378">
        <ele>577</ele>
        <time>2026-07-05T07:51:39.000Z</time>
      </trkpt>
      <trkpt lat="42.93832" lon="1.06392">
        <ele>576</ele>
        <time>2026-07-05T07:51:44.000Z</time>
      </trkpt>
      <trkpt lat="42.9382" lon="1.06419">
        <ele>577</ele>
        <time>2026-07-05T07:51:49.000Z</time>
      </trkpt>
      <trkpt lat="42.93811" lon="1.06446">
        <ele>576</ele>
        <time>2026-07-05T07:51:54.000Z</time>
      </trkpt>
      <trkpt lat="42.93821" lon="1.06467">
        <ele>576</ele>
        <time>2026-07-05T07:51:59.000Z</time>
      </trkpt>
      <trkpt lat="42.93808" lon="1.06474">
        <ele>575</ele>
        <time>2026-07-05T07:52:04.000Z</time>
      </trkpt>
      <trkpt lat="42.93793" lon="1.06485">
        <ele>576</ele>
        <time>2026-07-05T07:52:09.000Z</time>
      </trkpt>
      <trkpt lat="42.93778" lon="1.06496">
        <ele>576</ele>
        <time>2026-07-05T07:52:14.000Z</time>
      </trkpt>
      <trkpt lat="42.93764" lon="1.06505">
        <ele>576</ele>
        <time>2026-07-05T07:52:19.000Z</time>
      </trkpt>
      <trkpt lat="42.9375" lon="1.06508">
        <ele>577</ele>
        <time>2026-07-05T07:52:24.000Z</time>
      </trkpt>
      <trkpt lat="42.93737" lon="1.06513">
        <ele>577</ele>
        <time>2026-07-05T07:52:29.000Z</time>
      </trkpt>
      <trkpt lat="42.9373" lon="1.06525">
        <ele>579</ele>
        <time>2026-07-05T07:52:34.000Z</time>
      </trkpt>
      <trkpt lat="42.93725" lon="1.06535">
        <ele>583</ele>
        <time>2026-07-05T07:52:39.000Z</time>
      </trkpt>
      <trkpt lat="42.93715" lon="1.06547">
        <ele>584</ele>
        <time>2026-07-05T07:52:44.000Z</time>
      </trkpt>
      <trkpt lat="42.93703" lon="1.06558">
        <ele>584</ele>
        <time>2026-07-05T07:52:49.000Z</time>
      </trkpt>
      <trkpt lat="42.93693" lon="1.06568">
        <ele>586</ele>
        <time>2026-07-05T07:52:54.000Z</time>
      </trkpt>
      <trkpt lat="42.93684" lon="1.06579">
        <ele>587</ele>
        <time>2026-07-05T07:52:59.000Z</time>
      </trkpt>
      <trkpt lat="42.93677" lon="1.06587">
        <ele>588</ele>
        <time>2026-07-05T07:53:04.000Z</time>
      </trkpt>
      <trkpt lat="42.93672" lon="1.06597">
        <ele>591</ele>
        <time>2026-07-05T07:53:09.000Z</time>
      </trkpt>
      <trkpt lat="42.93666" lon="1.06606">
        <ele>596</ele>
        <time>2026-07-05T07:53:14.000Z</time>
      </trkpt>
      <trkpt lat="42.93659" lon="1.06617">
        <ele>599</ele>
        <time>2026-07-05T07:53:19.000Z</time>
      </trkpt>
      <trkpt lat="42.93649" lon="1.06623">
        <ele>599</ele>
        <time>2026-07-05T07:53:24.000Z</time>
      </trkpt>
      <trkpt lat="42.93639" lon="1.06628">
        <ele>598</ele>
        <time>2026-07-05T07:53:29.000Z</time>
      </trkpt>
      <trkpt lat="42.9363" lon="1.06634">
        <ele>599</ele>
        <time>2026-07-05T07:53:34.000Z</time>
      </trkpt>
      <trkpt lat="42.93623" lon="1.06638">
        <ele>599</ele>
        <time>2026-07-05T07:53:39.000Z</time>
      </trkpt>
      <trkpt lat="42.93615" lon="1.06641">
        <ele>603</ele>
        <time>2026-07-05T07:53:44.000Z</time>
      </trkpt>
      <trkpt lat="42.93609" lon="1.06645">
        <ele>606</ele>
        <time>2026-07-05T07:53:49.000Z</time>
      </trkpt>
      <trkpt lat="42.93602" lon="1.06648">
        <ele>607</ele>
        <time>2026-07-05T07:53:54.000Z</time>
      </trkpt>
      <trkpt lat="42.93595" lon="1.06652">
        <ele>610</ele>
        <time>2026-07-05T07:53:59.000Z</time>
      </trkpt>
      <trkpt lat="42.93583" lon="1.0665">
        <ele>609</ele>
        <time>2026-07-05T07:54:04.000Z</time>
      </trkpt>
      <trkpt lat="42.93565" lon="1.06644">
        <ele>611</ele>
        <time>2026-07-05T07:54:09.000Z</time>
      </trkpt>
      <trkpt lat="42.93549" lon="1.06648">
        <ele>610</ele>
        <time>2026-07-05T07:54:14.000Z</time>
      </trkpt>
      <trkpt lat="42.93534" lon="1.06658">
        <ele>609</ele>
        <time>2026-07-05T07:54:19.000Z</time>
      </trkpt>
      <trkpt lat="42.93518" lon="1.06659">
        <ele>609</ele>
        <time>2026-07-05T07:54:24.000Z</time>
      </trkpt>
      <trkpt lat="42.93499" lon="1.06659">
        <ele>611</ele>
        <time>2026-07-05T07:54:29.000Z</time>
      </trkpt>
      <trkpt lat="42.93484" lon="1.06659">
        <ele>611</ele>
        <time>2026-07-05T07:54:34.000Z</time>
      </trkpt>
      <trkpt lat="42.93467" lon="1.06663">
        <ele>612</ele>
        <time>2026-07-05T07:54:39.000Z</time>
      </trkpt>
      <trkpt lat="42.93457" lon="1.06669">
        <ele>613</ele>
        <time>2026-07-05T07:54:44.000Z</time>
      </trkpt>
      <trkpt lat="42.9345" lon="1.06678">
        <ele>615</ele>
        <time>2026-07-05T07:54:49.000Z</time>
      </trkpt>
      <trkpt lat="42.93443" lon="1.06688">
        <ele>616</ele>
        <time>2026-07-05T07:54:54.000Z</time>
      </trkpt>
      <trkpt lat="42.93433" lon="1.06699">
        <ele>618</ele>
        <time>2026-07-05T07:54:59.000Z</time>
      </trkpt>
      <trkpt lat="42.93426" lon="1.06709">
        <ele>619</ele>
        <time>2026-07-05T07:55:04.000Z</time>
      </trkpt>
      <trkpt lat="42.93414" lon="1.06717">
        <ele>621</ele>
        <time>2026-07-05T07:55:09.000Z</time>
      </trkpt>
      <trkpt lat="42.93405" lon="1.06722">
        <ele>622</ele>
        <time>2026-07-05T07:55:14.000Z</time>
      </trkpt>
      <trkpt lat="42.93396" lon="1.06727">
        <ele>622</ele>
        <time>2026-07-05T07:55:19.000Z</time>
      </trkpt>
      <trkpt lat="42.9339" lon="1.06731">
        <ele>626</ele>
        <time>2026-07-05T07:55:24.000Z</time>
      </trkpt>
      <trkpt lat="42.93383" lon="1.06738">
        <ele>628</ele>
        <time>2026-07-05T07:55:29.000Z</time>
      </trkpt>
      <trkpt lat="42.93376" lon="1.06744">
        <ele>631</ele>
        <time>2026-07-05T07:55:34.000Z</time>
      </trkpt>
      <trkpt lat="42.93364" lon="1.06756">
        <ele>635</ele>
        <time>2026-07-05T07:55:39.000Z</time>
      </trkpt>
      <trkpt lat="42.93358" lon="1.06767">
        <ele>635</ele>
        <time>2026-07-05T07:55:44.000Z</time>
      </trkpt>
      <trkpt lat="42.93357" lon="1.06782">
        <ele>637</ele>
        <time>2026-07-05T07:55:49.000Z</time>
      </trkpt>
      <trkpt lat="42.93357" lon="1.06794">
        <ele>640</ele>
        <time>2026-07-05T07:55:54.000Z</time>
      </trkpt>
      <trkpt lat="42.93356" lon="1.06804">
        <ele>643</ele>
        <time>2026-07-05T07:55:59.000Z</time>
      </trkpt>
      <trkpt lat="42.93352" lon="1.06814">
        <ele>645</ele>
        <time>2026-07-05T07:56:04.000Z</time>
      </trkpt>
      <trkpt lat="42.93349" lon="1.06827">
        <ele>649</ele>
        <time>2026-07-05T07:56:09.000Z</time>
      </trkpt>
      <trkpt lat="42.93358" lon="1.06838">
        <ele>650</ele>
        <time>2026-07-05T07:56:14.000Z</time>
      </trkpt>
      <trkpt lat="42.93372" lon="1.06836">
        <ele>649</ele>
        <time>2026-07-05T07:56:19.000Z</time>
      </trkpt>
      <trkpt lat="42.93385" lon="1.06822">
        <ele>650</ele>
        <time>2026-07-05T07:56:24.000Z</time>
      </trkpt>
      <trkpt lat="42.93394" lon="1.06828">
        <ele>652</ele>
        <time>2026-07-05T07:56:29.000Z</time>
      </trkpt>
      <trkpt lat="42.9339" lon="1.06841">
        <ele>655</ele>
        <time>2026-07-05T07:56:34.000Z</time>
      </trkpt>
      <trkpt lat="42.9339" lon="1.06854">
        <ele>656</ele>
        <time>2026-07-05T07:56:39.000Z</time>
      </trkpt>
      <trkpt lat="42.93393" lon="1.06865">
        <ele>656</ele>
        <time>2026-07-05T07:56:44.000Z</time>
      </trkpt>
      <trkpt lat="42.93395" lon="1.06875">
        <ele>658</ele>
        <time>2026-07-05T07:56:49.000Z</time>
      </trkpt>
      <trkpt lat="42.93392" lon="1.06888">
        <ele>659</ele>
        <time>2026-07-05T07:56:54.000Z</time>
      </trkpt>
      <trkpt lat="42.93385" lon="1.06892">
        <ele>660</ele>
        <time>2026-07-05T07:56:59.000Z</time>
      </trkpt>
      <trkpt lat="42.93376" lon="1.06893">
        <ele>662</ele>
        <time>2026-07-05T07:57:04.000Z</time>
      </trkpt>
      <trkpt lat="42.93372" lon="1.06904">
        <ele>664</ele>
        <time>2026-07-05T07:57:09.000Z</time>
      </trkpt>
      <trkpt lat="42.93383" lon="1.06908">
        <ele>665</ele>
        <time>2026-07-05T07:57:14.000Z</time>
      </trkpt>
      <trkpt lat="42.93394" lon="1.06911">
        <ele>665</ele>
        <time>2026-07-05T07:57:19.000Z</time>
      </trkpt>
      <trkpt lat="42.93403" lon="1.06913">
        <ele>666</ele>
        <time>2026-07-05T07:57:24.000Z</time>
      </trkpt>
      <trkpt lat="42.93413" lon="1.0691">
        <ele>668</ele>
        <time>2026-07-05T07:57:29.000Z</time>
      </trkpt>
      <trkpt lat="42.93421" lon="1.06912">
        <ele>667</ele>
        <time>2026-07-05T07:57:34.000Z</time>
      </trkpt>
      <trkpt lat="42.93429" lon="1.06916">
        <ele>669</ele>
        <time>2026-07-05T07:57:39.000Z</time>
      </trkpt>
      <trkpt lat="42.93438" lon="1.06922">
        <ele>673</ele>
        <time>2026-07-05T07:57:44.000Z</time>
      </trkpt>
      <trkpt lat="42.93447" lon="1.0693">
        <ele>673</ele>
        <time>2026-07-05T07:57:49.000Z</time>
      </trkpt>
      <trkpt lat="42.93457" lon="1.06934">
        <ele>674</ele>
        <time>2026-07-05T07:57:54.000Z</time>
      </trkpt>
      <trkpt lat="42.93466" lon="1.06933">
        <ele>676</ele>
        <time>2026-07-05T07:57:59.000Z</time>
      </trkpt>
      <trkpt lat="42.93474" lon="1.06934">
        <ele>677</ele>
        <time>2026-07-05T07:58:04.000Z</time>
      </trkpt>
      <trkpt lat="42.93475" lon="1.06945">
        <ele>680</ele>
        <time>2026-07-05T07:58:09.000Z</time>
      </trkpt>
      <trkpt lat="42.93468" lon="1.06949">
        <ele>681</ele>
        <time>2026-07-05T07:58:14.000Z</time>
      </trkpt>
      <trkpt lat="42.93461" lon="1.06954">
        <ele>682</ele>
        <time>2026-07-05T07:58:19.000Z</time>
      </trkpt>
      <trkpt lat="42.93455" lon="1.06961">
        <ele>683</ele>
        <time>2026-07-05T07:58:24.000Z</time>
      </trkpt>
      <trkpt lat="42.93449" lon="1.06968">
        <ele>684</ele>
        <time>2026-07-05T07:58:29.000Z</time>
      </trkpt>
      <trkpt lat="42.93442" lon="1.06976">
        <ele>684</ele>
        <time>2026-07-05T07:58:34.000Z</time>
      </trkpt>
      <trkpt lat="42.93434" lon="1.06982">
        <ele>686</ele>
        <time>2026-07-05T07:58:39.000Z</time>
      </trkpt>
      <trkpt lat="42.93427" lon="1.06988">
        <ele>686</ele>
        <time>2026-07-05T07:58:44.000Z</time>
      </trkpt>
      <trkpt lat="42.93421" lon="1.06994">
        <ele>687</ele>
        <time>2026-07-05T07:58:49.000Z</time>
      </trkpt>
      <trkpt lat="42.93422" lon="1.07004">
        <ele>688</ele>
        <time>2026-07-05T07:58:54.000Z</time>
      </trkpt>
      <trkpt lat="42.93426" lon="1.07012">
        <ele>690</ele>
        <time>2026-07-05T07:58:59.000Z</time>
      </trkpt>
      <trkpt lat="42.93433" lon="1.07016">
        <ele>692</ele>
        <time>2026-07-05T07:59:04.000Z</time>
      </trkpt>
      <trkpt lat="42.93442" lon="1.07019">
        <ele>694</ele>
        <time>2026-07-05T07:59:09.000Z</time>
      </trkpt>
      <trkpt lat="42.93453" lon="1.07028">
        <ele>699</ele>
        <time>2026-07-05T07:59:14.000Z</time>
      </trkpt>
      <trkpt lat="42.9347" lon="1.0704">
        <ele>702</ele>
        <time>2026-07-05T07:59:19.000Z</time>
      </trkpt>
      <trkpt lat="42.93481" lon="1.0706">
        <ele>703</ele>
        <time>2026-07-05T07:59:24.000Z</time>
      </trkpt>
      <trkpt lat="42.93481" lon="1.07076">
        <ele>702</ele>
        <time>2026-07-05T07:59:29.000Z</time>
      </trkpt>
      <trkpt lat="42.93484" lon="1.0709">
        <ele>702</ele>
        <time>2026-07-05T07:59:34.000Z</time>
      </trkpt>
      <trkpt lat="42.93488" lon="1.07105">
        <ele>703</ele>
        <time>2026-07-05T07:59:39.000Z</time>
      </trkpt>
      <trkpt lat="42.93491" lon="1.07121">
        <ele>703</ele>
        <time>2026-07-05T07:59:44.000Z</time>
      </trkpt>
      <trkpt lat="42.93496" lon="1.07141">
        <ele>704</ele>
        <time>2026-07-05T07:59:49.000Z</time>
      </trkpt>
      <trkpt lat="42.93501" lon="1.07162">
        <ele>705</ele>
        <time>2026-07-05T07:59:54.000Z</time>
      </trkpt>
      <trkpt lat="42.93515" lon="1.07178">
        <ele>707</ele>
        <time>2026-07-05T07:59:59.000Z</time>
      </trkpt>
      <trkpt lat="42.93541" lon="1.0718">
        <ele>707</ele>
        <time>2026-07-05T08:00:04.000Z</time>
      </trkpt>
      <trkpt lat="42.93567" lon="1.07187">
        <ele>706</ele>
        <time>2026-07-05T08:00:09.000Z</time>
      </trkpt>
      <trkpt lat="42.9359" lon="1.07195">
        <ele>705</ele>
        <time>2026-07-05T08:00:14.000Z</time>
      </trkpt>
      <trkpt lat="42.93613" lon="1.07204">
        <ele>706</ele>
        <time>2026-07-05T08:00:19.000Z</time>
      </trkpt>
      <trkpt lat="42.93628" lon="1.07215">
        <ele>706</ele>
        <time>2026-07-05T08:00:24.000Z</time>
      </trkpt>
      <trkpt lat="42.93637" lon="1.07226">
        <ele>708</ele>
        <time>2026-07-05T08:00:29.000Z</time>
      </trkpt>
      <trkpt lat="42.93646" lon="1.07234">
        <ele>711</ele>
        <time>2026-07-05T08:00:34.000Z</time>
      </trkpt>
      <trkpt lat="42.93655" lon="1.07241">
        <ele>713</ele>
        <time>2026-07-05T08:00:39.000Z</time>
      </trkpt>
      <trkpt lat="42.9366" lon="1.07247">
        <ele>715</ele>
        <time>2026-07-05T08:00:44.000Z</time>
      </trkpt>
      <trkpt lat="42.93665" lon="1.07258">
        <ele>715</ele>
        <time>2026-07-05T08:00:49.000Z</time>
      </trkpt>
      <trkpt lat="42.93673" lon="1.07264">
        <ele>717</ele>
        <time>2026-07-05T08:00:54.000Z</time>
      </trkpt>
      <trkpt lat="42.93684" lon="1.07268">
        <ele>718</ele>
        <time>2026-07-05T08:00:59.000Z</time>
      </trkpt>
      <trkpt lat="42.93695" lon="1.07272">
        <ele>720</ele>
        <time>2026-07-05T08:01:04.000Z</time>
      </trkpt>
      <trkpt lat="42.93709" lon="1.07275">
        <ele>722</ele>
        <time>2026-07-05T08:01:09.000Z</time>
      </trkpt>
      <trkpt lat="42.93734" lon="1.07276">
        <ele>722</ele>
        <time>2026-07-05T08:01:14.000Z</time>
      </trkpt>
      <trkpt lat="42.93752" lon="1.07264">
        <ele>721</ele>
        <time>2026-07-05T08:01:19.000Z</time>
      </trkpt>
      <trkpt lat="42.93766" lon="1.0725">
        <ele>721</ele>
        <time>2026-07-05T08:01:24.000Z</time>
      </trkpt>
      <trkpt lat="42.93779" lon="1.07238">
        <ele>722</ele>
        <time>2026-07-05T08:01:29.000Z</time>
      </trkpt>
      <trkpt lat="42.93794" lon="1.0723">
        <ele>723</ele>
        <time>2026-07-05T08:01:34.000Z</time>
      </trkpt>
      <trkpt lat="42.93809" lon="1.07221">
        <ele>723</ele>
        <time>2026-07-05T08:01:39.000Z</time>
      </trkpt>
      <trkpt lat="42.93829" lon="1.07215">
        <ele>726</ele>
        <time>2026-07-05T08:01:44.000Z</time>
      </trkpt>
      <trkpt lat="42.93844" lon="1.07219">
        <ele>728</ele>
        <time>2026-07-05T08:01:49.000Z</time>
      </trkpt>
      <trkpt lat="42.9386" lon="1.07228">
        <ele>729</ele>
        <time>2026-07-05T08:01:54.000Z</time>
      </trkpt>
      <trkpt lat="42.93872" lon="1.0724">
        <ele>729</ele>
        <time>2026-07-05T08:01:59.000Z</time>
      </trkpt>
      <trkpt lat="42.93885" lon="1.07253">
        <ele>730</ele>
        <time>2026-07-05T08:02:04.000Z</time>
      </trkpt>
      <trkpt lat="42.93895" lon="1.07265">
        <ele>730</ele>
        <time>2026-07-05T08:02:09.000Z</time>
      </trkpt>
      <trkpt lat="42.93902" lon="1.07273">
        <ele>731</ele>
        <time>2026-07-05T08:02:14.000Z</time>
      </trkpt>
      <trkpt lat="42.93912" lon="1.07283">
        <ele>731</ele>
        <time>2026-07-05T08:02:19.000Z</time>
      </trkpt>
      <trkpt lat="42.93923" lon="1.07292">
        <ele>731</ele>
        <time>2026-07-05T08:02:24.000Z</time>
      </trkpt>
      <trkpt lat="42.93948" lon="1.07311">
        <ele>729</ele>
        <time>2026-07-05T08:02:29.000Z</time>
      </trkpt>
      <trkpt lat="42.9396" lon="1.07307">
        <ele>729</ele>
        <time>2026-07-05T08:02:34.000Z</time>
      </trkpt>
      <trkpt lat="42.93969" lon="1.07302">
        <ele>730</ele>
        <time>2026-07-05T08:02:39.000Z</time>
      </trkpt>
      <trkpt lat="42.93978" lon="1.07279">
        <ele>729</ele>
        <time>2026-07-05T08:02:44.000Z</time>
      </trkpt>
      <trkpt lat="42.93984" lon="1.07245">
        <ele>728</ele>
        <time>2026-07-05T08:02:49.000Z</time>
      </trkpt>
      <trkpt lat="42.93988" lon="1.07199">
        <ele>728</ele>
        <time>2026-07-05T08:02:54.000Z</time>
      </trkpt>
      <trkpt lat="42.93983" lon="1.07154">
        <ele>728</ele>
        <time>2026-07-05T08:02:59.000Z</time>
      </trkpt>
      <trkpt lat="42.93977" lon="1.07114">
        <ele>727</ele>
        <time>2026-07-05T08:03:04.000Z</time>
      </trkpt>
      <trkpt lat="42.93966" lon="1.07084">
        <ele>726</ele>
        <time>2026-07-05T08:03:09.000Z</time>
      </trkpt>
      <trkpt lat="42.93959" lon="1.07052">
        <ele>723</ele>
        <time>2026-07-05T08:03:14.000Z</time>
      </trkpt>
      <trkpt lat="42.93962" lon="1.07005">
        <ele>718</ele>
        <time>2026-07-05T08:03:19.000Z</time>
      </trkpt>
      <trkpt lat="42.9397" lon="1.06972">
        <ele>714</ele>
        <time>2026-07-05T08:03:24.000Z</time>
      </trkpt>
      <trkpt lat="42.93979" lon="1.06937">
        <ele>710</ele>
        <time>2026-07-05T08:03:29.000Z</time>
      </trkpt>
      <trkpt lat="42.93987" lon="1.069">
        <ele>706</ele>
        <time>2026-07-05T08:03:34.000Z</time>
      </trkpt>
      <trkpt lat="42.93992" lon="1.06877">
        <ele>705</ele>
        <time>2026-07-05T08:03:39.000Z</time>
      </trkpt>
      <trkpt lat="42.93988" lon="1.06837">
        <ele>702</ele>
        <time>2026-07-05T08:03:44.000Z</time>
      </trkpt>
      <trkpt lat="42.93993" lon="1.06786">
        <ele>697</ele>
        <time>2026-07-05T08:03:49.000Z</time>
      </trkpt>
      <trkpt lat="42.94006" lon="1.06742">
        <ele>694</ele>
        <time>2026-07-05T08:03:54.000Z</time>
      </trkpt>
      <trkpt lat="42.94022" lon="1.06704">
        <ele>690</ele>
        <time>2026-07-05T08:03:59.000Z</time>
      </trkpt>
      <trkpt lat="42.94033" lon="1.06672">
        <ele>686</ele>
        <time>2026-07-05T08:04:04.000Z</time>
      </trkpt>
      <trkpt lat="42.94053" lon="1.06636">
        <ele>680</ele>
        <time>2026-07-05T08:04:09.000Z</time>
      </trkpt>
      <trkpt lat="42.94072" lon="1.06602">
        <ele>674</ele>
        <time>2026-07-05T08:04:14.000Z</time>
      </trkpt>
      <trkpt lat="42.94086" lon="1.06583">
        <ele>670</ele>
        <time>2026-07-05T08:04:19.000Z</time>
      </trkpt>
      <trkpt lat="42.94101" lon="1.06558">
        <ele>665</ele>
        <time>2026-07-05T08:04:24.000Z</time>
      </trkpt>
      <trkpt lat="42.9412" lon="1.06523">
        <ele>661</ele>
        <time>2026-07-05T08:04:29.000Z</time>
      </trkpt>
      <trkpt lat="42.94121" lon="1.06501">
        <ele>655</ele>
        <time>2026-07-05T08:04:34.000Z</time>
      </trkpt>
      <trkpt lat="42.94107" lon="1.06487">
        <ele>647</ele>
        <time>2026-07-05T08:04:39.000Z</time>
      </trkpt>
      <trkpt lat="42.94084" lon="1.06503">
        <ele>639</ele>
        <time>2026-07-05T08:04:44.000Z</time>
      </trkpt>
      <trkpt lat="42.94053" lon="1.06518">
        <ele>634</ele>
        <time>2026-07-05T08:04:49.000Z</time>
      </trkpt>
      <trkpt lat="42.94028" lon="1.06514">
        <ele>628</ele>
        <time>2026-07-05T08:04:54.000Z</time>
      </trkpt>
      <trkpt lat="42.94004" lon="1.06518">
        <ele>620</ele>
        <time>2026-07-05T08:04:59.000Z</time>
      </trkpt>
      <trkpt lat="42.93977" lon="1.06512">
        <ele>612</ele>
        <time>2026-07-05T08:05:04.000Z</time>
      </trkpt>
      <trkpt lat="42.93939" lon="1.06516">
        <ele>598</ele>
        <time>2026-07-05T08:05:09.000Z</time>
      </trkpt>
      <trkpt lat="42.93931" lon="1.0649">
        <ele>595</ele>
        <time>2026-07-05T08:05:14.000Z</time>
      </trkpt>
      <trkpt lat="42.93919" lon="1.0648">
        <ele>591</ele>
        <time>2026-07-05T08:05:19.000Z</time>
      </trkpt>
      <trkpt lat="42.93914" lon="1.06458">
        <ele>590</ele>
        <time>2026-07-05T08:05:24.000Z</time>
      </trkpt>
      <trkpt lat="42.93935" lon="1.06426">
        <ele>586</ele>
        <time>2026-07-05T08:05:29.000Z</time>
      </trkpt>
      <trkpt lat="42.9397" lon="1.06395">
        <ele>581</ele>
        <time>2026-07-05T08:05:34.000Z</time>
      </trkpt>
      <trkpt lat="42.94016" lon="1.06377">
        <ele>575</ele>
        <time>2026-07-05T08:05:39.000Z</time>
      </trkpt>
      <trkpt lat="42.94057" lon="1.0633">
        <ele>571</ele>
        <time>2026-07-05T08:05:44.000Z</time>
      </trkpt>
      <trkpt lat="42.94095" lon="1.06274">
        <ele>566</ele>
        <time>2026-07-05T08:05:49.000Z</time>
      </trkpt>
      <trkpt lat="42.94137" lon="1.06239">
        <ele>561</ele>
        <time>2026-07-05T08:05:54.000Z</time>
      </trkpt>
      <trkpt lat="42.9419" lon="1.06236">
        <ele>556</ele>
        <time>2026-07-05T08:05:59.000Z</time>
      </trkpt>
      <trkpt lat="42.94237" lon="1.06227">
        <ele>551</ele>
        <time>2026-07-05T08:06:04.000Z</time>
      </trkpt>
      <trkpt lat="42.94277" lon="1.0618">
        <ele>549</ele>
        <time>2026-07-05T08:06:09.000Z</time>
      </trkpt>
      <trkpt lat="42.94298" lon="1.06152">
        <ele>546</ele>
        <time>2026-07-05T08:06:14.000Z</time>
      </trkpt>
      <trkpt lat="42.94314" lon="1.06166">
        <ele>544</ele>
        <time>2026-07-05T08:06:19.000Z</time>
      </trkpt>
      <trkpt lat="42.9433" lon="1.06182">
        <ele>542</ele>
        <time>2026-07-05T08:06:24.000Z</time>
      </trkpt>
      <trkpt lat="42.94341" lon="1.06209">
        <ele>541</ele>
        <time>2026-07-05T08:06:29.000Z</time>
      </trkpt>
      <trkpt lat="42.94352" lon="1.06231">
        <ele>540</ele>
        <time>2026-07-05T08:06:34.000Z</time>
      </trkpt>
      <trkpt lat="42.9437" lon="1.06239">
        <ele>539</ele>
        <time>2026-07-05T08:06:39.000Z</time>
      </trkpt>
      <trkpt lat="42.94384" lon="1.06251">
        <ele>541</ele>
        <time>2026-07-05T08:06:44.000Z</time>
      </trkpt>
      <trkpt lat="42.94406" lon="1.06275">
        <ele>542</ele>
        <time>2026-07-05T08:06:49.000Z</time>
      </trkpt>
      <trkpt lat="42.94435" lon="1.06297">
        <ele>540</ele>
        <time>2026-07-05T08:06:54.000Z</time>
      </trkpt>
      <trkpt lat="42.94463" lon="1.06327">
        <ele>539</ele>
        <time>2026-07-05T08:06:59.000Z</time>
      </trkpt>
      <trkpt lat="42.94491" lon="1.06361">
        <ele>537</ele>
        <time>2026-07-05T08:07:04.000Z</time>
      </trkpt>
      <trkpt lat="42.9452" lon="1.06404">
        <ele>533</ele>
        <time>2026-07-05T08:07:09.000Z</time>
      </trkpt>
      <trkpt lat="42.9455" lon="1.06454">
        <ele>527</ele>
        <time>2026-07-05T08:07:14.000Z</time>
      </trkpt>
      <trkpt lat="42.94564" lon="1.06491">
        <ele>525</ele>
        <time>2026-07-05T08:07:19.000Z</time>
      </trkpt>
      <trkpt lat="42.94599" lon="1.06491">
        <ele>524</ele>
        <time>2026-07-05T08:07:24.000Z</time>
      </trkpt>
      <trkpt lat="42.94632" lon="1.06486">
        <ele>521</ele>
        <time>2026-07-05T08:07:29.000Z</time>
      </trkpt>
      <trkpt lat="42.94655" lon="1.06499">
        <ele>518</ele>
        <time>2026-07-05T08:07:34.000Z</time>
      </trkpt>
      <trkpt lat="42.94681" lon="1.06501">
        <ele>517</ele>
        <time>2026-07-05T08:07:39.000Z</time>
      </trkpt>
      <trkpt lat="42.94686" lon="1.06509">
        <ele>516</ele>
        <time>2026-07-05T08:07:44.000Z</time>
      </trkpt>
      <trkpt lat="42.94689" lon="1.06533">
        <ele>515</ele>
        <time>2026-07-05T08:07:49.000Z</time>
      </trkpt>
      <trkpt lat="42.94687" lon="1.06566">
        <ele>513</ele>
        <time>2026-07-05T08:07:54.000Z</time>
      </trkpt>
      <trkpt lat="42.94679" lon="1.06595">
        <ele>514</ele>
        <time>2026-07-05T08:07:59.000Z</time>
      </trkpt>
      <trkpt lat="42.94656" lon="1.06605">
        <ele>511</ele>
        <time>2026-07-05T08:08:04.000Z</time>
      </trkpt>
      <trkpt lat="42.94635" lon="1.06616">
        <ele>510</ele>
        <time>2026-07-05T08:08:09.000Z</time>
      </trkpt>
      <trkpt lat="42.94628" lon="1.06657">
        <ele>508</ele>
        <time>2026-07-05T08:08:14.000Z</time>
      </trkpt>
      <trkpt lat="42.94627" lon="1.067">
        <ele>506</ele>
        <time>2026-07-05T08:08:19.000Z</time>
      </trkpt>
      <trkpt lat="42.94629" lon="1.06742">
        <ele>503</ele>
        <time>2026-07-05T08:08:24.000Z</time>
      </trkpt>
      <trkpt lat="42.94636" lon="1.06782">
        <ele>503</ele>
        <time>2026-07-05T08:08:29.000Z</time>
      </trkpt>
      <trkpt lat="42.9465" lon="1.0682">
        <ele>501</ele>
        <time>2026-07-05T08:08:34.000Z</time>
      </trkpt>
      <trkpt lat="42.94665" lon="1.06856">
        <ele>501</ele>
        <time>2026-07-05T08:08:39.000Z</time>
      </trkpt>
      <trkpt lat="42.94672" lon="1.06894">
        <ele>501</ele>
        <time>2026-07-05T08:08:44.000Z</time>
      </trkpt>
      <trkpt lat="42.94678" lon="1.06934">
        <ele>501</ele>
        <time>2026-07-05T08:08:49.000Z</time>
      </trkpt>
      <trkpt lat="42.94681" lon="1.06976">
        <ele>500</ele>
        <time>2026-07-05T08:08:54.000Z</time>
      </trkpt>
      <trkpt lat="42.94685" lon="1.07017">
        <ele>499</ele>
        <time>2026-07-05T08:08:59.000Z</time>
      </trkpt>
      <trkpt lat="42.9469" lon="1.07054">
        <ele>500</ele>
        <time>2026-07-05T08:09:04.000Z</time>
      </trkpt>
      <trkpt lat="42.94695" lon="1.07091">
        <ele>500</ele>
        <time>2026-07-05T08:09:09.000Z</time>
      </trkpt>
      <trkpt lat="42.94701" lon="1.07126">
        <ele>502</ele>
        <time>2026-07-05T08:09:14.000Z</time>
      </trkpt>
      <trkpt lat="42.9471" lon="1.07166">
        <ele>502</ele>
        <time>2026-07-05T08:09:19.000Z</time>
      </trkpt>
      <trkpt lat="42.9472" lon="1.07212">
        <ele>501</ele>
        <time>2026-07-05T08:09:24.000Z</time>
      </trkpt>
      <trkpt lat="42.94727" lon="1.07256">
        <ele>501</ele>
        <time>2026-07-05T08:09:29.000Z</time>
      </trkpt>
      <trkpt lat="42.94733" lon="1.07297">
        <ele>501</ele>
        <time>2026-07-05T08:09:34.000Z</time>
      </trkpt>
      <trkpt lat="42.94744" lon="1.07335">
        <ele>502</ele>
        <time>2026-07-05T08:09:39.000Z</time>
      </trkpt>
      <trkpt lat="42.94759" lon="1.07371">
        <ele>501</ele>
        <time>2026-07-05T08:09:44.000Z</time>
      </trkpt>
      <trkpt lat="42.94772" lon="1.07405">
        <ele>499</ele>
        <time>2026-07-05T08:09:49.000Z</time>
      </trkpt>
      <trkpt lat="42.94794" lon="1.07435">
        <ele>497</ele>
        <time>2026-07-05T08:09:54.000Z</time>
      </trkpt>
      <trkpt lat="42.94827" lon="1.07454">
        <ele>495</ele>
        <time>2026-07-05T08:09:59.000Z</time>
      </trkpt>
      <trkpt lat="42.9485" lon="1.07476">
        <ele>495</ele>
        <time>2026-07-05T08:10:04.000Z</time>
      </trkpt>
      <trkpt lat="42.94863" lon="1.07506">
        <ele>494</ele>
        <time>2026-07-05T08:10:09.000Z</time>
      </trkpt>
      <trkpt lat="42.94879" lon="1.0754">
        <ele>492</ele>
        <time>2026-07-05T08:10:14.000Z</time>
      </trkpt>
      <trkpt lat="42.94896" lon="1.0758">
        <ele>491</ele>
        <time>2026-07-05T08:10:19.000Z</time>
      </trkpt>
      <trkpt lat="42.94916" lon="1.07611">
        <ele>490</ele>
        <time>2026-07-05T08:10:24.000Z</time>
      </trkpt>
      <trkpt lat="42.94937" lon="1.0764">
        <ele>491</ele>
        <time>2026-07-05T08:10:29.000Z</time>
      </trkpt>
      <trkpt lat="42.94956" lon="1.07671">
        <ele>492</ele>
        <time>2026-07-05T08:10:34.000Z</time>
      </trkpt>
      <trkpt lat="42.94961" lon="1.07716">
        <ele>490</ele>
        <time>2026-07-05T08:10:39.000Z</time>
      </trkpt>
      <trkpt lat="42.94964" lon="1.0776">
        <ele>489</ele>
        <time>2026-07-05T08:10:44.000Z</time>
      </trkpt>
      <trkpt lat="42.94971" lon="1.07799">
        <ele>489</ele>
        <time>2026-07-05T08:10:49.000Z</time>
      </trkpt>
      <trkpt lat="42.94978" lon="1.07835">
        <ele>489</ele>
        <time>2026-07-05T08:10:54.000Z</time>
      </trkpt>
      <trkpt lat="42.94994" lon="1.07868">
        <ele>490</ele>
        <time>2026-07-05T08:10:59.000Z</time>
      </trkpt>
      <trkpt lat="42.95014" lon="1.07896">
        <ele>490</ele>
        <time>2026-07-05T08:11:04.000Z</time>
      </trkpt>
      <trkpt lat="42.95038" lon="1.07925">
        <ele>490</ele>
        <time>2026-07-05T08:11:09.000Z</time>
      </trkpt>
      <trkpt lat="42.95067" lon="1.07949">
        <ele>488</ele>
        <time>2026-07-05T08:11:14.000Z</time>
      </trkpt>
      <trkpt lat="42.95088" lon="1.07976">
        <ele>489</ele>
        <time>2026-07-05T08:11:19.000Z</time>
      </trkpt>
      <trkpt lat="42.95103" lon="1.08001">
        <ele>487</ele>
        <time>2026-07-05T08:11:24.000Z</time>
      </trkpt>
      <trkpt lat="42.95117" lon="1.08027">
        <ele>488</ele>
        <time>2026-07-05T08:11:29.000Z</time>
      </trkpt>
      <trkpt lat="42.95128" lon="1.0805">
        <ele>488</ele>
        <time>2026-07-05T08:11:34.000Z</time>
      </trkpt>
      <trkpt lat="42.95137" lon="1.08068">
        <ele>488</ele>
        <time>2026-07-05T08:11:39.000Z</time>
      </trkpt>
      <trkpt lat="42.95147" lon="1.08087">
        <ele>489</ele>
        <time>2026-07-05T08:11:44.000Z</time>
      </trkpt>
      <trkpt lat="42.95157" lon="1.08107">
        <ele>489</ele>
        <time>2026-07-05T08:11:49.000Z</time>
      </trkpt>
      <trkpt lat="42.95174" lon="1.08134">
        <ele>491</ele>
        <time>2026-07-05T08:11:54.000Z</time>
      </trkpt>
      <trkpt lat="42.95175" lon="1.0816">
        <ele>492</ele>
        <time>2026-07-05T08:11:59.000Z</time>
      </trkpt>
      <trkpt lat="42.95174" lon="1.08183">
        <ele>493</ele>
        <time>2026-07-05T08:12:04.000Z</time>
      </trkpt>
      <trkpt lat="42.95177" lon="1.08205">
        <ele>495</ele>
        <time>2026-07-05T08:12:09.000Z</time>
      </trkpt>
      <trkpt lat="42.95179" lon="1.08225">
        <ele>496</ele>
        <time>2026-07-05T08:12:14.000Z</time>
      </trkpt>
      <trkpt lat="42.95181" lon="1.08246">
        <ele>497</ele>
        <time>2026-07-05T08:12:19.000Z</time>
      </trkpt>
      <trkpt lat="42.95185" lon="1.08265">
        <ele>498</ele>
        <time>2026-07-05T08:12:24.000Z</time>
      </trkpt>
      <trkpt lat="42.95191" lon="1.08285">
        <ele>498</ele>
        <time>2026-07-05T08:12:29.000Z</time>
      </trkpt>
      <trkpt lat="42.95198" lon="1.08305">
        <ele>500</ele>
        <time>2026-07-05T08:12:34.000Z</time>
      </trkpt>
      <trkpt lat="42.95213" lon="1.08332">
        <ele>501</ele>
        <time>2026-07-05T08:12:39.000Z</time>
      </trkpt>
      <trkpt lat="42.95231" lon="1.08362">
        <ele>502</ele>
        <time>2026-07-05T08:12:44.000Z</time>
      </trkpt>
      <trkpt lat="42.9525" lon="1.08399">
        <ele>501</ele>
        <time>2026-07-05T08:12:49.000Z</time>
      </trkpt>
      <trkpt lat="42.95256" lon="1.08442">
        <ele>497</ele>
        <time>2026-07-05T08:12:54.000Z</time>
      </trkpt>
      <trkpt lat="42.95266" lon="1.08481">
        <ele>496</ele>
        <time>2026-07-05T08:12:59.000Z</time>
      </trkpt>
      <trkpt lat="42.95284" lon="1.08497">
        <ele>495</ele>
        <time>2026-07-05T08:13:04.000Z</time>
      </trkpt>
      <trkpt lat="42.95309" lon="1.08495">
        <ele>494</ele>
        <time>2026-07-05T08:13:09.000Z</time>
      </trkpt>
      <trkpt lat="42.95332" lon="1.08479">
        <ele>494</ele>
        <time>2026-07-05T08:13:14.000Z</time>
      </trkpt>
      <trkpt lat="42.95348" lon="1.0847">
        <ele>495</ele>
        <time>2026-07-05T08:13:19.000Z</time>
      </trkpt>
      <trkpt lat="42.9536" lon="1.08474">
        <ele>496</ele>
        <time>2026-07-05T08:13:24.000Z</time>
      </trkpt>
      <trkpt lat="42.9537" lon="1.0848">
        <ele>496</ele>
        <time>2026-07-05T08:13:29.000Z</time>
      </trkpt>
      <trkpt lat="42.95381" lon="1.08486">
        <ele>496</ele>
        <time>2026-07-05T08:13:34.000Z</time>
      </trkpt>
      <trkpt lat="42.95392" lon="1.08495">
        <ele>495</ele>
        <time>2026-07-05T08:13:39.000Z</time>
      </trkpt>
      <trkpt lat="42.95408" lon="1.08507">
        <ele>495</ele>
        <time>2026-07-05T08:13:44.000Z</time>
      </trkpt>
      <trkpt lat="42.95429" lon="1.08524">
        <ele>496</ele>
        <time>2026-07-05T08:13:49.000Z</time>
      </trkpt>
      <trkpt lat="42.95452" lon="1.08545">
        <ele>499</ele>
        <time>2026-07-05T08:13:54.000Z</time>
      </trkpt>
      <trkpt lat="42.95482" lon="1.08581">
        <ele>498</ele>
        <time>2026-07-05T08:13:59.000Z</time>
      </trkpt>
      <trkpt lat="42.95511" lon="1.08583">
        <ele>496</ele>
        <time>2026-07-05T08:14:04.000Z</time>
      </trkpt>
      <trkpt lat="42.95535" lon="1.08608">
        <ele>493</ele>
        <time>2026-07-05T08:14:09.000Z</time>
      </trkpt>
      <trkpt lat="42.95561" lon="1.08639">
        <ele>491</ele>
        <time>2026-07-05T08:14:14.000Z</time>
      </trkpt>
      <trkpt lat="42.9559" lon="1.08664">
        <ele>491</ele>
        <time>2026-07-05T08:14:19.000Z</time>
      </trkpt>
      <trkpt lat="42.95616" lon="1.08693">
        <ele>490</ele>
        <time>2026-07-05T08:14:24.000Z</time>
      </trkpt>
      <trkpt lat="42.95651" lon="1.08671">
        <ele>489</ele>
        <time>2026-07-05T08:14:29.000Z</time>
      </trkpt>
      <trkpt lat="42.95676" lon="1.0864">
        <ele>489</ele>
        <time>2026-07-05T08:14:34.000Z</time>
      </trkpt>
      <trkpt lat="42.95698" lon="1.08615">
        <ele>488</ele>
        <time>2026-07-05T08:14:39.000Z</time>
      </trkpt>
      <trkpt lat="42.95727" lon="1.08601">
        <ele>487</ele>
        <time>2026-07-05T08:14:44.000Z</time>
      </trkpt>
      <trkpt lat="42.95756" lon="1.08623">
        <ele>485</ele>
        <time>2026-07-05T08:14:49.000Z</time>
      </trkpt>
      <trkpt lat="42.95781" lon="1.08646">
        <ele>485</ele>
        <time>2026-07-05T08:14:54.000Z</time>
      </trkpt>
      <trkpt lat="42.95808" lon="1.08668">
        <ele>484</ele>
        <time>2026-07-05T08:14:59.000Z</time>
      </trkpt>
      <trkpt lat="42.9583" lon="1.08695">
        <ele>484</ele>
        <time>2026-07-05T08:15:04.000Z</time>
      </trkpt>
      <trkpt lat="42.95848" lon="1.0873">
        <ele>484</ele>
        <time>2026-07-05T08:15:09.000Z</time>
      </trkpt>
      <trkpt lat="42.95863" lon="1.08766">
        <ele>485</ele>
        <time>2026-07-05T08:15:14.000Z</time>
      </trkpt>
      <trkpt lat="42.9586" lon="1.0881">
        <ele>483</ele>
        <time>2026-07-05T08:15:19.000Z</time>
      </trkpt>
      <trkpt lat="42.95856" lon="1.08854">
        <ele>481</ele>
        <time>2026-07-05T08:15:24.000Z</time>
      </trkpt>
      <trkpt lat="42.95852" lon="1.08896">
        <ele>480</ele>
        <time>2026-07-05T08:15:29.000Z</time>
      </trkpt>
      <trkpt lat="42.95852" lon="1.08936">
        <ele>479</ele>
        <time>2026-07-05T08:15:34.000Z</time>
      </trkpt>
      <trkpt lat="42.95861" lon="1.08974">
        <ele>479</ele>
        <time>2026-07-05T08:15:39.000Z</time>
      </trkpt>
      <trkpt lat="42.95872" lon="1.09009">
        <ele>480</ele>
        <time>2026-07-05T08:15:44.000Z</time>
      </trkpt>
      <trkpt lat="42.95885" lon="1.09041">
        <ele>482</ele>
        <time>2026-07-05T08:15:49.000Z</time>
      </trkpt>
      <trkpt lat="42.95894" lon="1.09068">
        <ele>483</ele>
        <time>2026-07-05T08:15:54.000Z</time>
      </trkpt>
      <trkpt lat="42.95899" lon="1.09089">
        <ele>485</ele>
        <time>2026-07-05T08:15:59.000Z</time>
      </trkpt>
      <trkpt lat="42.95907" lon="1.09112">
        <ele>488</ele>
        <time>2026-07-05T08:16:04.000Z</time>
      </trkpt>
      <trkpt lat="42.95921" lon="1.09144">
        <ele>489</ele>
        <time>2026-07-05T08:16:09.000Z</time>
      </trkpt>
      <trkpt lat="42.95939" lon="1.09185">
        <ele>488</ele>
        <time>2026-07-05T08:16:14.000Z</time>
      </trkpt>
      <trkpt lat="42.95951" lon="1.092">
        <ele>486</ele>
        <time>2026-07-05T08:16:19.000Z</time>
      </trkpt>
      <trkpt lat="42.9596" lon="1.09179">
        <ele>485</ele>
        <time>2026-07-05T08:16:24.000Z</time>
      </trkpt>
      <trkpt lat="42.95988" lon="1.09158">
        <ele>484</ele>
        <time>2026-07-05T08:16:29.000Z</time>
      </trkpt>
      <trkpt lat="42.96019" lon="1.09137">
        <ele>484</ele>
        <time>2026-07-05T08:16:34.000Z</time>
      </trkpt>
      <trkpt lat="42.96047" lon="1.09118">
        <ele>483</ele>
        <time>2026-07-05T08:16:39.000Z</time>
      </trkpt>
      <trkpt lat="42.96059" lon="1.09148">
        <ele>483</ele>
        <time>2026-07-05T08:16:44.000Z</time>
      </trkpt>
      <trkpt lat="42.96067" lon="1.09186">
        <ele>480</ele>
        <time>2026-07-05T08:16:49.000Z</time>
      </trkpt>
      <trkpt lat="42.96069" lon="1.09234">
        <ele>479</ele>
        <time>2026-07-05T08:16:54.000Z</time>
      </trkpt>
      <trkpt lat="42.9607" lon="1.09281">
        <ele>478</ele>
        <time>2026-07-05T08:16:59.000Z</time>
      </trkpt>
      <trkpt lat="42.96072" lon="1.09326">
        <ele>476</ele>
        <time>2026-07-05T08:17:04.000Z</time>
      </trkpt>
      <trkpt lat="42.96077" lon="1.09369">
        <ele>474</ele>
        <time>2026-07-05T08:17:09.000Z</time>
      </trkpt>
      <trkpt lat="42.96077" lon="1.0941">
        <ele>475</ele>
        <time>2026-07-05T08:17:14.000Z</time>
      </trkpt>
      <trkpt lat="42.96074" lon="1.09445">
        <ele>473</ele>
        <time>2026-07-05T08:17:19.000Z</time>
      </trkpt>
      <trkpt lat="42.9607" lon="1.09476">
        <ele>473</ele>
        <time>2026-07-05T08:17:24.000Z</time>
      </trkpt>
      <trkpt lat="42.9607" lon="1.0951">
        <ele>474</ele>
        <time>2026-07-05T08:17:29.000Z</time>
      </trkpt>
      <trkpt lat="42.96073" lon="1.09544">
        <ele>474</ele>
        <time>2026-07-05T08:17:34.000Z</time>
      </trkpt>
      <trkpt lat="42.96083" lon="1.09579">
        <ele>474</ele>
        <time>2026-07-05T08:17:39.000Z</time>
      </trkpt>
      <trkpt lat="42.96097" lon="1.09617">
        <ele>474</ele>
        <time>2026-07-05T08:17:44.000Z</time>
      </trkpt>
      <trkpt lat="42.9611" lon="1.09655">
        <ele>475</ele>
        <time>2026-07-05T08:17:49.000Z</time>
      </trkpt>
      <trkpt lat="42.96125" lon="1.09693">
        <ele>475</ele>
        <time>2026-07-05T08:17:54.000Z</time>
      </trkpt>
      <trkpt lat="42.96139" lon="1.09732">
        <ele>475</ele>
        <time>2026-07-05T08:17:59.000Z</time>
      </trkpt>
      <trkpt lat="42.96158" lon="1.09762">
        <ele>474</ele>
        <time>2026-07-05T08:18:04.000Z</time>
      </trkpt>
      <trkpt lat="42.96182" lon="1.09795">
        <ele>473</ele>
        <time>2026-07-05T08:18:09.000Z</time>
      </trkpt>
      <trkpt lat="42.962" lon="1.09827">
        <ele>474</ele>
        <time>2026-07-05T08:18:14.000Z</time>
      </trkpt>
      <trkpt lat="42.96223" lon="1.09858">
        <ele>474</ele>
        <time>2026-07-05T08:18:19.000Z</time>
      </trkpt>
      <trkpt lat="42.96244" lon="1.09889">
        <ele>472</ele>
        <time>2026-07-05T08:18:24.000Z</time>
      </trkpt>
      <trkpt lat="42.96264" lon="1.0992">
        <ele>472</ele>
        <time>2026-07-05T08:18:29.000Z</time>
      </trkpt>
      <trkpt lat="42.96283" lon="1.0995">
        <ele>471</ele>
        <time>2026-07-05T08:18:34.000Z</time>
      </trkpt>
      <trkpt lat="42.96295" lon="1.09985">
        <ele>469</ele>
        <time>2026-07-05T08:18:39.000Z</time>
      </trkpt>
      <trkpt lat="42.96295" lon="1.10023">
        <ele>469</ele>
        <time>2026-07-05T08:18:44.000Z</time>
      </trkpt>
      <trkpt lat="42.96296" lon="1.10065">
        <ele>469</ele>
        <time>2026-07-05T08:18:49.000Z</time>
      </trkpt>
      <trkpt lat="42.96294" lon="1.10101">
        <ele>468</ele>
        <time>2026-07-05T08:18:54.000Z</time>
      </trkpt>
      <trkpt lat="42.963" lon="1.10126">
        <ele>469</ele>
        <time>2026-07-05T08:18:59.000Z</time>
      </trkpt>
      <trkpt lat="42.96308" lon="1.10136">
        <ele>468</ele>
        <time>2026-07-05T08:19:04.000Z</time>
      </trkpt>
      <trkpt lat="42.96309" lon="1.10142">
        <ele>468</ele>
        <time>2026-07-05T08:19:09.000Z</time>
      </trkpt>
      <trkpt lat="42.9631" lon="1.1015">
        <ele>468</ele>
        <time>2026-07-05T08:19:14.000Z</time>
      </trkpt>
      <trkpt lat="42.96316" lon="1.10155">
        <ele>467</ele>
        <time>2026-07-05T08:19:19.000Z</time>
      </trkpt>
      <trkpt lat="42.96325" lon="1.10164">
        <ele>467</ele>
        <time>2026-07-05T08:19:24.000Z</time>
      </trkpt>
      <trkpt lat="42.96331" lon="1.10174">
        <ele>468</ele>
        <time>2026-07-05T08:19:29.000Z</time>
      </trkpt>
      <trkpt lat="42.96338" lon="1.10181">
        <ele>469</ele>
        <time>2026-07-05T08:19:34.000Z</time>
      </trkpt>
      <trkpt lat="42.96338" lon="1.10185">
        <ele>470</ele>
        <time>2026-07-05T08:19:52.000Z</time>
      </trkpt>
      <trkpt lat="42.96338" lon="1.10186">
        <ele>469</ele>
        <time>2026-07-05T08:20:09.000Z</time>
      </trkpt>
      <trkpt lat="42.96335" lon="1.10188">
        <ele>470</ele>
        <time>2026-07-05T08:20:14.000Z</time>
      </trkpt>
      <trkpt lat="42.96336" lon="1.10188">
        <ele>470</ele>
        <time>2026-07-05T08:20:19.000Z</time>
      </trkpt>
      <trkpt lat="42.96338" lon="1.10185">
        <ele>470</ele>
        <time>2026-07-05T08:20:24.000Z</time>
      </trkpt>
      <trkpt lat="42.96338" lon="1.10185">
        <ele>470</ele>
        <time>2026-07-05T08:20:29.000Z</time>
      </trkpt>
      <trkpt lat="42.96339" lon="1.10187">
        <ele>470</ele>
        <time>2026-07-05T08:20:34.000Z</time>
      </trkpt>
      <trkpt lat="42.96343" lon="1.10197">
        <ele>469</ele>
        <time>2026-07-05T08:20:39.000Z</time>
      </trkpt>
      <trkpt lat="42.96348" lon="1.10209">
        <ele>471</ele>
        <time>2026-07-05T08:20:44.000Z</time>
      </trkpt>
      <trkpt lat="42.96348" lon="1.10211">
        <ele>469</ele>
        <time>2026-07-05T08:20:49.000Z</time>
      </trkpt>
      <trkpt lat="42.96349" lon="1.1021">
        <ele>469</ele>
        <time>2026-07-05T08:20:54.000Z</time>
      </trkpt>
      <trkpt lat="42.96353" lon="1.10211">
        <ele>471</ele>
        <time>2026-07-05T08:20:59.000Z</time>
      </trkpt>
      <trkpt lat="42.96354" lon="1.10213">
        <ele>469</ele>
        <time>2026-07-05T08:21:04.000Z</time>
      </trkpt>
      <trkpt lat="42.96352" lon="1.10215">
        <ele>467</ele>
        <time>2026-07-05T08:21:09.000Z</time>
      </trkpt>
      <trkpt lat="42.96353" lon="1.10215">
        <ele>467</ele>
        <time>2026-07-05T08:21:14.000Z</time>
      </trkpt>
      <trkpt lat="42.96354" lon="1.10211">
        <ele>471</ele>
        <time>2026-07-05T08:21:19.000Z</time>
      </trkpt>
      <trkpt lat="42.96356" lon="1.10212">
        <ele>464</ele>
        <time>2026-07-05T08:21:49.000Z</time>
      </trkpt>
      <trkpt lat="42.96358" lon="1.10211">
        <ele>467</ele>
        <time>2026-07-05T08:21:54.000Z</time>
      </trkpt>
      <trkpt lat="42.9636" lon="1.10217">
        <ele>470</ele>
        <time>2026-07-05T08:21:59.000Z</time>
      </trkpt>
      <trkpt lat="42.96362" lon="1.10219">
        <ele>470</ele>
        <time>2026-07-05T08:22:04.000Z</time>
      </trkpt>
      <trkpt lat="42.96369" lon="1.10227">
        <ele>471</ele>
        <time>2026-07-05T08:22:09.000Z</time>
      </trkpt>
      <trkpt lat="42.96382" lon="1.10242">
        <ele>469</ele>
        <time>2026-07-05T08:22:14.000Z</time>
      </trkpt>
      <trkpt lat="42.96397" lon="1.10258">
        <ele>469</ele>
        <time>2026-07-05T08:22:19.000Z</time>
      </trkpt>
      <trkpt lat="42.96412" lon="1.10283">
        <ele>470</ele>
        <time>2026-07-05T08:22:24.000Z</time>
      </trkpt>
      <trkpt lat="42.9642" lon="1.10298">
        <ele>470</ele>
        <time>2026-07-05T08:22:29.000Z</time>
      </trkpt>
      <trkpt lat="42.96426" lon="1.10321">
        <ele>471</ele>
        <time>2026-07-05T08:22:34.000Z</time>
      </trkpt>
      <trkpt lat="42.9643" lon="1.10348">
        <ele>475</ele>
        <time>2026-07-05T08:22:39.000Z</time>
      </trkpt>
      <trkpt lat="42.96436" lon="1.10374">
        <ele>476</ele>
        <time>2026-07-05T08:22:44.000Z</time>
      </trkpt>
      <trkpt lat="42.96446" lon="1.10404">
        <ele>478</ele>
        <time>2026-07-05T08:22:49.000Z</time>
      </trkpt>
      <trkpt lat="42.96459" lon="1.10438">
        <ele>478</ele>
        <time>2026-07-05T08:22:54.000Z</time>
      </trkpt>
      <trkpt lat="42.96469" lon="1.10468">
        <ele>478</ele>
        <time>2026-07-05T08:22:59.000Z</time>
      </trkpt>
      <trkpt lat="42.96479" lon="1.10493">
        <ele>476</ele>
        <time>2026-07-05T08:23:04.000Z</time>
      </trkpt>
      <trkpt lat="42.96491" lon="1.10529">
        <ele>476</ele>
        <time>2026-07-05T08:23:09.000Z</time>
      </trkpt>
      <trkpt lat="42.96501" lon="1.10578">
        <ele>475</ele>
        <time>2026-07-05T08:23:14.000Z</time>
      </trkpt>
      <trkpt lat="42.96513" lon="1.1062">
        <ele>474</ele>
        <time>2026-07-05T08:23:19.000Z</time>
      </trkpt>
      <trkpt lat="42.96527" lon="1.10658">
        <ele>474</ele>
        <time>2026-07-05T08:23:24.000Z</time>
      </trkpt>
      <trkpt lat="42.96539" lon="1.10694">
        <ele>476</ele>
        <time>2026-07-05T08:23:29.000Z</time>
      </trkpt>
      <trkpt lat="42.96549" lon="1.10723">
        <ele>476</ele>
        <time>2026-07-05T08:23:34.000Z</time>
      </trkpt>
      <trkpt lat="42.96557" lon="1.10746">
        <ele>479</ele>
        <time>2026-07-05T08:23:39.000Z</time>
      </trkpt>
      <trkpt lat="42.96559" lon="1.10771">
        <ele>480</ele>
        <time>2026-07-05T08:23:44.000Z</time>
      </trkpt>
      <trkpt lat="42.96553" lon="1.10796">
        <ele>481</ele>
        <time>2026-07-05T08:23:49.000Z</time>
      </trkpt>
      <trkpt lat="42.96547" lon="1.10813">
        <ele>481</ele>
        <time>2026-07-05T08:23:54.000Z</time>
      </trkpt>
      <trkpt lat="42.96547" lon="1.10823">
        <ele>483</ele>
        <time>2026-07-05T08:23:59.000Z</time>
      </trkpt>
      <trkpt lat="42.9655" lon="1.1083">
        <ele>483</ele>
        <time>2026-07-05T08:24:04.000Z</time>
      </trkpt>
      <trkpt lat="42.96547" lon="1.10839">
        <ele>482</ele>
        <time>2026-07-05T08:24:09.000Z</time>
      </trkpt>
      <trkpt lat="42.96542" lon="1.10841">
        <ele>483</ele>
        <time>2026-07-05T08:24:14.000Z</time>
      </trkpt>
      <trkpt lat="42.96538" lon="1.10853">
        <ele>484</ele>
        <time>2026-07-05T08:24:19.000Z</time>
      </trkpt>
      <trkpt lat="42.96531" lon="1.10861">
        <ele>486</ele>
        <time>2026-07-05T08:24:24.000Z</time>
      </trkpt>
      <trkpt lat="42.96528" lon="1.10868">
        <ele>487</ele>
        <time>2026-07-05T08:24:29.000Z</time>
      </trkpt>
      <trkpt lat="42.96529" lon="1.10875">
        <ele>489</ele>
        <time>2026-07-05T08:24:34.000Z</time>
      </trkpt>
      <trkpt lat="42.96534" lon="1.10882">
        <ele>491</ele>
        <time>2026-07-05T08:24:39.000Z</time>
      </trkpt>
      <trkpt lat="42.96542" lon="1.10891">
        <ele>495</ele>
        <time>2026-07-05T08:24:44.000Z</time>
      </trkpt>
      <trkpt lat="42.96549" lon="1.10907">
        <ele>498</ele>
        <time>2026-07-05T08:24:49.000Z</time>
      </trkpt>
      <trkpt lat="42.96555" lon="1.1092">
        <ele>499</ele>
        <time>2026-07-05T08:24:54.000Z</time>
      </trkpt>
      <trkpt lat="42.96562" lon="1.10932">
        <ele>500</ele>
        <time>2026-07-05T08:24:59.000Z</time>
      </trkpt>
      <trkpt lat="42.96573" lon="1.10942">
        <ele>503</ele>
        <time>2026-07-05T08:25:04.000Z</time>
      </trkpt>
      <trkpt lat="42.96579" lon="1.10949">
        <ele>509</ele>
        <time>2026-07-05T08:25:09.000Z</time>
      </trkpt>
      <trkpt lat="42.96586" lon="1.10958">
        <ele>514</ele>
        <time>2026-07-05T08:25:14.000Z</time>
      </trkpt>
      <trkpt lat="42.96592" lon="1.10973">
        <ele>514</ele>
        <time>2026-07-05T08:25:19.000Z</time>
      </trkpt>
      <trkpt lat="42.96601" lon="1.10985">
        <ele>516</ele>
        <time>2026-07-05T08:25:24.000Z</time>
      </trkpt>
      <trkpt lat="42.96608" lon="1.10995">
        <ele>518</ele>
        <time>2026-07-05T08:25:29.000Z</time>
      </trkpt>
      <trkpt lat="42.96621" lon="1.11011">
        <ele>518</ele>
        <time>2026-07-05T08:25:34.000Z</time>
      </trkpt>
      <trkpt lat="42.96631" lon="1.11031">
        <ele>520</ele>
        <time>2026-07-05T08:25:39.000Z</time>
      </trkpt>
      <trkpt lat="42.9664" lon="1.11049">
        <ele>522</ele>
        <time>2026-07-05T08:25:44.000Z</time>
      </trkpt>
      <trkpt lat="42.96648" lon="1.11065">
        <ele>522</ele>
        <time>2026-07-05T08:25:49.000Z</time>
      </trkpt>
      <trkpt lat="42.96656" lon="1.11082">
        <ele>523</ele>
        <time>2026-07-05T08:25:54.000Z</time>
      </trkpt>
      <trkpt lat="42.96663" lon="1.11096">
        <ele>524</ele>
        <time>2026-07-05T08:25:59.000Z</time>
      </trkpt>
      <trkpt lat="42.96669" lon="1.11111">
        <ele>526</ele>
        <time>2026-07-05T08:26:04.000Z</time>
      </trkpt>
      <trkpt lat="42.96675" lon="1.11123">
        <ele>527</ele>
        <time>2026-07-05T08:26:09.000Z</time>
      </trkpt>
      <trkpt lat="42.9668" lon="1.11134">
        <ele>531</ele>
        <time>2026-07-05T08:26:14.000Z</time>
      </trkpt>
      <trkpt lat="42.96686" lon="1.11146">
        <ele>533</ele>
        <time>2026-07-05T08:26:19.000Z</time>
      </trkpt>
      <trkpt lat="42.96692" lon="1.11159">
        <ele>539</ele>
        <time>2026-07-05T08:26:24.000Z</time>
      </trkpt>
      <trkpt lat="42.96698" lon="1.11174">
        <ele>541</ele>
        <time>2026-07-05T08:26:29.000Z</time>
      </trkpt>
      <trkpt lat="42.96705" lon="1.11191">
        <ele>541</ele>
        <time>2026-07-05T08:26:34.000Z</time>
      </trkpt>
      <trkpt lat="42.96713" lon="1.11206">
        <ele>541</ele>
        <time>2026-07-05T08:26:39.000Z</time>
      </trkpt>
      <trkpt lat="42.9672" lon="1.11224">
        <ele>542</ele>
        <time>2026-07-05T08:26:44.000Z</time>
      </trkpt>
      <trkpt lat="42.96728" lon="1.11242">
        <ele>542</ele>
        <time>2026-07-05T08:26:49.000Z</time>
      </trkpt>
      <trkpt lat="42.96734" lon="1.11254">
        <ele>543</ele>
        <time>2026-07-05T08:26:54.000Z</time>
      </trkpt>
      <trkpt lat="42.96746" lon="1.11275">
        <ele>542</ele>
        <time>2026-07-05T08:26:59.000Z</time>
      </trkpt>
      <trkpt lat="42.96755" lon="1.11296">
        <ele>540</ele>
        <time>2026-07-05T08:27:04.000Z</time>
      </trkpt>
      <trkpt lat="42.96759" lon="1.11306">
        <ele>542</ele>
        <time>2026-07-05T08:27:09.000Z</time>
      </trkpt>
      <trkpt lat="42.9676" lon="1.11312">
        <ele>542</ele>
        <time>2026-07-05T08:27:14.000Z</time>
      </trkpt>
      <trkpt lat="42.96762" lon="1.11314">
        <ele>542</ele>
        <time>2026-07-05T08:27:19.000Z</time>
      </trkpt>
      <trkpt lat="42.96765" lon="1.11319">
        <ele>543</ele>
        <time>2026-07-05T08:27:24.000Z</time>
      </trkpt>
      <trkpt lat="42.96766" lon="1.11322">
        <ele>543</ele>
        <time>2026-07-05T08:27:29.000Z</time>
      </trkpt>
      <trkpt lat="42.96767" lon="1.11327">
        <ele>544</ele>
        <time>2026-07-05T08:27:34.000Z</time>
      </trkpt>
      <trkpt lat="42.96767" lon="1.11335">
        <ele>545</ele>
        <time>2026-07-05T08:27:39.000Z</time>
      </trkpt>
      <trkpt lat="42.9677" lon="1.1135">
        <ele>546</ele>
        <time>2026-07-05T08:27:44.000Z</time>
      </trkpt>
      <trkpt lat="42.96774" lon="1.1137">
        <ele>545</ele>
        <time>2026-07-05T08:27:49.000Z</time>
      </trkpt>
      <trkpt lat="42.96782" lon="1.11395">
        <ele>545</ele>
        <time>2026-07-05T08:27:54.000Z</time>
      </trkpt>
      <trkpt lat="42.9679" lon="1.11417">
        <ele>548</ele>
        <time>2026-07-05T08:27:59.000Z</time>
      </trkpt>
      <trkpt lat="42.96795" lon="1.11433">
        <ele>549</ele>
        <time>2026-07-05T08:28:04.000Z</time>
      </trkpt>
      <trkpt lat="42.96798" lon="1.11445">
        <ele>551</ele>
        <time>2026-07-05T08:28:09.000Z</time>
      </trkpt>
      <trkpt lat="42.968" lon="1.11455">
        <ele>555</ele>
        <time>2026-07-05T08:28:14.000Z</time>
      </trkpt>
      <trkpt lat="42.96802" lon="1.11469">
        <ele>559</ele>
        <time>2026-07-05T08:28:19.000Z</time>
      </trkpt>
      <trkpt lat="42.96803" lon="1.1148">
        <ele>560</ele>
        <time>2026-07-05T08:28:24.000Z</time>
      </trkpt>
      <trkpt lat="42.96803" lon="1.11492">
        <ele>562</ele>
        <time>2026-07-05T08:28:29.000Z</time>
      </trkpt>
      <trkpt lat="42.96805" lon="1.115">
        <ele>562</ele>
        <time>2026-07-05T08:28:34.000Z</time>
      </trkpt>
      <trkpt lat="42.96805" lon="1.11506">
        <ele>563</ele>
        <time>2026-07-05T08:28:39.000Z</time>
      </trkpt>
      <trkpt lat="42.96806" lon="1.11517">
        <ele>566</ele>
        <time>2026-07-05T08:28:44.000Z</time>
      </trkpt>
      <trkpt lat="42.96806" lon="1.11527">
        <ele>566</ele>
        <time>2026-07-05T08:28:49.000Z</time>
      </trkpt>
      <trkpt lat="42.96808" lon="1.11539">
        <ele>568</ele>
        <time>2026-07-05T08:28:54.000Z</time>
      </trkpt>
      <trkpt lat="42.96811" lon="1.11554">
        <ele>572</ele>
        <time>2026-07-05T08:28:59.000Z</time>
      </trkpt>
      <trkpt lat="42.96812" lon="1.11568">
        <ele>572</ele>
        <time>2026-07-05T08:29:04.000Z</time>
      </trkpt>
      <trkpt lat="42.96814" lon="1.11585">
        <ele>571</ele>
        <time>2026-07-05T08:29:09.000Z</time>
      </trkpt>
      <trkpt lat="42.9681" lon="1.11592">
        <ele>570</ele>
        <time>2026-07-05T08:29:14.000Z</time>
      </trkpt>
      <trkpt lat="42.96813" lon="1.11602">
        <ele>571</ele>
        <time>2026-07-05T08:29:19.000Z</time>
      </trkpt>
      <trkpt lat="42.96815" lon="1.11614">
        <ele>571</ele>
        <time>2026-07-05T08:29:24.000Z</time>
      </trkpt>
      <trkpt lat="42.96815" lon="1.11626">
        <ele>573</ele>
        <time>2026-07-05T08:29:29.000Z</time>
      </trkpt>
      <trkpt lat="42.96814" lon="1.11636">
        <ele>576</ele>
        <time>2026-07-05T08:29:34.000Z</time>
      </trkpt>
      <trkpt lat="42.96813" lon="1.11647">
        <ele>577</ele>
        <time>2026-07-05T08:29:39.000Z</time>
      </trkpt>
      <trkpt lat="42.96815" lon="1.11659">
        <ele>579</ele>
        <time>2026-07-05T08:29:44.000Z</time>
      </trkpt>
      <trkpt lat="42.96815" lon="1.11671">
        <ele>579</ele>
        <time>2026-07-05T08:29:49.000Z</time>
      </trkpt>
      <trkpt lat="42.96814" lon="1.11682">
        <ele>579</ele>
        <time>2026-07-05T08:29:54.000Z</time>
      </trkpt>
      <trkpt lat="42.96814" lon="1.11694">
        <ele>581</ele>
        <time>2026-07-05T08:29:59.000Z</time>
      </trkpt>
      <trkpt lat="42.96816" lon="1.11707">
        <ele>583</ele>
        <time>2026-07-05T08:30:04.000Z</time>
      </trkpt>
      <trkpt lat="42.96815" lon="1.11719">
        <ele>585</ele>
        <time>2026-07-05T08:30:09.000Z</time>
      </trkpt>
      <trkpt lat="42.96816" lon="1.1173">
        <ele>589</ele>
        <time>2026-07-05T08:30:14.000Z</time>
      </trkpt>
      <trkpt lat="42.96818" lon="1.1174">
        <ele>592</ele>
        <time>2026-07-05T08:30:19.000Z</time>
      </trkpt>
      <trkpt lat="42.9682" lon="1.11752">
        <ele>593</ele>
        <time>2026-07-05T08:30:24.000Z</time>
      </trkpt>
      <trkpt lat="42.96819" lon="1.11763">
        <ele>593</ele>
        <time>2026-07-05T08:30:29.000Z</time>
      </trkpt>
      <trkpt lat="42.96819" lon="1.11774">
        <ele>595</ele>
        <time>2026-07-05T08:30:34.000Z</time>
      </trkpt>
      <trkpt lat="42.96818" lon="1.11785">
        <ele>600</ele>
        <time>2026-07-05T08:30:39.000Z</time>
      </trkpt>
      <trkpt lat="42.96819" lon="1.118">
        <ele>599</ele>
        <time>2026-07-05T08:30:44.000Z</time>
      </trkpt>
      <trkpt lat="42.96818" lon="1.1181">
        <ele>599</ele>
        <time>2026-07-05T08:30:49.000Z</time>
      </trkpt>
      <trkpt lat="42.96816" lon="1.11819">
        <ele>601</ele>
        <time>2026-07-05T08:30:54.000Z</time>
      </trkpt>
      <trkpt lat="42.96815" lon="1.11827">
        <ele>603</ele>
        <time>2026-07-05T08:30:59.000Z</time>
      </trkpt>
      <trkpt lat="42.96813" lon="1.11836">
        <ele>606</ele>
        <time>2026-07-05T08:31:04.000Z</time>
      </trkpt>
      <trkpt lat="42.96809" lon="1.11842">
        <ele>606</ele>
        <time>2026-07-05T08:31:09.000Z</time>
      </trkpt>
      <trkpt lat="42.96807" lon="1.1185">
        <ele>609</ele>
        <time>2026-07-05T08:31:14.000Z</time>
      </trkpt>
      <trkpt lat="42.96806" lon="1.11859">
        <ele>611</ele>
        <time>2026-07-05T08:31:19.000Z</time>
      </trkpt>
      <trkpt lat="42.96802" lon="1.11869">
        <ele>612</ele>
        <time>2026-07-05T08:31:24.000Z</time>
      </trkpt>
      <trkpt lat="42.96796" lon="1.11878">
        <ele>615</ele>
        <time>2026-07-05T08:31:29.000Z</time>
      </trkpt>
      <trkpt lat="42.96791" lon="1.11884">
        <ele>615</ele>
        <time>2026-07-05T08:31:34.000Z</time>
      </trkpt>
      <trkpt lat="42.96787" lon="1.11896">
        <ele>615</ele>
        <time>2026-07-05T08:31:39.000Z</time>
      </trkpt>
      <trkpt lat="42.96785" lon="1.11909">
        <ele>615</ele>
        <time>2026-07-05T08:31:44.000Z</time>
      </trkpt>
      <trkpt lat="42.96775" lon="1.11914">
        <ele>612</ele>
        <time>2026-07-05T08:31:49.000Z</time>
      </trkpt>
      <trkpt lat="42.96765" lon="1.11903">
        <ele>614</ele>
        <time>2026-07-05T08:31:54.000Z</time>
      </trkpt>
      <trkpt lat="42.96753" lon="1.11888">
        <ele>616</ele>
        <time>2026-07-05T08:31:59.000Z</time>
      </trkpt>
      <trkpt lat="42.96741" lon="1.11877">
        <ele>618</ele>
        <time>2026-07-05T08:32:04.000Z</time>
      </trkpt>
      <trkpt lat="42.96732" lon="1.11865">
        <ele>619</ele>
        <time>2026-07-05T08:32:09.000Z</time>
      </trkpt>
      <trkpt lat="42.9673" lon="1.11868">
        <ele>622</ele>
        <time>2026-07-05T08:32:14.000Z</time>
      </trkpt>
      <trkpt lat="42.9673" lon="1.11877">
        <ele>624</ele>
        <time>2026-07-05T08:32:19.000Z</time>
      </trkpt>
      <trkpt lat="42.96727" lon="1.11891">
        <ele>625</ele>
        <time>2026-07-05T08:32:24.000Z</time>
      </trkpt>
      <trkpt lat="42.96718" lon="1.11903">
        <ele>627</ele>
        <time>2026-07-05T08:32:29.000Z</time>
      </trkpt>
      <trkpt lat="42.96711" lon="1.11915">
        <ele>629</ele>
        <time>2026-07-05T08:32:34.000Z</time>
      </trkpt>
      <trkpt lat="42.96702" lon="1.11935">
        <ele>630</ele>
        <time>2026-07-05T08:32:39.000Z</time>
      </trkpt>
      <trkpt lat="42.96694" lon="1.11957">
        <ele>630</ele>
        <time>2026-07-05T08:32:44.000Z</time>
      </trkpt>
      <trkpt lat="42.96685" lon="1.11988">
        <ele>632</ele>
        <time>2026-07-05T08:32:49.000Z</time>
      </trkpt>
      <trkpt lat="42.96664" lon="1.12025">
        <ele>635</ele>
        <time>2026-07-05T08:32:54.000Z</time>
      </trkpt>
      <trkpt lat="42.96653" lon="1.12047">
        <ele>635</ele>
        <time>2026-07-05T08:32:59.000Z</time>
      </trkpt>
      <trkpt lat="42.96649" lon="1.12069">
        <ele>634</ele>
        <time>2026-07-05T08:33:04.000Z</time>
      </trkpt>
      <trkpt lat="42.96644" lon="1.12092">
        <ele>636</ele>
        <time>2026-07-05T08:33:09.000Z</time>
      </trkpt>
      <trkpt lat="42.96637" lon="1.12113">
        <ele>638</ele>
        <time>2026-07-05T08:33:14.000Z</time>
      </trkpt>
      <trkpt lat="42.9663" lon="1.12133">
        <ele>640</ele>
        <time>2026-07-05T08:33:19.000Z</time>
      </trkpt>
      <trkpt lat="42.96622" lon="1.1215">
        <ele>641</ele>
        <time>2026-07-05T08:33:24.000Z</time>
      </trkpt>
      <trkpt lat="42.96614" lon="1.12169">
        <ele>644</ele>
        <time>2026-07-05T08:33:29.000Z</time>
      </trkpt>
      <trkpt lat="42.96604" lon="1.12188">
        <ele>643</ele>
        <time>2026-07-05T08:33:34.000Z</time>
      </trkpt>
      <trkpt lat="42.96592" lon="1.12212">
        <ele>643</ele>
        <time>2026-07-05T08:33:39.000Z</time>
      </trkpt>
      <trkpt lat="42.96579" lon="1.12236">
        <ele>643</ele>
        <time>2026-07-05T08:33:44.000Z</time>
      </trkpt>
      <trkpt lat="42.96568" lon="1.12256">
        <ele>643</ele>
        <time>2026-07-05T08:33:49.000Z</time>
      </trkpt>
      <trkpt lat="42.96556" lon="1.12279">
        <ele>643</ele>
        <time>2026-07-05T08:33:54.000Z</time>
      </trkpt>
      <trkpt lat="42.96532" lon="1.12311">
        <ele>645</ele>
        <time>2026-07-05T08:33:59.000Z</time>
      </trkpt>
      <trkpt lat="42.96514" lon="1.12332">
        <ele>644</ele>
        <time>2026-07-05T08:34:04.000Z</time>
      </trkpt>
      <trkpt lat="42.965" lon="1.12346">
        <ele>643</ele>
        <time>2026-07-05T08:34:09.000Z</time>
      </trkpt>
      <trkpt lat="42.96491" lon="1.12351">
        <ele>642</ele>
        <time>2026-07-05T08:34:14.000Z</time>
      </trkpt>
      <trkpt lat="42.96491" lon="1.12354">
        <ele>643</ele>
        <time>2026-07-05T08:34:19.000Z</time>
      </trkpt>
      <trkpt lat="42.96499" lon="1.1236">
        <ele>644</ele>
        <time>2026-07-05T08:34:24.000Z</time>
      </trkpt>
      <trkpt lat="42.9651" lon="1.12368">
        <ele>645</ele>
        <time>2026-07-05T08:34:29.000Z</time>
      </trkpt>
      <trkpt lat="42.9652" lon="1.12375">
        <ele>646</ele>
        <time>2026-07-05T08:34:34.000Z</time>
      </trkpt>
      <trkpt lat="42.96524" lon="1.12379">
        <ele>647</ele>
        <time>2026-07-05T08:34:39.000Z</time>
      </trkpt>
      <trkpt lat="42.96524" lon="1.12379">
        <ele>647</ele>
        <time>2026-07-05T08:34:44.000Z</time>
      </trkpt>
      <trkpt lat="42.96525" lon="1.12383">
        <ele>647</ele>
        <time>2026-07-05T08:34:49.000Z</time>
      </trkpt>
      <trkpt lat="42.96526" lon="1.12388">
        <ele>647</ele>
        <time>2026-07-05T08:34:54.000Z</time>
      </trkpt>
      <trkpt lat="42.96525" lon="1.12388">
        <ele>645</ele>
        <time>2026-07-05T08:34:59.000Z</time>
      </trkpt>
      <trkpt lat="42.96522" lon="1.12387">
        <ele>647</ele>
        <time>2026-07-05T08:35:04.000Z</time>
      </trkpt>
      <trkpt lat="42.96516" lon="1.12385">
        <ele>648</ele>
        <time>2026-07-05T08:35:09.000Z</time>
      </trkpt>
      <trkpt lat="42.96509" lon="1.12385">
        <ele>652</ele>
        <time>2026-07-05T08:35:14.000Z</time>
      </trkpt>
      <trkpt lat="42.96501" lon="1.12383">
        <ele>653</ele>
        <time>2026-07-05T08:35:19.000Z</time>
      </trkpt>
      <trkpt lat="42.96491" lon="1.12382">
        <ele>654</ele>
        <time>2026-07-05T08:35:24.000Z</time>
      </trkpt>
      <trkpt lat="42.96482" lon="1.12382">
        <ele>655</ele>
        <time>2026-07-05T08:35:29.000Z</time>
      </trkpt>
      <trkpt lat="42.96472" lon="1.12381">
        <ele>659</ele>
        <time>2026-07-05T08:35:34.000Z</time>
      </trkpt>
      <trkpt lat="42.96461" lon="1.12378">
        <ele>659</ele>
        <time>2026-07-05T08:35:39.000Z</time>
      </trkpt>
      <trkpt lat="42.96452" lon="1.12376">
        <ele>661</ele>
        <time>2026-07-05T08:35:44.000Z</time>
      </trkpt>
      <trkpt lat="42.96444" lon="1.12373">
        <ele>663</ele>
        <time>2026-07-05T08:35:49.000Z</time>
      </trkpt>
      <trkpt lat="42.96434" lon="1.12369">
        <ele>664</ele>
        <time>2026-07-05T08:35:54.000Z</time>
      </trkpt>
      <trkpt lat="42.96426" lon="1.12367">
        <ele>668</ele>
        <time>2026-07-05T08:35:59.000Z</time>
      </trkpt>
      <trkpt lat="42.96417" lon="1.12364">
        <ele>670</ele>
        <time>2026-07-05T08:36:04.000Z</time>
      </trkpt>
      <trkpt lat="42.96406" lon="1.12357">
        <ele>673</ele>
        <time>2026-07-05T08:36:09.000Z</time>
      </trkpt>
      <trkpt lat="42.96391" lon="1.12355">
        <ele>674</ele>
        <time>2026-07-05T08:36:14.000Z</time>
      </trkpt>
      <trkpt lat="42.96373" lon="1.12349">
        <ele>674</ele>
        <time>2026-07-05T08:36:19.000Z</time>
      </trkpt>
      <trkpt lat="42.96357" lon="1.12347">
        <ele>675</ele>
        <time>2026-07-05T08:36:24.000Z</time>
      </trkpt>
      <trkpt lat="42.96342" lon="1.12345">
        <ele>677</ele>
        <time>2026-07-05T08:36:29.000Z</time>
      </trkpt>
      <trkpt lat="42.96339" lon="1.12334">
        <ele>679</ele>
        <time>2026-07-05T08:36:34.000Z</time>
      </trkpt>
      <trkpt lat="42.9634" lon="1.12321">
        <ele>680</ele>
        <time>2026-07-05T08:36:39.000Z</time>
      </trkpt>
      <trkpt lat="42.96343" lon="1.1231">
        <ele>682</ele>
        <time>2026-07-05T08:36:44.000Z</time>
      </trkpt>
      <trkpt lat="42.96347" lon="1.12294">
        <ele>685</ele>
        <time>2026-07-05T08:36:49.000Z</time>
      </trkpt>
      <trkpt lat="42.9635" lon="1.12278">
        <ele>686</ele>
        <time>2026-07-05T08:36:54.000Z</time>
      </trkpt>
      <trkpt lat="42.96353" lon="1.12261">
        <ele>686</ele>
        <time>2026-07-05T08:36:59.000Z</time>
      </trkpt>
      <trkpt lat="42.96355" lon="1.12243">
        <ele>686</ele>
        <time>2026-07-05T08:37:04.000Z</time>
      </trkpt>
      <trkpt lat="42.96356" lon="1.12226">
        <ele>686</ele>
        <time>2026-07-05T08:37:09.000Z</time>
      </trkpt>
      <trkpt lat="42.96356" lon="1.12207">
        <ele>688</ele>
        <time>2026-07-05T08:37:14.000Z</time>
      </trkpt>
      <trkpt lat="42.96357" lon="1.12186">
        <ele>690</ele>
        <time>2026-07-05T08:37:19.000Z</time>
      </trkpt>
      <trkpt lat="42.96358" lon="1.1217">
        <ele>692</ele>
        <time>2026-07-05T08:37:24.000Z</time>
      </trkpt>
      <trkpt lat="42.96359" lon="1.12154">
        <ele>693</ele>
        <time>2026-07-05T08:37:29.000Z</time>
      </trkpt>
      <trkpt lat="42.96354" lon="1.12143">
        <ele>694</ele>
        <time>2026-07-05T08:37:34.000Z</time>
      </trkpt>
      <trkpt lat="42.96349" lon="1.12135">
        <ele>697</ele>
        <time>2026-07-05T08:37:39.000Z</time>
      </trkpt>
      <trkpt lat="42.96343" lon="1.12129">
        <ele>699</ele>
        <time>2026-07-05T08:37:44.000Z</time>
      </trkpt>
      <trkpt lat="42.96334" lon="1.12122">
        <ele>701</ele>
        <time>2026-07-05T08:37:49.000Z</time>
      </trkpt>
      <trkpt lat="42.96323" lon="1.12118">
        <ele>703</ele>
        <time>2026-07-05T08:37:54.000Z</time>
      </trkpt>
      <trkpt lat="42.96312" lon="1.12118">
        <ele>704</ele>
        <time>2026-07-05T08:37:59.000Z</time>
      </trkpt>
      <trkpt lat="42.96299" lon="1.1212">
        <ele>707</ele>
        <time>2026-07-05T08:38:04.000Z</time>
      </trkpt>
      <trkpt lat="42.9629" lon="1.12119">
        <ele>709</ele>
        <time>2026-07-05T08:38:09.000Z</time>
      </trkpt>
      <trkpt lat="42.96285" lon="1.12109">
        <ele>710</ele>
        <time>2026-07-05T08:38:14.000Z</time>
      </trkpt>
      <trkpt lat="42.96282" lon="1.12094">
        <ele>712</ele>
        <time>2026-07-05T08:38:19.000Z</time>
      </trkpt>
      <trkpt lat="42.96277" lon="1.12078">
        <ele>714</ele>
        <time>2026-07-05T08:38:24.000Z</time>
      </trkpt>
      <trkpt lat="42.96272" lon="1.12058">
        <ele>716</ele>
        <time>2026-07-05T08:38:29.000Z</time>
      </trkpt>
      <trkpt lat="42.96264" lon="1.12035">
        <ele>717</ele>
        <time>2026-07-05T08:38:34.000Z</time>
      </trkpt>
      <trkpt lat="42.96255" lon="1.12017">
        <ele>718</ele>
        <time>2026-07-05T08:38:39.000Z</time>
      </trkpt>
      <trkpt lat="42.96247" lon="1.12">
        <ele>720</ele>
        <time>2026-07-05T08:38:44.000Z</time>
      </trkpt>
      <trkpt lat="42.96241" lon="1.11984">
        <ele>721</ele>
        <time>2026-07-05T08:38:49.000Z</time>
      </trkpt>
      <trkpt lat="42.96237" lon="1.11966">
        <ele>722</ele>
        <time>2026-07-05T08:38:54.000Z</time>
      </trkpt>
      <trkpt lat="42.96232" lon="1.11948">
        <ele>724</ele>
        <time>2026-07-05T08:38:59.000Z</time>
      </trkpt>
      <trkpt lat="42.96225" lon="1.11925">
        <ele>725</ele>
        <time>2026-07-05T08:39:04.000Z</time>
      </trkpt>
      <trkpt lat="42.96218" lon="1.11902">
        <ele>728</ele>
        <time>2026-07-05T08:39:09.000Z</time>
      </trkpt>
      <trkpt lat="42.96211" lon="1.11878">
        <ele>728</ele>
        <time>2026-07-05T08:39:14.000Z</time>
      </trkpt>
      <trkpt lat="42.96208" lon="1.11845">
        <ele>727</ele>
        <time>2026-07-05T08:39:19.000Z</time>
      </trkpt>
      <trkpt lat="42.96207" lon="1.11817">
        <ele>726</ele>
        <time>2026-07-05T08:39:24.000Z</time>
      </trkpt>
      <trkpt lat="42.96212" lon="1.11788">
        <ele>725</ele>
        <time>2026-07-05T08:39:29.000Z</time>
      </trkpt>
      <trkpt lat="42.96204" lon="1.11753">
        <ele>724</ele>
        <time>2026-07-05T08:39:34.000Z</time>
      </trkpt>
      <trkpt lat="42.9619" lon="1.11731">
        <ele>725</ele>
        <time>2026-07-05T08:39:39.000Z</time>
      </trkpt>
      <trkpt lat="42.96172" lon="1.11715">
        <ele>726</ele>
        <time>2026-07-05T08:39:44.000Z</time>
      </trkpt>
      <trkpt lat="42.96152" lon="1.11711">
        <ele>727</ele>
        <time>2026-07-05T08:39:49.000Z</time>
      </trkpt>
      <trkpt lat="42.96139" lon="1.11714">
        <ele>728</ele>
        <time>2026-07-05T08:39:54.000Z</time>
      </trkpt>
      <trkpt lat="42.9613" lon="1.1172">
        <ele>728</ele>
        <time>2026-07-05T08:39:59.000Z</time>
      </trkpt>
      <trkpt lat="42.96116" lon="1.11736">
        <ele>731</ele>
        <time>2026-07-05T08:40:04.000Z</time>
      </trkpt>
      <trkpt lat="42.961" lon="1.11757">
        <ele>732</ele>
        <time>2026-07-05T08:40:09.000Z</time>
      </trkpt>
      <trkpt lat="42.96094" lon="1.11781">
        <ele>734</ele>
        <time>2026-07-05T08:40:14.000Z</time>
      </trkpt>
      <trkpt lat="42.96083" lon="1.11806">
        <ele>734</ele>
        <time>2026-07-05T08:40:19.000Z</time>
      </trkpt>
      <trkpt lat="42.96063" lon="1.11833">
        <ele>732</ele>
        <time>2026-07-05T08:40:24.000Z</time>
      </trkpt>
      <trkpt lat="42.96044" lon="1.1187">
        <ele>731</ele>
        <time>2026-07-05T08:40:29.000Z</time>
      </trkpt>
      <trkpt lat="42.96034" lon="1.11904">
        <ele>733</ele>
        <time>2026-07-05T08:40:34.000Z</time>
      </trkpt>
      <trkpt lat="42.96024" lon="1.11932">
        <ele>734</ele>
        <time>2026-07-05T08:40:39.000Z</time>
      </trkpt>
      <trkpt lat="42.96017" lon="1.11954">
        <ele>736</ele>
        <time>2026-07-05T08:40:44.000Z</time>
      </trkpt>
      <trkpt lat="42.96006" lon="1.11976">
        <ele>737</ele>
        <time>2026-07-05T08:40:49.000Z</time>
      </trkpt>
      <trkpt lat="42.9599" lon="1.11999">
        <ele>738</ele>
        <time>2026-07-05T08:40:54.000Z</time>
      </trkpt>
      <trkpt lat="42.95975" lon="1.12023">
        <ele>738</ele>
        <time>2026-07-05T08:40:59.000Z</time>
      </trkpt>
      <trkpt lat="42.95962" lon="1.12047">
        <ele>739</ele>
        <time>2026-07-05T08:41:04.000Z</time>
      </trkpt>
      <trkpt lat="42.95947" lon="1.12072">
        <ele>741</ele>
        <time>2026-07-05T08:41:09.000Z</time>
      </trkpt>
      <trkpt lat="42.9594" lon="1.12092">
        <ele>742</ele>
        <time>2026-07-05T08:41:14.000Z</time>
      </trkpt>
      <trkpt lat="42.95933" lon="1.12111">
        <ele>744</ele>
        <time>2026-07-05T08:41:19.000Z</time>
      </trkpt>
      <trkpt lat="42.95924" lon="1.1213">
        <ele>745</ele>
        <time>2026-07-05T08:41:24.000Z</time>
      </trkpt>
      <trkpt lat="42.95917" lon="1.12148">
        <ele>748</ele>
        <time>2026-07-05T08:41:29.000Z</time>
      </trkpt>
      <trkpt lat="42.95909" lon="1.12166">
        <ele>749</ele>
        <time>2026-07-05T08:41:34.000Z</time>
      </trkpt>
      <trkpt lat="42.95898" lon="1.12186">
        <ele>750</ele>
        <time>2026-07-05T08:41:39.000Z</time>
      </trkpt>
      <trkpt lat="42.95887" lon="1.12205">
        <ele>751</ele>
        <time>2026-07-05T08:41:44.000Z</time>
      </trkpt>
      <trkpt lat="42.95875" lon="1.12226">
        <ele>752</ele>
        <time>2026-07-05T08:41:49.000Z</time>
      </trkpt>
      <trkpt lat="42.95863" lon="1.12247">
        <ele>753</ele>
        <time>2026-07-05T08:41:54.000Z</time>
      </trkpt>
      <trkpt lat="42.95855" lon="1.12265">
        <ele>755</ele>
        <time>2026-07-05T08:41:59.000Z</time>
      </trkpt>
      <trkpt lat="42.95848" lon="1.12285">
        <ele>756</ele>
        <time>2026-07-05T08:42:04.000Z</time>
      </trkpt>
      <trkpt lat="42.95842" lon="1.12305">
        <ele>758</ele>
        <time>2026-07-05T08:42:09.000Z</time>
      </trkpt>
      <trkpt lat="42.95838" lon="1.12324">
        <ele>762</ele>
        <time>2026-07-05T08:42:14.000Z</time>
      </trkpt>
      <trkpt lat="42.95836" lon="1.12345">
        <ele>764</ele>
        <time>2026-07-05T08:42:19.000Z</time>
      </trkpt>
      <trkpt lat="42.95834" lon="1.12367">
        <ele>766</ele>
        <time>2026-07-05T08:42:24.000Z</time>
      </trkpt>
      <trkpt lat="42.95829" lon="1.12386">
        <ele>769</ele>
        <time>2026-07-05T08:42:29.000Z</time>
      </trkpt>
      <trkpt lat="42.95825" lon="1.12403">
        <ele>771</ele>
        <time>2026-07-05T08:42:34.000Z</time>
      </trkpt>
      <trkpt lat="42.95822" lon="1.1242">
        <ele>773</ele>
        <time>2026-07-05T08:42:39.000Z</time>
      </trkpt>
      <trkpt lat="42.9582" lon="1.12437">
        <ele>775</ele>
        <time>2026-07-05T08:42:44.000Z</time>
      </trkpt>
      <trkpt lat="42.95818" lon="1.12456">
        <ele>777</ele>
        <time>2026-07-05T08:42:49.000Z</time>
      </trkpt>
      <trkpt lat="42.95817" lon="1.12476">
        <ele>778</ele>
        <time>2026-07-05T08:42:54.000Z</time>
      </trkpt>
      <trkpt lat="42.95817" lon="1.12494">
        <ele>780</ele>
        <time>2026-07-05T08:42:59.000Z</time>
      </trkpt>
      <trkpt lat="42.95807" lon="1.1251">
        <ele>781</ele>
        <time>2026-07-05T08:43:04.000Z</time>
      </trkpt>
      <trkpt lat="42.95796" lon="1.12522">
        <ele>782</ele>
        <time>2026-07-05T08:43:09.000Z</time>
      </trkpt>
      <trkpt lat="42.95795" lon="1.12527">
        <ele>783</ele>
        <time>2026-07-05T08:43:14.000Z</time>
      </trkpt>
      <trkpt lat="42.95795" lon="1.12527">
        <ele>782</ele>
        <time>2026-07-05T08:43:19.000Z</time>
      </trkpt>
      <trkpt lat="42.95794" lon="1.12533">
        <ele>779</ele>
        <time>2026-07-05T08:43:24.000Z</time>
      </trkpt>
      <trkpt lat="42.95791" lon="1.12533">
        <ele>775</ele>
        <time>2026-07-05T08:43:55.000Z</time>
      </trkpt>
      <trkpt lat="42.95791" lon="1.12533">
        <ele>775</ele>
        <time>2026-07-05T08:45:35.000Z</time>
      </trkpt>
      <trkpt lat="42.95792" lon="1.12533">
        <ele>779</ele>
        <time>2026-07-05T08:46:43.000Z</time>
      </trkpt>
      <trkpt lat="42.95794" lon="1.12529">
        <ele>781</ele>
        <time>2026-07-05T08:46:48.000Z</time>
      </trkpt>
      <trkpt lat="42.95795" lon="1.12527">
        <ele>780</ele>
        <time>2026-07-05T08:46:53.000Z</time>
      </trkpt>
      <trkpt lat="42.95792" lon="1.12528">
        <ele>781</ele>
        <time>2026-07-05T08:47:07.000Z</time>
      </trkpt>
      <trkpt lat="42.95781" lon="1.12527">
        <ele>782</ele>
        <time>2026-07-05T08:47:12.000Z</time>
      </trkpt>
      <trkpt lat="42.95774" lon="1.12534">
        <ele>783</ele>
        <time>2026-07-05T08:47:17.000Z</time>
      </trkpt>
      <trkpt lat="42.95767" lon="1.12542">
        <ele>785</ele>
        <time>2026-07-05T08:47:22.000Z</time>
      </trkpt>
      <trkpt lat="42.95762" lon="1.12551">
        <ele>788</ele>
        <time>2026-07-05T08:47:27.000Z</time>
      </trkpt>
      <trkpt lat="42.9576" lon="1.1256">
        <ele>791</ele>
        <time>2026-07-05T08:47:32.000Z</time>
      </trkpt>
      <trkpt lat="42.9576" lon="1.12569">
        <ele>792</ele>
        <time>2026-07-05T08:47:37.000Z</time>
      </trkpt>
      <trkpt lat="42.95758" lon="1.12577">
        <ele>794</ele>
        <time>2026-07-05T08:47:42.000Z</time>
      </trkpt>
      <trkpt lat="42.95757" lon="1.12581">
        <ele>795</ele>
        <time>2026-07-05T08:47:47.000Z</time>
      </trkpt>
      <trkpt lat="42.95754" lon="1.12589">
        <ele>797</ele>
        <time>2026-07-05T08:47:52.000Z</time>
      </trkpt>
      <trkpt lat="42.95749" lon="1.126">
        <ele>797</ele>
        <time>2026-07-05T08:47:57.000Z</time>
      </trkpt>
      <trkpt lat="42.95746" lon="1.12612">
        <ele>800</ele>
        <time>2026-07-05T08:48:02.000Z</time>
      </trkpt>
      <trkpt lat="42.95743" lon="1.12623">
        <ele>802</ele>
        <time>2026-07-05T08:48:07.000Z</time>
      </trkpt>
      <trkpt lat="42.95742" lon="1.12637">
        <ele>804</ele>
        <time>2026-07-05T08:48:12.000Z</time>
      </trkpt>
      <trkpt lat="42.95738" lon="1.12651">
        <ele>807</ele>
        <time>2026-07-05T08:48:17.000Z</time>
      </trkpt>
      <trkpt lat="42.95735" lon="1.12665">
        <ele>808</ele>
        <time>2026-07-05T08:48:22.000Z</time>
      </trkpt>
      <trkpt lat="42.95733" lon="1.12679">
        <ele>809</ele>
        <time>2026-07-05T08:48:27.000Z</time>
      </trkpt>
      <trkpt lat="42.95734" lon="1.12694">
        <ele>811</ele>
        <time>2026-07-05T08:48:32.000Z</time>
      </trkpt>
      <trkpt lat="42.95737" lon="1.1271">
        <ele>813</ele>
        <time>2026-07-05T08:48:37.000Z</time>
      </trkpt>
      <trkpt lat="42.95739" lon="1.1273">
        <ele>813</ele>
        <time>2026-07-05T08:48:42.000Z</time>
      </trkpt>
      <trkpt lat="42.95732" lon="1.12759">
        <ele>811</ele>
        <time>2026-07-05T08:48:47.000Z</time>
      </trkpt>
      <trkpt lat="42.95721" lon="1.12791">
        <ele>810</ele>
        <time>2026-07-05T08:48:52.000Z</time>
      </trkpt>
      <trkpt lat="42.95708" lon="1.12812">
        <ele>811</ele>
        <time>2026-07-05T08:48:57.000Z</time>
      </trkpt>
      <trkpt lat="42.95698" lon="1.12827">
        <ele>813</ele>
        <time>2026-07-05T08:49:02.000Z</time>
      </trkpt>
      <trkpt lat="42.95684" lon="1.12844">
        <ele>814</ele>
        <time>2026-07-05T08:49:07.000Z</time>
      </trkpt>
      <trkpt lat="42.95677" lon="1.12864">
        <ele>815</ele>
        <time>2026-07-05T08:49:12.000Z</time>
      </trkpt>
      <trkpt lat="42.95672" lon="1.12888">
        <ele>817</ele>
        <time>2026-07-05T08:49:17.000Z</time>
      </trkpt>
      <trkpt lat="42.95668" lon="1.12912">
        <ele>820</ele>
        <time>2026-07-05T08:49:22.000Z</time>
      </trkpt>
      <trkpt lat="42.95667" lon="1.12943">
        <ele>822</ele>
        <time>2026-07-05T08:49:27.000Z</time>
      </trkpt>
      <trkpt lat="42.95668" lon="1.12975">
        <ele>824</ele>
        <time>2026-07-05T08:49:32.000Z</time>
      </trkpt>
      <trkpt lat="42.95672" lon="1.13004">
        <ele>826</ele>
        <time>2026-07-05T08:49:37.000Z</time>
      </trkpt>
      <trkpt lat="42.9567" lon="1.13032">
        <ele>826</ele>
        <time>2026-07-05T08:49:42.000Z</time>
      </trkpt>
      <trkpt lat="42.95667" lon="1.13053">
        <ele>828</ele>
        <time>2026-07-05T08:49:47.000Z</time>
      </trkpt>
      <trkpt lat="42.95668" lon="1.13071">
        <ele>830</ele>
        <time>2026-07-05T08:49:52.000Z</time>
      </trkpt>
      <trkpt lat="42.95662" lon="1.13084">
        <ele>832</ele>
        <time>2026-07-05T08:49:57.000Z</time>
      </trkpt>
      <trkpt lat="42.95653" lon="1.13094">
        <ele>835</ele>
        <time>2026-07-05T08:50:02.000Z</time>
      </trkpt>
      <trkpt lat="42.95641" lon="1.131">
        <ele>834</ele>
        <time>2026-07-05T08:50:07.000Z</time>
      </trkpt>
      <trkpt lat="42.95626" lon="1.13109">
        <ele>835</ele>
        <time>2026-07-05T08:50:12.000Z</time>
      </trkpt>
      <trkpt lat="42.95614" lon="1.13119">
        <ele>836</ele>
        <time>2026-07-05T08:50:17.000Z</time>
      </trkpt>
      <trkpt lat="42.95605" lon="1.13129">
        <ele>838</ele>
        <time>2026-07-05T08:50:22.000Z</time>
      </trkpt>
      <trkpt lat="42.95595" lon="1.1314">
        <ele>839</ele>
        <time>2026-07-05T08:50:27.000Z</time>
      </trkpt>
      <trkpt lat="42.95586" lon="1.1315">
        <ele>840</ele>
        <time>2026-07-05T08:50:32.000Z</time>
      </trkpt>
      <trkpt lat="42.95576" lon="1.13161">
        <ele>841</ele>
        <time>2026-07-05T08:50:37.000Z</time>
      </trkpt>
      <trkpt lat="42.95569" lon="1.13171">
        <ele>845</ele>
        <time>2026-07-05T08:50:42.000Z</time>
      </trkpt>
      <trkpt lat="42.95558" lon="1.13178">
        <ele>847</ele>
        <time>2026-07-05T08:50:47.000Z</time>
      </trkpt>
      <trkpt lat="42.95547" lon="1.13186">
        <ele>848</ele>
        <time>2026-07-05T08:50:52.000Z</time>
      </trkpt>
      <trkpt lat="42.95539" lon="1.13198">
        <ele>850</ele>
        <time>2026-07-05T08:50:57.000Z</time>
      </trkpt>
      <trkpt lat="42.95532" lon="1.13211">
        <ele>851</ele>
        <time>2026-07-05T08:51:02.000Z</time>
      </trkpt>
      <trkpt lat="42.95528" lon="1.13222">
        <ele>855</ele>
        <time>2026-07-05T08:51:07.000Z</time>
      </trkpt>
      <trkpt lat="42.95523" lon="1.1323">
        <ele>857</ele>
        <time>2026-07-05T08:51:12.000Z</time>
      </trkpt>
      <trkpt lat="42.95516" lon="1.13235">
        <ele>858</ele>
        <time>2026-07-05T08:51:17.000Z</time>
      </trkpt>
      <trkpt lat="42.95508" lon="1.13241">
        <ele>860</ele>
        <time>2026-07-05T08:51:22.000Z</time>
      </trkpt>
      <trkpt lat="42.95499" lon="1.13245">
        <ele>863</ele>
        <time>2026-07-05T08:51:27.000Z</time>
      </trkpt>
      <trkpt lat="42.95491" lon="1.13248">
        <ele>863</ele>
        <time>2026-07-05T08:51:32.000Z</time>
      </trkpt>
      <trkpt lat="42.95482" lon="1.13247">
        <ele>864</ele>
        <time>2026-07-05T08:51:37.000Z</time>
      </trkpt>
      <trkpt lat="42.95474" lon="1.13249">
        <ele>865</ele>
        <time>2026-07-05T08:51:42.000Z</time>
      </trkpt>
      <trkpt lat="42.95467" lon="1.13254">
        <ele>865</ele>
        <time>2026-07-05T08:51:47.000Z</time>
      </trkpt>
      <trkpt lat="42.95458" lon="1.1326">
        <ele>867</ele>
        <time>2026-07-05T08:51:52.000Z</time>
      </trkpt>
      <trkpt lat="42.95448" lon="1.13268">
        <ele>867</ele>
        <time>2026-07-05T08:51:57.000Z</time>
      </trkpt>
      <trkpt lat="42.9544" lon="1.13275">
        <ele>867</ele>
        <time>2026-07-05T08:52:02.000Z</time>
      </trkpt>
      <trkpt lat="42.95429" lon="1.13282">
        <ele>866</ele>
        <time>2026-07-05T08:52:07.000Z</time>
      </trkpt>
      <trkpt lat="42.95414" lon="1.13291">
        <ele>865</ele>
        <time>2026-07-05T08:52:12.000Z</time>
      </trkpt>
      <trkpt lat="42.95397" lon="1.13295">
        <ele>864</ele>
        <time>2026-07-05T08:52:17.000Z</time>
      </trkpt>
      <trkpt lat="42.95375" lon="1.13287">
        <ele>865</ele>
        <time>2026-07-05T08:52:22.000Z</time>
      </trkpt>
      <trkpt lat="42.95352" lon="1.13279">
        <ele>865</ele>
        <time>2026-07-05T08:52:27.000Z</time>
      </trkpt>
      <trkpt lat="42.95341" lon="1.13273">
        <ele>866</ele>
        <time>2026-07-05T08:52:32.000Z</time>
      </trkpt>
      <trkpt lat="42.9533" lon="1.13266">
        <ele>866</ele>
        <time>2026-07-05T08:52:37.000Z</time>
      </trkpt>
      <trkpt lat="42.95321" lon="1.13272">
        <ele>868</ele>
        <time>2026-07-05T08:52:42.000Z</time>
      </trkpt>
      <trkpt lat="42.95309" lon="1.13281">
        <ele>867</ele>
        <time>2026-07-05T08:52:47.000Z</time>
      </trkpt>
      <trkpt lat="42.9529" lon="1.13287">
        <ele>866</ele>
        <time>2026-07-05T08:52:52.000Z</time>
      </trkpt>
      <trkpt lat="42.95269" lon="1.13286">
        <ele>865</ele>
        <time>2026-07-05T08:52:57.000Z</time>
      </trkpt>
      <trkpt lat="42.95248" lon="1.13285">
        <ele>864</ele>
        <time>2026-07-05T08:53:02.000Z</time>
      </trkpt>
      <trkpt lat="42.95227" lon="1.13286">
        <ele>862</ele>
        <time>2026-07-05T08:53:07.000Z</time>
      </trkpt>
      <trkpt lat="42.95212" lon="1.13286">
        <ele>860</ele>
        <time>2026-07-05T08:53:12.000Z</time>
      </trkpt>
      <trkpt lat="42.95198" lon="1.13288">
        <ele>859</ele>
        <time>2026-07-05T08:53:17.000Z</time>
      </trkpt>
      <trkpt lat="42.95185" lon="1.13288">
        <ele>859</ele>
        <time>2026-07-05T08:53:22.000Z</time>
      </trkpt>
      <trkpt lat="42.95171" lon="1.13291">
        <ele>857</ele>
        <time>2026-07-05T08:53:27.000Z</time>
      </trkpt>
      <trkpt lat="42.95161" lon="1.13302">
        <ele>854</ele>
        <time>2026-07-05T08:53:32.000Z</time>
      </trkpt>
      <trkpt lat="42.95157" lon="1.13318">
        <ele>853</ele>
        <time>2026-07-05T08:53:37.000Z</time>
      </trkpt>
      <trkpt lat="42.95159" lon="1.13335">
        <ele>853</ele>
        <time>2026-07-05T08:53:42.000Z</time>
      </trkpt>
      <trkpt lat="42.95163" lon="1.13359">
        <ele>852</ele>
        <time>2026-07-05T08:53:47.000Z</time>
      </trkpt>
      <trkpt lat="42.95169" lon="1.13384">
        <ele>849</ele>
        <time>2026-07-05T08:53:52.000Z</time>
      </trkpt>
      <trkpt lat="42.95169" lon="1.1341">
        <ele>847</ele>
        <time>2026-07-05T08:53:57.000Z</time>
      </trkpt>
      <trkpt lat="42.95166" lon="1.13436">
        <ele>849</ele>
        <time>2026-07-05T08:54:02.000Z</time>
      </trkpt>
      <trkpt lat="42.95157" lon="1.13469">
        <ele>849</ele>
        <time>2026-07-05T08:54:07.000Z</time>
      </trkpt>
      <trkpt lat="42.95141" lon="1.13491">
        <ele>848</ele>
        <time>2026-07-05T08:54:12.000Z</time>
      </trkpt>
      <trkpt lat="42.95124" lon="1.13519">
        <ele>852</ele>
        <time>2026-07-05T08:54:17.000Z</time>
      </trkpt>
      <trkpt lat="42.95115" lon="1.13536">
        <ele>855</ele>
        <time>2026-07-05T08:54:22.000Z</time>
      </trkpt>
      <trkpt lat="42.95109" lon="1.13548">
        <ele>855</ele>
        <time>2026-07-05T08:54:27.000Z</time>
      </trkpt>
      <trkpt lat="42.95108" lon="1.13552">
        <ele>855</ele>
        <time>2026-07-05T08:54:32.000Z</time>
      </trkpt>
      <trkpt lat="42.95121" lon="1.13552">
        <ele>854</ele>
        <time>2026-07-05T08:54:37.000Z</time>
      </trkpt>
      <trkpt lat="42.95141" lon="1.13552">
        <ele>855</ele>
        <time>2026-07-05T08:54:42.000Z</time>
      </trkpt>
      <trkpt lat="42.95168" lon="1.13554">
        <ele>856</ele>
        <time>2026-07-05T08:54:47.000Z</time>
      </trkpt>
      <trkpt lat="42.95192" lon="1.13564">
        <ele>855</ele>
        <time>2026-07-05T08:54:52.000Z</time>
      </trkpt>
      <trkpt lat="42.95206" lon="1.13571">
        <ele>855</ele>
        <time>2026-07-05T08:54:57.000Z</time>
      </trkpt>
      <trkpt lat="42.95224" lon="1.13582">
        <ele>854</ele>
        <time>2026-07-05T08:55:02.000Z</time>
      </trkpt>
      <trkpt lat="42.95252" lon="1.136">
        <ele>854</ele>
        <time>2026-07-05T08:55:07.000Z</time>
      </trkpt>
      <trkpt lat="42.95286" lon="1.13618">
        <ele>850</ele>
        <time>2026-07-05T08:55:12.000Z</time>
      </trkpt>
      <trkpt lat="42.95313" lon="1.13646">
        <ele>847</ele>
        <time>2026-07-05T08:55:17.000Z</time>
      </trkpt>
      <trkpt lat="42.95337" lon="1.13665">
        <ele>844</ele>
        <time>2026-07-05T08:55:22.000Z</time>
      </trkpt>
      <trkpt lat="42.95357" lon="1.13676">
        <ele>841</ele>
        <time>2026-07-05T08:55:27.000Z</time>
      </trkpt>
      <trkpt lat="42.95374" lon="1.137">
        <ele>840</ele>
        <time>2026-07-05T08:55:32.000Z</time>
      </trkpt>
      <trkpt lat="42.95399" lon="1.1373">
        <ele>836</ele>
        <time>2026-07-05T08:55:37.000Z</time>
      </trkpt>
      <trkpt lat="42.95421" lon="1.1375">
        <ele>830</ele>
        <time>2026-07-05T08:55:42.000Z</time>
      </trkpt>
      <trkpt lat="42.95451" lon="1.13756">
        <ele>823</ele>
        <time>2026-07-05T08:55:47.000Z</time>
      </trkpt>
      <trkpt lat="42.95486" lon="1.13758">
        <ele>820</ele>
        <time>2026-07-05T08:55:52.000Z</time>
      </trkpt>
      <trkpt lat="42.95522" lon="1.13767">
        <ele>814</ele>
        <time>2026-07-05T08:55:57.000Z</time>
      </trkpt>
      <trkpt lat="42.95556" lon="1.1378">
        <ele>806</ele>
        <time>2026-07-05T08:56:02.000Z</time>
      </trkpt>
      <trkpt lat="42.95576" lon="1.13811">
        <ele>797</ele>
        <time>2026-07-05T08:56:07.000Z</time>
      </trkpt>
      <trkpt lat="42.95578" lon="1.13828">
        <ele>793</ele>
        <time>2026-07-05T08:56:12.000Z</time>
      </trkpt>
      <trkpt lat="42.95556" lon="1.13849">
        <ele>792</ele>
        <time>2026-07-05T08:56:17.000Z</time>
      </trkpt>
      <trkpt lat="42.95531" lon="1.13873">
        <ele>791</ele>
        <time>2026-07-05T08:56:22.000Z</time>
      </trkpt>
      <trkpt lat="42.95504" lon="1.13896">
        <ele>789</ele>
        <time>2026-07-05T08:56:27.000Z</time>
      </trkpt>
      <trkpt lat="42.95481" lon="1.13917">
        <ele>789</ele>
        <time>2026-07-05T08:56:32.000Z</time>
      </trkpt>
      <trkpt lat="42.95461" lon="1.13935">
        <ele>790</ele>
        <time>2026-07-05T08:56:37.000Z</time>
      </trkpt>
      <trkpt lat="42.95443" lon="1.13957">
        <ele>792</ele>
        <time>2026-07-05T08:56:42.000Z</time>
      </trkpt>
      <trkpt lat="42.95427" lon="1.13984">
        <ele>791</ele>
        <time>2026-07-05T08:56:47.000Z</time>
      </trkpt>
      <trkpt lat="42.95407" lon="1.14014">
        <ele>789</ele>
        <time>2026-07-05T08:56:52.000Z</time>
      </trkpt>
      <trkpt lat="42.95384" lon="1.14053">
        <ele>788</ele>
        <time>2026-07-05T08:56:57.000Z</time>
      </trkpt>
      <trkpt lat="42.95386" lon="1.14098">
        <ele>791</ele>
        <time>2026-07-05T08:57:02.000Z</time>
      </trkpt>
      <trkpt lat="42.95394" lon="1.1413">
        <ele>797</ele>
        <time>2026-07-05T08:57:07.000Z</time>
      </trkpt>
      <trkpt lat="42.954" lon="1.14161">
        <ele>801</ele>
        <time>2026-07-05T08:57:12.000Z</time>
      </trkpt>
      <trkpt lat="42.95398" lon="1.14198">
        <ele>802</ele>
        <time>2026-07-05T08:57:17.000Z</time>
      </trkpt>
      <trkpt lat="42.95384" lon="1.14233">
        <ele>799</ele>
        <time>2026-07-05T08:57:22.000Z</time>
      </trkpt>
      <trkpt lat="42.95367" lon="1.14268">
        <ele>794</ele>
        <time>2026-07-05T08:57:27.000Z</time>
      </trkpt>
      <trkpt lat="42.95347" lon="1.143">
        <ele>790</ele>
        <time>2026-07-05T08:57:32.000Z</time>
      </trkpt>
      <trkpt lat="42.95362" lon="1.14307">
        <ele>785</ele>
        <time>2026-07-05T08:57:37.000Z</time>
      </trkpt>
      <trkpt lat="42.95373" lon="1.14361">
        <ele>778</ele>
        <time>2026-07-05T08:57:42.000Z</time>
      </trkpt>
      <trkpt lat="42.95375" lon="1.14424">
        <ele>775</ele>
        <time>2026-07-05T08:57:47.000Z</time>
      </trkpt>
      <trkpt lat="42.95384" lon="1.14487">
        <ele>770</ele>
        <time>2026-07-05T08:57:52.000Z</time>
      </trkpt>
      <trkpt lat="42.95395" lon="1.14544">
        <ele>765</ele>
        <time>2026-07-05T08:57:57.000Z</time>
      </trkpt>
      <trkpt lat="42.95403" lon="1.14592">
        <ele>765</ele>
        <time>2026-07-05T08:58:02.000Z</time>
      </trkpt>
      <trkpt lat="42.95407" lon="1.14637">
        <ele>765</ele>
        <time>2026-07-05T08:58:07.000Z</time>
      </trkpt>
      <trkpt lat="42.95412" lon="1.14682">
        <ele>767</ele>
        <time>2026-07-05T08:58:12.000Z</time>
      </trkpt>
      <trkpt lat="42.95421" lon="1.14732">
        <ele>765</ele>
        <time>2026-07-05T08:58:17.000Z</time>
      </trkpt>
      <trkpt lat="42.95425" lon="1.14786">
        <ele>763</ele>
        <time>2026-07-05T08:58:22.000Z</time>
      </trkpt>
      <trkpt lat="42.95429" lon="1.14836">
        <ele>763</ele>
        <time>2026-07-05T08:58:27.000Z</time>
      </trkpt>
      <trkpt lat="42.95435" lon="1.14878">
        <ele>760</ele>
        <time>2026-07-05T08:58:32.000Z</time>
      </trkpt>
      <trkpt lat="42.95444" lon="1.14921">
        <ele>760</ele>
        <time>2026-07-05T08:58:37.000Z</time>
      </trkpt>
      <trkpt lat="42.95454" lon="1.14958">
        <ele>761</ele>
        <time>2026-07-05T08:58:42.000Z</time>
      </trkpt>
      <trkpt lat="42.95471" lon="1.14962">
        <ele>762</ele>
        <time>2026-07-05T08:58:47.000Z</time>
      </trkpt>
      <trkpt lat="42.95482" lon="1.14949">
        <ele>763</ele>
        <time>2026-07-05T08:58:52.000Z</time>
      </trkpt>
      <trkpt lat="42.9549" lon="1.14931">
        <ele>765</ele>
        <time>2026-07-05T08:58:57.000Z</time>
      </trkpt>
      <trkpt lat="42.95499" lon="1.14914">
        <ele>766</ele>
        <time>2026-07-05T08:59:02.000Z</time>
      </trkpt>
      <trkpt lat="42.95509" lon="1.149">
        <ele>770</ele>
        <time>2026-07-05T08:59:07.000Z</time>
      </trkpt>
      <trkpt lat="42.95523" lon="1.14894">
        <ele>774</ele>
        <time>2026-07-05T08:59:12.000Z</time>
      </trkpt>
      <trkpt lat="42.95537" lon="1.14891">
        <ele>774</ele>
        <time>2026-07-05T08:59:17.000Z</time>
      </trkpt>
      <trkpt lat="42.95558" lon="1.14908">
        <ele>773</ele>
        <time>2026-07-05T08:59:22.000Z</time>
      </trkpt>
      <trkpt lat="42.95568" lon="1.14923">
        <ele>771</ele>
        <time>2026-07-05T08:59:27.000Z</time>
      </trkpt>
      <trkpt lat="42.95578" lon="1.14932">
        <ele>768</ele>
        <time>2026-07-05T08:59:32.000Z</time>
      </trkpt>
      <trkpt lat="42.95589" lon="1.14935">
        <ele>765</ele>
        <time>2026-07-05T08:59:37.000Z</time>
      </trkpt>
      <trkpt lat="42.956" lon="1.14941">
        <ele>761</ele>
        <time>2026-07-05T08:59:42.000Z</time>
      </trkpt>
      <trkpt lat="42.95604" lon="1.14942">
        <ele>758</ele>
        <time>2026-07-05T08:59:47.000Z</time>
      </trkpt>
      <trkpt lat="42.95623" lon="1.14941">
        <ele>756</ele>
        <time>2026-07-05T08:59:52.000Z</time>
      </trkpt>
      <trkpt lat="42.95652" lon="1.14929">
        <ele>753</ele>
        <time>2026-07-05T08:59:57.000Z</time>
      </trkpt>
      <trkpt lat="42.95669" lon="1.14931">
        <ele>750</ele>
        <time>2026-07-05T09:00:02.000Z</time>
      </trkpt>
      <trkpt lat="42.95674" lon="1.14942">
        <ele>747</ele>
        <time>2026-07-05T09:00:07.000Z</time>
      </trkpt>
      <trkpt lat="42.95697" lon="1.14949">
        <ele>743</ele>
        <time>2026-07-05T09:00:12.000Z</time>
      </trkpt>
      <trkpt lat="42.95725" lon="1.14948">
        <ele>736</ele>
        <time>2026-07-05T09:00:17.000Z</time>
      </trkpt>
      <trkpt lat="42.95753" lon="1.14927">
        <ele>733</ele>
        <time>2026-07-05T09:00:22.000Z</time>
      </trkpt>
      <trkpt lat="42.95785" lon="1.1493">
        <ele>736</ele>
        <time>2026-07-05T09:00:27.000Z</time>
      </trkpt>
      <trkpt lat="42.95805" lon="1.14951">
        <ele>734</ele>
        <time>2026-07-05T09:00:32.000Z</time>
      </trkpt>
      <trkpt lat="42.95827" lon="1.14963">
        <ele>731</ele>
        <time>2026-07-05T09:00:37.000Z</time>
      </trkpt>
      <trkpt lat="42.95855" lon="1.14978">
        <ele>727</ele>
        <time>2026-07-05T09:00:42.000Z</time>
      </trkpt>
      <trkpt lat="42.95888" lon="1.14969">
        <ele>725</ele>
        <time>2026-07-05T09:00:47.000Z</time>
      </trkpt>
      <trkpt lat="42.95917" lon="1.14967">
        <ele>725</ele>
        <time>2026-07-05T09:00:52.000Z</time>
      </trkpt>
      <trkpt lat="42.95952" lon="1.14987">
        <ele>723</ele>
        <time>2026-07-05T09:00:57.000Z</time>
      </trkpt>
      <trkpt lat="42.95991" lon="1.15014">
        <ele>718</ele>
        <time>2026-07-05T09:01:02.000Z</time>
      </trkpt>
      <trkpt lat="42.96024" lon="1.15054">
        <ele>713</ele>
        <time>2026-07-05T09:01:07.000Z</time>
      </trkpt>
      <trkpt lat="42.96028" lon="1.15087">
        <ele>709</ele>
        <time>2026-07-05T09:01:12.000Z</time>
      </trkpt>
      <trkpt lat="42.96049" lon="1.15077">
        <ele>707</ele>
        <time>2026-07-05T09:01:17.000Z</time>
      </trkpt>
      <trkpt lat="42.96079" lon="1.15053">
        <ele>703</ele>
        <time>2026-07-05T09:01:22.000Z</time>
      </trkpt>
      <trkpt lat="42.96099" lon="1.15025">
        <ele>700</ele>
        <time>2026-07-05T09:01:27.000Z</time>
      </trkpt>
      <trkpt lat="42.96113" lon="1.15045">
        <ele>697</ele>
        <time>2026-07-05T09:01:32.000Z</time>
      </trkpt>
      <trkpt lat="42.96136" lon="1.1507">
        <ele>693</ele>
        <time>2026-07-05T09:01:37.000Z</time>
      </trkpt>
      <trkpt lat="42.96161" lon="1.15081">
        <ele>687</ele>
        <time>2026-07-05T09:01:42.000Z</time>
      </trkpt>
      <trkpt lat="42.96159" lon="1.15091">
        <ele>685</ele>
        <time>2026-07-05T09:01:47.000Z</time>
      </trkpt>
      <trkpt lat="42.96144" lon="1.15113">
        <ele>683</ele>
        <time>2026-07-05T09:01:52.000Z</time>
      </trkpt>
      <trkpt lat="42.96124" lon="1.15136">
        <ele>683</ele>
        <time>2026-07-05T09:01:57.000Z</time>
      </trkpt>
      <trkpt lat="42.96098" lon="1.15152">
        <ele>683</ele>
        <time>2026-07-05T09:02:02.000Z</time>
      </trkpt>
      <trkpt lat="42.96082" lon="1.15162">
        <ele>686</ele>
        <time>2026-07-05T09:02:07.000Z</time>
      </trkpt>
      <trkpt lat="42.96076" lon="1.15189">
        <ele>687</ele>
        <time>2026-07-05T09:02:12.000Z</time>
      </trkpt>
      <trkpt lat="42.96076" lon="1.15219">
        <ele>688</ele>
        <time>2026-07-05T09:02:17.000Z</time>
      </trkpt>
      <trkpt lat="42.96071" lon="1.15242">
        <ele>691</ele>
        <time>2026-07-05T09:02:22.000Z</time>
      </trkpt>
      <trkpt lat="42.96074" lon="1.15257">
        <ele>691</ele>
        <time>2026-07-05T09:02:27.000Z</time>
      </trkpt>
      <trkpt lat="42.96082" lon="1.15279">
        <ele>689</ele>
        <time>2026-07-05T09:02:32.000Z</time>
      </trkpt>
      <trkpt lat="42.96087" lon="1.15308">
        <ele>686</ele>
        <time>2026-07-05T09:02:37.000Z</time>
      </trkpt>
      <trkpt lat="42.96096" lon="1.15332">
        <ele>680</ele>
        <time>2026-07-05T09:02:42.000Z</time>
      </trkpt>
      <trkpt lat="42.96112" lon="1.15317">
        <ele>677</ele>
        <time>2026-07-05T09:02:47.000Z</time>
      </trkpt>
      <trkpt lat="42.96129" lon="1.15302">
        <ele>675</ele>
        <time>2026-07-05T09:02:52.000Z</time>
      </trkpt>
      <trkpt lat="42.96147" lon="1.15283">
        <ele>669</ele>
        <time>2026-07-05T09:02:57.000Z</time>
      </trkpt>
      <trkpt lat="42.96166" lon="1.15265">
        <ele>665</ele>
        <time>2026-07-05T09:03:02.000Z</time>
      </trkpt>
      <trkpt lat="42.96182" lon="1.15266">
        <ele>663</ele>
        <time>2026-07-05T09:03:07.000Z</time>
      </trkpt>
      <trkpt lat="42.96194" lon="1.15291">
        <ele>661</ele>
        <time>2026-07-05T09:03:12.000Z</time>
      </trkpt>
      <trkpt lat="42.96207" lon="1.15318">
        <ele>659</ele>
        <time>2026-07-05T09:03:17.000Z</time>
      </trkpt>
      <trkpt lat="42.96211" lon="1.15339">
        <ele>653</ele>
        <time>2026-07-05T09:03:22.000Z</time>
      </trkpt>
      <trkpt lat="42.96205" lon="1.15363">
        <ele>649</ele>
        <time>2026-07-05T09:03:27.000Z</time>
      </trkpt>
      <trkpt lat="42.96213" lon="1.15363">
        <ele>644</ele>
        <time>2026-07-05T09:03:32.000Z</time>
      </trkpt>
      <trkpt lat="42.9623" lon="1.15359">
        <ele>638</ele>
        <time>2026-07-05T09:03:37.000Z</time>
      </trkpt>
      <trkpt lat="42.96253" lon="1.15352">
        <ele>635</ele>
        <time>2026-07-05T09:03:42.000Z</time>
      </trkpt>
      <trkpt lat="42.96266" lon="1.15356">
        <ele>635</ele>
        <time>2026-07-05T09:03:47.000Z</time>
      </trkpt>
      <trkpt lat="42.96272" lon="1.15368">
        <ele>632</ele>
        <time>2026-07-05T09:03:52.000Z</time>
      </trkpt>
      <trkpt lat="42.96269" lon="1.15378">
        <ele>628</ele>
        <time>2026-07-05T09:03:57.000Z</time>
      </trkpt>
      <trkpt lat="42.96267" lon="1.15385">
        <ele>625</ele>
        <time>2026-07-05T09:04:02.000Z</time>
      </trkpt>
      <trkpt lat="42.96278" lon="1.15391">
        <ele>622</ele>
        <time>2026-07-05T09:04:07.000Z</time>
      </trkpt>
      <trkpt lat="42.96296" lon="1.15399">
        <ele>618</ele>
        <time>2026-07-05T09:04:12.000Z</time>
      </trkpt>
      <trkpt lat="42.96313" lon="1.15405">
        <ele>614</ele>
        <time>2026-07-05T09:04:17.000Z</time>
      </trkpt>
      <trkpt lat="42.96327" lon="1.15412">
        <ele>610</ele>
        <time>2026-07-05T09:04:22.000Z</time>
      </trkpt>
      <trkpt lat="42.96338" lon="1.1542">
        <ele>607</ele>
        <time>2026-07-05T09:04:27.000Z</time>
      </trkpt>
      <trkpt lat="42.96354" lon="1.15433">
        <ele>602</ele>
        <time>2026-07-05T09:04:32.000Z</time>
      </trkpt>
      <trkpt lat="42.96374" lon="1.15463">
        <ele>595</ele>
        <time>2026-07-05T09:04:37.000Z</time>
      </trkpt>
      <trkpt lat="42.9639" lon="1.15493">
        <ele>588</ele>
        <time>2026-07-05T09:04:42.000Z</time>
      </trkpt>
      <trkpt lat="42.96399" lon="1.15518">
        <ele>582</ele>
        <time>2026-07-05T09:04:47.000Z</time>
      </trkpt>
      <trkpt lat="42.96401" lon="1.1555">
        <ele>577</ele>
        <time>2026-07-05T09:04:52.000Z</time>
      </trkpt>
      <trkpt lat="42.96406" lon="1.15596">
        <ele>567</ele>
        <time>2026-07-05T09:04:57.000Z</time>
      </trkpt>
      <trkpt lat="42.96417" lon="1.15608">
        <ele>560</ele>
        <time>2026-07-05T09:05:02.000Z</time>
      </trkpt>
      <trkpt lat="42.96417" lon="1.1561">
        <ele>556</ele>
        <time>2026-07-05T09:05:07.000Z</time>
      </trkpt>
      <trkpt lat="42.96423" lon="1.1561">
        <ele>549</ele>
        <time>2026-07-05T09:05:25.000Z</time>
      </trkpt>
      <trkpt lat="42.96431" lon="1.1561">
        <ele>551</ele>
        <time>2026-07-05T09:05:30.000Z</time>
      </trkpt>
      <trkpt lat="42.9644" lon="1.1561">
        <ele>552</ele>
        <time>2026-07-05T09:05:35.000Z</time>
      </trkpt>
      <trkpt lat="42.96451" lon="1.15609">
        <ele>553</ele>
        <time>2026-07-05T09:05:40.000Z</time>
      </trkpt>
      <trkpt lat="42.96461" lon="1.15607">
        <ele>554</ele>
        <time>2026-07-05T09:05:45.000Z</time>
      </trkpt>
      <trkpt lat="42.9647" lon="1.15604">
        <ele>555</ele>
        <time>2026-07-05T09:05:50.000Z</time>
      </trkpt>
      <trkpt lat="42.96481" lon="1.15599">
        <ele>555</ele>
        <time>2026-07-05T09:05:55.000Z</time>
      </trkpt>
      <trkpt lat="42.96493" lon="1.15595">
        <ele>555</ele>
        <time>2026-07-05T09:06:00.000Z</time>
      </trkpt>
      <trkpt lat="42.9651" lon="1.15586">
        <ele>556</ele>
        <time>2026-07-05T09:06:05.000Z</time>
      </trkpt>
      <trkpt lat="42.96526" lon="1.15574">
        <ele>556</ele>
        <time>2026-07-05T09:06:10.000Z</time>
      </trkpt>
      <trkpt lat="42.9654" lon="1.15561">
        <ele>559</ele>
        <time>2026-07-05T09:06:15.000Z</time>
      </trkpt>
      <trkpt lat="42.96548" lon="1.1555">
        <ele>561</ele>
        <time>2026-07-05T09:06:20.000Z</time>
      </trkpt>
      <trkpt lat="42.96552" lon="1.15546">
        <ele>562</ele>
        <time>2026-07-05T09:06:25.000Z</time>
      </trkpt>
      <trkpt lat="42.9656" lon="1.15541">
        <ele>565</ele>
        <time>2026-07-05T09:06:30.000Z</time>
      </trkpt>
      <trkpt lat="42.96571" lon="1.1554">
        <ele>565</ele>
        <time>2026-07-05T09:06:35.000Z</time>
      </trkpt>
      <trkpt lat="42.96582" lon="1.15534">
        <ele>566</ele>
        <time>2026-07-05T09:06:40.000Z</time>
      </trkpt>
      <trkpt lat="42.96591" lon="1.15528">
        <ele>571</ele>
        <time>2026-07-05T09:06:45.000Z</time>
      </trkpt>
      <trkpt lat="42.966" lon="1.15522">
        <ele>575</ele>
        <time>2026-07-05T09:06:50.000Z</time>
      </trkpt>
      <trkpt lat="42.96607" lon="1.15514">
        <ele>578</ele>
        <time>2026-07-05T09:06:55.000Z</time>
      </trkpt>
      <trkpt lat="42.96615" lon="1.15505">
        <ele>579</ele>
        <time>2026-07-05T09:07:00.000Z</time>
      </trkpt>
      <trkpt lat="42.96624" lon="1.15493">
        <ele>582</ele>
        <time>2026-07-05T09:07:05.000Z</time>
      </trkpt>
      <trkpt lat="42.96637" lon="1.15478">
        <ele>586</ele>
        <time>2026-07-05T09:07:10.000Z</time>
      </trkpt>
      <trkpt lat="42.96647" lon="1.15465">
        <ele>588</ele>
        <time>2026-07-05T09:07:15.000Z</time>
      </trkpt>
      <trkpt lat="42.96657" lon="1.1545">
        <ele>589</ele>
        <time>2026-07-05T09:07:20.000Z</time>
      </trkpt>
      <trkpt lat="42.96669" lon="1.15434">
        <ele>591</ele>
        <time>2026-07-05T09:07:25.000Z</time>
      </trkpt>
      <trkpt lat="42.9668" lon="1.15415">
        <ele>590</ele>
        <time>2026-07-05T09:07:30.000Z</time>
      </trkpt>
      <trkpt lat="42.96693" lon="1.15394">
        <ele>589</ele>
        <time>2026-07-05T09:07:35.000Z</time>
      </trkpt>
      <trkpt lat="42.96704" lon="1.15377">
        <ele>588</ele>
        <time>2026-07-05T09:07:40.000Z</time>
      </trkpt>
      <trkpt lat="42.96714" lon="1.15363">
        <ele>589</ele>
        <time>2026-07-05T09:07:45.000Z</time>
      </trkpt>
      <trkpt lat="42.96726" lon="1.15347">
        <ele>589</ele>
        <time>2026-07-05T09:07:50.000Z</time>
      </trkpt>
      <trkpt lat="42.96738" lon="1.15332">
        <ele>591</ele>
        <time>2026-07-05T09:07:55.000Z</time>
      </trkpt>
      <trkpt lat="42.96751" lon="1.15316">
        <ele>591</ele>
        <time>2026-07-05T09:08:00.000Z</time>
      </trkpt>
      <trkpt lat="42.96771" lon="1.15291">
        <ele>591</ele>
        <time>2026-07-05T09:08:05.000Z</time>
      </trkpt>
      <trkpt lat="42.96789" lon="1.15266">
        <ele>589</ele>
        <time>2026-07-05T09:08:10.000Z</time>
      </trkpt>
      <trkpt lat="42.96806" lon="1.15235">
        <ele>585</ele>
        <time>2026-07-05T09:08:15.000Z</time>
      </trkpt>
      <trkpt lat="42.96817" lon="1.15207">
        <ele>586</ele>
        <time>2026-07-05T09:08:20.000Z</time>
      </trkpt>
      <trkpt lat="42.9683" lon="1.15172">
        <ele>584</ele>
        <time>2026-07-05T09:08:25.000Z</time>
      </trkpt>
      <trkpt lat="42.9684" lon="1.15137">
        <ele>581</ele>
        <time>2026-07-05T09:08:30.000Z</time>
      </trkpt>
      <trkpt lat="42.96846" lon="1.15112">
        <ele>580</ele>
        <time>2026-07-05T09:08:35.000Z</time>
      </trkpt>
      <trkpt lat="42.96847" lon="1.15087">
        <ele>577</ele>
        <time>2026-07-05T09:08:40.000Z</time>
      </trkpt>
      <trkpt lat="42.96851" lon="1.15059">
        <ele>575</ele>
        <time>2026-07-05T09:08:45.000Z</time>
      </trkpt>
      <trkpt lat="42.96849" lon="1.15025">
        <ele>571</ele>
        <time>2026-07-05T09:08:50.000Z</time>
      </trkpt>
      <trkpt lat="42.96844" lon="1.14989">
        <ele>570</ele>
        <time>2026-07-05T09:08:55.000Z</time>
      </trkpt>
      <trkpt lat="42.9684" lon="1.14954">
        <ele>568</ele>
        <time>2026-07-05T09:09:00.000Z</time>
      </trkpt>
      <trkpt lat="42.96838" lon="1.14922">
        <ele>566</ele>
        <time>2026-07-05T09:09:05.000Z</time>
      </trkpt>
      <trkpt lat="42.96836" lon="1.1489">
        <ele>562</ele>
        <time>2026-07-05T09:09:10.000Z</time>
      </trkpt>
      <trkpt lat="42.96832" lon="1.14862">
        <ele>561</ele>
        <time>2026-07-05T09:09:15.000Z</time>
      </trkpt>
      <trkpt lat="42.9683" lon="1.14829">
        <ele>558</ele>
        <time>2026-07-05T09:09:20.000Z</time>
      </trkpt>
      <trkpt lat="42.96845" lon="1.14833">
        <ele>556</ele>
        <time>2026-07-05T09:09:25.000Z</time>
      </trkpt>
      <trkpt lat="42.96868" lon="1.14841">
        <ele>554</ele>
        <time>2026-07-05T09:09:30.000Z</time>
      </trkpt>
      <trkpt lat="42.96891" lon="1.14861">
        <ele>552</ele>
        <time>2026-07-05T09:09:35.000Z</time>
      </trkpt>
      <trkpt lat="42.96925" lon="1.1488">
        <ele>547</ele>
        <time>2026-07-05T09:09:40.000Z</time>
      </trkpt>
      <trkpt lat="42.96957" lon="1.14894">
        <ele>545</ele>
        <time>2026-07-05T09:09:45.000Z</time>
      </trkpt>
      <trkpt lat="42.96983" lon="1.14899">
        <ele>544</ele>
        <time>2026-07-05T09:09:50.000Z</time>
      </trkpt>
      <trkpt lat="42.9701" lon="1.14897">
        <ele>542</ele>
        <time>2026-07-05T09:09:55.000Z</time>
      </trkpt>
      <trkpt lat="42.9704" lon="1.14898">
        <ele>542</ele>
        <time>2026-07-05T09:10:00.000Z</time>
      </trkpt>
      <trkpt lat="42.97071" lon="1.14897">
        <ele>539</ele>
        <time>2026-07-05T09:10:05.000Z</time>
      </trkpt>
      <trkpt lat="42.97109" lon="1.14898">
        <ele>536</ele>
        <time>2026-07-05T09:10:10.000Z</time>
      </trkpt>
      <trkpt lat="42.97141" lon="1.14886">
        <ele>533</ele>
        <time>2026-07-05T09:10:15.000Z</time>
      </trkpt>
      <trkpt lat="42.97168" lon="1.14856">
        <ele>529</ele>
        <time>2026-07-05T09:10:20.000Z</time>
      </trkpt>
      <trkpt lat="42.97188" lon="1.14828">
        <ele>527</ele>
        <time>2026-07-05T09:10:25.000Z</time>
      </trkpt>
      <trkpt lat="42.9721" lon="1.14809">
        <ele>521</ele>
        <time>2026-07-05T09:10:30.000Z</time>
      </trkpt>
      <trkpt lat="42.97226" lon="1.14781">
        <ele>514</ele>
        <time>2026-07-05T09:10:35.000Z</time>
      </trkpt>
      <trkpt lat="42.97251" lon="1.1478">
        <ele>507</ele>
        <time>2026-07-05T09:10:40.000Z</time>
      </trkpt>
      <trkpt lat="42.9727" lon="1.14761">
        <ele>501</ele>
        <time>2026-07-05T09:10:45.000Z</time>
      </trkpt>
      <trkpt lat="42.97304" lon="1.14765">
        <ele>496</ele>
        <time>2026-07-05T09:10:50.000Z</time>
      </trkpt>
      <trkpt lat="42.97344" lon="1.14774">
        <ele>493</ele>
        <time>2026-07-05T09:10:55.000Z</time>
      </trkpt>
      <trkpt lat="42.97377" lon="1.14774">
        <ele>492</ele>
        <time>2026-07-05T09:11:00.000Z</time>
      </trkpt>
      <trkpt lat="42.97407" lon="1.14765">
        <ele>488</ele>
        <time>2026-07-05T09:11:05.000Z</time>
      </trkpt>
      <trkpt lat="42.97437" lon="1.14754">
        <ele>487</ele>
        <time>2026-07-05T09:11:10.000Z</time>
      </trkpt>
      <trkpt lat="42.97469" lon="1.14739">
        <ele>484</ele>
        <time>2026-07-05T09:11:15.000Z</time>
      </trkpt>
      <trkpt lat="42.97506" lon="1.14723">
        <ele>483</ele>
        <time>2026-07-05T09:11:20.000Z</time>
      </trkpt>
      <trkpt lat="42.97532" lon="1.14712">
        <ele>480</ele>
        <time>2026-07-05T09:11:25.000Z</time>
      </trkpt>
      <trkpt lat="42.97546" lon="1.14673">
        <ele>477</ele>
        <time>2026-07-05T09:11:30.000Z</time>
      </trkpt>
      <trkpt lat="42.97562" lon="1.14632">
        <ele>476</ele>
        <time>2026-07-05T09:11:35.000Z</time>
      </trkpt>
      <trkpt lat="42.97571" lon="1.14589">
        <ele>472</ele>
        <time>2026-07-05T09:11:40.000Z</time>
      </trkpt>
      <trkpt lat="42.97577" lon="1.14544">
        <ele>473</ele>
        <time>2026-07-05T09:11:45.000Z</time>
      </trkpt>
      <trkpt lat="42.97596" lon="1.14509">
        <ele>472</ele>
        <time>2026-07-05T09:11:50.000Z</time>
      </trkpt>
      <trkpt lat="42.97614" lon="1.14478">
        <ele>474</ele>
        <time>2026-07-05T09:11:55.000Z</time>
      </trkpt>
      <trkpt lat="42.97627" lon="1.14445">
        <ele>477</ele>
        <time>2026-07-05T09:12:00.000Z</time>
      </trkpt>
      <trkpt lat="42.97644" lon="1.14409">
        <ele>476</ele>
        <time>2026-07-05T09:12:05.000Z</time>
      </trkpt>
      <trkpt lat="42.97658" lon="1.14373">
        <ele>475</ele>
        <time>2026-07-05T09:12:10.000Z</time>
      </trkpt>
      <trkpt lat="42.97671" lon="1.14347">
        <ele>475</ele>
        <time>2026-07-05T09:12:15.000Z</time>
      </trkpt>
      <trkpt lat="42.97691" lon="1.14315">
        <ele>476</ele>
        <time>2026-07-05T09:12:20.000Z</time>
      </trkpt>
      <trkpt lat="42.97708" lon="1.14284">
        <ele>475</ele>
        <time>2026-07-05T09:12:25.000Z</time>
      </trkpt>
      <trkpt lat="42.97725" lon="1.14255">
        <ele>474</ele>
        <time>2026-07-05T09:12:30.000Z</time>
      </trkpt>
      <trkpt lat="42.97747" lon="1.14224">
        <ele>474</ele>
        <time>2026-07-05T09:12:35.000Z</time>
      </trkpt>
      <trkpt lat="42.97766" lon="1.14193">
        <ele>473</ele>
        <time>2026-07-05T09:12:40.000Z</time>
      </trkpt>
      <trkpt lat="42.97784" lon="1.14159">
        <ele>473</ele>
        <time>2026-07-05T09:12:45.000Z</time>
      </trkpt>
      <trkpt lat="42.97798" lon="1.14122">
        <ele>473</ele>
        <time>2026-07-05T09:12:50.000Z</time>
      </trkpt>
      <trkpt lat="42.97822" lon="1.14097">
        <ele>472</ele>
        <time>2026-07-05T09:12:55.000Z</time>
      </trkpt>
      <trkpt lat="42.97843" lon="1.14078">
        <ele>472</ele>
        <time>2026-07-05T09:13:00.000Z</time>
      </trkpt>
      <trkpt lat="42.97864" lon="1.14061">
        <ele>472</ele>
        <time>2026-07-05T09:13:05.000Z</time>
      </trkpt>
      <trkpt lat="42.97879" lon="1.14043">
        <ele>473</ele>
        <time>2026-07-05T09:13:10.000Z</time>
      </trkpt>
      <trkpt lat="42.97878" lon="1.14023">
        <ele>476</ele>
        <time>2026-07-05T09:13:15.000Z</time>
      </trkpt>
      <trkpt lat="42.97882" lon="1.14003">
        <ele>477</ele>
        <time>2026-07-05T09:13:20.000Z</time>
      </trkpt>
      <trkpt lat="42.97897" lon="1.13986">
        <ele>477</ele>
        <time>2026-07-05T09:13:25.000Z</time>
      </trkpt>
      <trkpt lat="42.97913" lon="1.13958">
        <ele>478</ele>
        <time>2026-07-05T09:13:30.000Z</time>
      </trkpt>
      <trkpt lat="42.97927" lon="1.13932">
        <ele>477</ele>
        <time>2026-07-05T09:13:35.000Z</time>
      </trkpt>
      <trkpt lat="42.97943" lon="1.13906">
        <ele>478</ele>
        <time>2026-07-05T09:13:40.000Z</time>
      </trkpt>
      <trkpt lat="42.97961" lon="1.13875">
        <ele>478</ele>
        <time>2026-07-05T09:13:45.000Z</time>
      </trkpt>
      <trkpt lat="42.9798" lon="1.13844">
        <ele>479</ele>
        <time>2026-07-05T09:13:50.000Z</time>
      </trkpt>
      <trkpt lat="42.9799" lon="1.13809">
        <ele>478</ele>
        <time>2026-07-05T09:13:55.000Z</time>
      </trkpt>
      <trkpt lat="42.97988" lon="1.13774">
        <ele>478</ele>
        <time>2026-07-05T09:14:00.000Z</time>
      </trkpt>
      <trkpt lat="42.97973" lon="1.13756">
        <ele>481</ele>
        <time>2026-07-05T09:14:05.000Z</time>
      </trkpt>
      <trkpt lat="42.97958" lon="1.13737">
        <ele>482</ele>
        <time>2026-07-05T09:14:10.000Z</time>
      </trkpt>
      <trkpt lat="42.97944" lon="1.13719">
        <ele>484</ele>
        <time>2026-07-05T09:14:15.000Z</time>
      </trkpt>
      <trkpt lat="42.9793" lon="1.13698">
        <ele>485</ele>
        <time>2026-07-05T09:14:20.000Z</time>
      </trkpt>
      <trkpt lat="42.97917" lon="1.1368">
        <ele>487</ele>
        <time>2026-07-05T09:14:25.000Z</time>
      </trkpt>
      <trkpt lat="42.97903" lon="1.13663">
        <ele>490</ele>
        <time>2026-07-05T09:14:30.000Z</time>
      </trkpt>
      <trkpt lat="42.97887" lon="1.13648">
        <ele>491</ele>
        <time>2026-07-05T09:14:35.000Z</time>
      </trkpt>
      <trkpt lat="42.97872" lon="1.13635">
        <ele>493</ele>
        <time>2026-07-05T09:14:40.000Z</time>
      </trkpt>
      <trkpt lat="42.97856" lon="1.13621">
        <ele>495</ele>
        <time>2026-07-05T09:14:45.000Z</time>
      </trkpt>
      <trkpt lat="42.9784" lon="1.13609">
        <ele>497</ele>
        <time>2026-07-05T09:14:50.000Z</time>
      </trkpt>
      <trkpt lat="42.97826" lon="1.13594">
        <ele>499</ele>
        <time>2026-07-05T09:14:55.000Z</time>
      </trkpt>
      <trkpt lat="42.97811" lon="1.13583">
        <ele>500</ele>
        <time>2026-07-05T09:15:00.000Z</time>
      </trkpt>
      <trkpt lat="42.97792" lon="1.13576">
        <ele>501</ele>
        <time>2026-07-05T09:15:05.000Z</time>
      </trkpt>
      <trkpt lat="42.9777" lon="1.13572">
        <ele>501</ele>
        <time>2026-07-05T09:15:10.000Z</time>
      </trkpt>
      <trkpt lat="42.97747" lon="1.13562">
        <ele>502</ele>
        <time>2026-07-05T09:15:15.000Z</time>
      </trkpt>
      <trkpt lat="42.97733" lon="1.13538">
        <ele>505</ele>
        <time>2026-07-05T09:15:20.000Z</time>
      </trkpt>
      <trkpt lat="42.9773" lon="1.13503">
        <ele>506</ele>
        <time>2026-07-05T09:15:25.000Z</time>
      </trkpt>
      <trkpt lat="42.97743" lon="1.1347">
        <ele>505</ele>
        <time>2026-07-05T09:15:30.000Z</time>
      </trkpt>
      <trkpt lat="42.97767" lon="1.13448">
        <ele>504</ele>
        <time>2026-07-05T09:15:35.000Z</time>
      </trkpt>
      <trkpt lat="42.97801" lon="1.13436">
        <ele>500</ele>
        <time>2026-07-05T09:15:40.000Z</time>
      </trkpt>
      <trkpt lat="42.97826" lon="1.13396">
        <ele>496</ele>
        <time>2026-07-05T09:15:45.000Z</time>
      </trkpt>
      <trkpt lat="42.97845" lon="1.13373">
        <ele>493</ele>
        <time>2026-07-05T09:15:50.000Z</time>
      </trkpt>
      <trkpt lat="42.97874" lon="1.13366">
        <ele>489</ele>
        <time>2026-07-05T09:15:55.000Z</time>
      </trkpt>
      <trkpt lat="42.9791" lon="1.13366">
        <ele>485</ele>
        <time>2026-07-05T09:16:00.000Z</time>
      </trkpt>
      <trkpt lat="42.9794" lon="1.13374">
        <ele>480</ele>
        <time>2026-07-05T09:16:05.000Z</time>
      </trkpt>
      <trkpt lat="42.97972" lon="1.13383">
        <ele>476</ele>
        <time>2026-07-05T09:16:10.000Z</time>
      </trkpt>
      <trkpt lat="42.98003" lon="1.13389">
        <ele>469</ele>
        <time>2026-07-05T09:16:15.000Z</time>
      </trkpt>
      <trkpt lat="42.98023" lon="1.13406">
        <ele>469</ele>
        <time>2026-07-05T09:16:20.000Z</time>
      </trkpt>
      <trkpt lat="42.98042" lon="1.13386">
        <ele>466</ele>
        <time>2026-07-05T09:16:25.000Z</time>
      </trkpt>
      <trkpt lat="42.98061" lon="1.13354">
        <ele>459</ele>
        <time>2026-07-05T09:16:30.000Z</time>
      </trkpt>
      <trkpt lat="42.98071" lon="1.13309">
        <ele>453</ele>
        <time>2026-07-05T09:16:35.000Z</time>
      </trkpt>
      <trkpt lat="42.98094" lon="1.13312">
        <ele>457</ele>
        <time>2026-07-05T09:16:40.000Z</time>
      </trkpt>
      <trkpt lat="42.98123" lon="1.13328">
        <ele>458</ele>
        <time>2026-07-05T09:16:45.000Z</time>
      </trkpt>
      <trkpt lat="42.98153" lon="1.1335">
        <ele>455</ele>
        <time>2026-07-05T09:16:50.000Z</time>
      </trkpt>
      <trkpt lat="42.98181" lon="1.13369">
        <ele>453</ele>
        <time>2026-07-05T09:16:55.000Z</time>
      </trkpt>
      <trkpt lat="42.98209" lon="1.1339">
        <ele>449</ele>
        <time>2026-07-05T09:17:00.000Z</time>
      </trkpt>
      <trkpt lat="42.98227" lon="1.13366">
        <ele>446</ele>
        <time>2026-07-05T09:17:05.000Z</time>
      </trkpt>
      <trkpt lat="42.98243" lon="1.13329">
        <ele>446</ele>
        <time>2026-07-05T09:17:10.000Z</time>
      </trkpt>
      <trkpt lat="42.9826" lon="1.13304">
        <ele>444</ele>
        <time>2026-07-05T09:17:15.000Z</time>
      </trkpt>
      <trkpt lat="42.98275" lon="1.13282">
        <ele>446</ele>
        <time>2026-07-05T09:17:20.000Z</time>
      </trkpt>
      <trkpt lat="42.98283" lon="1.13276">
        <ele>446</ele>
        <time>2026-07-05T09:17:25.000Z</time>
      </trkpt>
      <trkpt lat="42.98284" lon="1.13274">
        <ele>445</ele>
        <time>2026-07-05T09:17:30.000Z</time>
      </trkpt>
      <trkpt lat="42.98284" lon="1.13272">
        <ele>446</ele>
        <time>2026-07-05T09:17:35.000Z</time>
      </trkpt>
      <trkpt lat="42.98277" lon="1.1326">
        <ele>446</ele>
        <time>2026-07-05T09:17:40.000Z</time>
      </trkpt>
      <trkpt lat="42.98286" lon="1.1323">
        <ele>448</ele>
        <time>2026-07-05T09:17:45.000Z</time>
      </trkpt>
      <trkpt lat="42.98298" lon="1.13204">
        <ele>449</ele>
        <time>2026-07-05T09:17:50.000Z</time>
      </trkpt>
      <trkpt lat="42.9831" lon="1.13182">
        <ele>450</ele>
        <time>2026-07-05T09:17:55.000Z</time>
      </trkpt>
      <trkpt lat="42.9832" lon="1.13164">
        <ele>452</ele>
        <time>2026-07-05T09:18:00.000Z</time>
      </trkpt>
      <trkpt lat="42.98329" lon="1.13149">
        <ele>455</ele>
        <time>2026-07-05T09:18:05.000Z</time>
      </trkpt>
      <trkpt lat="42.98335" lon="1.13131">
        <ele>457</ele>
        <time>2026-07-05T09:18:10.000Z</time>
      </trkpt>
      <trkpt lat="42.98343" lon="1.13115">
        <ele>459</ele>
        <time>2026-07-05T09:18:15.000Z</time>
      </trkpt>
      <trkpt lat="42.98348" lon="1.13099">
        <ele>461</ele>
        <time>2026-07-05T09:18:20.000Z</time>
      </trkpt>
      <trkpt lat="42.98356" lon="1.13083">
        <ele>462</ele>
        <time>2026-07-05T09:18:25.000Z</time>
      </trkpt>
      <trkpt lat="42.98367" lon="1.13069">
        <ele>463</ele>
        <time>2026-07-05T09:18:30.000Z</time>
      </trkpt>
      <trkpt lat="42.98377" lon="1.1305">
        <ele>464</ele>
        <time>2026-07-05T09:18:35.000Z</time>
      </trkpt>
      <trkpt lat="42.98388" lon="1.13031">
        <ele>466</ele>
        <time>2026-07-05T09:18:40.000Z</time>
      </trkpt>
      <trkpt lat="42.98399" lon="1.13013">
        <ele>468</ele>
        <time>2026-07-05T09:18:45.000Z</time>
      </trkpt>
      <trkpt lat="42.98413" lon="1.12993">
        <ele>469</ele>
        <time>2026-07-05T09:18:50.000Z</time>
      </trkpt>
      <trkpt lat="42.98425" lon="1.12973">
        <ele>471</ele>
        <time>2026-07-05T09:18:55.000Z</time>
      </trkpt>
      <trkpt lat="42.9844" lon="1.12976">
        <ele>471</ele>
        <time>2026-07-05T09:19:00.000Z</time>
      </trkpt>
      <trkpt lat="42.98456" lon="1.12994">
        <ele>471</ele>
        <time>2026-07-05T09:19:05.000Z</time>
      </trkpt>
      <trkpt lat="42.98477" lon="1.13014">
        <ele>471</ele>
        <time>2026-07-05T09:19:10.000Z</time>
      </trkpt>
      <trkpt lat="42.98499" lon="1.13036">
        <ele>472</ele>
        <time>2026-07-05T09:19:15.000Z</time>
      </trkpt>
      <trkpt lat="42.98521" lon="1.13057">
        <ele>472</ele>
        <time>2026-07-05T09:19:20.000Z</time>
      </trkpt>
      <trkpt lat="42.98547" lon="1.13077">
        <ele>472</ele>
        <time>2026-07-05T09:19:25.000Z</time>
      </trkpt>
      <trkpt lat="42.98573" lon="1.13103">
        <ele>472</ele>
        <time>2026-07-05T09:19:30.000Z</time>
      </trkpt>
      <trkpt lat="42.986" lon="1.13123">
        <ele>472</ele>
        <time>2026-07-05T09:19:35.000Z</time>
      </trkpt>
      <trkpt lat="42.98628" lon="1.13141">
        <ele>472</ele>
        <time>2026-07-05T09:19:40.000Z</time>
      </trkpt>
      <trkpt lat="42.98654" lon="1.13165">
        <ele>471</ele>
        <time>2026-07-05T09:19:45.000Z</time>
      </trkpt>
      <trkpt lat="42.9868" lon="1.1319">
        <ele>471</ele>
        <time>2026-07-05T09:19:50.000Z</time>
      </trkpt>
      <trkpt lat="42.9871" lon="1.13207">
        <ele>471</ele>
        <time>2026-07-05T09:19:55.000Z</time>
      </trkpt>
      <trkpt lat="42.9874" lon="1.13222">
        <ele>470</ele>
        <time>2026-07-05T09:20:00.000Z</time>
      </trkpt>
      <trkpt lat="42.9877" lon="1.13239">
        <ele>469</ele>
        <time>2026-07-05T09:20:05.000Z</time>
      </trkpt>
      <trkpt lat="42.98799" lon="1.13262">
        <ele>469</ele>
        <time>2026-07-05T09:20:10.000Z</time>
      </trkpt>
      <trkpt lat="42.98827" lon="1.13285">
        <ele>469</ele>
        <time>2026-07-05T09:20:15.000Z</time>
      </trkpt>
      <trkpt lat="42.98855" lon="1.13308">
        <ele>467</ele>
        <time>2026-07-05T09:20:20.000Z</time>
      </trkpt>
      <trkpt lat="42.98885" lon="1.13333">
        <ele>465</ele>
        <time>2026-07-05T09:20:25.000Z</time>
      </trkpt>
      <trkpt lat="42.98918" lon="1.13353">
        <ele>466</ele>
        <time>2026-07-05T09:20:30.000Z</time>
      </trkpt>
      <trkpt lat="42.98951" lon="1.13363">
        <ele>464</ele>
        <time>2026-07-05T09:20:35.000Z</time>
      </trkpt>
      <trkpt lat="42.98983" lon="1.13368">
        <ele>464</ele>
        <time>2026-07-05T09:20:40.000Z</time>
      </trkpt>
      <trkpt lat="42.99014" lon="1.13371">
        <ele>463</ele>
        <time>2026-07-05T09:20:45.000Z</time>
      </trkpt>
      <trkpt lat="42.99054" lon="1.13367">
        <ele>462</ele>
        <time>2026-07-05T09:20:50.000Z</time>
      </trkpt>
      <trkpt lat="42.99095" lon="1.1336">
        <ele>460</ele>
        <time>2026-07-05T09:20:55.000Z</time>
      </trkpt>
      <trkpt lat="42.99134" lon="1.13353">
        <ele>458</ele>
        <time>2026-07-05T09:21:00.000Z</time>
      </trkpt>
      <trkpt lat="42.99171" lon="1.13361">
        <ele>456</ele>
        <time>2026-07-05T09:21:05.000Z</time>
      </trkpt>
      <trkpt lat="42.99202" lon="1.13376">
        <ele>457</ele>
        <time>2026-07-05T09:21:10.000Z</time>
      </trkpt>
      <trkpt lat="42.99229" lon="1.1339">
        <ele>457</ele>
        <time>2026-07-05T09:21:15.000Z</time>
      </trkpt>
      <trkpt lat="42.99257" lon="1.134">
        <ele>458</ele>
        <time>2026-07-05T09:21:20.000Z</time>
      </trkpt>
      <trkpt lat="42.99286" lon="1.13404">
        <ele>457</ele>
        <time>2026-07-05T09:21:25.000Z</time>
      </trkpt>
      <trkpt lat="42.99317" lon="1.13411">
        <ele>457</ele>
        <time>2026-07-05T09:21:30.000Z</time>
      </trkpt>
      <trkpt lat="42.99341" lon="1.13429">
        <ele>456</ele>
        <time>2026-07-05T09:21:35.000Z</time>
      </trkpt>
      <trkpt lat="42.99362" lon="1.13451">
        <ele>458</ele>
        <time>2026-07-05T09:21:40.000Z</time>
      </trkpt>
      <trkpt lat="42.99387" lon="1.13473">
        <ele>459</ele>
        <time>2026-07-05T09:21:45.000Z</time>
      </trkpt>
      <trkpt lat="42.99415" lon="1.13476">
        <ele>460</ele>
        <time>2026-07-05T09:21:50.000Z</time>
      </trkpt>
      <trkpt lat="42.99443" lon="1.13478">
        <ele>461</ele>
        <time>2026-07-05T09:21:55.000Z</time>
      </trkpt>
      <trkpt lat="42.99473" lon="1.1348">
        <ele>459</ele>
        <time>2026-07-05T09:22:00.000Z</time>
      </trkpt>
      <trkpt lat="42.99502" lon="1.13468">
        <ele>458</ele>
        <time>2026-07-05T09:22:05.000Z</time>
      </trkpt>
      <trkpt lat="42.99528" lon="1.13452">
        <ele>459</ele>
        <time>2026-07-05T09:22:10.000Z</time>
      </trkpt>
      <trkpt lat="42.99557" lon="1.13446">
        <ele>458</ele>
        <time>2026-07-05T09:22:15.000Z</time>
      </trkpt>
      <trkpt lat="42.99591" lon="1.13439">
        <ele>458</ele>
        <time>2026-07-05T09:22:20.000Z</time>
      </trkpt>
      <trkpt lat="42.99631" lon="1.13428">
        <ele>458</ele>
        <time>2026-07-05T09:22:25.000Z</time>
      </trkpt>
      <trkpt lat="42.99667" lon="1.13409">
        <ele>456</ele>
        <time>2026-07-05T09:22:30.000Z</time>
      </trkpt>
      <trkpt lat="42.99703" lon="1.13423">
        <ele>457</ele>
        <time>2026-07-05T09:22:35.000Z</time>
      </trkpt>
      <trkpt lat="42.99738" lon="1.13448">
        <ele>456</ele>
        <time>2026-07-05T09:22:40.000Z</time>
      </trkpt>
      <trkpt lat="42.99773" lon="1.13446">
        <ele>454</ele>
        <time>2026-07-05T09:22:45.000Z</time>
      </trkpt>
      <trkpt lat="42.99814" lon="1.13455">
        <ele>450</ele>
        <time>2026-07-05T09:22:50.000Z</time>
      </trkpt>
      <trkpt lat="42.99857" lon="1.1347">
        <ele>441</ele>
        <time>2026-07-05T09:22:55.000Z</time>
      </trkpt>
      <trkpt lat="42.99877" lon="1.13473">
        <ele>437</ele>
        <time>2026-07-05T09:23:00.000Z</time>
      </trkpt>
      <trkpt lat="42.99896" lon="1.13472">
        <ele>436</ele>
        <time>2026-07-05T09:23:05.000Z</time>
      </trkpt>
      <trkpt lat="42.99909" lon="1.13473">
        <ele>436</ele>
        <time>2026-07-05T09:23:10.000Z</time>
      </trkpt>
      <trkpt lat="42.99894" lon="1.13479">
        <ele>434</ele>
        <time>2026-07-05T09:23:15.000Z</time>
      </trkpt>
      <trkpt lat="42.99866" lon="1.13489">
        <ele>434</ele>
        <time>2026-07-05T09:23:20.000Z</time>
      </trkpt>
      <trkpt lat="42.99836" lon="1.135">
        <ele>433</ele>
        <time>2026-07-05T09:23:25.000Z</time>
      </trkpt>
      <trkpt lat="42.99808" lon="1.13515">
        <ele>433</ele>
        <time>2026-07-05T09:23:30.000Z</time>
      </trkpt>
      <trkpt lat="42.99778" lon="1.13529">
        <ele>433</ele>
        <time>2026-07-05T09:23:35.000Z</time>
      </trkpt>
      <trkpt lat="42.9975" lon="1.13544">
        <ele>434</ele>
        <time>2026-07-05T09:23:40.000Z</time>
      </trkpt>
      <trkpt lat="42.99722" lon="1.1356">
        <ele>434</ele>
        <time>2026-07-05T09:23:45.000Z</time>
      </trkpt>
      <trkpt lat="42.99694" lon="1.13573">
        <ele>434</ele>
        <time>2026-07-05T09:23:50.000Z</time>
      </trkpt>
      <trkpt lat="42.99665" lon="1.13586">
        <ele>434</ele>
        <time>2026-07-05T09:23:55.000Z</time>
      </trkpt>
      <trkpt lat="42.99637" lon="1.13596">
        <ele>434</ele>
        <time>2026-07-05T09:24:00.000Z</time>
      </trkpt>
      <trkpt lat="42.99611" lon="1.13606">
        <ele>436</ele>
        <time>2026-07-05T09:24:05.000Z</time>
      </trkpt>
      <trkpt lat="42.99583" lon="1.13616">
        <ele>436</ele>
        <time>2026-07-05T09:24:10.000Z</time>
      </trkpt>
      <trkpt lat="42.99553" lon="1.13622">
        <ele>436</ele>
        <time>2026-07-05T09:24:15.000Z</time>
      </trkpt>
      <trkpt lat="42.99523" lon="1.13629">
        <ele>437</ele>
        <time>2026-07-05T09:24:20.000Z</time>
      </trkpt>
      <trkpt lat="42.99494" lon="1.13637">
        <ele>437</ele>
        <time>2026-07-05T09:24:25.000Z</time>
      </trkpt>
      <trkpt lat="42.99467" lon="1.13646">
        <ele>436</ele>
        <time>2026-07-05T09:24:30.000Z</time>
      </trkpt>
      <trkpt lat="42.99439" lon="1.13656">
        <ele>437</ele>
        <time>2026-07-05T09:24:35.000Z</time>
      </trkpt>
      <trkpt lat="42.99409" lon="1.13664">
        <ele>436</ele>
        <time>2026-07-05T09:24:40.000Z</time>
      </trkpt>
      <trkpt lat="42.9938" lon="1.13672">
        <ele>436</ele>
        <time>2026-07-05T09:24:45.000Z</time>
      </trkpt>
      <trkpt lat="42.99352" lon="1.13682">
        <ele>436</ele>
        <time>2026-07-05T09:24:50.000Z</time>
      </trkpt>
      <trkpt lat="42.99324" lon="1.13694">
        <ele>436</ele>
        <time>2026-07-05T09:24:55.000Z</time>
      </trkpt>
      <trkpt lat="42.99294" lon="1.13704">
        <ele>436</ele>
        <time>2026-07-05T09:25:00.000Z</time>
      </trkpt>
      <trkpt lat="42.99266" lon="1.13716">
        <ele>437</ele>
        <time>2026-07-05T09:25:05.000Z</time>
      </trkpt>
      <trkpt lat="42.99237" lon="1.13727">
        <ele>438</ele>
        <time>2026-07-05T09:25:10.000Z</time>
      </trkpt>
      <trkpt lat="42.99209" lon="1.13738">
        <ele>438</ele>
        <time>2026-07-05T09:25:15.000Z</time>
      </trkpt>
      <trkpt lat="42.9918" lon="1.13751">
        <ele>438</ele>
        <time>2026-07-05T09:25:20.000Z</time>
      </trkpt>
      <trkpt lat="42.99153" lon="1.13773">
        <ele>438</ele>
        <time>2026-07-05T09:25:25.000Z</time>
      </trkpt>
      <trkpt lat="42.99123" lon="1.13783">
        <ele>437</ele>
        <time>2026-07-05T09:25:30.000Z</time>
      </trkpt>
      <trkpt lat="42.99093" lon="1.13788">
        <ele>437</ele>
        <time>2026-07-05T09:25:35.000Z</time>
      </trkpt>
      <trkpt lat="42.99062" lon="1.13791">
        <ele>437</ele>
        <time>2026-07-05T09:25:40.000Z</time>
      </trkpt>
      <trkpt lat="42.99033" lon="1.13796">
        <ele>438</ele>
        <time>2026-07-05T09:25:45.000Z</time>
      </trkpt>
      <trkpt lat="42.99004" lon="1.13802">
        <ele>439</ele>
        <time>2026-07-05T09:25:50.000Z</time>
      </trkpt>
      <trkpt lat="42.98975" lon="1.13809">
        <ele>439</ele>
        <time>2026-07-05T09:25:55.000Z</time>
      </trkpt>
      <trkpt lat="42.98945" lon="1.13816">
        <ele>439</ele>
        <time>2026-07-05T09:26:00.000Z</time>
      </trkpt>
      <trkpt lat="42.98916" lon="1.13823">
        <ele>440</ele>
        <time>2026-07-05T09:26:05.000Z</time>
      </trkpt>
      <trkpt lat="42.98887" lon="1.13831">
        <ele>440</ele>
        <time>2026-07-05T09:26:10.000Z</time>
      </trkpt>
      <trkpt lat="42.9886" lon="1.13844">
        <ele>439</ele>
        <time>2026-07-05T09:26:15.000Z</time>
      </trkpt>
      <trkpt lat="42.98847" lon="1.13854">
        <ele>440</ele>
        <time>2026-07-05T09:26:20.000Z</time>
      </trkpt>
      <trkpt lat="42.98847" lon="1.13879">
        <ele>439</ele>
        <time>2026-07-05T09:26:25.000Z</time>
      </trkpt>
      <trkpt lat="42.98851" lon="1.1391">
        <ele>440</ele>
        <time>2026-07-05T09:26:30.000Z</time>
      </trkpt>
      <trkpt lat="42.98838" lon="1.13918">
        <ele>443</ele>
        <time>2026-07-05T09:26:35.000Z</time>
      </trkpt>
      <trkpt lat="42.98835" lon="1.13914">
        <ele>442</ele>
        <time>2026-07-05T09:26:40.000Z</time>
      </trkpt>
      <trkpt lat="42.98833" lon="1.13915">
        <ele>441</ele>
        <time>2026-07-05T09:26:45.000Z</time>
      </trkpt>
      <trkpt lat="42.98833" lon="1.13913">
        <ele>440</ele>
        <time>2026-07-05T09:26:50.000Z</time>
      </trkpt>
      <trkpt lat="42.98833" lon="1.13915">
        <ele>439</ele>
        <time>2026-07-05T09:27:16.000Z</time>
      </trkpt>
      <trkpt lat="42.98833" lon="1.1391">
        <ele>438</ele>
        <time>2026-07-05T09:27:34.000Z</time>
      </trkpt>
    </trkseg>
  </trk>
</gpx>